<?xml version='1.0' encoding='UTF-8'?><gpx version="1.1" creator="JPX - https://github.com/jenetics/jpx" xmlns="http://www.topografix.com/GPX/1/1"><trk><trkseg><trkpt lat="40.5978007044175" lon="15.692898707618877"><ele>841.0</ele><time>2026-04-08T07:24:31.999Z</time></trkpt><trkpt lat="40.59771006219504" lon="15.692747245656328"><ele>841.0</ele><time>2026-04-08T07:24:53.999Z</time></trkpt><trkpt lat="40.597761599443174" lon="15.69281527756183"><ele>841.0</ele><time>2026-04-08T07:24:54.999Z</time></trkpt><trkpt lat="40.59780589440834" lon="15.692903225459958"><ele>841.0</ele><time>2026-04-08T07:24:57.999Z</time></trkpt><trkpt lat="40.59773862053805" lon="15.692920219243739"><ele>841.0</ele><time>2026-04-08T07:25:33.999Z</time></trkpt><trkpt lat="40.59762244401252" lon="15.692961959296264"><ele>841.0</ele><time>2026-04-08T07:25:50.999Z</time></trkpt><trkpt lat="40.597608046359326" lon="15.693043739748726"><ele>841.0</ele><time>2026-04-08T07:25:51.999Z</time></trkpt><trkpt lat="40.59759600459233" lon="15.693140740026454"><ele>841.0</ele><time>2026-04-08T07:25:52.999Z</time></trkpt><trkpt lat="40.59759261475701" lon="15.693247302664462"><ele>841.0</ele><time>2026-04-08T07:25:53.999Z</time></trkpt><trkpt lat="40.59758411873553" lon="15.693398807939415"><ele>841.0</ele><time>2026-04-08T07:25:54.999Z</time></trkpt><trkpt lat="40.597572777820055" lon="15.69358435661435"><ele>841.75</ele><time>2026-04-08T07:25:55.999Z</time></trkpt><trkpt lat="40.597558852721704" lon="15.693701958801828"><ele>842.5</ele><time>2026-04-08T07:25:57.999Z</time></trkpt><trkpt lat="40.59773007707854" lon="15.693715544765556"><ele>843.25</ele><time>2026-04-08T07:26:00.999Z</time></trkpt><trkpt lat="40.59780483507628" lon="15.693671433502388"><ele>844.0</ele><time>2026-04-08T07:26:01.999Z</time></trkpt><trkpt lat="40.597912712560195" lon="15.693593446237731"><ele>841.0</ele><time>2026-04-08T07:26:02.999Z</time></trkpt><trkpt lat="40.59804734991981" lon="15.693538450303391"><ele>838.0</ele><time>2026-04-08T07:26:03.999Z</time></trkpt><trkpt lat="40.59818583777636" lon="15.693467055275205"><ele>835.0</ele><time>2026-04-08T07:26:04.999Z</time></trkpt><trkpt lat="40.598335516962706" lon="15.693376143095621"><ele>835.0</ele><time>2026-04-08T07:26:05.999Z</time></trkpt><trkpt lat="40.598506138343346" lon="15.693302668789787"><ele>835.0</ele><time>2026-04-08T07:26:06.999Z</time></trkpt><trkpt lat="40.59867474038618" lon="15.693220360660014"><ele>835.0</ele><time>2026-04-08T07:26:07.999Z</time></trkpt><trkpt lat="40.59884689197149" lon="15.693127546734365"><ele>833.6666666666666</ele><time>2026-04-08T07:26:08.999Z</time></trkpt><trkpt lat="40.59901168051245" lon="15.693028797345793"><ele>832.3333333333333</ele><time>2026-04-08T07:26:09.999Z</time></trkpt><trkpt lat="40.599159128167024" lon="15.69294015553173"><ele>831.0</ele><time>2026-04-08T07:26:10.999Z</time></trkpt><trkpt lat="40.59928268408565" lon="15.692852963096657"><ele>831.0</ele><time>2026-04-08T07:26:11.999Z</time></trkpt><trkpt lat="40.599398090390935" lon="15.6927677321417"><ele>831.0</ele><time>2026-04-08T07:26:12.999Z</time></trkpt><trkpt lat="40.599507262068705" lon="15.692676820122896"><ele>831.0</ele><time>2026-04-08T07:26:13.999Z</time></trkpt><trkpt lat="40.59959793591798" lon="15.692606860458238"><ele>831.0</ele><time>2026-04-08T07:26:14.999Z</time></trkpt><trkpt lat="40.59964822933522" lon="15.692535918662418"><ele>831.0</ele><time>2026-04-08T07:26:15.999Z</time></trkpt><trkpt lat="40.59965101563047" lon="15.692431049751777"><ele>830.75</ele><time>2026-04-08T07:26:16.999Z</time></trkpt><trkpt lat="40.59961983444293" lon="15.692284978800428"><ele>830.5</ele><time>2026-04-08T07:26:17.999Z</time></trkpt><trkpt lat="40.59955904927086" lon="15.69213268959427"><ele>830.25</ele><time>2026-04-08T07:26:18.999Z</time></trkpt><trkpt lat="40.59947666353513" lon="15.691976864878574"><ele>830.0</ele><time>2026-04-08T07:26:19.999Z</time></trkpt><trkpt lat="40.59940213358383" lon="15.691802346363783"><ele>829.2</ele><time>2026-04-08T07:26:20.999Z</time></trkpt><trkpt lat="40.59935186732123" lon="15.691656393971936"><ele>828.4</ele><time>2026-04-08T07:26:21.999Z</time></trkpt><trkpt lat="40.599346072356866" lon="15.691515032305906"><ele>827.5999999999999</ele><time>2026-04-08T07:26:22.999Z</time></trkpt><trkpt lat="40.59932928663614" lon="15.691382853389817"><ele>826.8</ele><time>2026-04-08T07:26:23.999Z</time></trkpt><trkpt lat="40.599318932133414" lon="15.691276189628805"><ele>826.0</ele><time>2026-04-08T07:26:24.999Z</time></trkpt><trkpt lat="40.59934412491326" lon="15.691117761535278"><ele>824.5999999999999</ele><time>2026-04-08T07:26:26.999Z</time></trkpt><trkpt lat="40.59935877511846" lon="15.691019463412193"><ele>823.2</ele><time>2026-04-08T07:26:27.999Z</time></trkpt><trkpt lat="40.599297960045625" lon="15.690878203715041"><ele>821.8</ele><time>2026-04-08T07:26:28.999Z</time></trkpt><trkpt lat="40.59923371988825" lon="15.690741790362566"><ele>820.4000000000001</ele><time>2026-04-08T07:26:29.999Z</time></trkpt><trkpt lat="40.59922715941662" lon="15.69060049873209"><ele>819.0</ele><time>2026-04-08T07:26:30.999Z</time></trkpt><trkpt lat="40.599233614037416" lon="15.690503853518821"><ele>819.0</ele><time>2026-04-08T07:26:31.999Z</time></trkpt><trkpt lat="40.599278587633094" lon="15.690425544847592"><ele>819.0</ele><time>2026-04-08T07:26:32.999Z</time></trkpt><trkpt lat="40.59935863846486" lon="15.690399699045816"><ele>819.0</ele><time>2026-04-08T07:26:33.999Z</time></trkpt><trkpt lat="40.59945046362737" lon="15.690380914305493"><ele>819.0</ele><time>2026-04-08T07:26:34.999Z</time></trkpt><trkpt lat="40.59955926325201" lon="15.690420642803746"><ele>819.0</ele><time>2026-04-08T07:26:35.999Z</time></trkpt><trkpt lat="40.59968152613696" lon="15.690443812880035"><ele>820.6666666666667</ele><time>2026-04-08T07:26:36.999Z</time></trkpt><trkpt lat="40.599825031133925" lon="15.690461324216988"><ele>822.3333333333334</ele><time>2026-04-08T07:26:37.999Z</time></trkpt><trkpt lat="40.59997295174139" lon="15.690472018984883"><ele>824.0</ele><time>2026-04-08T07:26:38.999Z</time></trkpt><trkpt lat="40.60013623222377" lon="15.690488674985323"><ele>824.0</ele><time>2026-04-08T07:26:39.999Z</time></trkpt><trkpt lat="40.600314874300174" lon="15.69050807341984"><ele>824.0</ele><time>2026-04-08T07:26:40.999Z</time></trkpt><trkpt lat="40.600498269203264" lon="15.690530029474203"><ele>824.0</ele><time>2026-04-08T07:26:41.999Z</time></trkpt><trkpt lat="40.600696167948286" lon="15.690555764903278"><ele>822.6666666666667</ele><time>2026-04-08T07:26:42.999Z</time></trkpt><trkpt lat="40.600905104514986" lon="15.69058448385862"><ele>821.3333333333333</ele><time>2026-04-08T07:26:43.999Z</time></trkpt><trkpt lat="40.601124135066975" lon="15.690612706009846"><ele>820.0</ele><time>2026-04-08T07:26:44.999Z</time></trkpt><trkpt lat="40.60134298534697" lon="15.690635857446187"><ele>819.3333333333333</ele><time>2026-04-08T07:26:45.999Z</time></trkpt><trkpt lat="40.60156391065134" lon="15.690652175247166"><ele>818.6666666666667</ele><time>2026-04-08T07:26:46.999Z</time></trkpt><trkpt lat="40.60178200543785" lon="15.690673991281272"><ele>818.0</ele><time>2026-04-08T07:26:47.999Z</time></trkpt><trkpt lat="40.602000682534424" lon="15.690696861625954"><ele>819.6666666666667</ele><time>2026-04-08T07:26:48.999Z</time></trkpt><trkpt lat="40.60222782075614" lon="15.690725987812561"><ele>821.3333333333333</ele><time>2026-04-08T07:26:49.999Z</time></trkpt><trkpt lat="40.60244651940803" lon="15.690744675581694"><ele>823.0</ele><time>2026-04-08T07:26:50.999Z</time></trkpt><trkpt lat="40.60266739003727" lon="15.690763803717783"><ele>824.0</ele><time>2026-04-08T07:26:51.999Z</time></trkpt><trkpt lat="40.602886645548736" lon="15.69078691155008"><ele>825.0</ele><time>2026-04-08T07:26:52.999Z</time></trkpt><trkpt lat="40.60310504422476" lon="15.690813147727456"><ele>826.0</ele><time>2026-04-08T07:26:53.999Z</time></trkpt><trkpt lat="40.603324990852" lon="15.690837763935342"><ele>826.0</ele><time>2026-04-08T07:26:54.999Z</time></trkpt><trkpt lat="40.60354599913902" lon="15.690859162734565"><ele>826.0</ele><time>2026-04-08T07:26:55.999Z</time></trkpt><trkpt lat="40.603766121975575" lon="15.69087393759107"><ele>826.0</ele><time>2026-04-08T07:26:56.999Z</time></trkpt><trkpt lat="40.60398609943896" lon="15.690890200540972"><ele>825.6666666666666</ele><time>2026-04-08T07:26:57.999Z</time></trkpt><trkpt lat="40.6042068585791" lon="15.690906510303616"><ele>825.3333333333333</ele><time>2026-04-08T07:26:58.999Z</time></trkpt><trkpt lat="40.604427578614896" lon="15.690915614128507"><ele>825.0</ele><time>2026-04-08T07:26:59.999Z</time></trkpt><trkpt lat="40.6046494982992" lon="15.690917873823091"><ele>824.3333333333333</ele><time>2026-04-08T07:27:00.999Z</time></trkpt><trkpt lat="40.604872339304634" lon="15.690916112465237"><ele>823.6666666666666</ele><time>2026-04-08T07:27:01.999Z</time></trkpt><trkpt lat="40.60509465011025" lon="15.690908374045259"><ele>823.0</ele><time>2026-04-08T07:27:02.999Z</time></trkpt><trkpt lat="40.60531539674545" lon="15.690891714262213"><ele>822.6666666666666</ele><time>2026-04-08T07:27:03.999Z</time></trkpt><trkpt lat="40.60553679833308" lon="15.690862446906639"><ele>822.3333333333333</ele><time>2026-04-08T07:27:04.999Z</time></trkpt><trkpt lat="40.60575764402896" lon="15.690832173838237"><ele>822.0</ele><time>2026-04-08T07:27:05.999Z</time></trkpt><trkpt lat="40.605975047570844" lon="15.690785768918518"><ele>821.3333333333333</ele><time>2026-04-08T07:27:06.999Z</time></trkpt><trkpt lat="40.60619285081132" lon="15.690741183851767"><ele>820.6666666666666</ele><time>2026-04-08T07:27:07.999Z</time></trkpt><trkpt lat="40.60641211267734" lon="15.690704530426817"><ele>820.0</ele><time>2026-04-08T07:27:08.999Z</time></trkpt><trkpt lat="40.60663056992913" lon="15.690657603936502"><ele>820.0</ele><time>2026-04-08T07:27:09.999Z</time></trkpt><trkpt lat="40.60682996076995" lon="15.69060181272581"><ele>820.0</ele><time>2026-04-08T07:27:10.999Z</time></trkpt><trkpt lat="40.607005514209455" lon="15.69054598611885"><ele>820.0</ele><time>2026-04-08T07:27:11.999Z</time></trkpt><trkpt lat="40.60716090579397" lon="15.690492085548069"><ele>819.3333333333333</ele><time>2026-04-08T07:27:12.999Z</time></trkpt><trkpt lat="40.60731151806671" lon="15.690435970488101"><ele>818.6666666666667</ele><time>2026-04-08T07:27:13.999Z</time></trkpt><trkpt lat="40.607474244889346" lon="15.69036886016099"><ele>818.0</ele><time>2026-04-08T07:27:14.999Z</time></trkpt><trkpt lat="40.607651898764416" lon="15.690298703995486"><ele>818.0</ele><time>2026-04-08T07:27:15.999Z</time></trkpt><trkpt lat="40.607832747400316" lon="15.690231256034023"><ele>818.0</ele><time>2026-04-08T07:27:16.999Z</time></trkpt><trkpt lat="40.60802131952341" lon="15.690151161867625"><ele>818.0</ele><time>2026-04-08T07:27:17.999Z</time></trkpt><trkpt lat="40.60820547563666" lon="15.690056602527806"><ele>818.0</ele><time>2026-04-08T07:27:18.999Z</time></trkpt><trkpt lat="40.60838899214744" lon="15.689957920038708"><ele>818.0</ele><time>2026-04-08T07:27:19.999Z</time></trkpt><trkpt lat="40.608568287671915" lon="15.689857341180732"><ele>818.0</ele><time>2026-04-08T07:27:20.999Z</time></trkpt><trkpt lat="40.60875688500098" lon="15.689755028522393"><ele>819.6666666666667</ele><time>2026-04-08T07:27:21.999Z</time></trkpt><trkpt lat="40.60894155150512" lon="15.689650387354583"><ele>821.3333333333333</ele><time>2026-04-08T07:27:22.999Z</time></trkpt><trkpt lat="40.60912808631225" lon="15.689543127564507"><ele>823.0</ele><time>2026-04-08T07:27:23.999Z</time></trkpt><trkpt lat="40.60930919623765" lon="15.689430006485702"><ele>824.0</ele><time>2026-04-08T07:27:24.999Z</time></trkpt><trkpt lat="40.60948780480322" lon="15.689308319977492"><ele>825.0</ele><time>2026-04-08T07:27:25.999Z</time></trkpt><trkpt lat="40.60966796639001" lon="15.689182838947621"><ele>826.0</ele><time>2026-04-08T07:27:26.999Z</time></trkpt><trkpt lat="40.60984710313533" lon="15.689051148822095"><ele>826.0</ele><time>2026-04-08T07:27:27.999Z</time></trkpt><trkpt lat="40.61002507009598" lon="15.688917766179681"><ele>826.0</ele><time>2026-04-08T07:27:28.999Z</time></trkpt><trkpt lat="40.610204454413015" lon="15.688785246344159"><ele>826.0</ele><time>2026-04-08T07:27:29.999Z</time></trkpt><trkpt lat="40.610383663626116" lon="15.688657505253737"><ele>828.6666666666666</ele><time>2026-04-08T07:27:30.999Z</time></trkpt><trkpt lat="40.610566327021296" lon="15.688526557805774"><ele>831.3333333333333</ele><time>2026-04-08T07:27:31.999Z</time></trkpt><trkpt lat="40.61074181724696" lon="15.688396850066809"><ele>834.0</ele><time>2026-04-08T07:27:32.999Z</time></trkpt><trkpt lat="40.61090891415446" lon="15.68827613227092"><ele>834.0</ele><time>2026-04-08T07:27:33.999Z</time></trkpt><trkpt lat="40.61105437980822" lon="15.688187823756456"><ele>834.0</ele><time>2026-04-08T07:27:34.999Z</time></trkpt><trkpt lat="40.61117925271552" lon="15.688137140565168"><ele>834.0</ele><time>2026-04-08T07:27:35.999Z</time></trkpt><trkpt lat="40.61127819681001" lon="15.688100243618623"><ele>834.0</ele><time>2026-04-08T07:27:36.999Z</time></trkpt><trkpt lat="40.611349352943186" lon="15.688026658949237"><ele>834.25</ele><time>2026-04-08T07:27:37.999Z</time></trkpt><trkpt lat="40.611412903096834" lon="15.687911570918398"><ele>834.5</ele><time>2026-04-08T07:27:38.999Z</time></trkpt><trkpt lat="40.61150389039888" lon="15.687823144768114"><ele>834.75</ele><time>2026-04-08T07:27:39.999Z</time></trkpt><trkpt lat="40.6116266682144" lon="15.687781402185204"><ele>835.0</ele><time>2026-04-08T07:27:40.999Z</time></trkpt><trkpt lat="40.61175802306364" lon="15.687787232014744"><ele>836.0</ele><time>2026-04-08T07:27:41.999Z</time></trkpt><trkpt lat="40.611886233327105" lon="15.687728947430982"><ele>837.0</ele><time>2026-04-08T07:27:42.999Z</time></trkpt><trkpt lat="40.61202456749411" lon="15.687691905410936"><ele>838.0</ele><time>2026-04-08T07:27:43.999Z</time></trkpt><trkpt lat="40.61216880603319" lon="15.687669431925663"><ele>839.0</ele><time>2026-04-08T07:27:44.999Z</time></trkpt><trkpt lat="40.61230888482071" lon="15.687598566999423"><ele>841.0</ele><time>2026-04-08T07:27:45.999Z</time></trkpt><trkpt lat="40.612423126076756" lon="15.687547677174459"><ele>843.0</ele><time>2026-04-08T07:27:46.999Z</time></trkpt><trkpt lat="40.612484483275615" lon="15.687447585803586"><ele>845.0</ele><time>2026-04-08T07:27:47.999Z</time></trkpt><trkpt lat="40.61265182951854" lon="15.687522303496504"><ele>847.0</ele><time>2026-04-08T07:27:48.999Z</time></trkpt><trkpt lat="40.61277504742807" lon="15.68748903694564"><ele>848.0</ele><time>2026-04-08T07:27:49.999Z</time></trkpt><trkpt lat="40.61290236403494" lon="15.687461312293683"><ele>849.0</ele><time>2026-04-08T07:27:50.999Z</time></trkpt><trkpt lat="40.613029166540485" lon="15.687434165771338"><ele>850.0</ele><time>2026-04-08T07:27:51.999Z</time></trkpt><trkpt lat="40.613152908511374" lon="15.687402726287372"><ele>851.0</ele><time>2026-04-08T07:27:52.999Z</time></trkpt><trkpt lat="40.61328104653367" lon="15.687379938777408"><ele>851.0</ele><time>2026-04-08T07:27:53.999Z</time></trkpt><trkpt lat="40.61341303587667" lon="15.68735957835919"><ele>851.0</ele><time>2026-04-08T07:27:54.999Z</time></trkpt><trkpt lat="40.613559379628136" lon="15.687336994822234"><ele>851.0</ele><time>2026-04-08T07:27:55.999Z</time></trkpt><trkpt lat="40.61370110143348" lon="15.687321415379865"><ele>851.0</ele><time>2026-04-08T07:27:56.999Z</time></trkpt><trkpt lat="40.61384303401924" lon="15.687300318842142"><ele>855.3333333333334</ele><time>2026-04-08T07:27:57.999Z</time></trkpt><trkpt lat="40.614013512438916" lon="15.687252704142324"><ele>859.6666666666667</ele><time>2026-04-08T07:27:58.999Z</time></trkpt><trkpt lat="40.61419237298289" lon="15.687165418819648"><ele>864.0</ele><time>2026-04-08T07:27:59.999Z</time></trkpt><trkpt lat="40.61436589680631" lon="15.687069638578489"><ele>865.75</ele><time>2026-04-08T07:28:00.999Z</time></trkpt><trkpt lat="40.614549615281625" lon="15.687006885495208"><ele>867.5</ele><time>2026-04-08T07:28:01.999Z</time></trkpt><trkpt lat="40.614673814981906" lon="15.68692256138768"><ele>869.25</ele><time>2026-04-08T07:28:02.999Z</time></trkpt><trkpt lat="40.61477616301837" lon="15.68685283734165"><ele>871.0</ele><time>2026-04-08T07:28:03.999Z</time></trkpt><trkpt lat="40.61486215565972" lon="15.686794393518111"><ele>871.0</ele><time>2026-04-08T07:28:04.999Z</time></trkpt><trkpt lat="40.6149537477521" lon="15.686781391836815"><ele>870.9999999999999</ele><time>2026-04-08T07:28:06.999Z</time></trkpt><trkpt lat="40.61498071557856" lon="15.686864206979982"><ele>870.9999999999999</ele><time>2026-04-08T07:28:08.999Z</time></trkpt><trkpt lat="40.61502148600274" lon="15.687007711982027"><ele>871.0</ele><time>2026-04-08T07:28:10.999Z</time></trkpt><trkpt lat="40.615114929150366" lon="15.687074921053448"><ele>871.0</ele><time>2026-04-08T07:28:11.999Z</time></trkpt><trkpt lat="40.615222526291866" lon="15.687136241547243"><ele>874.3333333333333</ele><time>2026-04-08T07:28:12.999Z</time></trkpt><trkpt lat="40.615356765267535" lon="15.687215498222837"><ele>877.6666666666667</ele><time>2026-04-08T07:28:13.999Z</time></trkpt><trkpt lat="40.615502056526154" lon="15.68731543235515"><ele>881.0</ele><time>2026-04-08T07:28:14.999Z</time></trkpt><trkpt lat="40.615653786101966" lon="15.687417130426981"><ele>881.0</ele><time>2026-04-08T07:28:15.999Z</time></trkpt><trkpt lat="40.61581012031606" lon="15.6875108573954"><ele>881.0</ele><time>2026-04-08T07:28:16.999Z</time></trkpt><trkpt lat="40.61597008668848" lon="15.687585753531422"><ele>881.0</ele><time>2026-04-08T07:28:17.999Z</time></trkpt><trkpt lat="40.61613833153543" lon="15.687694133804314"><ele>885.0</ele><time>2026-04-08T07:28:18.999Z</time></trkpt><trkpt lat="40.616323813215914" lon="15.68776201980711"><ele>889.0</ele><time>2026-04-08T07:28:19.999Z</time></trkpt><trkpt lat="40.61651276766281" lon="15.687856805992418"><ele>893.0</ele><time>2026-04-08T07:28:20.999Z</time></trkpt><trkpt lat="40.61669586951678" lon="15.687970114409495"><ele>893.0</ele><time>2026-04-08T07:28:21.999Z</time></trkpt><trkpt lat="40.61687704552838" lon="15.688093048970364"><ele>893.0</ele><time>2026-04-08T07:28:22.999Z</time></trkpt><trkpt lat="40.61705021451002" lon="15.688221003059178"><ele>893.0</ele><time>2026-04-08T07:28:23.999Z</time></trkpt><trkpt lat="40.617225519974916" lon="15.688343614462841"><ele>895.0</ele><time>2026-04-08T07:28:24.999Z</time></trkpt><trkpt lat="40.61738619704978" lon="15.68849169538514"><ele>897.0</ele><time>2026-04-08T07:28:25.999Z</time></trkpt><trkpt lat="40.617549489468225" lon="15.688650596741226"><ele>899.0</ele><time>2026-04-08T07:28:26.999Z</time></trkpt><trkpt lat="40.617705337735515" lon="15.688801480685951"><ele>902.6666666666667</ele><time>2026-04-08T07:28:27.999Z</time></trkpt><trkpt lat="40.617859034672044" lon="15.688948277348002"><ele>906.3333333333333</ele><time>2026-04-08T07:28:28.999Z</time></trkpt><trkpt lat="40.61801373321094" lon="15.689098400791043"><ele>910.0</ele><time>2026-04-08T07:28:29.999Z</time></trkpt><trkpt lat="40.618164192641" lon="15.68924268959286"><ele>910.0</ele><time>2026-04-08T07:28:30.999Z</time></trkpt><trkpt lat="40.61831988834805" lon="15.689396610260133"><ele>910.0</ele><time>2026-04-08T07:28:31.999Z</time></trkpt><trkpt lat="40.61847348139663" lon="15.68954533659013"><ele>910.0</ele><time>2026-04-08T07:28:32.999Z</time></trkpt><trkpt lat="40.61863173971336" lon="15.689700224866609"><ele>916.0</ele><time>2026-04-08T07:28:33.999Z</time></trkpt><trkpt lat="40.618785519166885" lon="15.689846120062338"><ele>922.0</ele><time>2026-04-08T07:28:34.999Z</time></trkpt><trkpt lat="40.61894298463654" lon="15.689989885810471"><ele>928.0</ele><time>2026-04-08T07:28:35.999Z</time></trkpt><trkpt lat="40.61910060808057" lon="15.690146030958685"><ele>929.3333333333333</ele><time>2026-04-08T07:28:36.999Z</time></trkpt><trkpt lat="40.6192344471542" lon="15.69029873889833"><ele>930.6666666666667</ele><time>2026-04-08T07:28:37.999Z</time></trkpt><trkpt lat="40.619361858599795" lon="15.690463876039205"><ele>932.0</ele><time>2026-04-08T07:28:38.999Z</time></trkpt><trkpt lat="40.619474588011215" lon="15.690666874689867"><ele>936.0</ele><time>2026-04-08T07:28:39.999Z</time></trkpt><trkpt lat="40.619566078826985" lon="15.690883171894939"><ele>940.0</ele><time>2026-04-08T07:28:40.999Z</time></trkpt><trkpt lat="40.61965083774797" lon="15.691118710074113"><ele>944.0</ele><time>2026-04-08T07:28:41.999Z</time></trkpt><trkpt lat="40.6197459555663" lon="15.691347274101274"><ele>945.0</ele><time>2026-04-08T07:28:42.999Z</time></trkpt><trkpt lat="40.61982782961966" lon="15.69157930131856"><ele>946.0</ele><time>2026-04-08T07:28:43.999Z</time></trkpt><trkpt lat="40.61987881705023" lon="15.691826911016785"><ele>947.0</ele><time>2026-04-08T07:28:44.999Z</time></trkpt><trkpt lat="40.61996471530536" lon="15.692056551761736"><ele>948.0</ele><time>2026-04-08T07:28:45.999Z</time></trkpt><trkpt lat="40.62002870982996" lon="15.692303898519745"><ele>949.0</ele><time>2026-04-08T07:28:46.999Z</time></trkpt><trkpt lat="40.62010208682285" lon="15.69254497140562"><ele>950.0</ele><time>2026-04-08T07:28:47.999Z</time></trkpt><trkpt lat="40.62018333558448" lon="15.6927898663542"><ele>950.0</ele><time>2026-04-08T07:28:48.999Z</time></trkpt><trkpt lat="40.62026783198231" lon="15.693035495849305"><ele>950.0</ele><time>2026-04-08T07:28:49.999Z</time></trkpt><trkpt lat="40.62034785155278" lon="15.693280287500588"><ele>950.0</ele><time>2026-04-08T07:28:50.999Z</time></trkpt><trkpt lat="40.620405083064306" lon="15.693499569627262"><ele>954.5</ele><time>2026-04-08T07:28:51.999Z</time></trkpt><trkpt lat="40.62045018958272" lon="15.693696761398213"><ele>959.0</ele><time>2026-04-08T07:28:52.999Z</time></trkpt><trkpt lat="40.6204814825077" lon="15.693847507498345"><ele>963.5</ele><time>2026-04-08T07:28:53.999Z</time></trkpt><trkpt lat="40.620530162664004" lon="15.693970579931952"><ele>968.0</ele><time>2026-04-08T07:28:54.999Z</time></trkpt><trkpt lat="40.62059770877064" lon="15.694080371946482"><ele>968.0</ele><time>2026-04-08T07:28:55.999Z</time></trkpt><trkpt lat="40.62069730437952" lon="15.694137554882754"><ele>968.0</ele><time>2026-04-08T07:28:56.999Z</time></trkpt><trkpt lat="40.620811527421694" lon="15.694158037434299"><ele>968.0</ele><time>2026-04-08T07:28:57.999Z</time></trkpt><trkpt lat="40.62092839292789" lon="15.694126795393155"><ele>968.0</ele><time>2026-04-08T07:28:58.999Z</time></trkpt><trkpt lat="40.62103665492565" lon="15.694047958398762"><ele>968.0</ele><time>2026-04-08T07:28:59.999Z</time></trkpt><trkpt lat="40.62111266077337" lon="15.693957273986252"><ele>968.0</ele><time>2026-04-08T07:29:00.999Z</time></trkpt><trkpt lat="40.62117913552726" lon="15.693869033144102"><ele>968.0</ele><time>2026-04-08T07:29:01.999Z</time></trkpt><trkpt lat="40.621280707288236" lon="15.693777840834782"><ele>968.0</ele><time>2026-04-08T07:29:02.999Z</time></trkpt><trkpt lat="40.6214019565551" lon="15.69364818950854"><ele>969.0</ele><time>2026-04-08T07:29:03.999Z</time></trkpt><trkpt lat="40.62153218629003" lon="15.6935041019303"><ele>970.0</ele><time>2026-04-08T07:29:04.999Z</time></trkpt><trkpt lat="40.62161735931139" lon="15.693400283732588"><ele>971.0</ele><time>2026-04-08T07:29:05.999Z</time></trkpt><trkpt lat="40.62168368722708" lon="15.693335279842152"><ele>972.0</ele><time>2026-04-08T07:29:06.999Z</time></trkpt><trkpt lat="40.62174678994378" lon="15.693308923744302"><ele>973.0</ele><time>2026-04-08T07:29:09.999Z</time></trkpt><trkpt lat="40.621915667818755" lon="15.69349283098481"><ele>975.5</ele><time>2026-04-08T07:29:12.999Z</time></trkpt><trkpt lat="40.62200267758209" lon="15.693576260802235"><ele>978.0</ele><time>2026-04-08T07:29:13.999Z</time></trkpt><trkpt lat="40.62210108627147" lon="15.693674607409788"><ele>980.5</ele><time>2026-04-08T07:29:14.999Z</time></trkpt><trkpt lat="40.62221123329837" lon="15.69377072118837"><ele>983.0</ele><time>2026-04-08T07:29:15.999Z</time></trkpt><trkpt lat="40.622327356541646" lon="15.693872184041947"><ele>984.25</ele><time>2026-04-08T07:29:16.999Z</time></trkpt><trkpt lat="40.62244313339734" lon="15.693973186176505"><ele>985.5</ele><time>2026-04-08T07:29:17.999Z</time></trkpt><trkpt lat="40.622562469197014" lon="15.694066363855798"><ele>986.75</ele><time>2026-04-08T07:29:18.999Z</time></trkpt><trkpt lat="40.62268075787442" lon="15.694133286102847"><ele>988.0</ele><time>2026-04-08T07:29:19.999Z</time></trkpt><trkpt lat="40.622824905456085" lon="15.694205914308272"><ele>991.0</ele><time>2026-04-08T07:29:20.999Z</time></trkpt><trkpt lat="40.622974921506675" lon="15.694268347353141"><ele>994.0</ele><time>2026-04-08T07:29:21.999Z</time></trkpt><trkpt lat="40.62310900055565" lon="15.694338776242095"><ele>997.0</ele><time>2026-04-08T07:29:22.999Z</time></trkpt><trkpt lat="40.62324460455739" lon="15.694429766094768"><ele>999.0</ele><time>2026-04-08T07:29:23.999Z</time></trkpt><trkpt lat="40.62340174807664" lon="15.694539112751029"><ele>1001.0</ele><time>2026-04-08T07:29:24.999Z</time></trkpt><trkpt lat="40.623578038057694" lon="15.694669788580352"><ele>1003.0</ele><time>2026-04-08T07:29:25.999Z</time></trkpt><trkpt lat="40.62371818553906" lon="15.694813556362377"><ele>1006.3333333333333</ele><time>2026-04-08T07:29:26.999Z</time></trkpt><trkpt lat="40.62385489302547" lon="15.694954285281506"><ele>1009.6666666666667</ele><time>2026-04-08T07:29:27.999Z</time></trkpt><trkpt lat="40.62398926408879" lon="15.695136924156875"><ele>1013.0</ele><time>2026-04-08T07:29:28.999Z</time></trkpt><trkpt lat="40.624144798012374" lon="15.69532676136048"><ele>1014.3333333333334</ele><time>2026-04-08T07:29:29.999Z</time></trkpt><trkpt lat="40.62429578912564" lon="15.695519954983716"><ele>1015.6666666666667</ele><time>2026-04-08T07:29:30.999Z</time></trkpt><trkpt lat="40.6244372486382" lon="15.695709667871391"><ele>1017.0</ele><time>2026-04-08T07:29:31.999Z</time></trkpt><trkpt lat="40.62458406298622" lon="15.69590545106315"><ele>1021.6666666666667</ele><time>2026-04-08T07:29:32.999Z</time></trkpt><trkpt lat="40.62473477565821" lon="15.696101165589125"><ele>1026.3333333333335</ele><time>2026-04-08T07:29:33.999Z</time></trkpt><trkpt lat="40.624901550184916" lon="15.696308430467631"><ele>1031.0</ele><time>2026-04-08T07:29:34.999Z</time></trkpt><trkpt lat="40.6250780151949" lon="15.696524620065126"><ele>1031.0</ele><time>2026-04-08T07:29:35.999Z</time></trkpt><trkpt lat="40.62526152541733" lon="15.696736723627296"><ele>1031.0</ele><time>2026-04-08T07:29:36.999Z</time></trkpt><trkpt lat="40.62544814014543" lon="15.696923822790081"><ele>1034.0</ele><time>2026-04-08T07:29:37.999Z</time></trkpt><trkpt lat="40.625621832122384" lon="15.697081562436784"><ele>1037.0</ele><time>2026-04-08T07:29:38.999Z</time></trkpt><trkpt lat="40.625788979621824" lon="15.697244741094035"><ele>1040.0</ele><time>2026-04-08T07:29:39.999Z</time></trkpt><trkpt lat="40.62594120551298" lon="15.69741280415529"><ele>1040.0</ele><time>2026-04-08T07:29:40.999Z</time></trkpt><trkpt lat="40.62608767003677" lon="15.697571784245943"><ele>1040.0</ele><time>2026-04-08T07:29:41.999Z</time></trkpt><trkpt lat="40.626254654392255" lon="15.697712419326102"><ele>1040.0</ele><time>2026-04-08T07:29:42.999Z</time></trkpt><trkpt lat="40.62643228210597" lon="15.69783478024002"><ele>1042.3333333333335</ele><time>2026-04-08T07:29:43.999Z</time></trkpt><trkpt lat="40.626612198123155" lon="15.697953718998733"><ele>1044.6666666666667</ele><time>2026-04-08T07:29:44.999Z</time></trkpt><trkpt lat="40.62679709891383" lon="15.698085895191943"><ele>1047.0</ele><time>2026-04-08T07:29:45.999Z</time></trkpt><trkpt lat="40.62697873096061" lon="15.698218890456493"><ele>1049.0</ele><time>2026-04-08T07:29:46.999Z</time></trkpt><trkpt lat="40.62716537980378" lon="15.698376346677072"><ele>1051.0</ele><time>2026-04-08T07:29:47.999Z</time></trkpt><trkpt lat="40.62734754846097" lon="15.698529879210664"><ele>1053.0</ele><time>2026-04-08T07:29:48.999Z</time></trkpt><trkpt lat="40.62752442579776" lon="15.69868184244045"><ele>1053.0</ele><time>2026-04-08T07:29:49.999Z</time></trkpt><trkpt lat="40.62769849649507" lon="15.698841794792903"><ele>1053.0</ele><time>2026-04-08T07:29:50.999Z</time></trkpt><trkpt lat="40.62787388962638" lon="15.6990059660203"><ele>1053.0</ele><time>2026-04-08T07:29:51.999Z</time></trkpt><trkpt lat="40.62806089409156" lon="15.69915492207141"><ele>1058.0</ele><time>2026-04-08T07:29:52.999Z</time></trkpt><trkpt lat="40.62821987578626" lon="15.699285496028004"><ele>1063.0</ele><time>2026-04-08T07:29:53.999Z</time></trkpt><trkpt lat="40.62835636967747" lon="15.699401233704755"><ele>1068.0</ele><time>2026-04-08T07:29:54.999Z</time></trkpt><trkpt lat="40.62849871892057" lon="15.699493002586731"><ele>1071.3333333333333</ele><time>2026-04-08T07:29:55.999Z</time></trkpt><trkpt lat="40.62865980203749" lon="15.699543851564945"><ele>1074.6666666666665</ele><time>2026-04-08T07:29:56.999Z</time></trkpt><trkpt lat="40.62883541998361" lon="15.699559247406077"><ele>1078.0</ele><time>2026-04-08T07:29:57.999Z</time></trkpt><trkpt lat="40.6290135439249" lon="15.699584849437342"><ele>1078.0</ele><time>2026-04-08T07:29:58.999Z</time></trkpt><trkpt lat="40.62918632695463" lon="15.699643275568732"><ele>1078.0</ele><time>2026-04-08T07:29:59.999Z</time></trkpt><trkpt lat="40.62935529925326" lon="15.699734497262353"><ele>1078.0</ele><time>2026-04-08T07:30:00.999Z</time></trkpt><trkpt lat="40.62951805318976" lon="15.699825248792466"><ele>1079.75</ele><time>2026-04-08T07:30:01.999Z</time></trkpt><trkpt lat="40.62966225753835" lon="15.69988992507222"><ele>1081.5</ele><time>2026-04-08T07:30:02.999Z</time></trkpt><trkpt lat="40.629793952127315" lon="15.699926688469727"><ele>1083.25</ele><time>2026-04-08T07:30:03.999Z</time></trkpt><trkpt lat="40.629934112272736" lon="15.699941672220106"><ele>1085.0</ele><time>2026-04-08T07:30:04.999Z</time></trkpt><trkpt lat="40.63007672312429" lon="15.699943788802491"><ele>1085.0</ele><time>2026-04-08T07:30:05.999Z</time></trkpt><trkpt lat="40.6302292359282" lon="15.699943242147416"><ele>1085.0</ele><time>2026-04-08T07:30:06.999Z</time></trkpt><trkpt lat="40.63037493072871" lon="15.699947503454526"><ele>1085.0</ele><time>2026-04-08T07:30:07.999Z</time></trkpt><trkpt lat="40.630526447268" lon="15.69994806501943"><ele>1086.6666666666667</ele><time>2026-04-08T07:30:08.999Z</time></trkpt><trkpt lat="40.630679969602156" lon="15.699952602965999"><ele>1088.3333333333333</ele><time>2026-04-08T07:30:09.999Z</time></trkpt><trkpt lat="40.63082683792204" lon="15.699963299782128"><ele>1090.0</ele><time>2026-04-08T07:30:10.999Z</time></trkpt><trkpt lat="40.630990222658404" lon="15.699970599395048"><ele>1093.0</ele><time>2026-04-08T07:30:11.999Z</time></trkpt><trkpt lat="40.6311517145727" lon="15.699976215851166"><ele>1096.0</ele><time>2026-04-08T07:30:12.999Z</time></trkpt><trkpt lat="40.631313623231264" lon="15.699986801499225"><ele>1099.0</ele><time>2026-04-08T07:30:13.999Z</time></trkpt><trkpt lat="40.631467916847534" lon="15.700032759694023"><ele>1099.0</ele><time>2026-04-08T07:30:14.999Z</time></trkpt><trkpt lat="40.6316195470214" lon="15.700070824296626"><ele>1099.0</ele><time>2026-04-08T07:30:15.999Z</time></trkpt><trkpt lat="40.63176655930284" lon="15.700123407201254"><ele>1099.0</ele><time>2026-04-08T07:30:16.999Z</time></trkpt><trkpt lat="40.63191300404872" lon="15.700184550562952"><ele>1100.6666666666665</ele><time>2026-04-08T07:30:17.999Z</time></trkpt><trkpt lat="40.63206572288462" lon="15.700235146693913"><ele>1102.3333333333333</ele><time>2026-04-08T07:30:18.999Z</time></trkpt><trkpt lat="40.63221560429081" lon="15.70030141118017"><ele>1104.0</ele><time>2026-04-08T07:30:19.999Z</time></trkpt><trkpt lat="40.6323451848172" lon="15.700352275819265"><ele>1104.0</ele><time>2026-04-08T07:30:20.999Z</time></trkpt><trkpt lat="40.632450425079995" lon="15.700384029684255"><ele>1104.0</ele><time>2026-04-08T07:30:21.999Z</time></trkpt><trkpt lat="40.632542762119606" lon="15.700378439200296"><ele>1104.0</ele><time>2026-04-08T07:30:22.999Z</time></trkpt><trkpt lat="40.63262581337818" lon="15.700353448700742"><ele>1104.0</ele><time>2026-04-08T07:30:23.999Z</time></trkpt><trkpt lat="40.632689026856944" lon="15.700323009647422"><ele>1104.0</ele><time>2026-04-08T07:30:24.999Z</time></trkpt><trkpt lat="40.6327802561223" lon="15.700280691815985"><ele>1104.8333333333333</ele><time>2026-04-08T07:30:26.999Z</time></trkpt><trkpt lat="40.6328492707497" lon="15.700271696299557"><ele>1105.6666666666667</ele><time>2026-04-08T07:30:27.999Z</time></trkpt><trkpt lat="40.63292295652225" lon="15.700269773829493"><ele>1106.5</ele><time>2026-04-08T07:30:28.999Z</time></trkpt><trkpt lat="40.63299867703034" lon="15.700261592167717"><ele>1107.3333333333335</ele><time>2026-04-08T07:30:29.999Z</time></trkpt><trkpt lat="40.63307044234086" lon="15.700250725140403"><ele>1108.1666666666667</ele><time>2026-04-08T07:30:30.999Z</time></trkpt><trkpt lat="40.63317958077347" lon="15.700234299310134"><ele>1109.0</ele><time>2026-04-08T07:30:32.999Z</time></trkpt><trkpt lat="40.633243272310274" lon="15.70023391554419"><ele>1109.0</ele><time>2026-04-08T07:30:33.999Z</time></trkpt><trkpt lat="40.63330653570097" lon="15.700243183261316"><ele>1109.0</ele><time>2026-04-08T07:30:34.999Z</time></trkpt><trkpt lat="40.633370422389916" lon="15.700251187778452"><ele>1109.0</ele><time>2026-04-08T07:30:35.999Z</time></trkpt><trkpt lat="40.63346205973089" lon="15.70027024279508"><ele>1109.0</ele><time>2026-04-08T07:30:37.999Z</time></trkpt><trkpt lat="40.6335487130789" lon="15.700263377638775"><ele>1109.0</ele><time>2026-04-08T07:30:39.999Z</time></trkpt><trkpt lat="40.633699134037826" lon="15.699896778548814"><ele>1111.8333333333335</ele><time>2026-04-08T07:30:41.999Z</time></trkpt><trkpt lat="40.6337595336059" lon="15.699830049698226"><ele>1114.6666666666667</ele><time>2026-04-08T07:30:42.999Z</time></trkpt><trkpt lat="40.633813000154795" lon="15.699771627529419"><ele>1117.5</ele><time>2026-04-08T07:30:43.999Z</time></trkpt><trkpt lat="40.6338651411888" lon="15.699715749765394"><ele>1120.3333333333333</ele><time>2026-04-08T07:30:44.999Z</time></trkpt><trkpt lat="40.63392901249956" lon="15.699560837225636"><ele>1123.1666666666665</ele><time>2026-04-08T07:30:46.999Z</time></trkpt><trkpt lat="40.63396271832625" lon="15.699445215114421"><ele>1126.0</ele><time>2026-04-08T07:30:47.999Z</time></trkpt><trkpt lat="40.63398258379672" lon="15.69930745089286"><ele>1128.6</ele><time>2026-04-08T07:30:48.999Z</time></trkpt><trkpt lat="40.63398780391435" lon="15.699167666916203"><ele>1131.1999999999998</ele><time>2026-04-08T07:30:49.999Z</time></trkpt><trkpt lat="40.63397105708479" lon="15.699058300565785"><ele>1133.8000000000002</ele><time>2026-04-08T07:30:50.999Z</time></trkpt><trkpt lat="40.63392241001595" lon="15.698930118693319"><ele>1136.4</ele><time>2026-04-08T07:30:52.999Z</time></trkpt><trkpt lat="40.63390691856282" lon="15.698818244349184"><ele>1139.0</ele><time>2026-04-08T07:30:54.999Z</time></trkpt><trkpt lat="40.63393827533862" lon="15.698683006413429"><ele>1140.0</ele><time>2026-04-08T07:31:03.999Z</time></trkpt><trkpt lat="40.633964461384785" lon="15.698536060449225"><ele>1141.0</ele><time>2026-04-08T07:31:05.999Z</time></trkpt><trkpt lat="40.6339942110243" lon="15.698427895282402"><ele>1142.0</ele><time>2026-04-08T07:31:07.999Z</time></trkpt><trkpt lat="40.634001824321636" lon="15.698319554419935"><ele>1143.0</ele><time>2026-04-08T07:31:09.999Z</time></trkpt><trkpt lat="40.63398390821761" lon="15.698183598752914"><ele>1144.0</ele><time>2026-04-08T07:31:10.999Z</time></trkpt><trkpt lat="40.63399426803083" lon="15.698024106922846"><ele>1144.0</ele><time>2026-04-08T07:31:11.999Z</time></trkpt><trkpt lat="40.63399010777706" lon="15.697940876000944"><ele>1144.0</ele><time>2026-04-08T07:31:12.999Z</time></trkpt><trkpt lat="40.633976253578965" lon="15.697812940118705"><ele>1144.0</ele><time>2026-04-08T07:31:14.999Z</time></trkpt><trkpt lat="40.63398459338875" lon="15.697668934791135"><ele>1144.0</ele><time>2026-04-08T07:31:16.999Z</time></trkpt><trkpt lat="40.63399614573336" lon="15.697575076568054"><ele>1144.0</ele><time>2026-04-08T07:31:17.999Z</time></trkpt><trkpt lat="40.634001781705955" lon="15.69748258508786"><ele>1144.0</ele><time>2026-04-08T07:31:18.999Z</time></trkpt><trkpt lat="40.63400607580826" lon="15.697398458287655"><ele>1144.3333333333333</ele><time>2026-04-08T07:31:19.999Z</time></trkpt><trkpt lat="40.63400755993669" lon="15.69724091329291"><ele>1144.6666666666665</ele><time>2026-04-08T07:31:21.999Z</time></trkpt><trkpt lat="40.634019541680736" lon="15.697148036088661"><ele>1145.0</ele><time>2026-04-08T07:31:24Z</time></trkpt><trkpt lat="40.63400905543314" lon="15.697063845640653"><ele>1145.3333333333333</ele><time>2026-04-08T07:31:34Z</time></trkpt><trkpt lat="40.634020622603344" lon="15.696935259184109"><ele>1145.6666666666667</ele><time>2026-04-08T07:31:36Z</time></trkpt><trkpt lat="40.63400640053891" lon="15.696826644455825"><ele>1146.0</ele><time>2026-04-08T07:31:39Z</time></trkpt><trkpt lat="40.63401963285753" lon="15.696702857257645"><ele>1146.0</ele><time>2026-04-08T07:31:42Z</time></trkpt><trkpt lat="40.63397449404728" lon="15.696777222101874"><ele>1146.0</ele><time>2026-04-08T07:32:01.999Z</time></trkpt><trkpt lat="40.63398485738684" lon="15.696870296035865"><ele>1146.0</ele><time>2026-04-08T07:32:03.999Z</time></trkpt><trkpt lat="40.63399125643403" lon="15.69700779793511"><ele>1146.0</ele><time>2026-04-08T07:32:05.999Z</time></trkpt><trkpt lat="40.63398727398306" lon="15.697126260248913"><ele>1146.0</ele><time>2026-04-08T07:32:07.999Z</time></trkpt><trkpt lat="40.633980285563034" lon="15.69725918911431"><ele>1146.0</ele><time>2026-04-08T07:32:09.999Z</time></trkpt><trkpt lat="40.63397552925236" lon="15.697344055696513"><ele>1146.0</ele><time>2026-04-08T07:32:10.999Z</time></trkpt><trkpt lat="40.6339706764175" lon="15.697431302768441"><ele>1146.0</ele><time>2026-04-08T07:32:11.999Z</time></trkpt><trkpt lat="40.63396438883841" lon="15.697521022535614"><ele>1146.0</ele><time>2026-04-08T07:32:12.999Z</time></trkpt><trkpt lat="40.63395529402773" lon="15.69761265279572"><ele>1146.0</ele><time>2026-04-08T07:32:13.999Z</time></trkpt><trkpt lat="40.633953021813305" lon="15.697707819491768"><ele>1146.0</ele><time>2026-04-08T07:32:14.999Z</time></trkpt><trkpt lat="40.633962797082944" lon="15.697810570781712"><ele>1146.0</ele><time>2026-04-08T07:32:15.999Z</time></trkpt><trkpt lat="40.6339801089948" lon="15.697918696683997"><ele>1146.0</ele><time>2026-04-08T07:32:16.999Z</time></trkpt><trkpt lat="40.633981283904184" lon="15.698027704736795"><ele>1145.6666666666667</ele><time>2026-04-08T07:32:17.999Z</time></trkpt><trkpt lat="40.633977773068914" lon="15.69813432535361"><ele>1145.3333333333333</ele><time>2026-04-08T07:32:18.999Z</time></trkpt><trkpt lat="40.63398182183676" lon="15.698241332253039"><ele>1145.0</ele><time>2026-04-08T07:32:19.999Z</time></trkpt><trkpt lat="40.63397799947323" lon="15.69833002636643"><ele>1144.6666666666665</ele><time>2026-04-08T07:32:20.999Z</time></trkpt><trkpt lat="40.63394790697608" lon="15.698447680829444"><ele>1144.3333333333333</ele><time>2026-04-08T07:32:22.999Z</time></trkpt><trkpt lat="40.633922215499666" lon="15.698585167741852"><ele>1144.0</ele><time>2026-04-08T07:32:24.999Z</time></trkpt><trkpt lat="40.633904895447756" lon="15.698669942566541"><ele>1143.0</ele><time>2026-04-08T07:32:25.999Z</time></trkpt><trkpt lat="40.6338900132244" lon="15.698811718806404"><ele>1142.0</ele><time>2026-04-08T07:32:27.999Z</time></trkpt><trkpt lat="40.63391736127772" lon="15.698923346661395"><ele>1141.0</ele><time>2026-04-08T07:32:29.999Z</time></trkpt><trkpt lat="40.633938122454886" lon="15.699045319837738"><ele>1140.0</ele><time>2026-04-08T07:32:31.999Z</time></trkpt><trkpt lat="40.63396448392074" lon="15.69919136999343"><ele>1139.0</ele><time>2026-04-08T07:32:33.999Z</time></trkpt><trkpt lat="40.633950425997675" lon="15.699371953134253"><ele>1137.142857142857</ele><time>2026-04-08T07:32:35.999Z</time></trkpt><trkpt lat="40.63393438046931" lon="15.699464694012011"><ele>1135.2857142857144</ele><time>2026-04-08T07:32:36.999Z</time></trkpt><trkpt lat="40.63391738569471" lon="15.699553702324879"><ele>1133.4285714285716</ele><time>2026-04-08T07:32:37.999Z</time></trkpt><trkpt lat="40.633915899032054" lon="15.699642867670104"><ele>1131.5714285714287</ele><time>2026-04-08T07:32:38.999Z</time></trkpt><trkpt lat="40.63392884015024" lon="15.699730794933945"><ele>1129.7142857142858</ele><time>2026-04-08T07:32:39.999Z</time></trkpt><trkpt lat="40.63394974492666" lon="15.699824669967219"><ele>1127.857142857143</ele><time>2026-04-08T07:32:40.999Z</time></trkpt><trkpt lat="40.63398232643565" lon="15.69990368887119"><ele>1126.0</ele><time>2026-04-08T07:32:41.999Z</time></trkpt><trkpt lat="40.63401818067158" lon="15.699972101500364"><ele>1126.0</ele><time>2026-04-08T07:32:42.999Z</time></trkpt><trkpt lat="40.634089017749886" lon="15.700035040890965"><ele>1126.0</ele><time>2026-04-08T07:32:44.999Z</time></trkpt><trkpt lat="40.63419051573305" lon="15.700016020963401"><ele>1126.0</ele><time>2026-04-08T07:32:46.999Z</time></trkpt><trkpt lat="40.63426749025654" lon="15.69994028576213"><ele>1126.0</ele><time>2026-04-08T07:32:48.999Z</time></trkpt><trkpt lat="40.634372577691934" lon="15.69994361668387"><ele>1126.0</ele><time>2026-04-08T07:32:50.999Z</time></trkpt><trkpt lat="40.63443209646914" lon="15.700008870211242"><ele>1127.75</ele><time>2026-04-08T07:32:51.999Z</time></trkpt><trkpt lat="40.63448838889415" lon="15.700111680197333"><ele>1129.5</ele><time>2026-04-08T07:32:52.999Z</time></trkpt><trkpt lat="40.6345419577441" lon="15.700228503305201"><ele>1131.25</ele><time>2026-04-08T07:32:53.999Z</time></trkpt><trkpt lat="40.634611284183975" lon="15.700368567078534"><ele>1133.0</ele><time>2026-04-08T07:32:54.999Z</time></trkpt><trkpt lat="40.63468072627832" lon="15.700508909273227"><ele>1133.0</ele><time>2026-04-08T07:32:55.999Z</time></trkpt><trkpt lat="40.63473779659516" lon="15.700631028024445"><ele>1133.0</ele><time>2026-04-08T07:32:56.999Z</time></trkpt><trkpt lat="40.63479321531146" lon="15.700742751709477"><ele>1133.0</ele><time>2026-04-08T07:32:57.999Z</time></trkpt><trkpt lat="40.634849884895445" lon="15.700842024912628"><ele>1133.0</ele><time>2026-04-08T07:32:58.999Z</time></trkpt><trkpt lat="40.63487300894461" lon="15.700954726612698"><ele>1133.0</ele><time>2026-04-08T07:32:59.999Z</time></trkpt><trkpt lat="40.63492487526357" lon="15.701019195208726"><ele>1133.0</ele><time>2026-04-08T07:33:01.999Z</time></trkpt><trkpt lat="40.635087876167916" lon="15.70085066737091"><ele>1133.0</ele><time>2026-04-08T07:33:04.999Z</time></trkpt><trkpt lat="40.63518362067072" lon="15.700915977067787"><ele>1133.0</ele><time>2026-04-08T07:33:06.999Z</time></trkpt><trkpt lat="40.63520232134574" lon="15.701033312855431"><ele>1133.0</ele><time>2026-04-08T07:33:08.999Z</time></trkpt><trkpt lat="40.635242288874" lon="15.70113470634756"><ele>1138.6</ele><time>2026-04-08T07:33:10.999Z</time></trkpt><trkpt lat="40.63534506516739" lon="15.701242436512283"><ele>1144.1999999999998</ele><time>2026-04-08T07:33:13.999Z</time></trkpt><trkpt lat="40.63538531068628" lon="15.701320256516551"><ele>1149.8</ele><time>2026-04-08T07:33:15.999Z</time></trkpt><trkpt lat="40.6354584385383" lon="15.70136681053162"><ele>1155.3999999999999</ele><time>2026-04-08T07:33:17.999Z</time></trkpt><trkpt lat="40.6355339749699" lon="15.701467682919215"><ele>1161.0</ele><time>2026-04-08T07:33:19.999Z</time></trkpt><trkpt lat="40.63561834522029" lon="15.701572147249912"><ele>1161.0</ele><time>2026-04-08T07:33:21.999Z</time></trkpt><trkpt lat="40.63567793054526" lon="15.70168989928933"><ele>1161.0</ele><time>2026-04-08T07:33:23.999Z</time></trkpt><trkpt lat="40.63574358563773" lon="15.701802608996"><ele>1161.0</ele><time>2026-04-08T07:33:25.999Z</time></trkpt><trkpt lat="40.635774305004404" lon="15.7018950343304"><ele>1161.0</ele><time>2026-04-08T07:33:27.999Z</time></trkpt><trkpt lat="40.63582721366024" lon="15.70198949915383"><ele>1161.0</ele><time>2026-04-08T07:33:31Z</time></trkpt><trkpt lat="40.635881604287384" lon="15.70210807721846"><ele>1158.6</ele><time>2026-04-08T07:33:33Z</time></trkpt><trkpt lat="40.635947706673434" lon="15.702216646095168"><ele>1156.1999999999998</ele><time>2026-04-08T07:33:35Z</time></trkpt><trkpt lat="40.636004795939336" lon="15.70235619040107"><ele>1153.8000000000002</ele><time>2026-04-08T07:33:37Z</time></trkpt><trkpt lat="40.63605210658186" lon="15.702460216166571"><ele>1151.4</ele><time>2026-04-08T07:33:39Z</time></trkpt><trkpt lat="40.63607272370583" lon="15.702544101221957"><ele>1149.0</ele><time>2026-04-08T07:33:40Z</time></trkpt><trkpt lat="40.63612083065862" lon="15.702655104685173"><ele>1150.5</ele><time>2026-04-08T07:33:42Z</time></trkpt><trkpt lat="40.636175243101405" lon="15.702716522534516"><ele>1152.0</ele><time>2026-04-08T07:33:43Z</time></trkpt><trkpt lat="40.63624068881711" lon="15.702790488065563"><ele>1153.5</ele><time>2026-04-08T07:33:44Z</time></trkpt><trkpt lat="40.63630809309145" lon="15.702840219244314"><ele>1155.0</ele><time>2026-04-08T07:33:45Z</time></trkpt><trkpt lat="40.63637765137055" lon="15.702885449730806"><ele>1156.5</ele><time>2026-04-08T07:33:46Z</time></trkpt><trkpt lat="40.63643884642644" lon="15.702945459157107"><ele>1158.0</ele><time>2026-04-08T07:33:47Z</time></trkpt><trkpt lat="40.636499728412815" lon="15.703006820197519"><ele>1158.0</ele><time>2026-04-08T07:33:48Z</time></trkpt><trkpt lat="40.636551806380474" lon="15.703062130800149"><ele>1158.0</ele><time>2026-04-08T07:33:49Z</time></trkpt><trkpt lat="40.636605408155596" lon="15.703111981720168"><ele>1158.0</ele><time>2026-04-08T07:33:50Z</time></trkpt><trkpt lat="40.636672246425604" lon="15.703168130695714"><ele>1158.0</ele><time>2026-04-08T07:33:51Z</time></trkpt><trkpt lat="40.63674245630862" lon="15.703226758625474"><ele>1158.0</ele><time>2026-04-08T07:33:52Z</time></trkpt><trkpt lat="40.636801114268025" lon="15.703287218023272"><ele>1158.0</ele><time>2026-04-08T07:33:53Z</time></trkpt><trkpt lat="40.63688110152706" lon="15.703360345700045"><ele>1158.0</ele><time>2026-04-08T07:33:54.999Z</time></trkpt><trkpt lat="40.63695559653469" lon="15.703421763841783"><ele>1158.0</ele><time>2026-04-08T07:33:56.999Z</time></trkpt><trkpt lat="40.637032685934244" lon="15.70353027892958"><ele>1158.0</ele><time>2026-04-08T07:33:58.999Z</time></trkpt><trkpt lat="40.63716101264371" lon="15.703585138354146"><ele>1158.0</ele><time>2026-04-08T07:34:00.999Z</time></trkpt><trkpt lat="40.63725527412197" lon="15.703633782211998"><ele>1158.0</ele><time>2026-04-08T07:34:02.999Z</time></trkpt><trkpt lat="40.63733420426054" lon="15.703656121005551"><ele>1157.6666666666667</ele><time>2026-04-08T07:34:04.999Z</time></trkpt><trkpt lat="40.63740344490598" lon="15.703600680997686"><ele>1157.3333333333333</ele><time>2026-04-08T07:34:07.999Z</time></trkpt><trkpt lat="40.63746316012754" lon="15.703555662791494"><ele>1157.0</ele><time>2026-04-08T07:34:09.999Z</time></trkpt><trkpt lat="40.63756329625706" lon="15.703532531464955"><ele>1156.6666666666665</ele><time>2026-04-08T07:34:12.999Z</time></trkpt><trkpt lat="40.63765635911407" lon="15.70352827268294"><ele>1156.3333333333333</ele><time>2026-04-08T07:34:14.999Z</time></trkpt><trkpt lat="40.637751684197156" lon="15.703520265580842"><ele>1156.0</ele><time>2026-04-08T07:34:16.999Z</time></trkpt><trkpt lat="40.637817351970305" lon="15.703531832491676"><ele>1157.5</ele><time>2026-04-08T07:34:17.999Z</time></trkpt><trkpt lat="40.63787802063032" lon="15.703555620458284"><ele>1159.0</ele><time>2026-04-08T07:34:18.999Z</time></trkpt><trkpt lat="40.637928423501435" lon="15.703649459918742"><ele>1160.5</ele><time>2026-04-08T07:34:19.999Z</time></trkpt><trkpt lat="40.63803127424674" lon="15.703674071438884"><ele>1162.0</ele><time>2026-04-08T07:34:21.999Z</time></trkpt><trkpt lat="40.63814455760726" lon="15.703647470736243"><ele>1163.5</ele><time>2026-04-08T07:34:23.999Z</time></trkpt><trkpt lat="40.63821110535716" lon="15.703599204638"><ele>1165.0</ele><time>2026-04-08T07:34:24.999Z</time></trkpt><trkpt lat="40.63827519676326" lon="15.70353318683979"><ele>1166.8</ele><time>2026-04-08T07:34:25.999Z</time></trkpt><trkpt lat="40.63835322665697" lon="15.703438289390366"><ele>1168.6</ele><time>2026-04-08T07:34:26.999Z</time></trkpt><trkpt lat="40.63845526703635" lon="15.703350061088384"><ele>1170.4</ele><time>2026-04-08T07:34:27.999Z</time></trkpt><trkpt lat="40.63852693662707" lon="15.703306054670879"><ele>1172.2</ele><time>2026-04-08T07:34:28.999Z</time></trkpt><trkpt lat="40.63860609550883" lon="15.70327318900609"><ele>1174.0</ele><time>2026-04-08T07:34:29.999Z</time></trkpt><trkpt lat="40.638684263283906" lon="15.703236288079182"><ele>1175.8</ele><time>2026-04-08T07:34:30.999Z</time></trkpt><trkpt lat="40.638772970159444" lon="15.703237337327987"><ele>1177.6000000000001</ele><time>2026-04-08T07:34:31.999Z</time></trkpt><trkpt lat="40.638866639919435" lon="15.703219408392535"><ele>1179.4</ele><time>2026-04-08T07:34:32.999Z</time></trkpt><trkpt lat="40.638958517577684" lon="15.70320209451716"><ele>1181.2</ele><time>2026-04-08T07:34:33.999Z</time></trkpt><trkpt lat="40.639047456411106" lon="15.703169989543634"><ele>1183.0</ele><time>2026-04-08T07:34:34.999Z</time></trkpt><trkpt lat="40.63914246702136" lon="15.703187603705475"><ele>1183.0</ele><time>2026-04-08T07:34:35.999Z</time></trkpt><trkpt lat="40.639227046478794" lon="15.703194644853427"><ele>1183.0</ele><time>2026-04-08T07:34:36.999Z</time></trkpt><trkpt lat="40.639301411130766" lon="15.703211978707595"><ele>1183.0</ele><time>2026-04-08T07:34:37.999Z</time></trkpt><trkpt lat="40.6393665502839" lon="15.70323924915976"><ele>1183.0</ele><time>2026-04-08T07:34:38.999Z</time></trkpt><trkpt lat="40.63947302124198" lon="15.70333614605773"><ele>1183.0</ele><time>2026-04-08T07:34:40.999Z</time></trkpt><trkpt lat="40.63952587410731" lon="15.703408093619265"><ele>1183.0</ele><time>2026-04-08T07:34:41.999Z</time></trkpt><trkpt lat="40.639572550054254" lon="15.703468488173856"><ele>1185.3333333333333</ele><time>2026-04-08T07:34:42.999Z</time></trkpt><trkpt lat="40.6396236332408" lon="15.703535285704069"><ele>1187.6666666666665</ele><time>2026-04-08T07:34:43.999Z</time></trkpt><trkpt lat="40.63967053645809" lon="15.703598791287428"><ele>1190.0</ele><time>2026-04-08T07:34:44.999Z</time></trkpt><trkpt lat="40.63972416019909" lon="15.703665107258477"><ele>1192.3333333333333</ele><time>2026-04-08T07:34:45.999Z</time></trkpt><trkpt lat="40.63979165497299" lon="15.703720741793912"><ele>1194.6666666666667</ele><time>2026-04-08T07:34:46.999Z</time></trkpt><trkpt lat="40.63985406783613" lon="15.703786766639926"><ele>1197.0</ele><time>2026-04-08T07:34:47.999Z</time></trkpt><trkpt lat="40.63991839836512" lon="15.703844212632312"><ele>1197.0</ele><time>2026-04-08T07:34:48.999Z</time></trkpt><trkpt lat="40.639965732368715" lon="15.70393323579175"><ele>1197.0</ele><time>2026-04-08T07:34:49.999Z</time></trkpt><trkpt lat="40.640018812503875" lon="15.704024583442113"><ele>1197.0</ele><time>2026-04-08T07:34:50.999Z</time></trkpt><trkpt lat="40.640081396610746" lon="15.704130798843853"><ele>1197.0</ele><time>2026-04-08T07:34:51.999Z</time></trkpt><trkpt lat="40.64012919898332" lon="15.704241912249108"><ele>1197.0</ele><time>2026-04-08T07:34:52.999Z</time></trkpt><trkpt lat="40.6401748203631" lon="15.704321909503618"><ele>1197.0</ele><time>2026-04-08T07:34:53.999Z</time></trkpt><trkpt lat="40.640208192677356" lon="15.704407579227619"><ele>1195.5</ele><time>2026-04-08T07:34:54.999Z</time></trkpt><trkpt lat="40.6402807582754" lon="15.704456641843592"><ele>1194.0</ele><time>2026-04-08T07:34:55.999Z</time></trkpt><trkpt lat="40.64034435788728" lon="15.704485593718356"><ele>1192.5</ele><time>2026-04-08T07:34:56.999Z</time></trkpt><trkpt lat="40.64046227194792" lon="15.704529330538984"><ele>1191.0</ele><time>2026-04-08T07:34:58.999Z</time></trkpt><trkpt lat="40.64054326364619" lon="15.704532138227457"><ele>1189.5</ele><time>2026-04-08T07:35:00.999Z</time></trkpt><trkpt lat="40.64062244853579" lon="15.704551190684608"><ele>1188.0</ele><time>2026-04-08T07:35:06.999Z</time></trkpt><trkpt lat="40.64064465308822" lon="15.704652196016927"><ele>1192.4</ele><time>2026-04-08T07:35:08.999Z</time></trkpt><trkpt lat="40.64069362813157" lon="15.704720201317015"><ele>1196.8</ele><time>2026-04-08T07:35:09.999Z</time></trkpt><trkpt lat="40.64078376140209" lon="15.704841945064318"><ele>1201.2</ele><time>2026-04-08T07:35:11.999Z</time></trkpt><trkpt lat="40.64084716572809" lon="15.704963694469237"><ele>1205.6</ele><time>2026-04-08T07:35:12.999Z</time></trkpt><trkpt lat="40.64093851529253" lon="15.705035505683007"><ele>1210.0</ele><time>2026-04-08T07:35:13.999Z</time></trkpt><trkpt lat="40.641015090793225" lon="15.705060787337619"><ele>1210.0</ele><time>2026-04-08T07:35:14.999Z</time></trkpt><trkpt lat="40.640996322103334" lon="15.7048316670904"><ele>1210.0</ele><time>2026-04-08T07:35:17.999Z</time></trkpt><trkpt lat="40.6409624252058" lon="15.704729321624239"><ele>1210.0</ele><time>2026-04-08T07:35:19.999Z</time></trkpt><trkpt lat="40.64098002559481" lon="15.7045588463315"><ele>1210.0</ele><time>2026-04-08T07:35:22.999Z</time></trkpt><trkpt lat="40.64101594523691" lon="15.704441218101366"><ele>1211.5</ele><time>2026-04-08T07:35:24.999Z</time></trkpt><trkpt lat="40.64104085343876" lon="15.704318402674826"><ele>1213.0</ele><time>2026-04-08T07:35:25.999Z</time></trkpt><trkpt lat="40.64103827077751" lon="15.704180897638032"><ele>1214.5</ele><time>2026-04-08T07:35:26.999Z</time></trkpt><trkpt lat="40.64103061767062" lon="15.704065198666964"><ele>1216.0</ele><time>2026-04-08T07:35:27.999Z</time></trkpt><trkpt lat="40.641016636132555" lon="15.703980360533839"><ele>1217.5</ele><time>2026-04-08T07:35:28.999Z</time></trkpt><trkpt lat="40.640992717865686" lon="15.703900446660361"><ele>1219.0</ele><time>2026-04-08T07:35:29.999Z</time></trkpt><trkpt lat="40.641001259547615" lon="15.703761766690862"><ele>1219.0</ele><time>2026-04-08T07:35:32.999Z</time></trkpt><trkpt lat="40.64097427557513" lon="15.703621049940164"><ele>1219.0</ele><time>2026-04-08T07:35:35Z</time></trkpt><trkpt lat="40.640955720393876" lon="15.703524557107208"><ele>1219.0</ele><time>2026-04-08T07:35:36Z</time></trkpt><trkpt lat="40.64097482559371" lon="15.703444075766141"><ele>1219.0</ele><time>2026-04-08T07:35:38Z</time></trkpt><trkpt lat="40.640981894814466" lon="15.703242366738483"><ele>1219.0</ele><time>2026-04-08T07:35:40Z</time></trkpt><trkpt lat="40.64089525902877" lon="15.70307724642608"><ele>1220.6000000000001</ele><time>2026-04-08T07:35:42Z</time></trkpt><trkpt lat="40.64081975051396" lon="15.702938586526892"><ele>1222.2</ele><time>2026-04-08T07:35:43Z</time></trkpt><trkpt lat="40.64077340024654" lon="15.70279981159136"><ele>1223.8000000000002</ele><time>2026-04-08T07:35:44Z</time></trkpt><trkpt lat="40.64073292244343" lon="15.702685827710168"><ele>1225.4</ele><time>2026-04-08T07:35:45Z</time></trkpt><trkpt lat="40.64069959539184" lon="15.702608464680948"><ele>1227.0</ele><time>2026-04-08T07:35:46Z</time></trkpt><trkpt lat="40.64067276675897" lon="15.702432629680192"><ele>1228.3333333333333</ele><time>2026-04-08T07:35:48Z</time></trkpt><trkpt lat="40.64063355681343" lon="15.70231279196263"><ele>1229.6666666666667</ele><time>2026-04-08T07:35:50Z</time></trkpt><trkpt lat="40.64060643379029" lon="15.702169787872377"><ele>1231.0</ele><time>2026-04-08T07:35:52Z</time></trkpt><trkpt lat="40.640606505796704" lon="15.702073262921418"><ele>1232.3333333333335</ele><time>2026-04-08T07:35:53Z</time></trkpt><trkpt lat="40.64061518569321" lon="15.701980495610766"><ele>1233.6666666666667</ele><time>2026-04-08T07:35:54Z</time></trkpt><trkpt lat="40.640639414863244" lon="15.701893640240328"><ele>1235.0</ele><time>2026-04-08T07:35:55Z</time></trkpt><trkpt lat="40.64066221509441" lon="15.7017896861449"><ele>1235.2857142857142</ele><time>2026-04-08T07:35:56Z</time></trkpt><trkpt lat="40.64067208210752" lon="15.701663517921968"><ele>1235.5714285714284</ele><time>2026-04-08T07:35:57Z</time></trkpt><trkpt lat="40.6406629493905" lon="15.701577393507645"><ele>1235.8571428571427</ele><time>2026-04-08T07:35:57.999Z</time></trkpt><trkpt lat="40.640633980494314" lon="15.70150350870424"><ele>1236.142857142857</ele><time>2026-04-08T07:36:00.999Z</time></trkpt><trkpt lat="40.640618731221316" lon="15.701418001816707"><ele>1236.4285714285716</ele><time>2026-04-08T07:36:05.999Z</time></trkpt><trkpt lat="40.6405751939684" lon="15.701351089142285"><ele>1236.7142857142856</ele><time>2026-04-08T07:36:09.999Z</time></trkpt><trkpt lat="40.640556280073994" lon="15.701251065162674"><ele>1237.0</ele><time>2026-04-08T07:36:13.999Z</time></trkpt><trkpt lat="40.640468044244656" lon="15.701190121558367"><ele>1237.0</ele><time>2026-04-08T07:36:16.999Z</time></trkpt><trkpt lat="40.640427633403725" lon="15.70111726477048"><ele>1237.0</ele><time>2026-04-08T07:36:19.999Z</time></trkpt><trkpt lat="40.64042511925269" lon="15.701017165644659"><ele>1237.0</ele><time>2026-04-08T07:36:23.999Z</time></trkpt><trkpt lat="40.64045752183774" lon="15.700908660576548"><ele>1237.0</ele><time>2026-04-08T07:36:26.999Z</time></trkpt><trkpt lat="40.64044356793363" lon="15.700814237328121"><ele>1237.0</ele><time>2026-04-08T07:36:30.999Z</time></trkpt><trkpt lat="40.64041414768533" lon="15.700729157496902"><ele>1237.0</ele><time>2026-04-08T07:36:33.999Z</time></trkpt><trkpt lat="40.64039225243677" lon="15.70060547096952"><ele>1239.0</ele><time>2026-04-08T07:36:36.999Z</time></trkpt><trkpt lat="40.64036980664482" lon="15.700317549703078"><ele>1241.0</ele><time>2026-04-08T07:36:41.999Z</time></trkpt><trkpt lat="40.64037373750603" lon="15.700142314135713"><ele>1243.0</ele><time>2026-04-08T07:36:43.999Z</time></trkpt><trkpt lat="40.6403888395209" lon="15.700051310770553"><ele>1245.0</ele><time>2026-04-08T07:36:44.999Z</time></trkpt><trkpt lat="40.64039484215621" lon="15.699941475836427"><ele>1248.6</ele><time>2026-04-08T07:36:46.999Z</time></trkpt><trkpt lat="40.64045017184999" lon="15.699817494334255"><ele>1252.2</ele><time>2026-04-08T07:36:50.999Z</time></trkpt><trkpt lat="40.6404522113964" lon="15.699703040908936"><ele>1255.8</ele><time>2026-04-08T07:36:52.999Z</time></trkpt><trkpt lat="40.64044461779597" lon="15.699574988746521"><ele>1259.4</ele><time>2026-04-08T07:36:54.999Z</time></trkpt><trkpt lat="40.64050535908286" lon="15.699411255706055"><ele>1263.0</ele><time>2026-04-08T07:36:56.999Z</time></trkpt><trkpt lat="40.64051086185109" lon="15.699312121171976"><ele>1267.0</ele><time>2026-04-08T07:36:57.999Z</time></trkpt><trkpt lat="40.64052224898108" lon="15.699219680065285"><ele>1271.0</ele><time>2026-04-08T07:36:58.999Z</time></trkpt><trkpt lat="40.640516383028505" lon="15.699115654301357"><ele>1275.0</ele><time>2026-04-08T07:36:59.999Z</time></trkpt><trkpt lat="40.64053414641093" lon="15.698984199684688"><ele>1279.0</ele><time>2026-04-08T07:37:00.999Z</time></trkpt><trkpt lat="40.640535071909454" lon="15.698827944084622"><ele>1283.0</ele><time>2026-04-08T07:37:02.999Z</time></trkpt><trkpt lat="40.640536357851786" lon="15.698695329160536"><ele>1283.0</ele><time>2026-04-08T07:37:04.999Z</time></trkpt><trkpt lat="40.64051680362468" lon="15.698579190058632"><ele>1283.0</ele><time>2026-04-08T07:37:06.999Z</time></trkpt><trkpt lat="40.640496223822396" lon="15.698469708717502"><ele>1283.0</ele><time>2026-04-08T07:37:08.999Z</time></trkpt><trkpt lat="40.640387837542164" lon="15.698633757194845"><ele>1283.0</ele><time>2026-04-08T07:37:09.999Z</time></trkpt><trkpt lat="40.640371853245185" lon="15.698536886831539"><ele>1283.0</ele><time>2026-04-08T07:37:12.999Z</time></trkpt><trkpt lat="40.640429508360576" lon="15.698429631274164"><ele>1286.5</ele><time>2026-04-08T07:37:16.999Z</time></trkpt><trkpt lat="40.6404409619444" lon="15.698306023878663"><ele>1290.0</ele><time>2026-04-08T07:37:18.999Z</time></trkpt><trkpt lat="40.64049383304659" lon="15.697993130750977"><ele>1293.5</ele><time>2026-04-08T07:37:20.999Z</time></trkpt><trkpt lat="40.64051036525566" lon="15.697862371246403"><ele>1297.0</ele><time>2026-04-08T07:37:22.999Z</time></trkpt><trkpt lat="40.640494254536726" lon="15.6977592939266"><ele>1298.7142857142858</ele><time>2026-04-08T07:37:24.999Z</time></trkpt><trkpt lat="40.64043996973476" lon="15.697686492702202"><ele>1300.4285714285713</ele><time>2026-04-08T07:37:26.999Z</time></trkpt><trkpt lat="40.640374926368715" lon="15.69770868738251"><ele>1302.142857142857</ele><time>2026-04-08T07:37:29.999Z</time></trkpt><trkpt lat="40.64034517878941" lon="15.697630169027775"><ele>1303.857142857143</ele><time>2026-04-08T07:37:33.999Z</time></trkpt><trkpt lat="40.640258772804025" lon="15.697601411466657"><ele>1305.5714285714284</ele><time>2026-04-08T07:37:37.999Z</time></trkpt><trkpt lat="40.64019556826257" lon="15.697586295993478"><ele>1307.2857142857142</ele><time>2026-04-08T07:37:40Z</time></trkpt><trkpt lat="40.64011560204011" lon="15.69754946847181"><ele>1309.0</ele><time>2026-04-08T07:37:42Z</time></trkpt><trkpt lat="40.64005609661129" lon="15.697502220180473"><ele>1309.0</ele><time>2026-04-08T07:37:44Z</time></trkpt><trkpt lat="40.64000070860019" lon="15.697420252180976"><ele>1309.0</ele><time>2026-04-08T07:37:47Z</time></trkpt><trkpt lat="40.63999227126898" lon="15.697326068937427"><ele>1309.0</ele><time>2026-04-08T07:37:49Z</time></trkpt><trkpt lat="40.63998782986598" lon="15.697239503363164"><ele>1309.0</ele><time>2026-04-08T07:38:00Z</time></trkpt><trkpt lat="40.63997821600854" lon="15.69732903522392"><ele>1309.0</ele><time>2026-04-08T07:39:22.999Z</time></trkpt><trkpt lat="40.63990725817784" lon="15.697263213709494"><ele>1309.0</ele><time>2026-04-08T07:40:01Z</time></trkpt><trkpt lat="40.63994289778109" lon="15.697332255051247"><ele>1309.0</ele><time>2026-04-08T07:41:32.999Z</time></trkpt><trkpt lat="40.6400156059681" lon="15.697325307430035"><ele>1309.0</ele><time>2026-04-08T07:41:41.999Z</time></trkpt><trkpt lat="40.640085495850634" lon="15.697323994658234"><ele>1309.0</ele><time>2026-04-08T07:41:45.999Z</time></trkpt><trkpt lat="40.640118416239424" lon="15.697247110301173"><ele>1309.0</ele><time>2026-04-08T07:42:01Z</time></trkpt><trkpt lat="40.64015751718182" lon="15.69717250360228"><ele>1309.0</ele><time>2026-04-08T07:42:09Z</time></trkpt><trkpt lat="40.6402208139046" lon="15.697192694319858"><ele>1309.0</ele><time>2026-04-08T07:42:22.999Z</time></trkpt><trkpt lat="40.64028346309795" lon="15.69721796234207"><ele>1309.0</ele><time>2026-04-08T07:42:28.999Z</time></trkpt><trkpt lat="40.6403319085627" lon="15.697277560039325"><ele>1309.0</ele><time>2026-04-08T07:42:32.999Z</time></trkpt><trkpt lat="40.64039483041804" lon="15.697250034965336"><ele>1310.5714285714287</ele><time>2026-04-08T07:42:38.999Z</time></trkpt><trkpt lat="40.6404500317861" lon="15.69719922958308"><ele>1312.142857142857</ele><time>2026-04-08T07:42:47.999Z</time></trkpt><trkpt lat="40.6404863387488" lon="15.697272891053492"><ele>1313.7142857142858</ele><time>2026-04-08T07:42:52.999Z</time></trkpt><trkpt lat="40.64055135103913" lon="15.697315593684026"><ele>1315.2857142857142</ele><time>2026-04-08T07:42:56.999Z</time></trkpt><trkpt lat="40.64061753308472" lon="15.697377133661217"><ele>1316.857142857143</ele><time>2026-04-08T07:43:00.999Z</time></trkpt><trkpt lat="40.64068864053968" lon="15.697419646375092"><ele>1318.4285714285716</ele><time>2026-04-08T07:43:05.999Z</time></trkpt><trkpt lat="40.64075396439238" lon="15.697487104715732"><ele>1320.0</ele><time>2026-04-08T07:43:10.999Z</time></trkpt><trkpt lat="40.640813436553" lon="15.697515465369225"><ele>1320.0000000000002</ele><time>2026-04-08T07:43:12.999Z</time></trkpt><trkpt lat="40.64086710219825" lon="15.697576411960187"><ele>1320.0</ele><time>2026-04-08T07:43:14.999Z</time></trkpt><trkpt lat="40.640936290467664" lon="15.697587549287036"><ele>1320.0</ele><time>2026-04-08T07:43:17.999Z</time></trkpt><trkpt lat="40.64099304164787" lon="15.697538840200302"><ele>1320.0</ele><time>2026-04-08T07:43:20.999Z</time></trkpt><trkpt lat="40.6410624501609" lon="15.697462477348632"><ele>1320.0</ele><time>2026-04-08T07:43:26.999Z</time></trkpt><trkpt lat="40.641118346307486" lon="15.697414146723462"><ele>1320.0000000000002</ele><time>2026-04-08T07:43:30.999Z</time></trkpt><trkpt lat="40.64117807318112" lon="15.697466701360609"><ele>1320.0</ele><time>2026-04-08T07:43:40.999Z</time></trkpt><trkpt lat="40.64121288317977" lon="15.697537148589097"><ele>1322.0</ele><time>2026-04-08T07:43:50.999Z</time></trkpt><trkpt lat="40.641193064868986" lon="15.697616367291705"><ele>1324.0</ele><time>2026-04-08T07:43:57Z</time></trkpt><trkpt lat="40.64125540443322" lon="15.69767842688837"><ele>1326.0</ele><time>2026-04-08T07:44:03Z</time></trkpt><trkpt lat="40.64132482472474" lon="15.697733684863966"><ele>1328.0</ele><time>2026-04-08T07:44:16Z</time></trkpt><trkpt lat="40.64140153927329" lon="15.697678177681587"><ele>1330.0</ele><time>2026-04-08T07:44:20.999Z</time></trkpt><trkpt lat="40.64146345828536" lon="15.697645761610074"><ele>1332.0</ele><time>2026-04-08T07:44:22.999Z</time></trkpt><trkpt lat="40.64153613713875" lon="15.697589885321577"><ele>1332.0</ele><time>2026-04-08T07:44:26.999Z</time></trkpt><trkpt lat="40.64153468244318" lon="15.697477551504322"><ele>1332.0</ele><time>2026-04-08T07:44:29.999Z</time></trkpt><trkpt lat="40.64136348592692" lon="15.697526014634576"><ele>1332.0</ele><time>2026-04-08T07:44:32.999Z</time></trkpt><trkpt lat="40.64134217261464" lon="15.697410749525583"><ele>1332.0</ele><time>2026-04-08T07:44:34.999Z</time></trkpt><trkpt lat="40.64125460329253" lon="15.697280127247426"><ele>1334.5</ele><time>2026-04-08T07:44:35.999Z</time></trkpt><trkpt lat="40.64110140363326" lon="15.697110666234886"><ele>1337.0</ele><time>2026-04-08T07:44:37.999Z</time></trkpt><trkpt lat="40.641034270155636" lon="15.697019783379014"><ele>1339.5</ele><time>2026-04-08T07:44:38.999Z</time></trkpt><trkpt lat="40.64097198454691" lon="15.69691643647457"><ele>1342.0</ele><time>2026-04-08T07:44:39.999Z</time></trkpt><trkpt lat="40.64093040739647" lon="15.696815825201249"><ele>1342.0</ele><time>2026-04-08T07:44:40.999Z</time></trkpt><trkpt lat="40.64086552876606" lon="15.696733338898468"><ele>1342.0</ele><time>2026-04-08T07:44:42.999Z</time></trkpt><trkpt lat="40.64083335455938" lon="15.696615367653997"><ele>1342.0</ele><time>2026-04-08T07:44:44.999Z</time></trkpt><trkpt lat="40.64078568037353" lon="15.696489156411799"><ele>1342.0</ele><time>2026-04-08T07:44:47.999Z</time></trkpt><trkpt lat="40.64073426870363" lon="15.696415245257095"><ele>1342.0</ele><time>2026-04-08T07:44:49.999Z</time></trkpt><trkpt lat="40.640579161402655" lon="15.696114332266008"><ele>1342.0</ele><time>2026-04-08T07:44:51.999Z</time></trkpt><trkpt lat="40.6405334331062" lon="15.696192308324866"><ele>1342.0</ele><time>2026-04-08T07:44:53.999Z</time></trkpt><trkpt lat="40.64046039249408" lon="15.69615362681363"><ele>1342.0</ele><time>2026-04-08T07:44:54.999Z</time></trkpt><trkpt lat="40.64039499306569" lon="15.696110373417348"><ele>1342.0</ele><time>2026-04-08T07:44:55.999Z</time></trkpt><trkpt lat="40.640338043071765" lon="15.696028591352249"><ele>1342.0</ele><time>2026-04-08T07:44:56.999Z</time></trkpt><trkpt lat="40.6402711408762" lon="15.695956627355503"><ele>1342.0</ele><time>2026-04-08T07:44:57.999Z</time></trkpt><trkpt lat="40.64017089580784" lon="15.695879318249599"><ele>1342.5</ele><time>2026-04-08T07:44:58.999Z</time></trkpt><trkpt lat="40.640051716300746" lon="15.695815165850158"><ele>1343.0</ele><time>2026-04-08T07:44:59.999Z</time></trkpt><trkpt lat="40.6399581819017" lon="15.695763183913309"><ele>1343.5</ele><time>2026-04-08T07:45:00.999Z</time></trkpt><trkpt lat="40.63984801747875" lon="15.695691329323532"><ele>1344.0</ele><time>2026-04-08T07:45:01.999Z</time></trkpt><trkpt lat="40.6397433541195" lon="15.695624849896511"><ele>1344.0</ele><time>2026-04-08T07:45:02.999Z</time></trkpt><trkpt lat="40.63968472105983" lon="15.695547739051324"><ele>1344.0</ele><time>2026-04-08T07:45:03.999Z</time></trkpt><trkpt lat="40.639638648399625" lon="15.695466289163429"><ele>1344.0</ele><time>2026-04-08T07:45:04.999Z</time></trkpt><trkpt lat="40.639586036306056" lon="15.695388692658193"><ele>1344.0</ele><time>2026-04-08T07:45:05.999Z</time></trkpt><trkpt lat="40.63952256881414" lon="15.6953445621778"><ele>1344.0</ele><time>2026-04-08T07:45:06.999Z</time></trkpt><trkpt lat="40.639437759120085" lon="15.695317770246884"><ele>1344.0</ele><time>2026-04-08T07:45:08.999Z</time></trkpt><trkpt lat="40.63937591122716" lon="15.695264324042157"><ele>1343.6</ele><time>2026-04-08T07:45:11.999Z</time></trkpt><trkpt lat="40.639309519903435" lon="15.695266524307772"><ele>1343.2</ele><time>2026-04-08T07:45:13.999Z</time></trkpt><trkpt lat="40.63922095121744" lon="15.695260705039772"><ele>1342.8</ele><time>2026-04-08T07:45:14.999Z</time></trkpt><trkpt lat="40.63913444317779" lon="15.695260692576092"><ele>1342.3999999999999</ele><time>2026-04-08T07:45:15.999Z</time></trkpt><trkpt lat="40.639026510080896" lon="15.69525171749594"><ele>1342.0</ele><time>2026-04-08T07:45:16.999Z</time></trkpt><trkpt lat="40.638902953090046" lon="15.695196446722806"><ele>1342.0</ele><time>2026-04-08T07:45:17.999Z</time></trkpt><trkpt lat="40.63882805795961" lon="15.695185768188933"><ele>1342.0</ele><time>2026-04-08T07:45:18.999Z</time></trkpt><trkpt lat="40.63875682160497" lon="15.69516113302249"><ele>1342.0</ele><time>2026-04-08T07:45:19.999Z</time></trkpt><trkpt lat="40.63868949185828" lon="15.69510664288708"><ele>1342.0</ele><time>2026-04-08T07:45:20.999Z</time></trkpt><trkpt lat="40.63859477662269" lon="15.695063308123656"><ele>1342.0</ele><time>2026-04-08T07:45:21.999Z</time></trkpt><trkpt lat="40.63846322869117" lon="15.694931826252743"><ele>1342.3999999999999</ele><time>2026-04-08T07:45:22.999Z</time></trkpt><trkpt lat="40.638330855424755" lon="15.694819396665924"><ele>1342.8</ele><time>2026-04-08T07:45:23.999Z</time></trkpt><trkpt lat="40.63823408949908" lon="15.694765221168467"><ele>1343.2</ele><time>2026-04-08T07:45:24.999Z</time></trkpt><trkpt lat="40.63818231091756" lon="15.694680422604273"><ele>1343.6</ele><time>2026-04-08T07:45:26.999Z</time></trkpt><trkpt lat="40.63811263474721" lon="15.694691321855862"><ele>1344.0</ele><time>2026-04-08T07:45:29.999Z</time></trkpt><trkpt lat="40.63804998989382" lon="15.694607590413995"><ele>1344.0</ele><time>2026-04-08T07:45:31.999Z</time></trkpt><trkpt lat="40.63795949869603" lon="15.694508647703538"><ele>1344.0</ele><time>2026-04-08T07:45:33.999Z</time></trkpt><trkpt lat="40.63791091315403" lon="15.694358404719779"><ele>1344.0</ele><time>2026-04-08T07:45:34.999Z</time></trkpt><trkpt lat="40.63786030158494" lon="15.694196856674873"><ele>1344.0</ele><time>2026-04-08T07:45:35.999Z</time></trkpt><trkpt lat="40.63778330482791" lon="15.693995476617609"><ele>1344.5</ele><time>2026-04-08T07:45:36.999Z</time></trkpt><trkpt lat="40.637693412091174" lon="15.693815042765719"><ele>1345.0</ele><time>2026-04-08T07:45:37.999Z</time></trkpt><trkpt lat="40.63764578221269" lon="15.693720163662437"><ele>1345.5</ele><time>2026-04-08T07:45:38.999Z</time></trkpt><trkpt lat="40.63757351162058" lon="15.693605256919549"><ele>1346.0</ele><time>2026-04-08T07:45:39.999Z</time></trkpt><trkpt lat="40.637465162989194" lon="15.693507477437048"><ele>1346.0</ele><time>2026-04-08T07:45:40.999Z</time></trkpt><trkpt lat="40.63739441521723" lon="15.693358621589166"><ele>1346.0</ele><time>2026-04-08T07:45:41.999Z</time></trkpt><trkpt lat="40.63735151638952" lon="15.693205858133062"><ele>1346.0</ele><time>2026-04-08T07:45:42.999Z</time></trkpt><trkpt lat="40.63732091616499" lon="15.693054701421326"><ele>1346.0</ele><time>2026-04-08T07:45:43.999Z</time></trkpt><trkpt lat="40.63729813720628" lon="15.692852844524948"><ele>1344.0</ele><time>2026-04-08T07:45:44.999Z</time></trkpt><trkpt lat="40.63726081867819" lon="15.69266672523277"><ele>1342.0</ele><time>2026-04-08T07:45:45.999Z</time></trkpt><trkpt lat="40.6372648876375" lon="15.692463525016963"><ele>1340.0</ele><time>2026-04-08T07:45:46.999Z</time></trkpt><trkpt lat="40.637302262621084" lon="15.692247543861157"><ele>1340.0</ele><time>2026-04-08T07:45:47.999Z</time></trkpt><trkpt lat="40.63735917650754" lon="15.692043357701477"><ele>1340.0</ele><time>2026-04-08T07:45:48.999Z</time></trkpt><trkpt lat="40.63741436480876" lon="15.691855647471353"><ele>1340.0</ele><time>2026-04-08T07:45:49.999Z</time></trkpt><trkpt lat="40.63743760262987" lon="15.69170376280896"><ele>1340.0</ele><time>2026-04-08T07:45:50.999Z</time></trkpt><trkpt lat="40.63743061953058" lon="15.691543205021384"><ele>1340.0</ele><time>2026-04-08T07:45:51.999Z</time></trkpt><trkpt lat="40.637448797665776" lon="15.691430011690993"><ele>1340.0</ele><time>2026-04-08T07:45:52.999Z</time></trkpt><trkpt lat="40.637418559420176" lon="15.691318397066714"><ele>1340.0</ele><time>2026-04-08T07:45:53.999Z</time></trkpt><trkpt lat="40.63737380408544" lon="15.691161777247311"><ele>1340.0</ele><time>2026-04-08T07:45:54.999Z</time></trkpt><trkpt lat="40.637328676275814" lon="15.691055518957583"><ele>1340.0</ele><time>2026-04-08T07:45:55.999Z</time></trkpt><trkpt lat="40.637251820360795" lon="15.691002112687897"><ele>1340.0</ele><time>2026-04-08T07:45:57.999Z</time></trkpt><trkpt lat="40.637179885819286" lon="15.690971712377086"><ele>1340.0</ele><time>2026-04-08T07:45:58.999Z</time></trkpt><trkpt lat="40.637115043818" lon="15.690957956667036"><ele>1340.0</ele><time>2026-04-08T07:45:59.999Z</time></trkpt><trkpt lat="40.63706916784686" lon="15.690867158291054"><ele>1340.0</ele><time>2026-04-08T07:46:00.999Z</time></trkpt><trkpt lat="40.637006915282974" lon="15.690782366342253"><ele>1340.0</ele><time>2026-04-08T07:46:01.999Z</time></trkpt><trkpt lat="40.63694902639992" lon="15.690700239791825"><ele>1340.0</ele><time>2026-04-08T07:46:03Z</time></trkpt><trkpt lat="40.636915594701904" lon="15.690596390423364"><ele>1337.0</ele><time>2026-04-08T07:46:04Z</time></trkpt><trkpt lat="40.63691760488157" lon="15.690476745311734"><ele>1334.0</ele><time>2026-04-08T07:46:05Z</time></trkpt><trkpt lat="40.63694604444627" lon="15.690338761662229"><ele>1331.0</ele><time>2026-04-08T07:46:06Z</time></trkpt><trkpt lat="40.63697981753573" lon="15.690166098110216"><ele>1328.0</ele><time>2026-04-08T07:46:07Z</time></trkpt><trkpt lat="40.63701350733787" lon="15.690014357334025"><ele>1328.0</ele><time>2026-04-08T07:46:08Z</time></trkpt><trkpt lat="40.6370427023576" lon="15.689871508198866"><ele>1328.0</ele><time>2026-04-08T07:46:09Z</time></trkpt><trkpt lat="40.637053658117374" lon="15.689768619552163"><ele>1328.0</ele><time>2026-04-08T07:46:10Z</time></trkpt><trkpt lat="40.6370370750558" lon="15.68968842935379"><ele>1328.0</ele><time>2026-04-08T07:46:11Z</time></trkpt><trkpt lat="40.636975819600096" lon="15.68957657431241"><ele>1328.0</ele><time>2026-04-08T07:46:12Z</time></trkpt><trkpt lat="40.63689763503527" lon="15.689495910295637"><ele>1324.6000000000001</ele><time>2026-04-08T07:46:13Z</time></trkpt><trkpt lat="40.63685332730651" lon="15.689399692591087"><ele>1321.2</ele><time>2026-04-08T07:46:14Z</time></trkpt><trkpt lat="40.63681364946239" lon="15.68928405962111"><ele>1317.8</ele><time>2026-04-08T07:46:15Z</time></trkpt><trkpt lat="40.63677271524471" lon="15.689170020342157"><ele>1314.4</ele><time>2026-04-08T07:46:16Z</time></trkpt><trkpt lat="40.63676177970201" lon="15.689057335260646"><ele>1311.0</ele><time>2026-04-08T07:46:17Z</time></trkpt><trkpt lat="40.636778303720746" lon="15.688933560311114"><ele>1311.0</ele><time>2026-04-08T07:46:18Z</time></trkpt><trkpt lat="40.63679272357359" lon="15.688801035790325"><ele>1311.0</ele><time>2026-04-08T07:46:19Z</time></trkpt><trkpt lat="40.63679180062475" lon="15.688655966987504"><ele>1311.0</ele><time>2026-04-08T07:46:20Z</time></trkpt><trkpt lat="40.636780115363784" lon="15.688507913710176"><ele>1311.0</ele><time>2026-04-08T07:46:21Z</time></trkpt><trkpt lat="40.63676575247131" lon="15.688380649390334"><ele>1311.0</ele><time>2026-04-08T07:46:22Z</time></trkpt><trkpt lat="40.63676237900252" lon="15.688272707958257"><ele>1311.3333333333333</ele><time>2026-04-08T07:46:22.999Z</time></trkpt><trkpt lat="40.636795202105056" lon="15.688196233925467"><ele>1311.6666666666667</ele><time>2026-04-08T07:46:23.999Z</time></trkpt><trkpt lat="40.636859268182555" lon="15.688169162209224"><ele>1312.0</ele><time>2026-04-08T07:46:24.999Z</time></trkpt><trkpt lat="40.63693899469788" lon="15.688160191294537"><ele>1312.3333333333335</ele><time>2026-04-08T07:46:25.999Z</time></trkpt><trkpt lat="40.63704173891602" lon="15.68812713785282"><ele>1312.6666666666667</ele><time>2026-04-08T07:46:27.999Z</time></trkpt><trkpt lat="40.6371385897948" lon="15.688094972065096"><ele>1313.0</ele><time>2026-04-08T07:46:29.999Z</time></trkpt><trkpt lat="40.63723085731647" lon="15.688053151926868"><ele>1313.0</ele><time>2026-04-08T07:46:31.999Z</time></trkpt><trkpt lat="40.63733011617245" lon="15.687995367257656"><ele>1313.0</ele><time>2026-04-08T07:46:33.999Z</time></trkpt><trkpt lat="40.63739941824334" lon="15.687961773883101"><ele>1313.0</ele><time>2026-04-08T07:46:35.999Z</time></trkpt><trkpt lat="40.637497800496874" lon="15.687934103688207"><ele>1313.0</ele><time>2026-04-08T07:46:36.999Z</time></trkpt><trkpt lat="40.637606640407206" lon="15.687937515867208"><ele>1313.0</ele><time>2026-04-08T07:46:38.999Z</time></trkpt><trkpt lat="40.63767135996404" lon="15.687970734888937"><ele>1313.0</ele><time>2026-04-08T07:46:39.999Z</time></trkpt><trkpt lat="40.63774209671645" lon="15.68799003494937"><ele>1313.0</ele><time>2026-04-08T07:46:40.999Z</time></trkpt><trkpt lat="40.63782193543453" lon="15.688040688420147"><ele>1313.0</ele><time>2026-04-08T07:46:41.999Z</time></trkpt><trkpt lat="40.63792204117568" lon="15.688106150046282"><ele>1313.0</ele><time>2026-04-08T07:46:42.999Z</time></trkpt><trkpt lat="40.638009961354435" lon="15.688164864730364"><ele>1313.0</ele><time>2026-04-08T07:46:43.999Z</time></trkpt><trkpt lat="40.63807736052686" lon="15.688208219901577"><ele>1313.0</ele><time>2026-04-08T07:46:45.999Z</time></trkpt><trkpt lat="40.63813751678236" lon="15.688148200751757"><ele>1309.4</ele><time>2026-04-08T07:46:47.999Z</time></trkpt><trkpt lat="40.63814949795173" lon="15.688052930945382"><ele>1305.8000000000002</ele><time>2026-04-08T07:46:51.999Z</time></trkpt><trkpt lat="40.6381427032011" lon="15.687935362288403"><ele>1302.2</ele><time>2026-04-08T07:46:54.999Z</time></trkpt><trkpt lat="40.63810552242286" lon="15.68777581689738"><ele>1298.6</ele><time>2026-04-08T07:46:56.999Z</time></trkpt><trkpt lat="40.63806508367539" lon="15.68762083326455"><ele>1295.0</ele><time>2026-04-08T07:46:58.999Z</time></trkpt><trkpt lat="40.63805875456057" lon="15.687535175393704"><ele>1293.4</ele><time>2026-04-08T07:46:59.999Z</time></trkpt><trkpt lat="40.63813551541332" lon="15.687378355858938"><ele>1291.8</ele><time>2026-04-08T07:47:01.999Z</time></trkpt><trkpt lat="40.63819406608901" lon="15.687335751797951"><ele>1290.1999999999998</ele><time>2026-04-08T07:47:02.999Z</time></trkpt><trkpt lat="40.638124664568274" lon="15.687346312247819"><ele>1288.6</ele><time>2026-04-08T07:47:03.999Z</time></trkpt><trkpt lat="40.63816632579191" lon="15.687239663067915"><ele>1287.0</ele><time>2026-04-08T07:47:04.999Z</time></trkpt><trkpt lat="40.63821382130269" lon="15.687137644812651"><ele>1287.0</ele><time>2026-04-08T07:47:05.999Z</time></trkpt><trkpt lat="40.63824906985259" lon="15.687052839768825"><ele>1287.0</ele><time>2026-04-08T07:47:06.999Z</time></trkpt><trkpt lat="40.638323665457" lon="15.686986536089098"><ele>1287.0</ele><time>2026-04-08T07:47:08.999Z</time></trkpt><trkpt lat="40.63838620445016" lon="15.686907230078791"><ele>1287.0</ele><time>2026-04-08T07:47:10.999Z</time></trkpt><trkpt lat="40.638424776084655" lon="15.686836691758705"><ele>1287.0</ele><time>2026-04-08T07:47:11.999Z</time></trkpt><trkpt lat="40.63847631537272" lon="15.686755685968075"><ele>1287.0</ele><time>2026-04-08T07:47:12.999Z</time></trkpt><trkpt lat="40.63856119590338" lon="15.686670875123928"><ele>1278.3333333333333</ele><time>2026-04-08T07:47:13.999Z</time></trkpt><trkpt lat="40.63875869061048" lon="15.686538656405084"><ele>1269.6666666666665</ele><time>2026-04-08T07:47:14.999Z</time></trkpt><trkpt lat="40.63884244325835" lon="15.686433025623973"><ele>1261.0</ele><time>2026-04-08T07:47:15.999Z</time></trkpt><trkpt lat="40.63892117531242" lon="15.686314685881053"><ele>1261.0</ele><time>2026-04-08T07:47:16.999Z</time></trkpt><trkpt lat="40.638957887048505" lon="15.686230109382983"><ele>1261.0</ele><time>2026-04-08T07:47:17.999Z</time></trkpt><trkpt lat="40.63882262740597" lon="15.686204228373839"><ele>1261.0</ele><time>2026-04-08T07:47:18.999Z</time></trkpt><trkpt lat="40.63872476442927" lon="15.686226944891176"><ele>1261.0</ele><time>2026-04-08T07:47:20.999Z</time></trkpt><trkpt lat="40.63865774429796" lon="15.686282247209007"><ele>1261.0</ele><time>2026-04-08T07:47:21.999Z</time></trkpt><trkpt lat="40.63858682094096" lon="15.68631083370252"><ele>1261.8333333333333</ele><time>2026-04-08T07:47:22.999Z</time></trkpt><trkpt lat="40.63851319012927" lon="15.686351073940543"><ele>1262.6666666666665</ele><time>2026-04-08T07:47:23.999Z</time></trkpt><trkpt lat="40.63845099485766" lon="15.68637277523806"><ele>1263.5</ele><time>2026-04-08T07:47:24.999Z</time></trkpt><trkpt lat="40.63837641343833" lon="15.686340570667005"><ele>1264.3333333333333</ele><time>2026-04-08T07:47:26.999Z</time></trkpt><trkpt lat="40.63829652931484" lon="15.686292349507575"><ele>1265.1666666666667</ele><time>2026-04-08T07:47:28.999Z</time></trkpt><trkpt lat="40.63821015500214" lon="15.68623265703522"><ele>1266.0</ele><time>2026-04-08T07:47:30.999Z</time></trkpt><trkpt lat="40.6381556102909" lon="15.686182841859202"><ele>1266.0</ele><time>2026-04-08T07:47:31.999Z</time></trkpt><trkpt lat="40.6381057208951" lon="15.686127506772317"><ele>1266.0</ele><time>2026-04-08T07:47:32.999Z</time></trkpt><trkpt lat="40.638042438664385" lon="15.686074618935379"><ele>1266.0</ele><time>2026-04-08T07:47:33.999Z</time></trkpt><trkpt lat="40.637974435288605" lon="15.686059784262197"><ele>1266.0</ele><time>2026-04-08T07:47:34.999Z</time></trkpt><trkpt lat="40.63790379355332" lon="15.68603204820356"><ele>1266.0</ele><time>2026-04-08T07:47:35.999Z</time></trkpt><trkpt lat="40.637846410510576" lon="15.685986332209897"><ele>1266.0</ele><time>2026-04-08T07:47:36.999Z</time></trkpt><trkpt lat="40.63777904085637" lon="15.685928062174138"><ele>1266.0</ele><time>2026-04-08T07:47:37.999Z</time></trkpt><trkpt lat="40.63772384755575" lon="15.685882869706756"><ele>1260.3999999999999</ele><time>2026-04-08T07:47:38.999Z</time></trkpt><trkpt lat="40.63765391403194" lon="15.68583475795285"><ele>1254.8</ele><time>2026-04-08T07:47:39.999Z</time></trkpt><trkpt lat="40.6375884784251" lon="15.685789698546271"><ele>1249.1999999999998</ele><time>2026-04-08T07:47:40.999Z</time></trkpt><trkpt lat="40.63751021903051" lon="15.685732457173392"><ele>1243.6</ele><time>2026-04-08T07:47:41.999Z</time></trkpt><trkpt lat="40.63739354900065" lon="15.68568084731106"><ele>1238.0</ele><time>2026-04-08T07:47:43.999Z</time></trkpt><trkpt lat="40.63730425707626" lon="15.685652201142686"><ele>1238.0</ele><time>2026-04-08T07:47:44.999Z</time></trkpt><trkpt lat="40.63719815461158" lon="15.685647170571835"><ele>1238.0</ele><time>2026-04-08T07:47:46.999Z</time></trkpt><trkpt lat="40.63713266404437" lon="15.685558666823278"><ele>1238.0</ele><time>2026-04-08T07:47:48.999Z</time></trkpt><trkpt lat="40.63706656268305" lon="15.685479107394583"><ele>1238.0</ele><time>2026-04-08T07:47:50.999Z</time></trkpt><trkpt lat="40.637007376860794" lon="15.685397244109263"><ele>1238.0</ele><time>2026-04-08T07:47:52.999Z</time></trkpt><trkpt lat="40.63695797732661" lon="15.685301776892128"><ele>1234.0</ele><time>2026-04-08T07:47:53.999Z</time></trkpt><trkpt lat="40.63691200301572" lon="15.685244439926215"><ele>1230.0</ele><time>2026-04-08T07:47:54.999Z</time></trkpt><trkpt lat="40.636830437649095" lon="15.68522022025697"><ele>1226.0</ele><time>2026-04-08T07:47:56.999Z</time></trkpt><trkpt lat="40.63685745062917" lon="15.685116207707361"><ele>1222.0</ele><time>2026-04-08T07:47:59.999Z</time></trkpt><trkpt lat="40.63695487248143" lon="15.685068772415972"><ele>1218.0</ele><time>2026-04-08T07:48:00.999Z</time></trkpt><trkpt lat="40.63701835063263" lon="15.685001413457286"><ele>1214.0</ele><time>2026-04-08T07:48:01.999Z</time></trkpt><trkpt lat="40.6370985708246" lon="15.684890321948316"><ele>1214.0</ele><time>2026-04-08T07:48:03.999Z</time></trkpt><trkpt lat="40.637149075175685" lon="15.6848060578824"><ele>1214.0</ele><time>2026-04-08T07:48:05.999Z</time></trkpt><trkpt lat="40.63720429701958" lon="15.684757312742116"><ele>1214.0</ele><time>2026-04-08T07:48:06.999Z</time></trkpt><trkpt lat="40.637279235925845" lon="15.684702416870007"><ele>1214.0</ele><time>2026-04-08T07:48:07.999Z</time></trkpt><trkpt lat="40.63734018816328" lon="15.684644604215185"><ele>1214.0</ele><time>2026-04-08T07:48:09Z</time></trkpt><trkpt lat="40.63743218842096" lon="15.684577148382704"><ele>1214.0</ele><time>2026-04-08T07:48:11Z</time></trkpt><trkpt lat="40.63749987282313" lon="15.684492675741632"><ele>1214.0</ele><time>2026-04-08T07:48:13Z</time></trkpt><trkpt lat="40.63755784104169" lon="15.684445019345352"><ele>1214.0</ele><time>2026-04-08T07:48:15Z</time></trkpt><trkpt lat="40.63766320213088" lon="15.684270677357619"><ele>1214.0</ele><time>2026-04-08T07:48:18Z</time></trkpt><trkpt lat="40.637710500399045" lon="15.684213316154514"><ele>1214.0</ele><time>2026-04-08T07:48:19Z</time></trkpt><trkpt lat="40.63779126526046" lon="15.684084366899565"><ele>1214.0</ele><time>2026-04-08T07:48:21Z</time></trkpt><trkpt lat="40.637836525345286" lon="15.68401109972797"><ele>1210.3333333333335</ele><time>2026-04-08T07:48:22Z</time></trkpt><trkpt lat="40.63790011874826" lon="15.683947527375006"><ele>1206.6666666666667</ele><time>2026-04-08T07:48:23Z</time></trkpt><trkpt lat="40.637961404687836" lon="15.683865333064023"><ele>1203.0</ele><time>2026-04-08T07:48:24Z</time></trkpt><trkpt lat="40.63801680558987" lon="15.683784245735744"><ele>1199.3333333333333</ele><time>2026-04-08T07:48:25Z</time></trkpt><trkpt lat="40.63805894159114" lon="15.683708060136608"><ele>1195.6666666666665</ele><time>2026-04-08T07:48:26Z</time></trkpt><trkpt lat="40.63810436359177" lon="15.68364597774184"><ele>1192.0</ele><time>2026-04-08T07:48:26.999Z</time></trkpt><trkpt lat="40.63815210219365" lon="15.683585763729331"><ele>1187.8</ele><time>2026-04-08T07:48:27.999Z</time></trkpt><trkpt lat="40.63821257266807" lon="15.683541745107151"><ele>1183.6</ele><time>2026-04-08T07:48:28.999Z</time></trkpt><trkpt lat="40.63828487685954" lon="15.683488896139727"><ele>1179.3999999999999</ele><time>2026-04-08T07:48:30.999Z</time></trkpt><trkpt lat="40.63821139272484" lon="15.68356401667173"><ele>1175.2</ele><time>2026-04-08T07:48:37Z</time></trkpt><trkpt lat="40.638019618409615" lon="15.683528290351791"><ele>1171.0</ele><time>2026-04-08T07:48:38Z</time></trkpt><trkpt lat="40.63790972093608" lon="15.683505002223642"><ele>1170.5</ele><time>2026-04-08T07:48:40Z</time></trkpt><trkpt lat="40.63779101823858" lon="15.683520626308198"><ele>1170.0</ele><time>2026-04-08T07:48:41Z</time></trkpt><trkpt lat="40.63770479339953" lon="15.683519891537443"><ele>1169.5</ele><time>2026-04-08T07:48:42Z</time></trkpt><trkpt lat="40.637637202765475" lon="15.683521189775297"><ele>1169.0</ele><time>2026-04-08T07:48:43Z</time></trkpt><trkpt lat="40.63756373953425" lon="15.683501822908308"><ele>1168.5</ele><time>2026-04-08T07:48:44Z</time></trkpt><trkpt lat="40.63746971675039" lon="15.683482730872784"><ele>1168.0</ele><time>2026-04-08T07:48:45Z</time></trkpt><trkpt lat="40.63737379080861" lon="15.68344444059182"><ele>1168.0</ele><time>2026-04-08T07:48:46Z</time></trkpt><trkpt lat="40.63726995079315" lon="15.683409151013358"><ele>1168.0</ele><time>2026-04-08T07:48:47Z</time></trkpt><trkpt lat="40.637182407063584" lon="15.683394674806438"><ele>1168.0</ele><time>2026-04-08T07:48:48Z</time></trkpt><trkpt lat="40.63709832304252" lon="15.683396711306667"><ele>1168.0</ele><time>2026-04-08T07:48:49Z</time></trkpt><trkpt lat="40.6370044034655" lon="15.68338515832156"><ele>1168.0</ele><time>2026-04-08T07:48:50Z</time></trkpt><trkpt lat="40.63690375329363" lon="15.683364411229714"><ele>1166.6</ele><time>2026-04-08T07:48:51Z</time></trkpt><trkpt lat="40.63682234058379" lon="15.683356856170779"><ele>1165.1999999999998</ele><time>2026-04-08T07:48:52Z</time></trkpt><trkpt lat="40.636749204657264" lon="15.683380073482306"><ele>1163.8</ele><time>2026-04-08T07:48:53Z</time></trkpt><trkpt lat="40.6366168642308" lon="15.68341599812856"><ele>1162.3999999999999</ele><time>2026-04-08T07:48:54Z</time></trkpt><trkpt lat="40.636483380065606" lon="15.683455719172093"><ele>1161.0</ele><time>2026-04-08T07:48:55Z</time></trkpt><trkpt lat="40.63635550683209" lon="15.683465119019546"><ele>1161.0</ele><time>2026-04-08T07:48:56Z</time></trkpt><trkpt lat="40.636204349584645" lon="15.683457051028006"><ele>1161.0</ele><time>2026-04-08T07:48:57Z</time></trkpt><trkpt lat="40.636068684726524" lon="15.6834659941178"><ele>1161.0</ele><time>2026-04-08T07:48:58Z</time></trkpt><trkpt lat="40.63595262028852" lon="15.683480415511575"><ele>1161.0</ele><time>2026-04-08T07:48:59Z</time></trkpt><trkpt lat="40.635851722776415" lon="15.683497735866755"><ele>1159.6</ele><time>2026-04-08T07:49:00Z</time></trkpt><trkpt lat="40.6357517827367" lon="15.683523796383874"><ele>1158.1999999999998</ele><time>2026-04-08T07:49:01Z</time></trkpt><trkpt lat="40.63564612130699" lon="15.683536433837993"><ele>1156.8000000000002</ele><time>2026-04-08T07:49:02Z</time></trkpt><trkpt lat="40.63555405131351" lon="15.683558213694509"><ele>1155.4</ele><time>2026-04-08T07:49:03Z</time></trkpt><trkpt lat="40.63543987150867" lon="15.683570231442557"><ele>1154.0</ele><time>2026-04-08T07:49:04Z</time></trkpt><trkpt lat="40.63533703213575" lon="15.68356946766336"><ele>1152.1666666666667</ele><time>2026-04-08T07:49:05Z</time></trkpt><trkpt lat="40.635240184507836" lon="15.683564980791843"><ele>1150.3333333333335</ele><time>2026-04-08T07:49:06Z</time></trkpt><trkpt lat="40.63515815658706" lon="15.683542765287605"><ele>1148.5</ele><time>2026-04-08T07:49:07Z</time></trkpt><trkpt lat="40.635096862979545" lon="15.683506749323342"><ele>1146.6666666666667</ele><time>2026-04-08T07:49:08Z</time></trkpt><trkpt lat="40.63502979934072" lon="15.683419764781833"><ele>1144.8333333333333</ele><time>2026-04-08T07:49:09Z</time></trkpt><trkpt lat="40.635022953255806" lon="15.683330455168177"><ele>1143.0</ele><time>2026-04-08T07:49:10Z</time></trkpt><trkpt lat="40.63505725979955" lon="15.68324197812344"><ele>1143.0</ele><time>2026-04-08T07:49:11Z</time></trkpt><trkpt lat="40.635125990257144" lon="15.683157038343511"><ele>1143.0</ele><time>2026-04-08T07:49:12Z</time></trkpt><trkpt lat="40.63523463432168" lon="15.683066185416783"><ele>1143.0</ele><time>2026-04-08T07:49:13Z</time></trkpt><trkpt lat="40.63535496277954" lon="15.68297794405193"><ele>1143.0</ele><time>2026-04-08T07:49:14Z</time></trkpt><trkpt lat="40.635466988644716" lon="15.682887089401598"><ele>1140.5</ele><time>2026-04-08T07:49:15Z</time></trkpt><trkpt lat="40.635565105999525" lon="15.68277956112213"><ele>1138.0</ele><time>2026-04-08T07:49:16Z</time></trkpt><trkpt lat="40.635660275038965" lon="15.68268587718114"><ele>1135.5</ele><time>2026-04-08T07:49:17Z</time></trkpt><trkpt lat="40.63577950534322" lon="15.682597735874351"><ele>1133.0</ele><time>2026-04-08T07:49:18Z</time></trkpt><trkpt lat="40.635879550212714" lon="15.68250587496116"><ele>1133.0</ele><time>2026-04-08T07:49:19Z</time></trkpt><trkpt lat="40.63596268913889" lon="15.682412926695461"><ele>1133.0</ele><time>2026-04-08T07:49:20Z</time></trkpt><trkpt lat="40.63607288764454" lon="15.682332096254417"><ele>1133.0</ele><time>2026-04-08T07:49:21Z</time></trkpt><trkpt lat="40.6361860571887" lon="15.682261259385681"><ele>1133.0</ele><time>2026-04-08T07:49:22Z</time></trkpt><trkpt lat="40.636280936068225" lon="15.682179166738837"><ele>1135.75</ele><time>2026-04-08T07:49:23Z</time></trkpt><trkpt lat="40.63638003134944" lon="15.682093318858072"><ele>1138.5</ele><time>2026-04-08T07:49:24Z</time></trkpt><trkpt lat="40.63648679967027" lon="15.682022863958192"><ele>1141.25</ele><time>2026-04-08T07:49:25Z</time></trkpt><trkpt lat="40.63660667491416" lon="15.681958295226009"><ele>1144.0</ele><time>2026-04-08T07:49:26Z</time></trkpt><trkpt lat="40.636725985108015" lon="15.681903452154565"><ele>1138.0</ele><time>2026-04-08T07:49:27Z</time></trkpt><trkpt lat="40.6368425044692" lon="15.681845426932913"><ele>1132.0</ele><time>2026-04-08T07:49:28Z</time></trkpt><trkpt lat="40.63695256498047" lon="15.681792138741221"><ele>1126.0</ele><time>2026-04-08T07:49:29Z</time></trkpt><trkpt lat="40.63704005030298" lon="15.681725935797521"><ele>1120.0</ele><time>2026-04-08T07:49:30Z</time></trkpt><trkpt lat="40.63714353667825" lon="15.681682145961549"><ele>1120.0</ele><time>2026-04-08T07:49:31Z</time></trkpt><trkpt lat="40.63725532747876" lon="15.681657982098153"><ele>1120.0</ele><time>2026-04-08T07:49:32Z</time></trkpt><trkpt lat="40.637375991020306" lon="15.6816277317066"><ele>1120.0</ele><time>2026-04-08T07:49:33Z</time></trkpt><trkpt lat="40.63749735609746" lon="15.681618698814976"><ele>1120.0</ele><time>2026-04-08T07:49:34Z</time></trkpt><trkpt lat="40.63761451204146" lon="15.681615012066173"><ele>1120.0</ele><time>2026-04-08T07:49:35Z</time></trkpt><trkpt lat="40.63774648389677" lon="15.681595191098474"><ele>1120.0</ele><time>2026-04-08T07:49:36Z</time></trkpt><trkpt lat="40.63789355375377" lon="15.68152833058694"><ele>1120.0</ele><time>2026-04-08T07:49:37Z</time></trkpt><trkpt lat="40.63804479985734" lon="15.681439126312219"><ele>1121.0</ele><time>2026-04-08T07:49:38Z</time></trkpt><trkpt lat="40.63817116597218" lon="15.681366719605208"><ele>1122.0</ele><time>2026-04-08T07:49:39Z</time></trkpt><trkpt lat="40.63830647096524" lon="15.681297188932307"><ele>1123.0</ele><time>2026-04-08T07:49:40Z</time></trkpt><trkpt lat="40.63842961927471" lon="15.681229010352729"><ele>1124.0</ele><time>2026-04-08T07:49:41Z</time></trkpt><trkpt lat="40.63853795608547" lon="15.681160193755268"><ele>1124.0</ele><time>2026-04-08T07:49:42Z</time></trkpt><trkpt lat="40.638635634046416" lon="15.681118800945868"><ele>1124.0</ele><time>2026-04-08T07:49:43Z</time></trkpt><trkpt lat="40.63874208470885" lon="15.681066139961786"><ele>1124.0</ele><time>2026-04-08T07:49:44Z</time></trkpt><trkpt lat="40.63887405067702" lon="15.680997113413891"><ele>1124.0</ele><time>2026-04-08T07:49:45Z</time></trkpt><trkpt lat="40.63897429792897" lon="15.680921462455355"><ele>1118.4</ele><time>2026-04-08T07:49:46Z</time></trkpt><trkpt lat="40.63905321057275" lon="15.680856330196155"><ele>1112.8000000000002</ele><time>2026-04-08T07:49:47Z</time></trkpt><trkpt lat="40.639108633428435" lon="15.680802347328655"><ele>1107.1999999999998</ele><time>2026-04-08T07:49:48Z</time></trkpt><trkpt lat="40.639164643455715" lon="15.680702816110873"><ele>1101.6</ele><time>2026-04-08T07:49:50Z</time></trkpt><trkpt lat="40.639283098119485" lon="15.680739569890125"><ele>1096.0</ele><time>2026-04-08T07:49:52Z</time></trkpt><trkpt lat="40.63935854433766" lon="15.680790634684977"><ele>1096.0</ele><time>2026-04-08T07:49:53Z</time></trkpt><trkpt lat="40.63943911402687" lon="15.68082597995561"><ele>1096.0</ele><time>2026-04-08T07:49:54Z</time></trkpt><trkpt lat="40.639546865482984" lon="15.680821239126884"><ele>1096.0</ele><time>2026-04-08T07:49:55Z</time></trkpt><trkpt lat="40.639641815874846" lon="15.680817787101756"><ele>1096.0</ele><time>2026-04-08T07:49:56Z</time></trkpt><trkpt lat="40.63970425527482" lon="15.68084710869069"><ele>1096.0</ele><time>2026-04-08T07:49:57Z</time></trkpt><trkpt lat="40.639763713823136" lon="15.680921618114342"><ele>1096.0</ele><time>2026-04-08T07:49:58Z</time></trkpt><trkpt lat="40.63983932890652" lon="15.68098984328161"><ele>1094.6</ele><time>2026-04-08T07:49:59Z</time></trkpt><trkpt lat="40.63993176922904" lon="15.681038377939412"><ele>1093.1999999999998</ele><time>2026-04-08T07:50:00Z</time></trkpt><trkpt lat="40.639994531235125" lon="15.681070003351168"><ele>1091.8000000000002</ele><time>2026-04-08T07:50:01Z</time></trkpt><trkpt lat="40.6400934952056" lon="15.681199503339094"><ele>1090.4</ele><time>2026-04-08T07:50:03Z</time></trkpt><trkpt lat="40.640160958604554" lon="15.681294913847216"><ele>1089.0</ele><time>2026-04-08T07:50:04Z</time></trkpt><trkpt lat="40.64026047750782" lon="15.681373159099762"><ele>1089.6000000000001</ele><time>2026-04-08T07:50:05Z</time></trkpt><trkpt lat="40.640366441693885" lon="15.68144103053224"><ele>1090.2</ele><time>2026-04-08T07:50:06Z</time></trkpt><trkpt lat="40.640438744729416" lon="15.681509100452388"><ele>1090.8000000000002</ele><time>2026-04-08T07:50:07Z</time></trkpt><trkpt lat="40.64049811846966" lon="15.681567145085737"><ele>1091.4</ele><time>2026-04-08T07:50:08Z</time></trkpt><trkpt lat="40.64056769251208" lon="15.681646871728525"><ele>1092.0</ele><time>2026-04-08T07:50:09Z</time></trkpt><trkpt lat="40.64064549954429" lon="15.68171721344111"><ele>1092.0</ele><time>2026-04-08T07:50:10Z</time></trkpt><trkpt lat="40.64071680099613" lon="15.68179508271533"><ele>1092.0</ele><time>2026-04-08T07:50:11Z</time></trkpt><trkpt lat="40.64077978385797" lon="15.681876773263701"><ele>1092.0</ele><time>2026-04-08T07:50:12Z</time></trkpt><trkpt lat="40.640815417272925" lon="15.681951186041214"><ele>1092.0</ele><time>2026-04-08T07:50:13Z</time></trkpt><trkpt lat="40.640843490641835" lon="15.682052962869395"><ele>1092.0</ele><time>2026-04-08T07:50:14Z</time></trkpt><trkpt lat="40.64089031966838" lon="15.682152586888572"><ele>1092.0</ele><time>2026-04-08T07:50:15Z</time></trkpt><trkpt lat="40.64093921605545" lon="15.682251392893516"><ele>1094.2</ele><time>2026-04-08T07:50:16.001Z</time></trkpt><trkpt lat="40.640992126044104" lon="15.682375232673195"><ele>1096.4</ele><time>2026-04-08T07:50:17Z</time></trkpt><trkpt lat="40.64106473130707" lon="15.682483164856556"><ele>1098.6</ele><time>2026-04-08T07:50:18Z</time></trkpt><trkpt lat="40.6411276861587" lon="15.682592778591147"><ele>1100.8</ele><time>2026-04-08T07:50:19.001Z</time></trkpt><trkpt lat="40.64117483347947" lon="15.682702734705053"><ele>1103.0</ele><time>2026-04-08T07:50:20Z</time></trkpt><trkpt lat="40.641203947987755" lon="15.682803382839293"><ele>1106.8333333333335</ele><time>2026-04-08T07:50:21Z</time></trkpt><trkpt lat="40.6412528086302" lon="15.682888745020122"><ele>1110.6666666666667</ele><time>2026-04-08T07:50:22.001Z</time></trkpt><trkpt lat="40.641305886698916" lon="15.682964810071935"><ele>1114.5</ele><time>2026-04-08T07:50:23Z</time></trkpt><trkpt lat="40.64133835441655" lon="15.683043650770221"><ele>1118.3333333333333</ele><time>2026-04-08T07:50:24Z</time></trkpt><trkpt lat="40.641362113020435" lon="15.683214131340776"><ele>1122.1666666666665</ele><time>2026-04-08T07:50:26Z</time></trkpt><trkpt lat="40.64140687454308" lon="15.683300034324631"><ele>1126.0</ele><time>2026-04-08T07:50:27Z</time></trkpt><trkpt lat="40.641460022096545" lon="15.683425315600637"><ele>1126.0</ele><time>2026-04-08T07:50:28Z</time></trkpt><trkpt lat="40.64150245869085" lon="15.683526981388269"><ele>1126.0</ele><time>2026-04-08T07:50:29Z</time></trkpt><trkpt lat="40.64155095220967" lon="15.683653871982893"><ele>1126.0</ele><time>2026-04-08T07:50:30Z</time></trkpt><trkpt lat="40.64159903428471" lon="15.68378126022319"><ele>1126.0</ele><time>2026-04-08T07:50:31Z</time></trkpt><trkpt lat="40.64164523525508" lon="15.683869079472352"><ele>1126.0</ele><time>2026-04-08T07:50:32Z</time></trkpt><trkpt lat="40.64166694899409" lon="15.683974424421804"><ele>1130.5</ele><time>2026-04-08T07:50:33Z</time></trkpt><trkpt lat="40.64169358290106" lon="15.684084594454198"><ele>1135.0</ele><time>2026-04-08T07:50:34Z</time></trkpt><trkpt lat="40.64171600665622" lon="15.684166952292207"><ele>1139.5</ele><time>2026-04-08T07:50:35Z</time></trkpt><trkpt lat="40.64175147391085" lon="15.68424181815213"><ele>1144.0</ele><time>2026-04-08T07:50:37Z</time></trkpt><trkpt lat="40.641819470043686" lon="15.684360213143865"><ele>1148.5</ele><time>2026-04-08T07:50:39Z</time></trkpt><trkpt lat="40.64183847879928" lon="15.684440923553842"><ele>1153.0</ele><time>2026-04-08T07:50:40Z</time></trkpt><trkpt lat="40.64187264678477" lon="15.684519070191083"><ele>1154.25</ele><time>2026-04-08T07:50:42Z</time></trkpt><trkpt lat="40.64196941602695" lon="15.684816656901521"><ele>1155.5</ele><time>2026-04-08T07:50:46Z</time></trkpt><trkpt lat="40.641991727171515" lon="15.684905900822727"><ele>1156.75</ele><time>2026-04-08T07:50:47Z</time></trkpt><trkpt lat="40.64200247551612" lon="15.684995889754905"><ele>1158.0</ele><time>2026-04-08T07:50:50Z</time></trkpt><trkpt lat="40.6420112619939" lon="15.685101137390108"><ele>1162.0</ele><time>2026-04-08T07:50:52Z</time></trkpt><trkpt lat="40.642034367305286" lon="15.685269233628015"><ele>1166.0</ele><time>2026-04-08T07:50:54Z</time></trkpt><trkpt lat="40.64202041535047" lon="15.685430051806506"><ele>1170.0</ele><time>2026-04-08T07:50:56Z</time></trkpt><trkpt lat="40.64203699979468" lon="15.685584481840836"><ele>1174.0</ele><time>2026-04-08T07:50:58Z</time></trkpt><trkpt lat="40.642057651372546" lon="15.685717666275224"><ele>1174.0</ele><time>2026-04-08T07:51:00Z</time></trkpt><trkpt lat="40.64207684072131" lon="15.685797071806878"><ele>1174.0</ele><time>2026-04-08T07:51:02Z</time></trkpt><trkpt lat="40.642077611943" lon="15.685900233786507"><ele>1174.0</ele><time>2026-04-08T07:51:04Z</time></trkpt><trkpt lat="40.64209873375583" lon="15.685979865395295"><ele>1174.0</ele><time>2026-04-08T07:51:08Z</time></trkpt><trkpt lat="40.64206683837972" lon="15.686077210567678"><ele>1174.0</ele><time>2026-04-08T07:51:17Z</time></trkpt><trkpt lat="40.642016571842106" lon="15.686180727203254"><ele>1174.0</ele><time>2026-04-08T07:51:19Z</time></trkpt><trkpt lat="40.641907767065646" lon="15.68619036339902"><ele>1178.2</ele><time>2026-04-08T07:51:21Z</time></trkpt><trkpt lat="40.64185648592281" lon="15.686288115958064"><ele>1182.4</ele><time>2026-04-08T07:51:23Z</time></trkpt><trkpt lat="40.641759592420115" lon="15.686319297158938"><ele>1186.6</ele><time>2026-04-08T07:51:25Z</time></trkpt><trkpt lat="40.64170779982758" lon="15.686383873196599"><ele>1190.8</ele><time>2026-04-08T07:51:26Z</time></trkpt><trkpt lat="40.64166561972196" lon="15.686456873621008"><ele>1195.0</ele><time>2026-04-08T07:51:27Z</time></trkpt><trkpt lat="40.64160034543363" lon="15.68661099899079"><ele>1195.0</ele><time>2026-04-08T07:51:29Z</time></trkpt><trkpt lat="40.64157038995794" lon="15.68669451908508"><ele>1195.0</ele><time>2026-04-08T07:51:30Z</time></trkpt><trkpt lat="40.641548377205815" lon="15.686776517448385"><ele>1195.0</ele><time>2026-04-08T07:51:31Z</time></trkpt><trkpt lat="40.64153010462214" lon="15.686889284541447"><ele>1195.0</ele><time>2026-04-08T07:51:33Z</time></trkpt><trkpt lat="40.641588111913904" lon="15.686996113337093"><ele>1195.0</ele><time>2026-04-08T07:51:37Z</time></trkpt><trkpt lat="40.641647744297885" lon="15.687090142919422"><ele>1195.0</ele><time>2026-04-08T07:51:39Z</time></trkpt><trkpt lat="40.64168673618589" lon="15.687256009962969"><ele>1197.0</ele><time>2026-04-08T07:51:41Z</time></trkpt><trkpt lat="40.64171755426415" lon="15.687361586911306"><ele>1199.0</ele><time>2026-04-08T07:51:42Z</time></trkpt><trkpt lat="40.6417065568437" lon="15.687539894421853"><ele>1201.0</ele><time>2026-04-08T07:51:44Z</time></trkpt><trkpt lat="40.64165883726013" lon="15.687648624166195"><ele>1203.0</ele><time>2026-04-08T07:51:45Z</time></trkpt><trkpt lat="40.64161119467068" lon="15.68775808147551"><ele>1205.0</ele><time>2026-04-08T07:51:46Z</time></trkpt><trkpt lat="40.64157119063948" lon="15.687850733711295"><ele>1207.8</ele><time>2026-04-08T07:51:47Z</time></trkpt><trkpt lat="40.641551860933006" lon="15.687955589083531"><ele>1210.6</ele><time>2026-04-08T07:51:49Z</time></trkpt><trkpt lat="40.641609210247324" lon="15.688071146056211"><ele>1213.4</ele><time>2026-04-08T07:51:51Z</time></trkpt><trkpt lat="40.64166350870524" lon="15.68818106023321"><ele>1216.2</ele><time>2026-04-08T07:51:52Z</time></trkpt><trkpt lat="40.64171278743782" lon="15.688312214870448"><ele>1219.0</ele><time>2026-04-08T07:51:53Z</time></trkpt><trkpt lat="40.64174855376564" lon="15.688436709305556"><ele>1219.0</ele><time>2026-04-08T07:51:54Z</time></trkpt><trkpt lat="40.6417749677239" lon="15.688547218918625"><ele>1219.0</ele><time>2026-04-08T07:51:55Z</time></trkpt><trkpt lat="40.6418051672478" lon="15.6886604176654"><ele>1219.0</ele><time>2026-04-08T07:51:56Z</time></trkpt><trkpt lat="40.64182933502006" lon="15.688781406836526"><ele>1219.0</ele><time>2026-04-08T07:51:57Z</time></trkpt><trkpt lat="40.641846754383536" lon="15.688904156524192"><ele>1219.0</ele><time>2026-04-08T07:51:58Z</time></trkpt><trkpt lat="40.641844610919435" lon="15.689032899655993"><ele>1222.0</ele><time>2026-04-08T07:51:59Z</time></trkpt><trkpt lat="40.641836208268856" lon="15.689173543977567"><ele>1225.0</ele><time>2026-04-08T07:52:00Z</time></trkpt><trkpt lat="40.6418294273588" lon="15.689313550959664"><ele>1228.0</ele><time>2026-04-08T07:52:01Z</time></trkpt><trkpt lat="40.64182109866657" lon="15.68942380010593"><ele>1231.0</ele><time>2026-04-08T07:52:02Z</time></trkpt><trkpt lat="40.641809317841144" lon="15.689547247533215"><ele>1234.0</ele><time>2026-04-08T07:52:04Z</time></trkpt><trkpt lat="40.64191907412227" lon="15.689585009701261"><ele>1236.2</ele><time>2026-04-08T07:52:09Z</time></trkpt><trkpt lat="40.642042293805446" lon="15.68964840674742"><ele>1238.4</ele><time>2026-04-08T07:52:12Z</time></trkpt><trkpt lat="40.64211185588213" lon="15.689699128642104"><ele>1240.6</ele><time>2026-04-08T07:52:13Z</time></trkpt><trkpt lat="40.64221771996787" lon="15.689716685084619"><ele>1242.8</ele><time>2026-04-08T07:52:14Z</time></trkpt><trkpt lat="40.642312705908616" lon="15.68972168119124"><ele>1245.0</ele><time>2026-04-08T07:52:15Z</time></trkpt><trkpt lat="40.642428069879976" lon="15.689748807765142"><ele>1245.0</ele><time>2026-04-08T07:52:16Z</time></trkpt><trkpt lat="40.64255629807093" lon="15.689777651495673"><ele>1245.0</ele><time>2026-04-08T07:52:17Z</time></trkpt><trkpt lat="40.64270054588495" lon="15.689794125535434"><ele>1245.0</ele><time>2026-04-08T07:52:18Z</time></trkpt><trkpt lat="40.642857232350856" lon="15.689816779862301"><ele>1245.0</ele><time>2026-04-08T07:52:19Z</time></trkpt><trkpt lat="40.64299418460351" lon="15.689830750898318"><ele>1245.25</ele><time>2026-04-08T07:52:20Z</time></trkpt><trkpt lat="40.64313510449812" lon="15.689837021179343"><ele>1245.5</ele><time>2026-04-08T07:52:21Z</time></trkpt><trkpt lat="40.64329183104543" lon="15.689804037294797"><ele>1245.75</ele><time>2026-04-08T07:52:22Z</time></trkpt><trkpt lat="40.64342267133148" lon="15.68979565717614"><ele>1246.0</ele><time>2026-04-08T07:52:23Z</time></trkpt><trkpt lat="40.643546162646544" lon="15.689775325165815"><ele>1245.1666666666665</ele><time>2026-04-08T07:52:24Z</time></trkpt><trkpt lat="40.643632376293894" lon="15.689788523606644"><ele>1244.3333333333333</ele><time>2026-04-08T07:52:25Z</time></trkpt><trkpt lat="40.64373220756121" lon="15.68980599146564"><ele>1243.5</ele><time>2026-04-08T07:52:26Z</time></trkpt><trkpt lat="40.64382300594387" lon="15.689823371187341"><ele>1242.6666666666667</ele><time>2026-04-08T07:52:27Z</time></trkpt><trkpt lat="40.643904319492314" lon="15.689839699889015"><ele>1241.8333333333335</ele><time>2026-04-08T07:52:28Z</time></trkpt><trkpt lat="40.643983641168546" lon="15.689844160908038"><ele>1241.0</ele><time>2026-04-08T07:52:29Z</time></trkpt><trkpt lat="40.64406037103261" lon="15.689857046203642"><ele>1241.0</ele><time>2026-04-08T07:52:30Z</time></trkpt><trkpt lat="40.644116234594726" lon="15.689902961024776"><ele>1241.0</ele><time>2026-04-08T07:52:32Z</time></trkpt><trkpt lat="40.64417777629106" lon="15.689965633908537"><ele>1241.0</ele><time>2026-04-08T07:52:34Z</time></trkpt><trkpt lat="40.6442758773577" lon="15.68999073479337"><ele>1241.0</ele><time>2026-04-08T07:52:36Z</time></trkpt><trkpt lat="40.644348929328046" lon="15.690042757612265"><ele>1241.0</ele><time>2026-04-08T07:52:37Z</time></trkpt><trkpt lat="40.6444052087905" lon="15.690153831999535"><ele>1241.0</ele><time>2026-04-08T07:52:38Z</time></trkpt><trkpt lat="40.64443958836835" lon="15.690224932836239"><ele>1242.5</ele><time>2026-04-08T07:52:39Z</time></trkpt><trkpt lat="40.644447046941224" lon="15.690429645292252"><ele>1244.0</ele><time>2026-04-08T07:52:42Z</time></trkpt><trkpt lat="40.64446179083011" lon="15.690596024067728"><ele>1245.5</ele><time>2026-04-08T07:52:43Z</time></trkpt><trkpt lat="40.64448602433009" lon="15.690730335841726"><ele>1247.0</ele><time>2026-04-08T07:52:44Z</time></trkpt><trkpt lat="40.644501927640206" lon="15.690848602233492"><ele>1244.6666666666667</ele><time>2026-04-08T07:52:45Z</time></trkpt><trkpt lat="40.64451690142084" lon="15.69093269366186"><ele>1242.3333333333335</ele><time>2026-04-08T07:52:46Z</time></trkpt><trkpt lat="40.64456014668704" lon="15.69104136238076"><ele>1240.0</ele><time>2026-04-08T07:52:48Z</time></trkpt><trkpt lat="40.644622937143794" lon="15.691073116889653"><ele>1237.6666666666667</ele><time>2026-04-08T07:52:50Z</time></trkpt><trkpt lat="40.64466360132122" lon="15.691141562205347"><ele>1235.3333333333333</ele><time>2026-04-08T07:52:54Z</time></trkpt><trkpt lat="40.64470226359133" lon="15.691224833901078"><ele>1233.0</ele><time>2026-04-08T07:52:57Z</time></trkpt><trkpt lat="40.644759347128144" lon="15.691341226058478"><ele>1233.0</ele><time>2026-04-08T07:52:59Z</time></trkpt><trkpt lat="40.64478617227336" lon="15.691422315088783"><ele>1233.0</ele><time>2026-04-08T07:53:01Z</time></trkpt><trkpt lat="40.64482289683587" lon="15.69154957378847"><ele>1233.0</ele><time>2026-04-08T07:53:04Z</time></trkpt><trkpt lat="40.64485722865197" lon="15.691681062057611"><ele>1233.0</ele><time>2026-04-08T07:53:06Z</time></trkpt><trkpt lat="40.6448874661094" lon="15.691781998187835"><ele>1233.0</ele><time>2026-04-08T07:53:10Z</time></trkpt><trkpt lat="40.64489700433648" lon="15.691953289537746"><ele>1233.6666666666667</ele><time>2026-04-08T07:53:22Z</time></trkpt><trkpt lat="40.64494072441624" lon="15.692078188751454"><ele>1234.3333333333333</ele><time>2026-04-08T07:53:27Z</time></trkpt><trkpt lat="40.644976989544126" lon="15.692175888266814"><ele>1235.0</ele><time>2026-04-08T07:53:28Z</time></trkpt><trkpt lat="40.645005261439415" lon="15.692259320246844"><ele>1235.6666666666665</ele><time>2026-04-08T07:53:29Z</time></trkpt><trkpt lat="40.645029343063854" lon="15.692375167620908"><ele>1236.3333333333333</ele><time>2026-04-08T07:53:30Z</time></trkpt><trkpt lat="40.64506137288375" lon="15.69250006335544"><ele>1237.0</ele><time>2026-04-08T07:53:31Z</time></trkpt><trkpt lat="40.64509193696718" lon="15.692605423511697"><ele>1237.0</ele><time>2026-04-08T07:53:32Z</time></trkpt><trkpt lat="40.64512038469227" lon="15.692696987235188"><ele>1237.0</ele><time>2026-04-08T07:53:33Z</time></trkpt><trkpt lat="40.64516916625562" lon="15.692764757240706"><ele>1237.0</ele><time>2026-04-08T07:53:34Z</time></trkpt><trkpt lat="40.64521929366084" lon="15.692821274794229"><ele>1237.0</ele><time>2026-04-08T07:53:35Z</time></trkpt><trkpt lat="40.64534426428619" lon="15.692831501711941"><ele>1237.0</ele><time>2026-04-08T07:53:37Z</time></trkpt><trkpt lat="40.64545459310217" lon="15.692863325200191"><ele>1236.3333333333333</ele><time>2026-04-08T07:53:38Z</time></trkpt><trkpt lat="40.64553878150292" lon="15.692914568280331"><ele>1235.6666666666665</ele><time>2026-04-08T07:53:39Z</time></trkpt><trkpt lat="40.64560419925009" lon="15.692967950228597"><ele>1235.0</ele><time>2026-04-08T07:53:40Z</time></trkpt><trkpt lat="40.64564221856976" lon="15.693103149509417"><ele>1234.3333333333333</ele><time>2026-04-08T07:53:42Z</time></trkpt><trkpt lat="40.64564483871145" lon="15.693190255927549"><ele>1233.6666666666667</ele><time>2026-04-08T07:53:44Z</time></trkpt><trkpt lat="40.64562461151409" lon="15.693304797098536"><ele>1233.0</ele><time>2026-04-08T07:53:47Z</time></trkpt><trkpt lat="40.64569012106539" lon="15.693437092206555"><ele>1233.0</ele><time>2026-04-08T07:53:49Z</time></trkpt><trkpt lat="40.64571873707066" lon="15.69351825218805"><ele>1233.0</ele><time>2026-04-08T07:53:50Z</time></trkpt><trkpt lat="40.64576219653282" lon="15.693616668341553"><ele>1233.0</ele><time>2026-04-08T07:53:52Z</time></trkpt><trkpt lat="40.64581889287501" lon="15.693732231970822"><ele>1233.0</ele><time>2026-04-08T07:53:54Z</time></trkpt><trkpt lat="40.6458274490077" lon="15.693834640988156"><ele>1233.0</ele><time>2026-04-08T07:53:55Z</time></trkpt><trkpt lat="40.645827873315696" lon="15.693971907919453"><ele>1233.0</ele><time>2026-04-08T07:53:56Z</time></trkpt><trkpt lat="40.6458557917808" lon="15.69410197323697"><ele>1234.0</ele><time>2026-04-08T07:53:57Z</time></trkpt><trkpt lat="40.64586879972424" lon="15.694196831333002"><ele>1235.0</ele><time>2026-04-08T07:53:58Z</time></trkpt><trkpt lat="40.6458795069343" lon="15.694281134508664"><ele>1236.0</ele><time>2026-04-08T07:53:59Z</time></trkpt><trkpt lat="40.64590950735977" lon="15.694392886987"><ele>1237.0</ele><time>2026-04-08T07:54:01Z</time></trkpt><trkpt lat="40.646008184730505" lon="15.694933630467805"><ele>1237.0</ele><time>2026-04-08T07:54:06Z</time></trkpt><trkpt lat="40.64602069741301" lon="15.695064232714948"><ele>1237.0</ele><time>2026-04-08T07:54:07Z</time></trkpt><trkpt lat="40.64602918032857" lon="15.695174717554504"><ele>1237.0</ele><time>2026-04-08T07:54:08Z</time></trkpt><trkpt lat="40.646069240270734" lon="15.695314586429033"><ele>1237.0</ele><time>2026-04-08T07:54:10Z</time></trkpt><trkpt lat="40.646104783680975" lon="15.69545353263603"><ele>1237.0</ele><time>2026-04-08T07:54:12Z</time></trkpt><trkpt lat="40.64616414293217" lon="15.695563550001884"><ele>1236.8</ele><time>2026-04-08T07:54:14Z</time></trkpt><trkpt lat="40.64626016975722" lon="15.695639679967037"><ele>1236.6</ele><time>2026-04-08T07:54:16Z</time></trkpt><trkpt lat="40.64633650994184" lon="15.695691705211015"><ele>1236.3999999999999</ele><time>2026-04-08T07:54:17Z</time></trkpt><trkpt lat="40.646403347961275" lon="15.69573261652894"><ele>1236.2</ele><time>2026-04-08T07:54:18Z</time></trkpt><trkpt lat="40.64649630409549" lon="15.69566912663532"><ele>1236.0</ele><time>2026-04-08T07:54:20Z</time></trkpt><trkpt lat="40.6466301602915" lon="15.69558930087876"><ele>1236.0</ele><time>2026-04-08T07:54:22Z</time></trkpt><trkpt lat="40.646699052330796" lon="15.695568117145577"><ele>1236.0</ele><time>2026-04-08T07:54:23Z</time></trkpt><trkpt lat="40.64677636533941" lon="15.695481093579419"><ele>1236.0</ele><time>2026-04-08T07:54:25Z</time></trkpt><trkpt lat="40.646835296305426" lon="15.695519206224606"><ele>1236.0</ele><time>2026-04-08T07:54:30Z</time></trkpt><trkpt lat="40.646898269378156" lon="15.695516255042708"><ele>1236.0</ele><time>2026-04-08T07:54:33Z</time></trkpt><trkpt lat="40.64695742925209" lon="15.695603141494706"><ele>1236.0</ele><time>2026-04-08T07:54:36Z</time></trkpt><trkpt lat="40.646959277287486" lon="15.69571830683189"><ele>1234.6</ele><time>2026-04-08T07:54:40Z</time></trkpt><trkpt lat="40.64698224284694" lon="15.695857734588506"><ele>1233.1999999999998</ele><time>2026-04-08T07:54:44Z</time></trkpt><trkpt lat="40.646992058992474" lon="15.69598852749003"><ele>1231.8000000000002</ele><time>2026-04-08T07:54:46Z</time></trkpt><trkpt lat="40.64704957187908" lon="15.69610989019897"><ele>1230.4</ele><time>2026-04-08T07:54:48Z</time></trkpt><trkpt lat="40.64711450065976" lon="15.69615420554207"><ele>1229.0</ele><time>2026-04-08T07:54:49Z</time></trkpt><trkpt lat="40.64718675597793" lon="15.69624389759208"><ele>1229.0</ele><time>2026-04-08T07:54:50Z</time></trkpt><trkpt lat="40.64723667550038" lon="15.696344019404764"><ele>1229.0</ele><time>2026-04-08T07:54:51Z</time></trkpt><trkpt lat="40.64727008129477" lon="15.696445252782457"><ele>1229.0</ele><time>2026-04-08T07:54:52Z</time></trkpt><trkpt lat="40.64735628580494" lon="15.696480887784924"><ele>1229.0</ele><time>2026-04-08T07:54:54Z</time></trkpt><trkpt lat="40.64745777006422" lon="15.69648763342663"><ele>1229.0</ele><time>2026-04-08T07:54:55Z</time></trkpt><trkpt lat="40.64757243059247" lon="15.696506086143362"><ele>1229.0</ele><time>2026-04-08T07:54:56Z</time></trkpt><trkpt lat="40.64766304086892" lon="15.6965030012501"><ele>1229.0</ele><time>2026-04-08T07:54:57Z</time></trkpt><trkpt lat="40.647762134979565" lon="15.696478432691798"><ele>1229.0</ele><time>2026-04-08T07:54:58Z</time></trkpt><trkpt lat="40.64784885942523" lon="15.69648314344964"><ele>1229.0</ele><time>2026-04-08T07:54:59Z</time></trkpt><trkpt lat="40.64792424050662" lon="15.69650088419463"><ele>1229.0</ele><time>2026-04-08T07:55:00Z</time></trkpt><trkpt lat="40.64799204504364" lon="15.696539588602683"><ele>1229.0</ele><time>2026-04-08T07:55:01Z</time></trkpt><trkpt lat="40.648108607141" lon="15.69657129718999"><ele>1228.0</ele><time>2026-04-08T07:55:03Z</time></trkpt><trkpt lat="40.648219098273195" lon="15.696579461872073"><ele>1227.0</ele><time>2026-04-08T07:55:05Z</time></trkpt><trkpt lat="40.64828560436414" lon="15.696585783041419"><ele>1226.0</ele><time>2026-04-08T07:55:06Z</time></trkpt><trkpt lat="40.648346515490346" lon="15.696616731747135"><ele>1225.0</ele><time>2026-04-08T07:55:07Z</time></trkpt><trkpt lat="40.64840918828551" lon="15.696645754485273"><ele>1224.0</ele><time>2026-04-08T07:55:08Z</time></trkpt><trkpt lat="40.648484270863136" lon="15.69670425512745"><ele>1223.0</ele><time>2026-04-08T07:55:10Z</time></trkpt><trkpt lat="40.64855581923989" lon="15.696741842907922"><ele>1223.0</ele><time>2026-04-08T07:55:12Z</time></trkpt><trkpt lat="40.64858561439876" lon="15.696824228789573"><ele>1223.0</ele><time>2026-04-08T07:55:14Z</time></trkpt><trkpt lat="40.648675779253125" lon="15.697013459364666"><ele>1223.0</ele><time>2026-04-08T07:55:15Z</time></trkpt><trkpt lat="40.648702978318056" lon="15.697107974834852"><ele>1223.0</ele><time>2026-04-08T07:55:16Z</time></trkpt><trkpt lat="40.648709388812655" lon="15.697195054189615"><ele>1223.0</ele><time>2026-04-08T07:55:17Z</time></trkpt><trkpt lat="40.64875236539534" lon="15.697326394462635"><ele>1224.0</ele><time>2026-04-08T07:55:19Z</time></trkpt><trkpt lat="40.648863876474806" lon="15.69733951238436"><ele>1225.0</ele><time>2026-04-08T07:55:21Z</time></trkpt><trkpt lat="40.64892548407017" lon="15.697299467199807"><ele>1226.0</ele><time>2026-04-08T07:55:22Z</time></trkpt><trkpt lat="40.648982210732974" lon="15.697261560115612"><ele>1227.0</ele><time>2026-04-08T07:55:23Z</time></trkpt><trkpt lat="40.649040979162464" lon="15.69723158374836"><ele>1228.0</ele><time>2026-04-08T07:55:24Z</time></trkpt><trkpt lat="40.64909316304332" lon="15.697175523245095"><ele>1229.0</ele><time>2026-04-08T07:55:25Z</time></trkpt><trkpt lat="40.64920578947923" lon="15.697128079793043"><ele>1229.0</ele><time>2026-04-08T07:55:27Z</time></trkpt><trkpt lat="40.649309710691746" lon="15.697061072842976"><ele>1229.0</ele><time>2026-04-08T07:55:29Z</time></trkpt><trkpt lat="40.649401616028264" lon="15.69693107995649"><ele>1229.0</ele><time>2026-04-08T07:55:31Z</time></trkpt><trkpt lat="40.64945009738709" lon="15.696844865118921"><ele>1229.0</ele><time>2026-04-08T07:55:32Z</time></trkpt><trkpt lat="40.64960796607599" lon="15.696797374161637"><ele>1228.1666666666667</ele><time>2026-04-08T07:55:33Z</time></trkpt><trkpt lat="40.64963917149047" lon="15.696715146817287"><ele>1227.3333333333335</ele><time>2026-04-08T07:55:34Z</time></trkpt><trkpt lat="40.64967550072798" lon="15.696590689393537"><ele>1226.5</ele><time>2026-04-08T07:55:36Z</time></trkpt><trkpt lat="40.64969441066567" lon="15.6964983415414"><ele>1225.6666666666667</ele><time>2026-04-08T07:55:37Z</time></trkpt><trkpt lat="40.64971957091787" lon="15.69638799801977"><ele>1224.8333333333333</ele><time>2026-04-08T07:55:38Z</time></trkpt><trkpt lat="40.6497456926736" lon="15.696273437660308"><ele>1224.0</ele><time>2026-04-08T07:55:39Z</time></trkpt><trkpt lat="40.64977466899056" lon="15.696148207131506"><ele>1222.0</ele><time>2026-04-08T07:55:40Z</time></trkpt><trkpt lat="40.64980958068112" lon="15.695998182027372"><ele>1220.0</ele><time>2026-04-08T07:55:41Z</time></trkpt><trkpt lat="40.64984740804205" lon="15.695835627511432"><ele>1218.0</ele><time>2026-04-08T07:55:42Z</time></trkpt><trkpt lat="40.649882702297056" lon="15.69568322922049"><ele>1216.0</ele><time>2026-04-08T07:55:43Z</time></trkpt><trkpt lat="40.64991436519587" lon="15.695544226747444"><ele>1216.0</ele><time>2026-04-08T07:55:44Z</time></trkpt><trkpt lat="40.64993080130248" lon="15.695402610303336"><ele>1216.0</ele><time>2026-04-08T07:55:45Z</time></trkpt><trkpt lat="40.649963392384734" lon="15.695273334237104"><ele>1216.0</ele><time>2026-04-08T07:55:46Z</time></trkpt><trkpt lat="40.64998899161667" lon="15.69515210676855"><ele>1216.0</ele><time>2026-04-08T07:55:47Z</time></trkpt><trkpt lat="40.65001779043318" lon="15.69502779046428"><ele>1216.0</ele><time>2026-04-08T07:55:48Z</time></trkpt><trkpt lat="40.650057669241704" lon="15.6949261527243"><ele>1214.6666666666665</ele><time>2026-04-08T07:55:49Z</time></trkpt><trkpt lat="40.650084136740084" lon="15.69481343196418"><ele>1213.3333333333333</ele><time>2026-04-08T07:55:50Z</time></trkpt><trkpt lat="40.65010974850602" lon="15.694704355759791"><ele>1212.0</ele><time>2026-04-08T07:55:51Z</time></trkpt><trkpt lat="40.65013497450591" lon="15.694596922221272"><ele>1210.6666666666667</ele><time>2026-04-08T07:55:52Z</time></trkpt><trkpt lat="40.6501461216926" lon="15.694490014679857"><ele>1209.3333333333335</ele><time>2026-04-08T07:55:53Z</time></trkpt><trkpt lat="40.65017288864901" lon="15.694393535552651"><ele>1208.0</ele><time>2026-04-08T07:55:54Z</time></trkpt><trkpt lat="40.65020009148064" lon="15.694311034138021"><ele>1208.5</ele><time>2026-04-08T07:55:55Z</time></trkpt><trkpt lat="40.65026509918183" lon="15.694239981174055"><ele>1209.0</ele><time>2026-04-08T07:55:57Z</time></trkpt><trkpt lat="40.65035000323827" lon="15.694281700424746"><ele>1209.5</ele><time>2026-04-08T07:55:59Z</time></trkpt><trkpt lat="40.650409180446786" lon="15.694341576934047"><ele>1210.0</ele><time>2026-04-08T07:56:00Z</time></trkpt><trkpt lat="40.65048062892184" lon="15.694407535950813"><ele>1210.5</ele><time>2026-04-08T07:56:01Z</time></trkpt><trkpt lat="40.650567595239934" lon="15.694463401418963"><ele>1211.0</ele><time>2026-04-08T07:56:02Z</time></trkpt><trkpt lat="40.650670844372016" lon="15.694512502859729"><ele>1211.0</ele><time>2026-04-08T07:56:03Z</time></trkpt><trkpt lat="40.650768158295655" lon="15.694560568338472"><ele>1211.0</ele><time>2026-04-08T07:56:04Z</time></trkpt><trkpt lat="40.650870069423775" lon="15.694606233024711"><ele>1211.0</ele><time>2026-04-08T07:56:05Z</time></trkpt><trkpt lat="40.65097218685611" lon="15.694649948819004"><ele>1211.0</ele><time>2026-04-08T07:56:06Z</time></trkpt><trkpt lat="40.65108502299987" lon="15.694701307552457"><ele>1211.0</ele><time>2026-04-08T07:56:07Z</time></trkpt><trkpt lat="40.651195296416525" lon="15.69473814327771"><ele>1211.0</ele><time>2026-04-08T07:56:08Z</time></trkpt><trkpt lat="40.651302018034826" lon="15.694745090295104"><ele>1211.0</ele><time>2026-04-08T07:56:09Z</time></trkpt><trkpt lat="40.651414258569396" lon="15.694717369177965"><ele>1211.0</ele><time>2026-04-08T07:56:10Z</time></trkpt><trkpt lat="40.65152872033446" lon="15.694692185470075"><ele>1211.0</ele><time>2026-04-08T07:56:11Z</time></trkpt><trkpt lat="40.65163922736138" lon="15.694674813708557"><ele>1211.0</ele><time>2026-04-08T07:56:12Z</time></trkpt><trkpt lat="40.651736779777245" lon="15.694639649149385"><ele>1211.0</ele><time>2026-04-08T07:56:13Z</time></trkpt><trkpt lat="40.651825281469755" lon="15.694617781300087"><ele>1211.0</ele><time>2026-04-08T07:56:14Z</time></trkpt><trkpt lat="40.651920717656445" lon="15.694632319843597"><ele>1211.0</ele><time>2026-04-08T07:56:15Z</time></trkpt><trkpt lat="40.652017887394194" lon="15.694680369853222"><ele>1211.0</ele><time>2026-04-08T07:56:16Z</time></trkpt><trkpt lat="40.6521095768475" lon="15.694745725721166"><ele>1211.0</ele><time>2026-04-08T07:56:17Z</time></trkpt><trkpt lat="40.65220176550062" lon="15.694819054074223"><ele>1211.3999999999999</ele><time>2026-04-08T07:56:18Z</time></trkpt><trkpt lat="40.652281031017665" lon="15.694917143912134"><ele>1211.8</ele><time>2026-04-08T07:56:19Z</time></trkpt><trkpt lat="40.652349425659295" lon="15.695022207528183"><ele>1212.1999999999998</ele><time>2026-04-08T07:56:20Z</time></trkpt><trkpt lat="40.652423329317784" lon="15.695102884184053"><ele>1212.6</ele><time>2026-04-08T07:56:21Z</time></trkpt><trkpt lat="40.65251291109174" lon="15.695106774677239"><ele>1213.0</ele><time>2026-04-08T07:56:22Z</time></trkpt><trkpt lat="40.65261841221914" lon="15.695071531723052"><ele>1213.0</ele><time>2026-04-08T07:56:23Z</time></trkpt><trkpt lat="40.65271700899028" lon="15.695002057314891"><ele>1213.0</ele><time>2026-04-08T07:56:24Z</time></trkpt><trkpt lat="40.65282457236218" lon="15.694940325904147"><ele>1213.0</ele><time>2026-04-08T07:56:25Z</time></trkpt><trkpt lat="40.65292436125442" lon="15.694896052066627"><ele>1213.0</ele><time>2026-04-08T07:56:26Z</time></trkpt><trkpt lat="40.65302242318865" lon="15.694880690866032"><ele>1213.0</ele><time>2026-04-08T07:56:27Z</time></trkpt><trkpt lat="40.653123222408865" lon="15.69489178554723"><ele>1214.6</ele><time>2026-04-08T07:56:28Z</time></trkpt><trkpt lat="40.653228985244134" lon="15.69491513461018"><ele>1216.1999999999998</ele><time>2026-04-08T07:56:28.999Z</time></trkpt><trkpt lat="40.65333570870175" lon="15.694937956935624"><ele>1217.8</ele><time>2026-04-08T07:56:29.999Z</time></trkpt><trkpt lat="40.653445546221825" lon="15.694945471218873"><ele>1219.3999999999999</ele><time>2026-04-08T07:56:30.999Z</time></trkpt><trkpt lat="40.65354844615405" lon="15.69495804726869"><ele>1221.0</ele><time>2026-04-08T07:56:32Z</time></trkpt><trkpt lat="40.653651650412016" lon="15.69499832119046"><ele>1221.8</ele><time>2026-04-08T07:56:33Z</time></trkpt><trkpt lat="40.65374734448965" lon="15.695058953268038"><ele>1222.6</ele><time>2026-04-08T07:56:34Z</time></trkpt><trkpt lat="40.65384111229769" lon="15.695114989465303"><ele>1223.4</ele><time>2026-04-08T07:56:35Z</time></trkpt><trkpt lat="40.653931427575124" lon="15.695181768377248"><ele>1224.2</ele><time>2026-04-08T07:56:36Z</time></trkpt><trkpt lat="40.653995250038754" lon="15.69525611701551"><ele>1225.0</ele><time>2026-04-08T07:56:37Z</time></trkpt><trkpt lat="40.65405653520486" lon="15.695349129232657"><ele>1226.6</ele><time>2026-04-08T07:56:38Z</time></trkpt><trkpt lat="40.65411438188515" lon="15.695459820517543"><ele>1228.2</ele><time>2026-04-08T07:56:39Z</time></trkpt><trkpt lat="40.65417031130587" lon="15.695581580490042"><ele>1229.8</ele><time>2026-04-08T07:56:40Z</time></trkpt><trkpt lat="40.65424534442571" lon="15.69568833484613"><ele>1231.4</ele><time>2026-04-08T07:56:41Z</time></trkpt><trkpt lat="40.65432939901033" lon="15.695785227366182"><ele>1233.0</ele><time>2026-04-08T07:56:42Z</time></trkpt><trkpt lat="40.654410365287546" lon="15.695870737427018"><ele>1233.2</ele><time>2026-04-08T07:56:43Z</time></trkpt><trkpt lat="40.654486678054575" lon="15.695958405895153"><ele>1233.4</ele><time>2026-04-08T07:56:44Z</time></trkpt><trkpt lat="40.65455808077663" lon="15.69603498619101"><ele>1233.6000000000001</ele><time>2026-04-08T07:56:45Z</time></trkpt><trkpt lat="40.65464863132039" lon="15.696137230328764"><ele>1233.8</ele><time>2026-04-08T07:56:47Z</time></trkpt><trkpt lat="40.65471374675963" lon="15.696230378661653"><ele>1234.0</ele><time>2026-04-08T07:56:49Z</time></trkpt><trkpt lat="40.65465759687811" lon="15.696158017576328"><ele>1234.0</ele><time>2026-04-08T07:56:56Z</time></trkpt><trkpt lat="40.65468910315829" lon="15.696040042784105"><ele>1234.0</ele><time>2026-04-08T07:57:00Z</time></trkpt><trkpt lat="40.654737231221276" lon="15.695888227219024"><ele>1234.0</ele><time>2026-04-08T07:57:02Z</time></trkpt><trkpt lat="40.65475563099884" lon="15.695755651420392"><ele>1234.0</ele><time>2026-04-08T07:57:04Z</time></trkpt><trkpt lat="40.654778896100304" lon="15.695624090583001"><ele>1234.0</ele><time>2026-04-08T07:57:06Z</time></trkpt><trkpt lat="40.65482101117066" lon="15.695543908270018"><ele>1234.0</ele><time>2026-04-08T07:57:08Z</time></trkpt><trkpt lat="40.65488447785904" lon="15.695536524221152"><ele>1234.0</ele><time>2026-04-08T07:57:09Z</time></trkpt><trkpt lat="40.65496423129323" lon="15.695511961593612"><ele>1234.0</ele><time>2026-04-08T07:57:10Z</time></trkpt><trkpt lat="40.65505321629295" lon="15.695458248495571"><ele>1234.0</ele><time>2026-04-08T07:57:12Z</time></trkpt><trkpt lat="40.65512912806199" lon="15.695408423703372"><ele>1234.0</ele><time>2026-04-08T07:57:15Z</time></trkpt><trkpt lat="40.65522214597798" lon="15.69534363253094"><ele>1234.0</ele><time>2026-04-08T07:57:18Z</time></trkpt><trkpt lat="40.65529091057695" lon="15.695326736216119"><ele>1234.0</ele><time>2026-04-08T07:57:20Z</time></trkpt><trkpt lat="40.65536210443811" lon="15.69531604672563"><ele>1234.0</ele><time>2026-04-08T07:57:22Z</time></trkpt><trkpt lat="40.65543159677243" lon="15.695355826839283"><ele>1234.0</ele><time>2026-04-08T07:57:24Z</time></trkpt><trkpt lat="40.65549766762374" lon="15.695374679943287"><ele>1234.0</ele><time>2026-04-08T07:57:26Z</time></trkpt><trkpt lat="40.65557698491963" lon="15.695404935026056"><ele>1234.0</ele><time>2026-04-08T07:57:29Z</time></trkpt><trkpt lat="40.65563948072178" lon="15.695428744539484"><ele>1234.0</ele><time>2026-04-08T07:57:37Z</time></trkpt><trkpt lat="40.655705664445414" lon="15.695444242952966"><ele>1234.0</ele><time>2026-04-08T07:57:41Z</time></trkpt><trkpt lat="40.655778479077625" lon="15.695476048994873"><ele>1234.0</ele><time>2026-04-08T07:57:47Z</time></trkpt><trkpt lat="40.65585176550253" lon="15.695459131139673"><ele>1234.0</ele><time>2026-04-08T07:57:53Z</time></trkpt><trkpt lat="40.655904722048795" lon="15.695414033159814"><ele>1234.0</ele><time>2026-04-08T07:57:55Z</time></trkpt><trkpt lat="40.6559600303203" lon="15.695338678883383"><ele>1234.0</ele><time>2026-04-08T07:57:58Z</time></trkpt><trkpt lat="40.6560324150672" lon="15.695293051519672"><ele>1234.0</ele><time>2026-04-08T07:58:01Z</time></trkpt><trkpt lat="40.65609736302369" lon="15.695240166331994"><ele>1234.0</ele><time>2026-04-08T07:58:03Z</time></trkpt><trkpt lat="40.65618288366353" lon="15.695234500047688"><ele>1234.2857142857144</ele><time>2026-04-08T07:58:05Z</time></trkpt><trkpt lat="40.65624384839462" lon="15.695213523534054"><ele>1234.5714285714284</ele><time>2026-04-08T07:58:07Z</time></trkpt><trkpt lat="40.656322443948376" lon="15.695162299978342"><ele>1234.857142857143</ele><time>2026-04-08T07:58:09Z</time></trkpt><trkpt lat="40.6563799677878" lon="15.695122654070968"><ele>1235.1428571428573</ele><time>2026-04-08T07:58:12Z</time></trkpt><trkpt lat="40.65641949556335" lon="15.695046853291847"><ele>1235.4285714285716</ele><time>2026-04-08T07:58:17Z</time></trkpt><trkpt lat="40.65647957629839" lon="15.694973297185605"><ele>1235.7142857142858</ele><time>2026-04-08T07:58:21Z</time></trkpt><trkpt lat="40.656500890231044" lon="15.694889527640974"><ele>1236.0</ele><time>2026-04-08T07:58:24Z</time></trkpt><trkpt lat="40.65654925758823" lon="15.694818125894537"><ele>1236.0</ele><time>2026-04-08T07:58:27Z</time></trkpt><trkpt lat="40.6566047150681" lon="15.694769447002022"><ele>1236.0</ele><time>2026-04-08T07:58:29Z</time></trkpt><trkpt lat="40.65665116760139" lon="15.694688518868741"><ele>1236.0</ele><time>2026-04-08T07:58:32Z</time></trkpt><trkpt lat="40.656676303238065" lon="15.694555504294541"><ele>1236.0</ele><time>2026-04-08T07:58:35Z</time></trkpt><trkpt lat="40.65671674029898" lon="15.694438614181957"><ele>1236.0</ele><time>2026-04-08T07:58:37Z</time></trkpt><trkpt lat="40.6567857979177" lon="15.694375618363495"><ele>1236.0</ele><time>2026-04-08T07:58:40Z</time></trkpt><trkpt lat="40.65683202532934" lon="15.694311060519917"><ele>1237.0</ele><time>2026-04-08T07:58:42Z</time></trkpt><trkpt lat="40.65687707547855" lon="15.69425108890795"><ele>1238.0</ele><time>2026-04-08T07:58:44Z</time></trkpt><trkpt lat="40.65694240715159" lon="15.694188927132837"><ele>1239.0</ele><time>2026-04-08T07:58:47Z</time></trkpt><trkpt lat="40.657109329284445" lon="15.693997419948822"><ele>1240.0</ele><time>2026-04-08T07:58:50Z</time></trkpt><trkpt lat="40.65718075946926" lon="15.693975327521523"><ele>1241.0</ele><time>2026-04-08T07:58:52Z</time></trkpt><trkpt lat="40.65725299128628" lon="15.693982768074433"><ele>1241.0</ele><time>2026-04-08T07:58:54Z</time></trkpt><trkpt lat="40.657318446687746" lon="15.69400494448371"><ele>1241.0</ele><time>2026-04-08T07:58:56Z</time></trkpt><trkpt lat="40.65740215294728" lon="15.694038111492036"><ele>1241.0</ele><time>2026-04-08T07:58:58Z</time></trkpt><trkpt lat="40.65747487528659" lon="15.694060670908966"><ele>1241.0</ele><time>2026-04-08T07:59:00Z</time></trkpt><trkpt lat="40.65756859206149" lon="15.69409550491685"><ele>1241.0</ele><time>2026-04-08T07:59:02Z</time></trkpt><trkpt lat="40.65763967321047" lon="15.694048343602773"><ele>1241.0</ele><time>2026-04-08T07:59:05Z</time></trkpt><trkpt lat="40.65782009194554" lon="15.69403993912312"><ele>1242.1666666666667</ele><time>2026-04-08T07:59:12Z</time></trkpt><trkpt lat="40.65790320146549" lon="15.694032964997811"><ele>1243.3333333333335</ele><time>2026-04-08T07:59:15Z</time></trkpt><trkpt lat="40.65798311846825" lon="15.693993110111984"><ele>1244.5</ele><time>2026-04-08T07:59:18Z</time></trkpt><trkpt lat="40.658064761691875" lon="15.69395379987281"><ele>1245.6666666666667</ele><time>2026-04-08T07:59:20Z</time></trkpt><trkpt lat="40.65815062253526" lon="15.693900776262518"><ele>1246.8333333333333</ele><time>2026-04-08T07:59:23Z</time></trkpt><trkpt lat="40.65821552091094" lon="15.693857477750976"><ele>1248.0</ele><time>2026-04-08T07:59:25Z</time></trkpt><trkpt lat="40.658286880670566" lon="15.693848265129915"><ele>1248.0</ele><time>2026-04-08T07:59:28Z</time></trkpt><trkpt lat="40.65839957714647" lon="15.693839835448351"><ele>1248.0</ele><time>2026-04-08T07:59:35Z</time></trkpt><trkpt lat="40.65848952034207" lon="15.693856897672125"><ele>1248.0</ele><time>2026-04-08T07:59:37Z</time></trkpt><trkpt lat="40.65863404743488" lon="15.693864808823413"><ele>1248.0</ele><time>2026-04-08T07:59:42Z</time></trkpt><trkpt lat="40.658708331774776" lon="15.6938825412583"><ele>1248.0</ele><time>2026-04-08T07:59:44Z</time></trkpt><trkpt lat="40.658774513676725" lon="15.69393122989541"><ele>1250.6666666666667</ele><time>2026-04-08T07:59:47Z</time></trkpt><trkpt lat="40.65882642177538" lon="15.694017061138263"><ele>1253.3333333333333</ele><time>2026-04-08T07:59:49Z</time></trkpt><trkpt lat="40.65885315394622" lon="15.694103246470876"><ele>1256.0</ele><time>2026-04-08T07:59:50Z</time></trkpt><trkpt lat="40.65889097541838" lon="15.694177202843033"><ele>1258.6666666666665</ele><time>2026-04-08T07:59:52Z</time></trkpt><trkpt lat="40.658978826206905" lon="15.694231692026875"><ele>1261.3333333333333</ele><time>2026-04-08T07:59:55Z</time></trkpt><trkpt lat="40.659023969951654" lon="15.694317432666766"><ele>1264.0</ele><time>2026-04-08T07:59:58Z</time></trkpt><trkpt lat="40.65905974694694" lon="15.694564763354574"><ele>1266.0</ele><time>2026-04-08T07:59:59Z</time></trkpt><trkpt lat="40.65907456228138" lon="15.694676176727203"><ele>1268.0</ele><time>2026-04-08T08:00:01Z</time></trkpt><trkpt lat="40.659112441234946" lon="15.694835232765831"><ele>1270.0</ele><time>2026-04-08T08:00:02Z</time></trkpt><trkpt lat="40.659149063307005" lon="15.694983174401514"><ele>1272.0</ele><time>2026-04-08T08:00:03Z</time></trkpt><trkpt lat="40.659189876396084" lon="15.695093303182679"><ele>1274.0</ele><time>2026-04-08T08:00:04Z</time></trkpt><trkpt lat="40.65922461583196" lon="15.695178296424272"><ele>1274.0</ele><time>2026-04-08T08:00:05Z</time></trkpt><trkpt lat="40.659239083697884" lon="15.69529807843958"><ele>1274.0</ele><time>2026-04-08T08:00:07Z</time></trkpt><trkpt lat="40.659259152492666" lon="15.695404233767357"><ele>1274.0</ele><time>2026-04-08T08:00:08Z</time></trkpt><trkpt lat="40.65912520208222" lon="15.695178306955992"><ele>1274.0</ele><time>2026-04-08T08:00:09Z</time></trkpt><trkpt lat="40.65915626442724" lon="15.695307320149297"><ele>1274.8333333333335</ele><time>2026-04-08T08:00:10Z</time></trkpt><trkpt lat="40.65918602213728" lon="15.695385495898536"><ele>1275.6666666666667</ele><time>2026-04-08T08:00:11Z</time></trkpt><trkpt lat="40.65921067270373" lon="15.695489382024574"><ele>1276.5</ele><time>2026-04-08T08:00:12Z</time></trkpt><trkpt lat="40.65928441766304" lon="15.695503379095829"><ele>1277.3333333333333</ele><time>2026-04-08T08:00:23Z</time></trkpt><trkpt lat="40.65935476998203" lon="15.695416592272423"><ele>1278.1666666666665</ele><time>2026-04-08T08:00:25Z</time></trkpt><trkpt lat="40.65945457079197" lon="15.695332689533352"><ele>1279.0</ele><time>2026-04-08T08:00:27Z</time></trkpt><trkpt lat="40.65949669438033" lon="15.695268886277104"><ele>1282.4</ele><time>2026-04-08T08:00:28Z</time></trkpt><trkpt lat="40.65954446369421" lon="15.695198449833486"><ele>1285.8000000000002</ele><time>2026-04-08T08:00:29Z</time></trkpt><trkpt lat="40.65964372002485" lon="15.695121942692634"><ele>1289.1999999999998</ele><time>2026-04-08T08:00:30Z</time></trkpt><trkpt lat="40.65970538415294" lon="15.695048944983322"><ele>1292.6</ele><time>2026-04-08T08:00:31Z</time></trkpt><trkpt lat="40.65977435594424" lon="15.694930287020567"><ele>1296.0</ele><time>2026-04-08T08:00:33Z</time></trkpt><trkpt lat="40.65987183145639" lon="15.694871643817013"><ele>1296.0</ele><time>2026-04-08T08:00:35Z</time></trkpt><trkpt lat="40.659970936533355" lon="15.694757306293408"><ele>1296.0</ele><time>2026-04-08T08:00:37Z</time></trkpt><trkpt lat="40.66003000453989" lon="15.694725208711297"><ele>1296.0</ele><time>2026-04-08T08:00:38Z</time></trkpt><trkpt lat="40.6600905129076" lon="15.694675611296434"><ele>1296.0</ele><time>2026-04-08T08:00:39Z</time></trkpt><trkpt lat="40.660314455407345" lon="15.694765151964692"><ele>1296.5</ele><time>2026-04-08T08:00:41Z</time></trkpt><trkpt lat="40.6603936050963" lon="15.694621981218921"><ele>1297.0</ele><time>2026-04-08T08:00:45Z</time></trkpt><trkpt lat="40.66045022275266" lon="15.69455986398278"><ele>1297.5</ele><time>2026-04-08T08:00:47Z</time></trkpt><trkpt lat="40.66049924603652" lon="15.69449275258155"><ele>1298.0</ele><time>2026-04-08T08:00:48Z</time></trkpt><trkpt lat="40.660556922936166" lon="15.694423148818712"><ele>1298.5</ele><time>2026-04-08T08:00:49Z</time></trkpt><trkpt lat="40.66063577887102" lon="15.694396131977228"><ele>1299.0</ele><time>2026-04-08T08:00:51Z</time></trkpt><trkpt lat="40.66068508944405" lon="15.694309618591397"><ele>1299.0</ele><time>2026-04-08T08:00:53Z</time></trkpt><trkpt lat="40.66071908911054" lon="15.694405648340673"><ele>1299.0</ele><time>2026-04-08T08:00:55Z</time></trkpt><trkpt lat="40.66077033959939" lon="15.694331497915254"><ele>1299.0</ele><time>2026-04-08T08:00:58Z</time></trkpt><trkpt lat="40.660874652792906" lon="15.69428682514511"><ele>1299.0</ele><time>2026-04-08T08:01:00Z</time></trkpt><trkpt lat="40.66100971872326" lon="15.694262779327337"><ele>1299.0</ele><time>2026-04-08T08:01:03Z</time></trkpt><trkpt lat="40.66114219523005" lon="15.694066493657301"><ele>1303.25</ele><time>2026-04-08T08:01:04Z</time></trkpt><trkpt lat="40.661263171924084" lon="15.694011358479187"><ele>1307.5</ele><time>2026-04-08T08:01:05Z</time></trkpt><trkpt lat="40.66144158339165" lon="15.694028736560528"><ele>1311.75</ele><time>2026-04-08T08:01:08Z</time></trkpt><trkpt lat="40.66153343962538" lon="15.694011628399897"><ele>1316.0</ele><time>2026-04-08T08:01:09Z</time></trkpt><trkpt lat="40.661612311224154" lon="15.694045061183687"><ele>1316.0</ele><time>2026-04-08T08:01:10Z</time></trkpt><trkpt lat="40.66170167510705" lon="15.69407610443547"><ele>1316.0</ele><time>2026-04-08T08:01:11Z</time></trkpt><trkpt lat="40.66177819610987" lon="15.694065358295836"><ele>1316.0</ele><time>2026-04-08T08:01:12Z</time></trkpt><trkpt lat="40.66190865888793" lon="15.694061431287022"><ele>1316.0</ele><time>2026-04-08T08:01:14Z</time></trkpt><trkpt lat="40.66197255242975" lon="15.694075217440597"><ele>1316.0</ele><time>2026-04-08T08:01:15Z</time></trkpt><trkpt lat="40.66203530171721" lon="15.694096996680756"><ele>1316.0</ele><time>2026-04-08T08:01:16Z</time></trkpt><trkpt lat="40.66210556823763" lon="15.694121008716024"><ele>1315.1999999999998</ele><time>2026-04-08T08:01:17Z</time></trkpt><trkpt lat="40.66215785036431" lon="15.694180075598448"><ele>1314.3999999999999</ele><time>2026-04-08T08:01:18Z</time></trkpt><trkpt lat="40.66222175631705" lon="15.694217472042897"><ele>1313.6</ele><time>2026-04-08T08:01:19Z</time></trkpt><trkpt lat="40.6623243126502" lon="15.694315123480434"><ele>1312.8</ele><time>2026-04-08T08:01:21Z</time></trkpt><trkpt lat="40.66237104089381" lon="15.694374746373098"><ele>1312.0</ele><time>2026-04-08T08:01:22Z</time></trkpt><trkpt lat="40.66245751780805" lon="15.694661087945065"><ele>1284.0</ele><time>2026-04-08T08:01:24Z</time></trkpt><trkpt lat="40.66288086097599" lon="15.694862803658777"><ele>1284.0</ele><time>2026-04-08T08:01:33Z</time></trkpt><trkpt lat="40.662972274854006" lon="15.69483451985414"><ele>1284.0</ele><time>2026-04-08T08:01:35Z</time></trkpt><trkpt lat="40.66303695507324" lon="15.694758631236864"><ele>1284.0</ele><time>2026-04-08T08:01:37Z</time></trkpt><trkpt lat="40.66309640429107" lon="15.694674432712931"><ele>1284.0</ele><time>2026-04-08T08:01:40Z</time></trkpt><trkpt lat="40.66302356469104" lon="15.694760387316988"><ele>1284.0</ele><time>2026-04-08T08:04:23Z</time></trkpt><trkpt lat="40.663035258894624" lon="15.694874156877827"><ele>1284.0</ele><time>2026-04-08T08:04:26Z</time></trkpt><trkpt lat="40.66308223235711" lon="15.69494629245415"><ele>1284.0</ele><time>2026-04-08T08:04:30Z</time></trkpt><trkpt lat="40.66314752613701" lon="15.695009969602268"><ele>1284.0</ele><time>2026-04-08T08:04:33Z</time></trkpt><trkpt lat="40.663226639419925" lon="15.695041205945804"><ele>1284.0</ele><time>2026-04-08T08:04:35Z</time></trkpt><trkpt lat="40.66332166944218" lon="15.695111900447424"><ele>1284.0</ele><time>2026-04-08T08:04:37Z</time></trkpt><trkpt lat="40.66340841967512" lon="15.695131077927517"><ele>1284.0</ele><time>2026-04-08T08:04:39Z</time></trkpt><trkpt lat="40.663508241003605" lon="15.695186072988015"><ele>1284.0</ele><time>2026-04-08T08:04:41Z</time></trkpt><trkpt lat="40.66356922261219" lon="15.695220717805851"><ele>1284.0</ele><time>2026-04-08T08:04:42Z</time></trkpt><trkpt lat="40.663628981434876" lon="15.69527545155335"><ele>1284.0</ele><time>2026-04-08T08:04:43Z</time></trkpt><trkpt lat="40.66369475674689" lon="15.695278214491658"><ele>1284.0</ele><time>2026-04-08T08:04:45Z</time></trkpt><trkpt lat="40.663781707844706" lon="15.695300993402977"><ele>1284.0</ele><time>2026-04-08T08:04:47Z</time></trkpt><trkpt lat="40.66382983843473" lon="15.695363182077914"><ele>1284.0</ele><time>2026-04-08T08:04:49Z</time></trkpt><trkpt lat="40.663912372467415" lon="15.695534341561485"><ele>1280.0</ele><time>2026-04-08T08:04:51Z</time></trkpt><trkpt lat="40.66398145204803" lon="15.695660792158616"><ele>1276.0</ele><time>2026-04-08T08:04:52Z</time></trkpt><trkpt lat="40.6640270422756" lon="15.695761774593684"><ele>1272.0</ele><time>2026-04-08T08:04:54Z</time></trkpt><trkpt lat="40.66411218174385" lon="15.695812023110628"><ele>1268.0</ele><time>2026-04-08T08:05:03Z</time></trkpt><trkpt lat="40.66417488843813" lon="15.695852524019447"><ele>1264.0</ele><time>2026-04-08T08:05:05Z</time></trkpt><trkpt lat="40.664261846469195" lon="15.695847375174319"><ele>1264.0</ele><time>2026-04-08T08:05:06Z</time></trkpt><trkpt lat="40.664361229969415" lon="15.695840654328919"><ele>1264.0</ele><time>2026-04-08T08:05:08Z</time></trkpt><trkpt lat="40.66442341312228" lon="15.695859368615153"><ele>1264.0</ele><time>2026-04-08T08:05:09Z</time></trkpt><trkpt lat="40.6645193848936" lon="15.695927686828151"><ele>1264.0</ele><time>2026-04-08T08:05:10Z</time></trkpt><trkpt lat="40.66458219790965" lon="15.695959264903843"><ele>1264.0</ele><time>2026-04-08T08:05:11Z</time></trkpt><trkpt lat="40.66467064671889" lon="15.695993971289628"><ele>1264.0</ele><time>2026-04-08T08:05:13Z</time></trkpt><trkpt lat="40.664730385937325" lon="15.696075727013337"><ele>1262.0</ele><time>2026-04-08T08:05:15Z</time></trkpt><trkpt lat="40.66482210042161" lon="15.696164425089911"><ele>1260.0</ele><time>2026-04-08T08:05:16Z</time></trkpt><trkpt lat="40.664913024319404" lon="15.696289428795472"><ele>1258.0</ele><time>2026-04-08T08:05:17Z</time></trkpt><trkpt lat="40.664966895600934" lon="15.696383425682189"><ele>1256.0</ele><time>2026-04-08T08:05:18Z</time></trkpt><trkpt lat="40.6650095892163" lon="15.696506269458167"><ele>1254.0</ele><time>2026-04-08T08:05:19Z</time></trkpt><trkpt lat="40.66506877936051" lon="15.696601297779504"><ele>1254.0</ele><time>2026-04-08T08:05:20Z</time></trkpt><trkpt lat="40.665194598121495" lon="15.696703309919165"><ele>1254.0</ele><time>2026-04-08T08:05:21Z</time></trkpt><trkpt lat="40.665283033424295" lon="15.696837454167667"><ele>1254.0</ele><time>2026-04-08T08:05:22Z</time></trkpt><trkpt lat="40.66532350035627" lon="15.696920730894941"><ele>1254.0</ele><time>2026-04-08T08:05:23Z</time></trkpt><trkpt lat="40.66535209876745" lon="15.697058773101766"><ele>1251.8</ele><time>2026-04-08T08:05:25Z</time></trkpt><trkpt lat="40.6654526672665" lon="15.697201563413982"><ele>1249.6000000000001</ele><time>2026-04-08T08:05:26Z</time></trkpt><trkpt lat="40.66541227346633" lon="15.697275901912962"><ele>1247.4</ele><time>2026-04-08T08:05:27Z</time></trkpt><trkpt lat="40.665413028744254" lon="15.697426199290595"><ele>1245.2</ele><time>2026-04-08T08:05:28Z</time></trkpt><trkpt lat="40.66543938106395" lon="15.697548220237241"><ele>1243.0</ele><time>2026-04-08T08:05:29Z</time></trkpt><trkpt lat="40.665461950466614" lon="15.697659756104823"><ele>1244.1666666666665</ele><time>2026-04-08T08:05:30Z</time></trkpt><trkpt lat="40.66549515713756" lon="15.697763548413649"><ele>1245.3333333333333</ele><time>2026-04-08T08:05:31Z</time></trkpt><trkpt lat="40.665514777401775" lon="15.6978572525011"><ele>1246.5</ele><time>2026-04-08T08:05:32Z</time></trkpt><trkpt lat="40.665479094943336" lon="15.697941467858673"><ele>1247.6666666666667</ele><time>2026-04-08T08:05:33Z</time></trkpt><trkpt lat="40.665478509108105" lon="15.698033330151159"><ele>1248.8333333333335</ele><time>2026-04-08T08:05:34Z</time></trkpt><trkpt lat="40.66545982256671" lon="15.698127188602731"><ele>1250.0</ele><time>2026-04-08T08:05:35Z</time></trkpt><trkpt lat="40.6653858170294" lon="15.698211221190304"><ele>1250.0</ele><time>2026-04-08T08:05:36Z</time></trkpt><trkpt lat="40.66535344834557" lon="15.698304276494026"><ele>1250.0</ele><time>2026-04-08T08:05:37Z</time></trkpt><trkpt lat="40.665302248312564" lon="15.698406612729615"><ele>1250.0</ele><time>2026-04-08T08:05:38Z</time></trkpt><trkpt lat="40.66526144302464" lon="15.698497825604043"><ele>1250.0</ele><time>2026-04-08T08:05:39Z</time></trkpt><trkpt lat="40.66519974944646" lon="15.698576587564984"><ele>1250.0</ele><time>2026-04-08T08:05:40Z</time></trkpt><trkpt lat="40.665154216102245" lon="15.698652054821736"><ele>1250.0</ele><time>2026-04-08T08:05:41Z</time></trkpt><trkpt lat="40.66511010904716" lon="15.698721654011912"><ele>1246.6</ele><time>2026-04-08T08:05:42Z</time></trkpt><trkpt lat="40.665054242112035" lon="15.698838703474955"><ele>1243.2</ele><time>2026-04-08T08:05:43Z</time></trkpt><trkpt lat="40.66502272231361" lon="15.698985893093308"><ele>1239.8</ele><time>2026-04-08T08:05:45Z</time></trkpt><trkpt lat="40.665029629527325" lon="15.699070418309974"><ele>1236.4</ele><time>2026-04-08T08:05:46Z</time></trkpt><trkpt lat="40.66503578590972" lon="15.699153838460319"><ele>1233.0</ele><time>2026-04-08T08:05:47Z</time></trkpt><trkpt lat="40.66524311281754" lon="15.699224452795132"><ele>1233.0</ele><time>2026-04-08T08:05:48Z</time></trkpt><trkpt lat="40.665312369489115" lon="15.699248791037046"><ele>1233.0</ele><time>2026-04-08T08:05:49Z</time></trkpt><trkpt lat="40.6653957667336" lon="15.6993376030594"><ele>1233.0</ele><time>2026-04-08T08:05:50Z</time></trkpt><trkpt lat="40.665452424316975" lon="15.699451065586581"><ele>1233.0</ele><time>2026-04-08T08:05:51Z</time></trkpt><trkpt lat="40.66547682808664" lon="15.699598182398043"><ele>1233.0</ele><time>2026-04-08T08:05:52Z</time></trkpt><trkpt lat="40.66549966616275" lon="15.699779072673925"><ele>1233.0</ele><time>2026-04-08T08:05:53Z</time></trkpt><trkpt lat="40.6655261975626" lon="15.699936798771747"><ele>1233.0</ele><time>2026-04-08T08:05:54Z</time></trkpt><trkpt lat="40.66555113442149" lon="15.70004055209074"><ele>1233.0</ele><time>2026-04-08T08:05:55Z</time></trkpt><trkpt lat="40.665559214580654" lon="15.700153845644712"><ele>1233.0</ele><time>2026-04-08T08:05:56Z</time></trkpt><trkpt lat="40.66558048584264" lon="15.700265870988638"><ele>1233.0</ele><time>2026-04-08T08:05:57Z</time></trkpt><trkpt lat="40.66560104636135" lon="15.700378717908327"><ele>1231.0</ele><time>2026-04-08T08:05:58Z</time></trkpt><trkpt lat="40.66560421760673" lon="15.70053720357966"><ele>1229.0</ele><time>2026-04-08T08:06:00Z</time></trkpt><trkpt lat="40.6656296271851" lon="15.700667540846444"><ele>1227.0</ele><time>2026-04-08T08:06:02Z</time></trkpt><trkpt lat="40.6655541454537" lon="15.700724192418575"><ele>1225.0</ele><time>2026-04-08T08:06:04Z</time></trkpt><trkpt lat="40.66548497854078" lon="15.700811610131089"><ele>1223.0</ele><time>2026-04-08T08:06:05Z</time></trkpt><trkpt lat="40.66543477336301" lon="15.700926403816371"><ele>1223.0</ele><time>2026-04-08T08:06:06Z</time></trkpt><trkpt lat="40.665404813597455" lon="15.701015857505674"><ele>1223.0</ele><time>2026-04-08T08:06:07Z</time></trkpt><trkpt lat="40.66532110869749" lon="15.701023794351348"><ele>1223.0</ele><time>2026-04-08T08:06:08Z</time></trkpt><trkpt lat="40.66522694433547" lon="15.701042451895834"><ele>1223.0</ele><time>2026-04-08T08:06:09Z</time></trkpt><trkpt lat="40.665162153330776" lon="15.70110640984652"><ele>1223.0</ele><time>2026-04-08T08:06:10Z</time></trkpt><trkpt lat="40.66508643346562" lon="15.70112516964671"><ele>1223.0</ele><time>2026-04-08T08:06:11Z</time></trkpt><trkpt lat="40.66502049742029" lon="15.70115761224305"><ele>1219.0</ele><time>2026-04-08T08:06:12Z</time></trkpt><trkpt lat="40.66496152063215" lon="15.701190609671102"><ele>1215.0</ele><time>2026-04-08T08:06:13Z</time></trkpt><trkpt lat="40.664852012055185" lon="15.70126528940467"><ele>1211.0</ele><time>2026-04-08T08:06:15Z</time></trkpt><trkpt lat="40.66480795834765" lon="15.701380614204053"><ele>1207.0</ele><time>2026-04-08T08:06:17Z</time></trkpt><trkpt lat="40.66479449553685" lon="15.70151726231799"><ele>1203.0</ele><time>2026-04-08T08:06:19Z</time></trkpt><trkpt lat="40.6648047147531" lon="15.701606434161771"><ele>1203.0</ele><time>2026-04-08T08:06:20Z</time></trkpt><trkpt lat="40.664786734134324" lon="15.701705670762333"><ele>1203.0</ele><time>2026-04-08T08:06:23Z</time></trkpt><trkpt lat="40.66479311120742" lon="15.701823687854608"><ele>1203.0</ele><time>2026-04-08T08:06:25Z</time></trkpt><trkpt lat="40.66480830606719" lon="15.701907661144206"><ele>1203.0</ele><time>2026-04-08T08:06:26Z</time></trkpt><trkpt lat="40.664841014562946" lon="15.701995801852936"><ele>1203.0</ele><time>2026-04-08T08:06:27Z</time></trkpt><trkpt lat="40.664825336768324" lon="15.702188542540306"><ele>1202.0</ele><time>2026-04-08T08:06:29Z</time></trkpt><trkpt lat="40.664792434821166" lon="15.702366060885796"><ele>1201.0</ele><time>2026-04-08T08:06:30Z</time></trkpt><trkpt lat="40.66476980202469" lon="15.702495960947944"><ele>1200.0</ele><time>2026-04-08T08:06:31Z</time></trkpt><trkpt lat="40.66476295916493" lon="15.702591011979328"><ele>1199.0</ele><time>2026-04-08T08:06:32Z</time></trkpt><trkpt lat="40.664750991507994" lon="15.702683269151553"><ele>1198.0</ele><time>2026-04-08T08:06:33Z</time></trkpt><trkpt lat="40.66465064617128" lon="15.702768192316558"><ele>1197.3333333333333</ele><time>2026-04-08T08:06:35Z</time></trkpt><trkpt lat="40.664570905763135" lon="15.702815361939278"><ele>1196.6666666666665</ele><time>2026-04-08T08:06:36Z</time></trkpt><trkpt lat="40.66450257674819" lon="15.702860815221406"><ele>1196.0</ele><time>2026-04-08T08:06:37Z</time></trkpt><trkpt lat="40.66443623081576" lon="15.702876428657486"><ele>1195.3333333333333</ele><time>2026-04-08T08:06:38Z</time></trkpt><trkpt lat="40.664374336534486" lon="15.702952910228557"><ele>1194.6666666666667</ele><time>2026-04-08T08:06:41Z</time></trkpt><trkpt lat="40.66430991713777" lon="15.703042696536741"><ele>1194.0</ele><time>2026-04-08T08:06:43Z</time></trkpt><trkpt lat="40.66426631287603" lon="15.703136015431745"><ele>1192.5</ele><time>2026-04-08T08:06:45Z</time></trkpt><trkpt lat="40.664176039389055" lon="15.70316720845173"><ele>1191.0</ele><time>2026-04-08T08:06:47Z</time></trkpt><trkpt lat="40.664082497165246" lon="15.703164733109832"><ele>1189.5</ele><time>2026-04-08T08:06:49Z</time></trkpt><trkpt lat="40.66400666701163" lon="15.703145178356491"><ele>1188.0</ele><time>2026-04-08T08:06:50Z</time></trkpt><trkpt lat="40.66393716198329" lon="15.703105338517409"><ele>1186.5</ele><time>2026-04-08T08:06:52Z</time></trkpt><trkpt lat="40.66385581563357" lon="15.703065652157328"><ele>1185.0</ele><time>2026-04-08T08:06:53.999Z</time></trkpt><trkpt lat="40.66376678729571" lon="15.70299289033241"><ele>1185.0</ele><time>2026-04-08T08:06:55.999Z</time></trkpt><trkpt lat="40.66369844755085" lon="15.703014993374222"><ele>1185.0</ele><time>2026-04-08T08:07:19Z</time></trkpt><trkpt lat="40.66366518945514" lon="15.703089211132427"><ele>1185.0</ele><time>2026-04-08T08:07:36Z</time></trkpt><trkpt lat="40.66363072545936" lon="15.703163907771826"><ele>1185.0</ele><time>2026-04-08T08:07:41Z</time></trkpt><trkpt lat="40.66358912727842" lon="15.703231397937413"><ele>1185.0</ele><time>2026-04-08T08:07:48Z</time></trkpt><trkpt lat="40.663542744691995" lon="15.703289092303681"><ele>1185.0</ele><time>2026-04-08T08:07:51Z</time></trkpt><trkpt lat="40.66349698967505" lon="15.703355997001145"><ele>1185.0</ele><time>2026-04-08T08:07:54Z</time></trkpt><trkpt lat="40.66333174976535" lon="15.703483454658446"><ele>1184.8333333333333</ele><time>2026-04-08T08:07:57Z</time></trkpt><trkpt lat="40.66329822935742" lon="15.703565395777542"><ele>1184.6666666666667</ele><time>2026-04-08T08:07:58Z</time></trkpt><trkpt lat="40.66325134634901" lon="15.703629075722771"><ele>1184.5</ele><time>2026-04-08T08:07:59Z</time></trkpt><trkpt lat="40.663204075991416" lon="15.703718243718724"><ele>1184.3333333333335</ele><time>2026-04-08T08:08:01Z</time></trkpt><trkpt lat="40.66325145431097" lon="15.703807373085768"><ele>1184.1666666666667</ele><time>2026-04-08T08:08:05Z</time></trkpt><trkpt lat="40.663262514048036" lon="15.703913442353592"><ele>1184.0</ele><time>2026-04-08T08:08:08Z</time></trkpt><trkpt lat="40.6632923070839" lon="15.704021693173871"><ele>1184.0</ele><time>2026-04-08T08:08:11Z</time></trkpt><trkpt lat="40.66334127964647" lon="15.704074299823672"><ele>1184.0</ele><time>2026-04-08T08:08:13Z</time></trkpt><trkpt lat="40.66341955385292" lon="15.704106635826157"><ele>1184.0</ele><time>2026-04-08T08:08:15Z</time></trkpt><trkpt lat="40.66348627174728" lon="15.704198637610654"><ele>1184.0</ele><time>2026-04-08T08:08:18Z</time></trkpt><trkpt lat="40.66353803432282" lon="15.70425425211054"><ele>1184.0</ele><time>2026-04-08T08:08:21Z</time></trkpt><trkpt lat="40.663568464697974" lon="15.704340519219993"><ele>1184.0</ele><time>2026-04-08T08:08:25Z</time></trkpt><trkpt lat="40.66362100199729" lon="15.704394728808639"><ele>1184.0</ele><time>2026-04-08T08:08:28Z</time></trkpt><trkpt lat="40.66366515434078" lon="15.70445833781497"><ele>1181.6000000000001</ele><time>2026-04-08T08:08:32Z</time></trkpt><trkpt lat="40.663692732904984" lon="15.704539805071905"><ele>1179.2</ele><time>2026-04-08T08:08:37Z</time></trkpt><trkpt lat="40.66372546435273" lon="15.704638874407552"><ele>1176.8000000000002</ele><time>2026-04-08T08:08:42Z</time></trkpt><trkpt lat="40.663868817103" lon="15.704783608701197"><ele>1174.4</ele><time>2026-04-08T08:08:44Z</time></trkpt><trkpt lat="40.66377325612166" lon="15.704752364526739"><ele>1172.0</ele><time>2026-04-08T08:08:45Z</time></trkpt><trkpt lat="40.663843815548496" lon="15.704897917227136"><ele>1172.0</ele><time>2026-04-08T08:08:47Z</time></trkpt><trkpt lat="40.66387593868474" lon="15.704972713663858"><ele>1172.0</ele><time>2026-04-08T08:08:48Z</time></trkpt><trkpt lat="40.66391363659342" lon="15.70512425126735"><ele>1172.0</ele><time>2026-04-08T08:08:50Z</time></trkpt><trkpt lat="40.66395990902977" lon="15.705274760541698"><ele>1172.0</ele><time>2026-04-08T08:08:52Z</time></trkpt><trkpt lat="40.66398706576689" lon="15.705364578111922"><ele>1172.0</ele><time>2026-04-08T08:08:54Z</time></trkpt><trkpt lat="40.66402518963108" lon="15.705507735991482"><ele>1173.5</ele><time>2026-04-08T08:08:56Z</time></trkpt><trkpt lat="40.66404930799887" lon="15.705595494416785"><ele>1175.0</ele><time>2026-04-08T08:08:58Z</time></trkpt><trkpt lat="40.664023929034265" lon="15.705686284535707"><ele>1176.5</ele><time>2026-04-08T08:09:12Z</time></trkpt><trkpt lat="40.66407745606915" lon="15.705735575100855"><ele>1178.0</ele><time>2026-04-08T08:09:15Z</time></trkpt><trkpt lat="40.664138643500834" lon="15.705832241942318"><ele>1179.5</ele><time>2026-04-08T08:09:17Z</time></trkpt><trkpt lat="40.66419074413146" lon="15.705910562439412"><ele>1181.0</ele><time>2026-04-08T08:09:21Z</time></trkpt><trkpt lat="40.66421797126577" lon="15.70601642762745"><ele>1184.0</ele><time>2026-04-08T08:09:24Z</time></trkpt><trkpt lat="40.664529071908426" lon="15.70652830584649"><ele>1184.0</ele><time>2026-04-08T08:09:30Z</time></trkpt><trkpt lat="40.66461693720148" lon="15.706566018921345"><ele>1184.0</ele><time>2026-04-08T08:09:31Z</time></trkpt><trkpt lat="40.66472490954612" lon="15.706618973541664"><ele>1184.0</ele><time>2026-04-08T08:09:32Z</time></trkpt><trkpt lat="40.66481049815354" lon="15.706685074384728"><ele>1184.0</ele><time>2026-04-08T08:09:33Z</time></trkpt><trkpt lat="40.66485525852702" lon="15.706743995529655"><ele>1184.0</ele><time>2026-04-08T08:09:34Z</time></trkpt><trkpt lat="40.66489388496142" lon="15.706823899412958"><ele>1184.0</ele><time>2026-04-08T08:09:35Z</time></trkpt><trkpt lat="40.66493242819474" lon="15.706921179149347"><ele>1184.0</ele><time>2026-04-08T08:09:36Z</time></trkpt><trkpt lat="40.66497107096444" lon="15.707012105516608"><ele>1184.0</ele><time>2026-04-08T08:09:37Z</time></trkpt><trkpt lat="40.6649995901856" lon="15.707135438689665"><ele>1184.0</ele><time>2026-04-08T08:09:39Z</time></trkpt><trkpt lat="40.66505247066349" lon="15.707202777123113"><ele>1184.0</ele><time>2026-04-08T08:09:40Z</time></trkpt><trkpt lat="40.665132244457446" lon="15.707259456676443"><ele>1184.0</ele><time>2026-04-08T08:09:41Z</time></trkpt><trkpt lat="40.66519738012266" lon="15.707332349594282"><ele>1184.0</ele><time>2026-04-08T08:09:42Z</time></trkpt><trkpt lat="40.6653075760247" lon="15.707383197825742"><ele>1184.0</ele><time>2026-04-08T08:09:44Z</time></trkpt><trkpt lat="40.66538865700991" lon="15.707445959663644"><ele>1184.0</ele><time>2026-04-08T08:09:45Z</time></trkpt><trkpt lat="40.66547586540374" lon="15.70748929153906"><ele>1184.0</ele><time>2026-04-08T08:09:46Z</time></trkpt><trkpt lat="40.66553356822262" lon="15.707526056846545"><ele>1184.0</ele><time>2026-04-08T08:09:47Z</time></trkpt><trkpt lat="40.66559819646121" lon="15.707557127629876"><ele>1184.0</ele><time>2026-04-08T08:09:49Z</time></trkpt><trkpt lat="40.665663996579454" lon="15.707597094125465"><ele>1184.0</ele><time>2026-04-08T08:09:51Z</time></trkpt><trkpt lat="40.665742758937846" lon="15.707675926130548"><ele>1185.3333333333335</ele><time>2026-04-08T08:09:53Z</time></trkpt><trkpt lat="40.66572424547269" lon="15.707783367631494"><ele>1186.6666666666667</ele><time>2026-04-08T08:09:54Z</time></trkpt><trkpt lat="40.665830746221474" lon="15.70782102257288"><ele>1188.0</ele><time>2026-04-08T08:09:55Z</time></trkpt><trkpt lat="40.665827569003135" lon="15.707953350700294"><ele>1189.3333333333333</ele><time>2026-04-08T08:09:56Z</time></trkpt><trkpt lat="40.665821259316715" lon="15.708056042539043"><ele>1190.6666666666665</ele><time>2026-04-08T08:09:57Z</time></trkpt><trkpt lat="40.66583208935639" lon="15.70815123256943"><ele>1192.0</ele><time>2026-04-08T08:09:58Z</time></trkpt><trkpt lat="40.66585546462549" lon="15.708231970006205"><ele>1192.0</ele><time>2026-04-08T08:09:59Z</time></trkpt><trkpt lat="40.66589388848262" lon="15.708378113720219"><ele>1192.0</ele><time>2026-04-08T08:10:01Z</time></trkpt><trkpt lat="40.66590173924249" lon="15.708472484429088"><ele>1192.0</ele><time>2026-04-08T08:10:02Z</time></trkpt><trkpt lat="40.66590281504693" lon="15.708575495928788"><ele>1192.0</ele><time>2026-04-08T08:10:03Z</time></trkpt><trkpt lat="40.66591792288897" lon="15.708696835746945"><ele>1192.0</ele><time>2026-04-08T08:10:04Z</time></trkpt><trkpt lat="40.66593663997654" lon="15.708837537002584"><ele>1192.0</ele><time>2026-04-08T08:10:05Z</time></trkpt><trkpt lat="40.66595079773651" lon="15.708964954271247"><ele>1192.0</ele><time>2026-04-08T08:10:06Z</time></trkpt><trkpt lat="40.66598444447071" lon="15.709083876011697"><ele>1192.0</ele><time>2026-04-08T08:10:07Z</time></trkpt><trkpt lat="40.66601476867844" lon="15.709197737501942"><ele>1192.0</ele><time>2026-04-08T08:10:08Z</time></trkpt><trkpt lat="40.66603384048539" lon="15.709304045643853"><ele>1192.0</ele><time>2026-04-08T08:10:09Z</time></trkpt><trkpt lat="40.666042423852055" lon="15.709418398251593"><ele>1191.6666666666665</ele><time>2026-04-08T08:10:10Z</time></trkpt><trkpt lat="40.66604374636532" lon="15.709556138589116"><ele>1191.3333333333333</ele><time>2026-04-08T08:10:11Z</time></trkpt><trkpt lat="40.66604548211246" lon="15.709674085611425"><ele>1191.0</ele><time>2026-04-08T08:10:12Z</time></trkpt><trkpt lat="40.66602236672335" lon="15.709756649659512"><ele>1190.6666666666667</ele><time>2026-04-08T08:10:13Z</time></trkpt><trkpt lat="40.66593078647667" lon="15.709678378011267"><ele>1190.3333333333335</ele><time>2026-04-08T08:10:16Z</time></trkpt><trkpt lat="40.66596862457856" lon="15.70976738536423"><ele>1190.0</ele><time>2026-04-08T08:10:17Z</time></trkpt><trkpt lat="40.666026221015315" lon="15.709916414693518"><ele>1190.0</ele><time>2026-04-08T08:10:19Z</time></trkpt><trkpt lat="40.666058929684276" lon="15.709990050705157"><ele>1190.0</ele><time>2026-04-08T08:10:20Z</time></trkpt><trkpt lat="40.66617942190732" lon="15.710009112206473"><ele>1190.0</ele><time>2026-04-08T08:10:22Z</time></trkpt><trkpt lat="40.666292962752856" lon="15.709987733845223"><ele>1190.0</ele><time>2026-04-08T08:10:23Z</time></trkpt><trkpt lat="40.66641173155586" lon="15.709974829467118"><ele>1190.0</ele><time>2026-04-08T08:10:24Z</time></trkpt><trkpt lat="40.666492175360425" lon="15.709989516711431"><ele>1188.4</ele><time>2026-04-08T08:10:25Z</time></trkpt><trkpt lat="40.66656482454422" lon="15.710029021366836"><ele>1186.8</ele><time>2026-04-08T08:10:26Z</time></trkpt><trkpt lat="40.666660321608795" lon="15.710121486544606"><ele>1185.2</ele><time>2026-04-08T08:10:28Z</time></trkpt><trkpt lat="40.666733458880316" lon="15.710256871453396"><ele>1183.6</ele><time>2026-04-08T08:10:30Z</time></trkpt><trkpt lat="40.666760770530026" lon="15.710332767430513"><ele>1182.0</ele><time>2026-04-08T08:10:31Z</time></trkpt><trkpt lat="40.66681563544425" lon="15.710458560875196"><ele>1182.0</ele><time>2026-04-08T08:10:33Z</time></trkpt><trkpt lat="40.66685031978259" lon="15.710540178575451"><ele>1182.0</ele><time>2026-04-08T08:10:34Z</time></trkpt><trkpt lat="40.66688209921684" lon="15.710615288354953"><ele>1182.0</ele><time>2026-04-08T08:10:36Z</time></trkpt><trkpt lat="40.666911332948416" lon="15.710688940850154"><ele>1182.0</ele><time>2026-04-08T08:10:38Z</time></trkpt><trkpt lat="40.66692856397127" lon="15.710798085285381"><ele>1182.0</ele><time>2026-04-08T08:10:41Z</time></trkpt><trkpt lat="40.66684250811638" lon="15.711143050088017"><ele>1179.75</ele><time>2026-04-08T08:10:45Z</time></trkpt><trkpt lat="40.666775775630555" lon="15.711199300662493"><ele>1177.5</ele><time>2026-04-08T08:10:46Z</time></trkpt><trkpt lat="40.66667906439443" lon="15.711207226426106"><ele>1175.25</ele><time>2026-04-08T08:10:47Z</time></trkpt><trkpt lat="40.66651348686971" lon="15.711238752958929"><ele>1173.0</ele><time>2026-04-08T08:10:48Z</time></trkpt><trkpt lat="40.66636151826274" lon="15.711249619459872"><ele>1173.0</ele><time>2026-04-08T08:10:49Z</time></trkpt><trkpt lat="40.66624154024845" lon="15.711258569934444"><ele>1173.0</ele><time>2026-04-08T08:10:50Z</time></trkpt><trkpt lat="40.666129423280395" lon="15.711272264280895"><ele>1173.0</ele><time>2026-04-08T08:10:51Z</time></trkpt><trkpt lat="40.6660240716012" lon="15.711281909130992"><ele>1173.0</ele><time>2026-04-08T08:10:52Z</time></trkpt><trkpt lat="40.66593794064274" lon="15.711292219336794"><ele>1173.0</ele><time>2026-04-08T08:10:53Z</time></trkpt><trkpt lat="40.665845092195774" lon="15.711315339079109"><ele>1173.5</ele><time>2026-04-08T08:10:54Z</time></trkpt><trkpt lat="40.665777103637936" lon="15.711328563695988"><ele>1174.0</ele><time>2026-04-08T08:10:55Z</time></trkpt><trkpt lat="40.66569483453423" lon="15.711347081618705"><ele>1174.5</ele><time>2026-04-08T08:10:56Z</time></trkpt><trkpt lat="40.665600414678174" lon="15.71137655563492"><ele>1175.0</ele><time>2026-04-08T08:10:57Z</time></trkpt><trkpt lat="40.66551288366005" lon="15.711381942793965"><ele>1175.5</ele><time>2026-04-08T08:10:57.999Z</time></trkpt><trkpt lat="40.665444009454866" lon="15.71139510719102"><ele>1176.0</ele><time>2026-04-08T08:10:58.999Z</time></trkpt><trkpt lat="40.66537165100843" lon="15.71140915561332"><ele>1176.0</ele><time>2026-04-08T08:11:00.999Z</time></trkpt><trkpt lat="40.665290724694614" lon="15.711430854756783"><ele>1176.0</ele><time>2026-04-08T08:11:02.999Z</time></trkpt><trkpt lat="40.66519906653951" lon="15.711454112985997"><ele>1176.0</ele><time>2026-04-08T08:11:04.999Z</time></trkpt><trkpt lat="40.665107919604694" lon="15.711468123975978"><ele>1176.0</ele><time>2026-04-08T08:11:06.999Z</time></trkpt><trkpt lat="40.665029967770344" lon="15.71149454573289"><ele>1176.0</ele><time>2026-04-08T08:11:08.999Z</time></trkpt><trkpt lat="40.664950332963365" lon="15.711521287849145"><ele>1176.0</ele><time>2026-04-08T08:11:10.999Z</time></trkpt><trkpt lat="40.66485680538035" lon="15.71157362976748"><ele>1171.0</ele><time>2026-04-08T08:11:13Z</time></trkpt><trkpt lat="40.66495564224917" lon="15.712058528221776"><ele>1166.0</ele><time>2026-04-08T08:11:16Z</time></trkpt><trkpt lat="40.664886379445136" lon="15.712165173136071"><ele>1166.0</ele><time>2026-04-08T08:11:18Z</time></trkpt><trkpt lat="40.66483366047811" lon="15.71221945136741"><ele>1166.0</ele><time>2026-04-08T08:11:20Z</time></trkpt><trkpt lat="40.664790019489246" lon="15.712310678630066"><ele>1166.0</ele><time>2026-04-08T08:11:22Z</time></trkpt><trkpt lat="40.66479390325343" lon="15.712493513425589"><ele>1166.0</ele><time>2026-04-08T08:11:24Z</time></trkpt><trkpt lat="40.664764514185926" lon="15.712589777429164"><ele>1166.0</ele><time>2026-04-08T08:11:26Z</time></trkpt><trkpt lat="40.664704276577275" lon="15.712652597589205"><ele>1166.0</ele><time>2026-04-08T08:11:29Z</time></trkpt><trkpt lat="40.664645073987494" lon="15.712780903031335"><ele>1165.5</ele><time>2026-04-08T08:11:32Z</time></trkpt><trkpt lat="40.66456929891091" lon="15.712850351296796"><ele>1165.0</ele><time>2026-04-08T08:11:34Z</time></trkpt><trkpt lat="40.66452066346496" lon="15.712917599632414"><ele>1164.5</ele><time>2026-04-08T08:11:36Z</time></trkpt><trkpt lat="40.66447708374555" lon="15.713029121229615"><ele>1164.0</ele><time>2026-04-08T08:11:39Z</time></trkpt><trkpt lat="40.6644303192026" lon="15.713115715974418"><ele>1163.5</ele><time>2026-04-08T08:11:42Z</time></trkpt><trkpt lat="40.66437474054355" lon="15.713176424695204"><ele>1163.0</ele><time>2026-04-08T08:11:47Z</time></trkpt><trkpt lat="40.664357239745954" lon="15.713285378448845"><ele>1164.0</ele><time>2026-04-08T08:11:49Z</time></trkpt><trkpt lat="40.66432679818574" lon="15.71338761239361"><ele>1165.0</ele><time>2026-04-08T08:11:53Z</time></trkpt><trkpt lat="40.66427552101708" lon="15.713514197472483"><ele>1166.0</ele><time>2026-04-08T08:11:58Z</time></trkpt><trkpt lat="40.66421436093419" lon="15.713590320259678"><ele>1167.0</ele><time>2026-04-08T08:12:02Z</time></trkpt><trkpt lat="40.66417777991631" lon="15.71366838076555"><ele>1168.0</ele><time>2026-04-08T08:12:05Z</time></trkpt><trkpt lat="40.664149391758556" lon="15.713744307699754"><ele>1169.0</ele><time>2026-04-08T08:12:07Z</time></trkpt><trkpt lat="40.66411268233767" lon="15.713816470092892"><ele>1169.0</ele><time>2026-04-08T08:12:09Z</time></trkpt><trkpt lat="40.664074590083516" lon="15.713893625584452"><ele>1169.0</ele><time>2026-04-08T08:12:12Z</time></trkpt><trkpt lat="40.664033910075894" lon="15.713969476513002"><ele>1169.0</ele><time>2026-04-08T08:12:15Z</time></trkpt><trkpt lat="40.663997864808564" lon="15.714077871001646"><ele>1169.0</ele><time>2026-04-08T08:12:18Z</time></trkpt><trkpt lat="40.663989662419226" lon="15.71416531771582"><ele>1169.0</ele><time>2026-04-08T08:12:20Z</time></trkpt><trkpt lat="40.664051877353465" lon="15.713972025672101"><ele>1169.0</ele><time>2026-04-08T08:12:21Z</time></trkpt><trkpt lat="40.66396724649382" lon="15.714386139926443"><ele>1169.0</ele><time>2026-04-08T08:12:31Z</time></trkpt><trkpt lat="40.6639220062627" lon="15.714462621089433"><ele>1169.0</ele><time>2026-04-08T08:12:34Z</time></trkpt><trkpt lat="40.66386787317775" lon="15.714604224031623"><ele>1169.3333333333335</ele><time>2026-04-08T08:12:37Z</time></trkpt><trkpt lat="40.663843559888214" lon="15.714683800301898"><ele>1169.6666666666667</ele><time>2026-04-08T08:12:40Z</time></trkpt><trkpt lat="40.663804572561304" lon="15.714755597758794"><ele>1170.0</ele><time>2026-04-08T08:12:43Z</time></trkpt><trkpt lat="40.66375918184095" lon="15.714848567540482"><ele>1170.3333333333333</ele><time>2026-04-08T08:12:46Z</time></trkpt><trkpt lat="40.66375460023756" lon="15.715007576469828"><ele>1170.6666666666665</ele><time>2026-04-08T08:12:48Z</time></trkpt><trkpt lat="40.663697903843115" lon="15.715065871514668"><ele>1171.0</ele><time>2026-04-08T08:12:50Z</time></trkpt><trkpt lat="40.66369603352883" lon="15.715157386714276"><ele>1171.0</ele><time>2026-04-08T08:12:55Z</time></trkpt><trkpt lat="40.663740669330565" lon="15.715225423118701"><ele>1171.0</ele><time>2026-04-08T08:12:57Z</time></trkpt><trkpt lat="40.66380049004996" lon="15.715294684890827"><ele>1171.0</ele><time>2026-04-08T08:12:58Z</time></trkpt><trkpt lat="40.663863574468344" lon="15.71540385727744"><ele>1171.0</ele><time>2026-04-08T08:13:00Z</time></trkpt><trkpt lat="40.66393122090294" lon="15.715507110078097"><ele>1171.0</ele><time>2026-04-08T08:13:02Z</time></trkpt><trkpt lat="40.66396797774018" lon="15.71557497826897"><ele>1171.0</ele><time>2026-04-08T08:13:02.999Z</time></trkpt><trkpt lat="40.664014525020804" lon="15.715712948813975"><ele>1171.6666666666665</ele><time>2026-04-08T08:13:04.999Z</time></trkpt><trkpt lat="40.66394581054933" lon="15.715547306968517"><ele>1172.3333333333333</ele><time>2026-04-08T08:13:06.999Z</time></trkpt><trkpt lat="40.66398540292296" lon="15.715624243089213"><ele>1173.0</ele><time>2026-04-08T08:13:09.999Z</time></trkpt><trkpt lat="40.66404801015531" lon="15.71560888406552"><ele>1173.6666666666667</ele><time>2026-04-08T08:13:14.999Z</time></trkpt><trkpt lat="40.66408889722347" lon="15.71554029324881"><ele>1174.3333333333335</ele><time>2026-04-08T08:13:16.999Z</time></trkpt><trkpt lat="40.664130894068" lon="15.715456985354413"><ele>1175.0</ele><time>2026-04-08T08:13:20Z</time></trkpt><trkpt lat="40.66420872157989" lon="15.715409811968913"><ele>1175.0</ele><time>2026-04-08T08:13:24Z</time></trkpt><trkpt lat="40.664240974047715" lon="15.715336821022175"><ele>1175.0</ele><time>2026-04-08T08:13:27Z</time></trkpt><trkpt lat="40.664352455620005" lon="15.715041872899523"><ele>1175.0</ele><time>2026-04-08T08:13:28Z</time></trkpt><trkpt lat="40.66439174033728" lon="15.714927701241203"><ele>1175.0</ele><time>2026-04-08T08:13:30Z</time></trkpt><trkpt lat="40.6643952379058" lon="15.714839379301338"><ele>1174.4285714285713</ele><time>2026-04-08T08:13:46Z</time></trkpt><trkpt lat="40.66443389448296" lon="15.71476287273075"><ele>1173.857142857143</ele><time>2026-04-08T08:13:57Z</time></trkpt><trkpt lat="40.66447774564014" lon="15.714680857691276"><ele>1173.2857142857142</ele><time>2026-04-08T08:13:59Z</time></trkpt><trkpt lat="40.66453292682004" lon="15.714640910888795"><ele>1172.7142857142858</ele><time>2026-04-08T08:14:03Z</time></trkpt><trkpt lat="40.66459282435249" lon="15.714604165804419"><ele>1172.142857142857</ele><time>2026-04-08T08:14:09Z</time></trkpt><trkpt lat="40.66465985580136" lon="15.714574011491544"><ele>1171.5714285714284</ele><time>2026-04-08T08:14:21Z</time></trkpt><trkpt lat="40.66468396339639" lon="15.714475152916288"><ele>1171.0</ele><time>2026-04-08T08:14:30Z</time></trkpt><trkpt lat="40.664617578816035" lon="15.714440881324201"><ele>1170.6666666666665</ele><time>2026-04-08T08:14:37Z</time></trkpt><trkpt lat="40.66455745453599" lon="15.714399971964234"><ele>1170.3333333333333</ele><time>2026-04-08T08:14:40Z</time></trkpt><trkpt lat="40.66452628674423" lon="15.714279310354653"><ele>1170.0</ele><time>2026-04-08T08:14:42Z</time></trkpt><trkpt lat="40.664477048725104" lon="15.714178306828412"><ele>1169.6666666666667</ele><time>2026-04-08T08:14:45Z</time></trkpt><trkpt lat="40.66440757706117" lon="15.7140926153814"><ele>1169.3333333333335</ele><time>2026-04-08T08:14:47Z</time></trkpt><trkpt lat="40.66436925860777" lon="15.714022813006114"><ele>1169.0</ele><time>2026-04-08T08:14:49Z</time></trkpt><trkpt lat="40.66434494738309" lon="15.713914133536392"><ele>1169.0</ele><time>2026-04-08T08:14:53Z</time></trkpt><trkpt lat="40.664313580991646" lon="15.713829224256784"><ele>1169.0</ele><time>2026-04-08T08:14:55Z</time></trkpt><trkpt lat="40.66427220921485" lon="15.71376607350236"><ele>1169.0</ele><time>2026-04-08T08:15:02.999Z</time></trkpt><trkpt lat="40.66424765213362" lon="15.713677151468309"><ele>1169.0</ele><time>2026-04-08T08:15:09.999Z</time></trkpt><trkpt lat="40.664268533135186" lon="15.713592335326975"><ele>1169.0</ele><time>2026-04-08T08:15:16.999Z</time></trkpt><trkpt lat="40.664341759286366" lon="15.713533722203284"><ele>1169.0</ele><time>2026-04-08T08:15:19.999Z</time></trkpt><trkpt lat="40.66439104105445" lon="15.713480110946675"><ele>1169.0</ele><time>2026-04-08T08:15:21.999Z</time></trkpt><trkpt lat="40.66445374399173" lon="15.71341587357633"><ele>1167.8</ele><time>2026-04-08T08:15:26Z</time></trkpt><trkpt lat="40.664607207832034" lon="15.713213268535208"><ele>1166.6000000000001</ele><time>2026-04-08T08:15:29Z</time></trkpt><trkpt lat="40.66467347196924" lon="15.713167180751068"><ele>1165.4</ele><time>2026-04-08T08:15:31Z</time></trkpt><trkpt lat="40.66473790180974" lon="15.713111028526548"><ele>1164.2</ele><time>2026-04-08T08:15:34Z</time></trkpt><trkpt lat="40.6648079946496" lon="15.71307143816495"><ele>1163.0</ele><time>2026-04-08T08:15:38Z</time></trkpt><trkpt lat="40.664847424880584" lon="15.71298753500095"><ele>1163.0</ele><time>2026-04-08T08:15:41Z</time></trkpt><trkpt lat="40.66485889166629" lon="15.7128706867495"><ele>1163.0</ele><time>2026-04-08T08:15:45Z</time></trkpt><trkpt lat="40.66494863962516" lon="15.71261090787543"><ele>1163.0</ele><time>2026-04-08T08:15:47Z</time></trkpt><trkpt lat="40.66501024845171" lon="15.712490694837266"><ele>1163.0</ele><time>2026-04-08T08:15:48Z</time></trkpt><trkpt lat="40.66508277837637" lon="15.712395413561012"><ele>1163.6</ele><time>2026-04-08T08:15:49Z</time></trkpt><trkpt lat="40.66517994173447" lon="15.712285363642172"><ele>1164.1999999999998</ele><time>2026-04-08T08:15:50Z</time></trkpt><trkpt lat="40.66525805729729" lon="15.71225249788856"><ele>1164.8</ele><time>2026-04-08T08:15:51Z</time></trkpt><trkpt lat="40.6653604089491" lon="15.712201369353524"><ele>1165.3999999999999</ele><time>2026-04-08T08:15:52Z</time></trkpt><trkpt lat="40.6654423075502" lon="15.712196079743165"><ele>1166.0</ele><time>2026-04-08T08:15:53Z</time></trkpt><trkpt lat="40.66553489557896" lon="15.712181041552277"><ele>1166.6</ele><time>2026-04-08T08:15:54Z</time></trkpt><trkpt lat="40.66566059297708" lon="15.712146429841399"><ele>1167.1999999999998</ele><time>2026-04-08T08:15:56Z</time></trkpt><trkpt lat="40.665699444909286" lon="15.712074508992716"><ele>1167.8000000000002</ele><time>2026-04-08T08:15:57Z</time></trkpt><trkpt lat="40.66570941745139" lon="15.711924445523588"><ele>1168.4</ele><time>2026-04-08T08:15:59Z</time></trkpt><trkpt lat="40.66571703857155" lon="15.71182718744408"><ele>1169.0</ele><time>2026-04-08T08:16:00Z</time></trkpt><trkpt lat="40.66572508035667" lon="15.711729399977134"><ele>1171.3333333333335</ele><time>2026-04-08T08:16:01Z</time></trkpt><trkpt lat="40.665776194205236" lon="15.71164957888257"><ele>1173.6666666666667</ele><time>2026-04-08T08:16:03Z</time></trkpt><trkpt lat="40.6659228073559" lon="15.71153074761472"><ele>1176.0</ele><time>2026-04-08T08:16:05Z</time></trkpt><trkpt lat="40.66608977650594" lon="15.711363380410956"><ele>1175.25</ele><time>2026-04-08T08:16:07Z</time></trkpt><trkpt lat="40.66623582885711" lon="15.711351921662951"><ele>1174.5</ele><time>2026-04-08T08:16:08Z</time></trkpt><trkpt lat="40.666376801460515" lon="15.711344673343142"><ele>1173.75</ele><time>2026-04-08T08:16:09Z</time></trkpt><trkpt lat="40.66651790557821" lon="15.711336116914287"><ele>1173.0</ele><time>2026-04-08T08:16:10Z</time></trkpt><trkpt lat="40.66665963507638" lon="15.711319534812057"><ele>1173.0</ele><time>2026-04-08T08:16:11Z</time></trkpt><trkpt lat="40.66678445471081" lon="15.711286980029485"><ele>1173.0</ele><time>2026-04-08T08:16:12Z</time></trkpt><trkpt lat="40.666906337425445" lon="15.711233789806105"><ele>1173.0</ele><time>2026-04-08T08:16:13Z</time></trkpt><trkpt lat="40.667023224546696" lon="15.711164207246618"><ele>1173.0</ele><time>2026-04-08T08:16:14Z</time></trkpt><trkpt lat="40.667123606848264" lon="15.711096051202844"><ele>1173.3333333333333</ele><time>2026-04-08T08:16:15Z</time></trkpt><trkpt lat="40.667205991328856" lon="15.711030153294155"><ele>1173.6666666666667</ele><time>2026-04-08T08:16:16Z</time></trkpt><trkpt lat="40.667280782610696" lon="15.710964327642209"><ele>1174.0</ele><time>2026-04-08T08:16:17Z</time></trkpt><trkpt lat="40.667355029523996" lon="15.710911872468449"><ele>1174.3333333333335</ele><time>2026-04-08T08:16:18Z</time></trkpt><trkpt lat="40.66740869086496" lon="15.710824816762743"><ele>1174.6666666666667</ele><time>2026-04-08T08:16:19Z</time></trkpt><trkpt lat="40.66745686490403" lon="15.710730482614856"><ele>1175.0</ele><time>2026-04-08T08:16:20Z</time></trkpt><trkpt lat="40.66751967743529" lon="15.710650258569695"><ele>1175.0</ele><time>2026-04-08T08:16:21Z</time></trkpt><trkpt lat="40.66757172762299" lon="15.710546513191241"><ele>1175.0</ele><time>2026-04-08T08:16:22Z</time></trkpt><trkpt lat="40.66760677350674" lon="15.71043557932004"><ele>1175.0</ele><time>2026-04-08T08:16:23Z</time></trkpt><trkpt lat="40.66764127970983" lon="15.710221064474123"><ele>1175.0</ele><time>2026-04-08T08:16:24Z</time></trkpt><trkpt lat="40.66763303178915" lon="15.710080720670193"><ele>1174.2</ele><time>2026-04-08T08:16:25Z</time></trkpt><trkpt lat="40.66760207853806" lon="15.709958788251976"><ele>1173.4</ele><time>2026-04-08T08:16:26Z</time></trkpt><trkpt lat="40.66755064345285" lon="15.709841999288587"><ele>1172.6</ele><time>2026-04-08T08:16:27Z</time></trkpt><trkpt lat="40.66748876395352" lon="15.709732831589465"><ele>1171.8</ele><time>2026-04-08T08:16:28Z</time></trkpt><trkpt lat="40.66741885095385" lon="15.709635217176501"><ele>1171.0</ele><time>2026-04-08T08:16:29Z</time></trkpt><trkpt lat="40.66734706730131" lon="15.709554159896909"><ele>1171.0</ele><time>2026-04-08T08:16:30Z</time></trkpt><trkpt lat="40.6672795746136" lon="15.70947104135538"><ele>1171.0</ele><time>2026-04-08T08:16:31Z</time></trkpt><trkpt lat="40.667217642757656" lon="15.709385131493814"><ele>1171.0</ele><time>2026-04-08T08:16:32Z</time></trkpt><trkpt lat="40.66715267592279" lon="15.70929269817058"><ele>1171.0</ele><time>2026-04-08T08:16:33Z</time></trkpt><trkpt lat="40.66709737605804" lon="15.709205736303451"><ele>1171.0</ele><time>2026-04-08T08:16:34Z</time></trkpt><trkpt lat="40.6670655301484" lon="15.709133238352411"><ele>1171.0</ele><time>2026-04-08T08:16:35Z</time></trkpt><trkpt lat="40.66706271380627" lon="15.709026969594213"><ele>1169.0</ele><time>2026-04-08T08:16:38Z</time></trkpt><trkpt lat="40.66710057689773" lon="15.708879675375414"><ele>1167.0</ele><time>2026-04-08T08:16:40Z</time></trkpt><trkpt lat="40.66715308712333" lon="15.708746907305944"><ele>1165.0</ele><time>2026-04-08T08:16:42Z</time></trkpt><trkpt lat="40.66720731036103" lon="15.708641590064214"><ele>1163.0</ele><time>2026-04-08T08:16:43Z</time></trkpt><trkpt lat="40.66727164773482" lon="15.708544351570882"><ele>1161.0</ele><time>2026-04-08T08:16:44Z</time></trkpt><trkpt lat="40.66733282483677" lon="15.708469075164691"><ele>1161.0</ele><time>2026-04-08T08:16:45Z</time></trkpt><trkpt lat="40.667404624156724" lon="15.70839141080661"><ele>1161.0</ele><time>2026-04-08T08:16:46Z</time></trkpt><trkpt lat="40.66748523654101" lon="15.708317562848288"><ele>1161.0</ele><time>2026-04-08T08:16:47Z</time></trkpt><trkpt lat="40.66754643746702" lon="15.708271973778592"><ele>1161.0</ele><time>2026-04-08T08:16:48Z</time></trkpt><trkpt lat="40.66765516863654" lon="15.708203145648358"><ele>1161.0</ele><time>2026-04-08T08:16:50Z</time></trkpt><trkpt lat="40.66771577049494" lon="15.708166432048584"><ele>1161.0</ele><time>2026-04-08T08:16:51Z</time></trkpt><trkpt lat="40.66777606862931" lon="15.70812902523001"><ele>1155.8</ele><time>2026-04-08T08:16:52Z</time></trkpt><trkpt lat="40.66788344584955" lon="15.708070310870824"><ele>1150.6</ele><time>2026-04-08T08:16:54Z</time></trkpt><trkpt lat="40.66797471298111" lon="15.707989944510608"><ele>1145.4</ele><time>2026-04-08T08:16:56Z</time></trkpt><trkpt lat="40.66803469687384" lon="15.707947933026073"><ele>1140.2</ele><time>2026-04-08T08:16:57Z</time></trkpt><trkpt lat="40.668119962078386" lon="15.707884081071503"><ele>1135.0</ele><time>2026-04-08T08:16:59Z</time></trkpt><trkpt lat="40.66847146462901" lon="15.708437600376469"><ele>1135.0</ele><time>2026-04-08T08:17:01Z</time></trkpt><trkpt lat="40.66859303727134" lon="15.708389143085448"><ele>1135.0</ele><time>2026-04-08T08:17:03Z</time></trkpt><trkpt lat="40.66867113340046" lon="15.70834325470954"><ele>1135.0</ele><time>2026-04-08T08:17:04Z</time></trkpt><trkpt lat="40.66877439085402" lon="15.708263330207643"><ele>1135.0</ele><time>2026-04-08T08:17:05.999Z</time></trkpt><trkpt lat="40.66884712388368" lon="15.708142360931094"><ele>1135.0</ele><time>2026-04-08T08:17:07.999Z</time></trkpt><trkpt lat="40.66888510378898" lon="15.708066183272512"><ele>1131.0</ele><time>2026-04-08T08:17:08.999Z</time></trkpt><trkpt lat="40.66891248801655" lon="15.707980629141515"><ele>1127.0</ele><time>2026-04-08T08:17:09.999Z</time></trkpt><trkpt lat="40.6689601396435" lon="15.70786090096418"><ele>1123.0</ele><time>2026-04-08T08:17:12.999Z</time></trkpt><trkpt lat="40.669076597627914" lon="15.70774165572569"><ele>1119.0</ele><time>2026-04-08T08:17:14.999Z</time></trkpt><trkpt lat="40.66912993399159" lon="15.707668077161015"><ele>1115.0</ele><time>2026-04-08T08:17:15.999Z</time></trkpt><trkpt lat="40.66920856941769" lon="15.707585560141998"><ele>1115.0</ele><time>2026-04-08T08:17:17.999Z</time></trkpt><trkpt lat="40.66924020769177" lon="15.707502032226596"><ele>1115.0</ele><time>2026-04-08T08:17:19.999Z</time></trkpt><trkpt lat="40.66927372409054" lon="15.707420868853033"><ele>1115.0</ele><time>2026-04-08T08:17:23.999Z</time></trkpt><trkpt lat="40.66931984937849" lon="15.707364015951674"><ele>1115.0</ele><time>2026-04-08T08:17:26.999Z</time></trkpt><trkpt lat="40.6693333631601" lon="15.707272466565328"><ele>1115.0</ele><time>2026-04-08T08:17:29.999Z</time></trkpt><trkpt lat="40.669260592988074" lon="15.707192614582773"><ele>1115.0</ele><time>2026-04-08T08:17:34Z</time></trkpt><trkpt lat="40.66922333647517" lon="15.707104864952461"><ele>1115.0</ele><time>2026-04-08T08:17:41Z</time></trkpt><trkpt lat="40.6694472804574" lon="15.706371315776773"><ele>1115.3333333333335</ele><time>2026-04-08T08:17:43Z</time></trkpt><trkpt lat="40.6694226837604" lon="15.706258871641388"><ele>1115.6666666666667</ele><time>2026-04-08T08:17:45Z</time></trkpt><trkpt lat="40.66943107922419" lon="15.706110542915324"><ele>1116.0</ele><time>2026-04-08T08:17:46Z</time></trkpt><trkpt lat="40.669438903256356" lon="15.706007624217163"><ele>1116.3333333333333</ele><time>2026-04-08T08:17:47Z</time></trkpt><trkpt lat="40.66943713716679" lon="15.70591163455688"><ele>1116.6666666666665</ele><time>2026-04-08T08:17:48Z</time></trkpt><trkpt lat="40.669403708599816" lon="15.705816224945927"><ele>1117.0</ele><time>2026-04-08T08:17:50Z</time></trkpt><trkpt lat="40.66939928194792" lon="15.705726823821982"><ele>1117.0</ele><time>2026-04-08T08:17:52Z</time></trkpt><trkpt lat="40.669424851344466" lon="15.705642062967426"><ele>1117.0</ele><time>2026-04-08T08:17:54Z</time></trkpt><trkpt lat="40.66948010198534" lon="15.705565828523548"><ele>1117.0</ele><time>2026-04-08T08:17:56Z</time></trkpt><trkpt lat="40.66953800217404" lon="15.705448738838255"><ele>1117.0</ele><time>2026-04-08T08:17:58Z</time></trkpt><trkpt lat="40.66957192438725" lon="15.705356388568951"><ele>1117.0</ele><time>2026-04-08T08:17:59Z</time></trkpt><trkpt lat="40.66929698177265" lon="15.706488889935123"><ele>1117.5</ele><time>2026-04-08T08:18:02Z</time></trkpt><trkpt lat="40.66932380323906" lon="15.70639957800726"><ele>1118.0</ele><time>2026-04-08T08:18:06Z</time></trkpt><trkpt lat="40.66936265886596" lon="15.706329574820876"><ele>1118.5</ele><time>2026-04-08T08:18:09Z</time></trkpt><trkpt lat="40.66921020050474" lon="15.706586521871667"><ele>1119.0</ele><time>2026-04-08T08:18:10Z</time></trkpt><trkpt lat="40.66951681858192" lon="15.706519871608785"><ele>1119.5</ele><time>2026-04-08T08:18:18Z</time></trkpt><trkpt lat="40.66956647979043" lon="15.706626442905007"><ele>1120.0</ele><time>2026-04-08T08:18:20Z</time></trkpt><trkpt lat="40.67002999204872" lon="15.705026622181638"><ele>1121.5</ele><time>2026-04-08T08:18:21Z</time></trkpt><trkpt lat="40.67008591173849" lon="15.705076769275069"><ele>1123.0</ele><time>2026-04-08T08:18:22Z</time></trkpt><trkpt lat="40.67015547576008" lon="15.7050750706297"><ele>1124.5</ele><time>2026-04-08T08:18:24Z</time></trkpt><trkpt lat="40.670250032694526" lon="15.705083441070498"><ele>1126.0</ele><time>2026-04-08T08:18:26Z</time></trkpt><trkpt lat="40.670320325160155" lon="15.705068851126708"><ele>1127.5</ele><time>2026-04-08T08:18:29Z</time></trkpt><trkpt lat="40.67033230183639" lon="15.704954333521668"><ele>1129.0</ele><time>2026-04-08T08:18:32Z</time></trkpt><trkpt lat="40.670330597369706" lon="15.704863157180995"><ele>1129.0</ele><time>2026-04-08T08:18:34Z</time></trkpt><trkpt lat="40.67033390810294" lon="15.70472962047594"><ele>1129.0</ele><time>2026-04-08T08:18:36Z</time></trkpt><trkpt lat="40.670344979770285" lon="15.704574366522012"><ele>1129.0</ele><time>2026-04-08T08:18:38Z</time></trkpt><trkpt lat="40.67032101893479" lon="15.704417262781439"><ele>1129.0</ele><time>2026-04-08T08:18:40Z</time></trkpt><trkpt lat="40.6702987466567" lon="15.70431126655487"><ele>1129.0</ele><time>2026-04-08T08:18:41Z</time></trkpt><trkpt lat="40.670249232161986" lon="15.704221753310472"><ele>1129.6666666666665</ele><time>2026-04-08T08:18:43Z</time></trkpt><trkpt lat="40.67018436699499" lon="15.70418672515455"><ele>1130.3333333333333</ele><time>2026-04-08T08:18:46Z</time></trkpt><trkpt lat="40.67009349474502" lon="15.70415044357861"><ele>1131.0</ele><time>2026-04-08T08:18:48Z</time></trkpt><trkpt lat="40.669214943673104" lon="15.705742661683198"><ele>1127.5</ele><time>2026-04-08T08:18:49Z</time></trkpt><trkpt lat="40.66910173761225" lon="15.705745449359872"><ele>1124.0</ele><time>2026-04-08T08:18:50Z</time></trkpt><trkpt lat="40.66898458299422" lon="15.705737426031028"><ele>1120.5</ele><time>2026-04-08T08:18:51Z</time></trkpt><trkpt lat="40.66886239477993" lon="15.705713157184288"><ele>1117.0</ele><time>2026-04-08T08:18:52Z</time></trkpt><trkpt lat="40.66873279034348" lon="15.705713207295165"><ele>1117.0</ele><time>2026-04-08T08:18:53Z</time></trkpt><trkpt lat="40.66862202249113" lon="15.705681093872734"><ele>1117.0</ele><time>2026-04-08T08:18:54Z</time></trkpt><trkpt lat="40.66851959267879" lon="15.705655160942129"><ele>1117.0</ele><time>2026-04-08T08:18:55Z</time></trkpt><trkpt lat="40.66843305621784" lon="15.70562507891541"><ele>1117.0</ele><time>2026-04-08T08:18:56Z</time></trkpt><trkpt lat="40.66834779832171" lon="15.705602513920988"><ele>1117.0</ele><time>2026-04-08T08:18:57Z</time></trkpt><trkpt lat="40.66827291700295" lon="15.705540683003973"><ele>1117.2</ele><time>2026-04-08T08:18:58Z</time></trkpt><trkpt lat="40.668215080110116" lon="15.705489671718983"><ele>1117.4</ele><time>2026-04-08T08:18:59Z</time></trkpt><trkpt lat="40.6681051492237" lon="15.705409512074649"><ele>1117.6</ele><time>2026-04-08T08:19:01Z</time></trkpt><trkpt lat="40.66804164255532" lon="15.70539612639354"><ele>1117.8</ele><time>2026-04-08T08:19:02Z</time></trkpt><trkpt lat="40.66795799375036" lon="15.705305474366904"><ele>1118.0</ele><time>2026-04-08T08:19:04Z</time></trkpt><trkpt lat="40.66791644790026" lon="15.705160720953554"><ele>1118.0</ele><time>2026-04-08T08:19:06Z</time></trkpt><trkpt lat="40.66790020732433" lon="15.705049392036992"><ele>1118.0</ele><time>2026-04-08T08:19:07.999Z</time></trkpt><trkpt lat="40.66793540255663" lon="15.704925070890523"><ele>1118.0</ele><time>2026-04-08T08:19:09.999Z</time></trkpt><trkpt lat="40.66787443262667" lon="15.70519588224678"><ele>1118.0</ele><time>2026-04-08T08:19:10.999Z</time></trkpt><trkpt lat="40.66792606315202" lon="15.705018161605787"><ele>1118.0</ele><time>2026-04-08T08:19:13.999Z</time></trkpt><trkpt lat="40.667959145918786" lon="15.704937318677027"><ele>1118.0</ele><time>2026-04-08T08:19:14.999Z</time></trkpt><trkpt lat="40.6680039247532" lon="15.70484930754162"><ele>1118.0</ele><time>2026-04-08T08:19:15.999Z</time></trkpt><trkpt lat="40.668023800853376" lon="15.704760749409427"><ele>1118.0</ele><time>2026-04-08T08:19:18.999Z</time></trkpt><trkpt lat="40.66808373179438" lon="15.704641960718094"><ele>1118.0</ele><time>2026-04-08T08:19:19.999Z</time></trkpt><trkpt lat="40.66811669890124" lon="15.704546226786203"><ele>1118.0</ele><time>2026-04-08T08:19:21.999Z</time></trkpt><trkpt lat="40.66814929145271" lon="15.704427530321764"><ele>1125.0</ele><time>2026-04-08T08:19:23.999Z</time></trkpt><trkpt lat="40.66825247814896" lon="15.703858922982853"><ele>1132.0</ele><time>2026-04-08T08:19:24.999Z</time></trkpt><trkpt lat="40.66821753185193" lon="15.703931838250437"><ele>1132.0</ele><time>2026-04-08T08:19:42Z</time></trkpt><trkpt lat="40.668223340132656" lon="15.704020022556584"><ele>1132.0</ele><time>2026-04-08T08:19:44Z</time></trkpt><trkpt lat="40.668270002881115" lon="15.703926495714231"><ele>1132.0</ele><time>2026-04-08T08:21:43Z</time></trkpt><trkpt lat="40.668203127838304" lon="15.70389866298044"><ele>1132.0</ele><time>2026-04-08T08:27:16Z</time></trkpt><trkpt lat="40.668191191825464" lon="15.703808516266173"><ele>1132.0</ele><time>2026-04-08T08:27:22Z</time></trkpt><trkpt lat="40.66818910574988" lon="15.703688392540624"><ele>1132.0</ele><time>2026-04-08T08:27:27Z</time></trkpt><trkpt lat="40.668175803168374" lon="15.703601433322932"><ele>1136.2</ele><time>2026-04-08T08:27:31Z</time></trkpt><trkpt lat="40.668201892155764" lon="15.70351615795755"><ele>1140.4</ele><time>2026-04-08T08:27:35Z</time></trkpt><trkpt lat="40.668266333979474" lon="15.703462869137105"><ele>1144.6</ele><time>2026-04-08T08:27:39.999Z</time></trkpt><trkpt lat="40.6683531449344" lon="15.703449847796454"><ele>1148.8</ele><time>2026-04-08T08:27:42.999Z</time></trkpt><trkpt lat="40.66841365684582" lon="15.703405726514905"><ele>1153.0</ele><time>2026-04-08T08:27:47.999Z</time></trkpt><trkpt lat="40.66867311603929" lon="15.703016975978363"><ele>1153.8333333333333</ele><time>2026-04-08T08:27:49.999Z</time></trkpt><trkpt lat="40.6687635712218" lon="15.70299775295539"><ele>1154.6666666666665</ele><time>2026-04-08T08:27:51.999Z</time></trkpt><trkpt lat="40.6688892237813" lon="15.702962446070972"><ele>1155.5</ele><time>2026-04-08T08:27:53.999Z</time></trkpt><trkpt lat="40.66895657692636" lon="15.702934101056776"><ele>1156.3333333333333</ele><time>2026-04-08T08:27:54.999Z</time></trkpt><trkpt lat="40.66901902936053" lon="15.702894262544177"><ele>1157.1666666666667</ele><time>2026-04-08T08:27:55.999Z</time></trkpt><trkpt lat="40.669089926354104" lon="15.702891358980244"><ele>1158.0</ele><time>2026-04-08T08:27:56.999Z</time></trkpt><trkpt lat="40.66915605477681" lon="15.702881420423235"><ele>1158.0</ele><time>2026-04-08T08:27:57.999Z</time></trkpt><trkpt lat="40.66925143730432" lon="15.702840393863285"><ele>1158.0</ele><time>2026-04-08T08:28:00Z</time></trkpt><trkpt lat="40.6693323958431" lon="15.702802812538577"><ele>1158.0</ele><time>2026-04-08T08:28:03Z</time></trkpt><trkpt lat="40.6693871544021" lon="15.702701680446898"><ele>1158.0</ele><time>2026-04-08T08:28:05Z</time></trkpt><trkpt lat="40.66943537726569" lon="15.702614402583848"><ele>1158.0</ele><time>2026-04-08T08:28:07Z</time></trkpt><trkpt lat="40.66948149298499" lon="15.7024979097771"><ele>1155.0</ele><time>2026-04-08T08:28:09Z</time></trkpt><trkpt lat="40.66937101160428" lon="15.702598473644274"><ele>1152.0</ele><time>2026-04-08T08:28:10Z</time></trkpt><trkpt lat="40.66931035820524" lon="15.702517407947479"><ele>1149.0</ele><time>2026-04-08T08:28:12Z</time></trkpt><trkpt lat="40.669512262349535" lon="15.702344095706096"><ele>1149.0</ele><time>2026-04-08T08:28:13Z</time></trkpt><trkpt lat="40.6695464420677" lon="15.70222325373294"><ele>1149.0</ele><time>2026-04-08T08:28:14Z</time></trkpt><trkpt lat="40.669731246371036" lon="15.702106594383013"><ele>1149.0</ele><time>2026-04-08T08:28:15Z</time></trkpt><trkpt lat="40.66975200792242" lon="15.701948116912279"><ele>1149.0</ele><time>2026-04-08T08:28:16Z</time></trkpt><trkpt lat="40.66977905965496" lon="15.701805811565414"><ele>1149.5</ele><time>2026-04-08T08:28:17Z</time></trkpt><trkpt lat="40.66983583763718" lon="15.701690924466966"><ele>1150.0</ele><time>2026-04-08T08:28:18Z</time></trkpt><trkpt lat="40.66990447870961" lon="15.701545126681276"><ele>1150.5</ele><time>2026-04-08T08:28:19Z</time></trkpt><trkpt lat="40.66997696679483" lon="15.701422706111465"><ele>1151.0</ele><time>2026-04-08T08:28:20Z</time></trkpt><trkpt lat="40.67006212137423" lon="15.701177783378043"><ele>1152.5</ele><time>2026-04-08T08:28:21Z</time></trkpt><trkpt lat="40.67009089915914" lon="15.701028742586985"><ele>1154.0</ele><time>2026-04-08T08:28:22Z</time></trkpt><trkpt lat="40.67006878023783" lon="15.70088949428943"><ele>1155.5</ele><time>2026-04-08T08:28:23Z</time></trkpt><trkpt lat="40.67006061321714" lon="15.70070893120689"><ele>1157.0</ele><time>2026-04-08T08:28:24Z</time></trkpt><trkpt lat="40.670054197051" lon="15.700552608595885"><ele>1157.0</ele><time>2026-04-08T08:28:25Z</time></trkpt><trkpt lat="40.670046836995006" lon="15.700407469122858"><ele>1157.0</ele><time>2026-04-08T08:28:26Z</time></trkpt><trkpt lat="40.67003431369741" lon="15.70026878070788"><ele>1157.0</ele><time>2026-04-08T08:28:27Z</time></trkpt><trkpt lat="40.670024138725665" lon="15.700131553225605"><ele>1157.0</ele><time>2026-04-08T08:28:28Z</time></trkpt><trkpt lat="40.669997933457275" lon="15.699970661146223"><ele>1157.0</ele><time>2026-04-08T08:28:29Z</time></trkpt><trkpt lat="40.669956622746774" lon="15.699825241030783"><ele>1156.6</ele><time>2026-04-08T08:28:30Z</time></trkpt><trkpt lat="40.669904907830144" lon="15.69968941938256"><ele>1156.2</ele><time>2026-04-08T08:28:31Z</time></trkpt><trkpt lat="40.66985239162713" lon="15.699574653583019"><ele>1155.8</ele><time>2026-04-08T08:28:32Z</time></trkpt><trkpt lat="40.66978468018752" lon="15.69947746249971"><ele>1155.4</ele><time>2026-04-08T08:28:33Z</time></trkpt><trkpt lat="40.669739125648356" lon="15.699378362135295"><ele>1155.0</ele><time>2026-04-08T08:28:34Z</time></trkpt><trkpt lat="40.669678839979916" lon="15.699268924566528"><ele>1153.2</ele><time>2026-04-08T08:28:35Z</time></trkpt><trkpt lat="40.66961102712232" lon="15.699164298567592"><ele>1151.4</ele><time>2026-04-08T08:28:36Z</time></trkpt><trkpt lat="40.6695187020306" lon="15.699083458317515"><ele>1149.6</ele><time>2026-04-08T08:28:37Z</time></trkpt><trkpt lat="40.66951955797904" lon="15.698995099321097"><ele>1147.8</ele><time>2026-04-08T08:28:38Z</time></trkpt><trkpt lat="40.669526864297445" lon="15.69889797555502"><ele>1146.0</ele><time>2026-04-08T08:28:40Z</time></trkpt><trkpt lat="40.66972801237102" lon="15.698676536798084"><ele>1146.0</ele><time>2026-04-08T08:28:46Z</time></trkpt><trkpt lat="40.669797496825865" lon="15.69868064329117"><ele>1146.0</ele><time>2026-04-08T08:28:47Z</time></trkpt><trkpt lat="40.6698592893284" lon="15.698708080912473"><ele>1146.0</ele><time>2026-04-08T08:28:48Z</time></trkpt><trkpt lat="40.669936326171054" lon="15.698715941111434"><ele>1146.0</ele><time>2026-04-08T08:28:50Z</time></trkpt><trkpt lat="40.67000070377108" lon="15.698734929764388"><ele>1146.0</ele><time>2026-04-08T08:28:54Z</time></trkpt><trkpt lat="40.67009718325227" lon="15.698774061841435"><ele>1146.0</ele><time>2026-04-08T08:28:56Z</time></trkpt><trkpt lat="40.670157768972935" lon="15.698806530536933"><ele>1146.0</ele><time>2026-04-08T08:28:57Z</time></trkpt><trkpt lat="40.670219143408985" lon="15.698836532344373"><ele>1146.75</ele><time>2026-04-08T08:28:58Z</time></trkpt><trkpt lat="40.670282275491104" lon="15.698852068141424"><ele>1147.5</ele><time>2026-04-08T08:28:59Z</time></trkpt><trkpt lat="40.670345664429" lon="15.698765441128643"><ele>1148.25</ele><time>2026-04-08T08:29:06Z</time></trkpt><trkpt lat="40.67029889687792" lon="15.698708194370655"><ele>1149.0</ele><time>2026-04-08T08:29:11Z</time></trkpt><trkpt lat="40.670353434678596" lon="15.698400350692085"><ele>1151.8333333333333</ele><time>2026-04-08T08:29:14Z</time></trkpt><trkpt lat="40.67037895581756" lon="15.698260420091536"><ele>1154.6666666666667</ele><time>2026-04-08T08:29:16Z</time></trkpt><trkpt lat="40.67040837474365" lon="15.698152254559217"><ele>1157.5</ele><time>2026-04-08T08:29:17Z</time></trkpt><trkpt lat="40.67042892263285" lon="15.698055500837127"><ele>1160.3333333333335</ele><time>2026-04-08T08:29:18Z</time></trkpt><trkpt lat="40.67046787584679" lon="15.697960656421461"><ele>1163.1666666666667</ele><time>2026-04-08T08:29:19Z</time></trkpt><trkpt lat="40.670520766360994" lon="15.697866309052447"><ele>1166.0</ele><time>2026-04-08T08:29:21Z</time></trkpt><trkpt lat="40.67054258680297" lon="15.697775204745948"><ele>1167.6</ele><time>2026-04-08T08:29:23Z</time></trkpt><trkpt lat="40.67058912560096" lon="15.69763293763731"><ele>1169.1999999999998</ele><time>2026-04-08T08:29:25Z</time></trkpt><trkpt lat="40.670637790657366" lon="15.69749190941391"><ele>1170.8000000000002</ele><time>2026-04-08T08:29:27Z</time></trkpt><trkpt lat="40.67066708844782" lon="15.697376445528766"><ele>1172.4</ele><time>2026-04-08T08:29:28Z</time></trkpt><trkpt lat="40.6706959932723" lon="15.697294859813647"><ele>1174.0</ele><time>2026-04-08T08:29:29Z</time></trkpt><trkpt lat="40.67072249007481" lon="15.697175982764934"><ele>1174.0</ele><time>2026-04-08T08:29:30Z</time></trkpt><trkpt lat="40.67074116430132" lon="15.697074353518639"><ele>1174.0</ele><time>2026-04-08T08:29:31Z</time></trkpt><trkpt lat="40.67075693427609" lon="15.696992483422287"><ele>1174.0</ele><time>2026-04-08T08:29:32Z</time></trkpt><trkpt lat="40.6707517951273" lon="15.696870656814111"><ele>1174.0</ele><time>2026-04-08T08:29:33Z</time></trkpt><trkpt lat="40.67073526618264" lon="15.696729238904465"><ele>1174.0</ele><time>2026-04-08T08:29:33.999Z</time></trkpt><trkpt lat="40.67072653359838" lon="15.69663768544898"><ele>1174.0</ele><time>2026-04-08T08:29:34.999Z</time></trkpt><trkpt lat="40.67072138934435" lon="15.696553153428313"><ele>1173.75</ele><time>2026-04-08T08:29:35.999Z</time></trkpt><trkpt lat="40.670711500235534" lon="15.696438776471988"><ele>1173.5</ele><time>2026-04-08T08:29:36.999Z</time></trkpt><trkpt lat="40.67071734189282" lon="15.696227808233237"><ele>1173.25</ele><time>2026-04-08T08:29:38.999Z</time></trkpt><trkpt lat="40.67076222801235" lon="15.696101026744921"><ele>1173.0</ele><time>2026-04-08T08:29:39.999Z</time></trkpt><trkpt lat="40.670838990125525" lon="15.695942021912241"><ele>1173.0</ele><time>2026-04-08T08:29:40.999Z</time></trkpt><trkpt lat="40.670878590526556" lon="15.695803622355207"><ele>1173.0</ele><time>2026-04-08T08:29:41.999Z</time></trkpt><trkpt lat="40.67087595608593" lon="15.695685473110192"><ele>1173.0</ele><time>2026-04-08T08:29:42.999Z</time></trkpt><trkpt lat="40.67088117008303" lon="15.695549926189376"><ele>1173.0</ele><time>2026-04-08T08:29:43.999Z</time></trkpt><trkpt lat="40.67087669015406" lon="15.695399395575112"><ele>1173.0</ele><time>2026-04-08T08:29:44.999Z</time></trkpt><trkpt lat="40.67087912448764" lon="15.695208964920027"><ele>1174.0</ele><time>2026-04-08T08:29:45.999Z</time></trkpt><trkpt lat="40.67087676234032" lon="15.695037850014513"><ele>1175.0</ele><time>2026-04-08T08:29:46.999Z</time></trkpt><trkpt lat="40.670879541932855" lon="15.694922710695481"><ele>1176.0</ele><time>2026-04-08T08:29:47.999Z</time></trkpt><trkpt lat="40.67095242928092" lon="15.694772329888295"><ele>1177.0</ele><time>2026-04-08T08:29:49.999Z</time></trkpt><trkpt lat="40.671045859316465" lon="15.694610863905393"><ele>1171.0</ele><time>2026-04-08T08:29:50.999Z</time></trkpt><trkpt lat="40.67114320405083" lon="15.694456888621021"><ele>1165.0</ele><time>2026-04-08T08:29:51.999Z</time></trkpt><trkpt lat="40.671203515411754" lon="15.694374566417721"><ele>1159.0</ele><time>2026-04-08T08:29:52.999Z</time></trkpt><trkpt lat="40.671236116682394" lon="15.69428744650758"><ele>1153.0</ele><time>2026-04-08T08:29:53.999Z</time></trkpt><trkpt lat="40.671272673000246" lon="15.694147737729981"><ele>1147.0</ele><time>2026-04-08T08:29:54.999Z</time></trkpt><trkpt lat="40.67132117552587" lon="15.694027342437646"><ele>1147.0</ele><time>2026-04-08T08:29:55.999Z</time></trkpt><trkpt lat="40.6713155468245" lon="15.693925429562167"><ele>1147.0</ele><time>2026-04-08T08:29:56.999Z</time></trkpt><trkpt lat="40.671318432894815" lon="15.693776519865098"><ele>1147.0</ele><time>2026-04-08T08:29:57.999Z</time></trkpt><trkpt lat="40.67136107581197" lon="15.693669957006794"><ele>1147.0</ele><time>2026-04-08T08:29:58.999Z</time></trkpt><trkpt lat="40.67139865861266" lon="15.693531767838"><ele>1147.0</ele><time>2026-04-08T08:29:59.999Z</time></trkpt><trkpt lat="40.67140111440516" lon="15.693421326855379"><ele>1147.1666666666665</ele><time>2026-04-08T08:30:00.999Z</time></trkpt><trkpt lat="40.6714024620763" lon="15.69332834348944"><ele>1147.3333333333333</ele><time>2026-04-08T08:30:01.999Z</time></trkpt><trkpt lat="40.67145976138399" lon="15.693228836536557"><ele>1147.5</ele><time>2026-04-08T08:30:02.999Z</time></trkpt><trkpt lat="40.67147660354702" lon="15.693101033623737"><ele>1147.6666666666667</ele><time>2026-04-08T08:30:03.999Z</time></trkpt><trkpt lat="40.671449712831134" lon="15.693024535854022"><ele>1147.8333333333335</ele><time>2026-04-08T08:30:04.999Z</time></trkpt><trkpt lat="40.67139538528104" lon="15.692891280941655"><ele>1148.0</ele><time>2026-04-08T08:30:07Z</time></trkpt><trkpt lat="40.67135310715602" lon="15.692777259097216"><ele>1147.2</ele><time>2026-04-08T08:30:08Z</time></trkpt><trkpt lat="40.671330540609226" lon="15.692686851638356"><ele>1146.4</ele><time>2026-04-08T08:30:09Z</time></trkpt><trkpt lat="40.67131035269342" lon="15.692591074342719"><ele>1145.6000000000001</ele><time>2026-04-08T08:30:10Z</time></trkpt><trkpt lat="40.6713027688908" lon="15.692482805126584"><ele>1144.8</ele><time>2026-04-08T08:30:13Z</time></trkpt><trkpt lat="40.67124066849195" lon="15.692281158274922"><ele>1144.0</ele><time>2026-04-08T08:30:14Z</time></trkpt><trkpt lat="40.67128142320485" lon="15.692163432695887"><ele>1144.0</ele><time>2026-04-08T08:30:16Z</time></trkpt><trkpt lat="40.671313859900074" lon="15.692078729379364"><ele>1144.0</ele><time>2026-04-08T08:30:18Z</time></trkpt><trkpt lat="40.67134823161017" lon="15.691946020613347"><ele>1144.0</ele><time>2026-04-08T08:30:20Z</time></trkpt><trkpt lat="40.67136658281683" lon="15.691852547351226"><ele>1144.0</ele><time>2026-04-08T08:30:21Z</time></trkpt><trkpt lat="40.671382511050325" lon="15.691744626915161"><ele>1144.0</ele><time>2026-04-08T08:30:22Z</time></trkpt><trkpt lat="40.671395868212265" lon="15.6916274653485"><ele>1144.0</ele><time>2026-04-08T08:30:23Z</time></trkpt><trkpt lat="40.67144421333589" lon="15.691458298527902"><ele>1144.0</ele><time>2026-04-08T08:30:24Z</time></trkpt><trkpt lat="40.67142221632621" lon="15.691330461849626"><ele>1144.0</ele><time>2026-04-08T08:30:25Z</time></trkpt><trkpt lat="40.67141065909312" lon="15.691217608153448"><ele>1144.0</ele><time>2026-04-08T08:30:26Z</time></trkpt><trkpt lat="40.67141024984082" lon="15.691084132739501"><ele>1144.0</ele><time>2026-04-08T08:30:27Z</time></trkpt><trkpt lat="40.671395925968866" lon="15.690939102707475"><ele>1144.0</ele><time>2026-04-08T08:30:28Z</time></trkpt><trkpt lat="40.671381589489734" lon="15.690788709144893"><ele>1144.0</ele><time>2026-04-08T08:30:29Z</time></trkpt><trkpt lat="40.67136163132157" lon="15.690635573764325"><ele>1144.0</ele><time>2026-04-08T08:30:30Z</time></trkpt><trkpt lat="40.67133961478811" lon="15.690480876846026"><ele>1144.0</ele><time>2026-04-08T08:30:31Z</time></trkpt><trkpt lat="40.6712706944808" lon="15.689907236681844"><ele>1143.6000000000001</ele><time>2026-04-08T08:30:32Z</time></trkpt><trkpt lat="40.671258755437044" lon="15.689785722266885"><ele>1143.2</ele><time>2026-04-08T08:30:33Z</time></trkpt><trkpt lat="40.671215373965246" lon="15.689647691461252"><ele>1142.8000000000002</ele><time>2026-04-08T08:30:35Z</time></trkpt><trkpt lat="40.67109421784207" lon="15.689550024626662"><ele>1142.4</ele><time>2026-04-08T08:30:37Z</time></trkpt><trkpt lat="40.67104409384434" lon="15.689434124909267"><ele>1142.0</ele><time>2026-04-08T08:30:38Z</time></trkpt><trkpt lat="40.67095391882086" lon="15.68931037044673"><ele>1145.25</ele><time>2026-04-08T08:30:39Z</time></trkpt><trkpt lat="40.67088246070823" lon="15.689215256370959"><ele>1148.5</ele><time>2026-04-08T08:30:40Z</time></trkpt><trkpt lat="40.67080588719122" lon="15.689124844210689"><ele>1151.75</ele><time>2026-04-08T08:30:41Z</time></trkpt><trkpt lat="40.670749657184864" lon="15.689019121178118"><ele>1155.0</ele><time>2026-04-08T08:30:42Z</time></trkpt><trkpt lat="40.67065802954263" lon="15.68885997688209"><ele>1155.0</ele><time>2026-04-08T08:30:44Z</time></trkpt><trkpt lat="40.67058168378389" lon="15.68877604463047"><ele>1155.0</ele><time>2026-04-08T08:30:45Z</time></trkpt><trkpt lat="40.67051835628116" lon="15.688652346845213"><ele>1155.0</ele><time>2026-04-08T08:30:46Z</time></trkpt><trkpt lat="40.67044798021546" lon="15.68854590287501"><ele>1155.0</ele><time>2026-04-08T08:30:47Z</time></trkpt><trkpt lat="40.670359706866044" lon="15.688411020601158"><ele>1154.4</ele><time>2026-04-08T08:30:48Z</time></trkpt><trkpt lat="40.67029931844698" lon="15.68828222898077"><ele>1153.8</ele><time>2026-04-08T08:30:49Z</time></trkpt><trkpt lat="40.67026664755313" lon="15.688182021388245"><ele>1153.2</ele><time>2026-04-08T08:30:50Z</time></trkpt><trkpt lat="40.67022116507045" lon="15.688121599094329"><ele>1152.6</ele><time>2026-04-08T08:30:51Z</time></trkpt><trkpt lat="40.67016871155019" lon="15.688008226593064"><ele>1152.0</ele><time>2026-04-08T08:30:53Z</time></trkpt><trkpt lat="40.67002373754749" lon="15.687825240187182"><ele>1155.25</ele><time>2026-04-08T08:30:55Z</time></trkpt><trkpt lat="40.66995771776625" lon="15.687758189312454"><ele>1158.5</ele><time>2026-04-08T08:30:56Z</time></trkpt><trkpt lat="40.669876866819635" lon="15.687660538226915"><ele>1161.75</ele><time>2026-04-08T08:30:57Z</time></trkpt><trkpt lat="40.669738880840605" lon="15.687551914463285"><ele>1165.0</ele><time>2026-04-08T08:30:59Z</time></trkpt><trkpt lat="40.66965223398614" lon="15.687464710219452"><ele>1165.0</ele><time>2026-04-08T08:31:00Z</time></trkpt><trkpt lat="40.66952414444427" lon="15.68738874070514"><ele>1165.0</ele><time>2026-04-08T08:31:01Z</time></trkpt><trkpt lat="40.66941611490294" lon="15.687320619628803"><ele>1165.0</ele><time>2026-04-08T08:31:02Z</time></trkpt><trkpt lat="40.669327904254764" lon="15.687238395774159"><ele>1165.0</ele><time>2026-04-08T08:31:03Z</time></trkpt><trkpt lat="40.669226415406186" lon="15.687171840398804"><ele>1171.25</ele><time>2026-04-08T08:31:04Z</time></trkpt><trkpt lat="40.66911183678064" lon="15.686918291741085"><ele>1177.5</ele><time>2026-04-08T08:31:11Z</time></trkpt><trkpt lat="40.66905328443303" lon="15.686828227445478"><ele>1183.75</ele><time>2026-04-08T08:31:12Z</time></trkpt><trkpt lat="40.668993538655755" lon="15.686723355435698"><ele>1190.0</ele><time>2026-04-08T08:31:13Z</time></trkpt><trkpt lat="40.668937225033936" lon="15.686606850250037"><ele>1190.0</ele><time>2026-04-08T08:31:14Z</time></trkpt><trkpt lat="40.66888706639236" lon="15.686489444258378"><ele>1190.0</ele><time>2026-04-08T08:31:15Z</time></trkpt><trkpt lat="40.66886897748126" lon="15.686373692137774"><ele>1190.0</ele><time>2026-04-08T08:31:16Z</time></trkpt><trkpt lat="40.66886341251016" lon="15.686272492003914"><ele>1190.0</ele><time>2026-04-08T08:31:17Z</time></trkpt><trkpt lat="40.66884750079132" lon="15.686187422203977"><ele>1190.0</ele><time>2026-04-08T08:31:18Z</time></trkpt><trkpt lat="40.66883426255943" lon="15.685913843072369"><ele>1189.8333333333335</ele><time>2026-04-08T08:31:23Z</time></trkpt><trkpt lat="40.66881899831439" lon="15.685799578658308"><ele>1189.6666666666667</ele><time>2026-04-08T08:31:24Z</time></trkpt><trkpt lat="40.66882085811776" lon="15.685687869589486"><ele>1189.5</ele><time>2026-04-08T08:31:25Z</time></trkpt><trkpt lat="40.66880465021465" lon="15.685587821861358"><ele>1189.3333333333333</ele><time>2026-04-08T08:31:26Z</time></trkpt><trkpt lat="40.668771186630195" lon="15.685513634496976"><ele>1189.1666666666665</ele><time>2026-04-08T08:31:27Z</time></trkpt><trkpt lat="40.66869217021532" lon="15.685401688475858"><ele>1189.0</ele><time>2026-04-08T08:31:29Z</time></trkpt><trkpt lat="40.6686386261964" lon="15.685237552675337"><ele>1187.4</ele><time>2026-04-08T08:31:31Z</time></trkpt><trkpt lat="40.66862413135525" lon="15.685146380669146"><ele>1185.8000000000002</ele><time>2026-04-08T08:31:32Z</time></trkpt><trkpt lat="40.668581937784076" lon="15.685031931427757"><ele>1184.1999999999998</ele><time>2026-04-08T08:31:34Z</time></trkpt><trkpt lat="40.668578574734525" lon="15.68492113020514"><ele>1182.6</ele><time>2026-04-08T08:31:36Z</time></trkpt><trkpt lat="40.6686028096158" lon="15.684763896655019"><ele>1181.0</ele><time>2026-04-08T08:31:38Z</time></trkpt><trkpt lat="40.668610576975425" lon="15.684654643936815"><ele>1181.2</ele><time>2026-04-08T08:31:39Z</time></trkpt><trkpt lat="40.66864313778759" lon="15.684409010170306"><ele>1181.3999999999999</ele><time>2026-04-08T08:31:41Z</time></trkpt><trkpt lat="40.668697318315786" lon="15.684299033027846"><ele>1181.6</ele><time>2026-04-08T08:31:42Z</time></trkpt><trkpt lat="40.66873177643653" lon="15.684197920510245"><ele>1181.8</ele><time>2026-04-08T08:31:43Z</time></trkpt><trkpt lat="40.668751213593275" lon="15.684110768946605"><ele>1182.0</ele><time>2026-04-08T08:31:44Z</time></trkpt><trkpt lat="40.66877680623124" lon="15.684015689723942"><ele>1182.0</ele><time>2026-04-08T08:31:45Z</time></trkpt><trkpt lat="40.66880907428251" lon="15.683878338917491"><ele>1182.0</ele><time>2026-04-08T08:31:46Z</time></trkpt><trkpt lat="40.66886988031441" lon="15.683788917972569"><ele>1182.0</ele><time>2026-04-08T08:31:47Z</time></trkpt><trkpt lat="40.66891067361505" lon="15.683716731958103"><ele>1182.0</ele><time>2026-04-08T08:31:47.999Z</time></trkpt><trkpt lat="40.66894099041766" lon="15.68359789483572"><ele>1182.0</ele><time>2026-04-08T08:31:49.999Z</time></trkpt><trkpt lat="40.66896788400649" lon="15.683514828531917"><ele>1182.0</ele><time>2026-04-08T08:31:51.999Z</time></trkpt><trkpt lat="40.66902073188523" lon="15.683452194625557"><ele>1181.5714285714284</ele><time>2026-04-08T08:31:53.999Z</time></trkpt><trkpt lat="40.66907035705676" lon="15.683400445222006"><ele>1181.142857142857</ele><time>2026-04-08T08:31:57.999Z</time></trkpt><trkpt lat="40.66913680834292" lon="15.683346169920988"><ele>1180.7142857142858</ele><time>2026-04-08T08:32:01.999Z</time></trkpt><trkpt lat="40.669144084614686" lon="15.683253763584574"><ele>1180.2857142857142</ele><time>2026-04-08T08:32:05.999Z</time></trkpt><trkpt lat="40.66921991970612" lon="15.683200150576763"><ele>1179.857142857143</ele><time>2026-04-08T08:32:07.999Z</time></trkpt><trkpt lat="40.66929296394587" lon="15.68317211335103"><ele>1179.4285714285713</ele><time>2026-04-08T08:32:14Z</time></trkpt><trkpt lat="40.66934549780872" lon="15.683110046453876"><ele>1179.0</ele><time>2026-04-08T08:32:16Z</time></trkpt><trkpt lat="40.66943738249028" lon="15.683098924969405"><ele>1174.6000000000001</ele><time>2026-04-08T08:32:19Z</time></trkpt><trkpt lat="40.66954587087842" lon="15.683119480004757"><ele>1170.2</ele><time>2026-04-08T08:32:21Z</time></trkpt><trkpt lat="40.66960052392481" lon="15.683026699234992"><ele>1165.8000000000002</ele><time>2026-04-08T08:32:23Z</time></trkpt><trkpt lat="40.66963329732748" lon="15.682937480731084"><ele>1161.4</ele><time>2026-04-08T08:32:24Z</time></trkpt><trkpt lat="40.66963249668862" lon="15.682846896780402"><ele>1157.0</ele><time>2026-04-08T08:32:25Z</time></trkpt><trkpt lat="40.66961403119217" lon="15.6826464915511"><ele>1155.2</ele><time>2026-04-08T08:32:27Z</time></trkpt><trkpt lat="40.66954976333474" lon="15.682560832951998"><ele>1153.4</ele><time>2026-04-08T08:32:28Z</time></trkpt><trkpt lat="40.66949653827174" lon="15.682459719114084"><ele>1151.6</ele><time>2026-04-08T08:32:30Z</time></trkpt><trkpt lat="40.6694299837003" lon="15.682335677866677"><ele>1149.8</ele><time>2026-04-08T08:32:32Z</time></trkpt><trkpt lat="40.66939062360761" lon="15.68225139847359"><ele>1148.0</ele><time>2026-04-08T08:32:33Z</time></trkpt><trkpt lat="40.66934417949153" lon="15.682170488750193"><ele>1149.8333333333335</ele><time>2026-04-08T08:32:34Z</time></trkpt><trkpt lat="40.66932862556442" lon="15.68208383120155"><ele>1151.6666666666667</ele><time>2026-04-08T08:32:35Z</time></trkpt><trkpt lat="40.669351086547806" lon="15.681986286693087"><ele>1153.5</ele><time>2026-04-08T08:32:36Z</time></trkpt><trkpt lat="40.66928582691439" lon="15.682062912834711"><ele>1155.3333333333333</ele><time>2026-04-08T08:32:37Z</time></trkpt><trkpt lat="40.66925635269844" lon="15.681985805659812"><ele>1157.1666666666665</ele><time>2026-04-08T08:32:39Z</time></trkpt><trkpt lat="40.66918117215967" lon="15.681935734731542"><ele>1159.0</ele><time>2026-04-08T08:32:41Z</time></trkpt><trkpt lat="40.66915080278203" lon="15.681854891177396"><ele>1159.0</ele><time>2026-04-08T08:32:45Z</time></trkpt><trkpt lat="40.66914702124324" lon="15.681719621143142"><ele>1159.0</ele><time>2026-04-08T08:32:46Z</time></trkpt><trkpt lat="40.669138833337435" lon="15.681626804693238"><ele>1159.0</ele><time>2026-04-08T08:32:47Z</time></trkpt><trkpt lat="40.66913979234611" lon="15.681464097077546"><ele>1159.0</ele><time>2026-04-08T08:32:49Z</time></trkpt><trkpt lat="40.669166521155674" lon="15.681377002023202"><ele>1159.0</ele><time>2026-04-08T08:32:50Z</time></trkpt><trkpt lat="40.669175265936175" lon="15.681253641868418"><ele>1156.75</ele><time>2026-04-08T08:32:51Z</time></trkpt><trkpt lat="40.66918004932581" lon="15.681088804018382"><ele>1154.5</ele><time>2026-04-08T08:32:53Z</time></trkpt><trkpt lat="40.66917768517575" lon="15.680973682501152"><ele>1152.25</ele><time>2026-04-08T08:32:54Z</time></trkpt><trkpt lat="40.66917896163692" lon="15.680828992486264"><ele>1150.0</ele><time>2026-04-08T08:32:55Z</time></trkpt><trkpt lat="40.669164110598196" lon="15.680324060596854"><ele>1146.0</ele><time>2026-04-08T08:32:56Z</time></trkpt><trkpt lat="40.669398624862616" lon="15.67972382608929"><ele>1146.0</ele><time>2026-04-08T08:32:57Z</time></trkpt><trkpt lat="40.669411392990185" lon="15.679613505680305"><ele>1146.0</ele><time>2026-04-08T08:32:58Z</time></trkpt><trkpt lat="40.669435814954866" lon="15.67951906841813"><ele>1146.0</ele><time>2026-04-08T08:32:59Z</time></trkpt><trkpt lat="40.669481799175664" lon="15.679422859499645"><ele>1146.0</ele><time>2026-04-08T08:33:00Z</time></trkpt><trkpt lat="40.66951247096409" lon="15.679327641933641"><ele>1146.0</ele><time>2026-04-08T08:33:01Z</time></trkpt><trkpt lat="40.669540523007626" lon="15.679219977254945"><ele>1146.0</ele><time>2026-04-08T08:33:02Z</time></trkpt><trkpt lat="40.66955251927782" lon="15.679088287195528"><ele>1142.2</ele><time>2026-04-08T08:33:03Z</time></trkpt><trkpt lat="40.669549066304874" lon="15.678947034017185"><ele>1138.3999999999999</ele><time>2026-04-08T08:33:04Z</time></trkpt><trkpt lat="40.66959098331866" lon="15.678794042121702"><ele>1134.6</ele><time>2026-04-08T08:33:05Z</time></trkpt><trkpt lat="40.66964700425038" lon="15.67866167954695"><ele>1130.8</ele><time>2026-04-08T08:33:06Z</time></trkpt><trkpt lat="40.669680701656226" lon="15.678560276169689"><ele>1127.0</ele><time>2026-04-08T08:33:07Z</time></trkpt><trkpt lat="40.669687824499" lon="15.678462027513737"><ele>1126.8333333333335</ele><time>2026-04-08T08:33:08Z</time></trkpt><trkpt lat="40.66968485549064" lon="15.678363195940852"><ele>1126.6666666666667</ele><time>2026-04-08T08:33:10Z</time></trkpt><trkpt lat="40.66964233265414" lon="15.678251165279017"><ele>1126.5</ele><time>2026-04-08T08:33:12Z</time></trkpt><trkpt lat="40.66960209330919" lon="15.678157252789713"><ele>1126.3333333333333</ele><time>2026-04-08T08:33:19Z</time></trkpt><trkpt lat="40.6695738971378" lon="15.678076175752883"><ele>1126.1666666666665</ele><time>2026-04-08T08:33:21Z</time></trkpt><trkpt lat="40.66950870610995" lon="15.677962300758365"><ele>1126.0</ele><time>2026-04-08T08:33:25Z</time></trkpt><trkpt lat="40.66945193369673" lon="15.677918994444878"><ele>1125.8333333333333</ele><time>2026-04-08T08:33:27Z</time></trkpt><trkpt lat="40.669412580330835" lon="15.677809585720542"><ele>1125.6666666666665</ele><time>2026-04-08T08:33:29Z</time></trkpt><trkpt lat="40.669349421234074" lon="15.677762932397592"><ele>1125.5</ele><time>2026-04-08T08:33:33Z</time></trkpt><trkpt lat="40.669279542140345" lon="15.677688465989691"><ele>1125.3333333333333</ele><time>2026-04-08T08:33:36Z</time></trkpt><trkpt lat="40.6692194168753" lon="15.677631228343943"><ele>1125.1666666666667</ele><time>2026-04-08T08:33:38Z</time></trkpt><trkpt lat="40.66917649157172" lon="15.677560971098307"><ele>1125.0</ele><time>2026-04-08T08:33:40Z</time></trkpt><trkpt lat="40.66916573628996" lon="15.677473570577003"><ele>1125.0</ele><time>2026-04-08T08:33:42Z</time></trkpt><trkpt lat="40.66910719516648" lon="15.677318326092117"><ele>1125.0</ele><time>2026-04-08T08:33:45Z</time></trkpt><trkpt lat="40.66909254801692" lon="15.677227467244876"><ele>1125.0</ele><time>2026-04-08T08:33:48.999Z</time></trkpt><trkpt lat="40.66902906107913" lon="15.6771607636338"><ele>1125.0</ele><time>2026-04-08T08:33:58.999Z</time></trkpt><trkpt lat="40.668966331150386" lon="15.677092131183757"><ele>1125.0</ele><time>2026-04-08T08:34:00.999Z</time></trkpt><trkpt lat="40.668914794916255" lon="15.677022973027478"><ele>1125.0</ele><time>2026-04-08T08:34:01.999Z</time></trkpt><trkpt lat="40.668863509453715" lon="15.676955942047544"><ele>1124.6</ele><time>2026-04-08T08:34:02.999Z</time></trkpt><trkpt lat="40.66881483175548" lon="15.676894868018334"><ele>1124.2</ele><time>2026-04-08T08:34:03.999Z</time></trkpt><trkpt lat="40.66872929422058" lon="15.676790960519119"><ele>1123.8</ele><time>2026-04-08T08:34:05.999Z</time></trkpt><trkpt lat="40.66867466776035" lon="15.676736061110681"><ele>1123.4</ele><time>2026-04-08T08:34:06.999Z</time></trkpt><trkpt lat="40.668613747399164" lon="15.676609174799633"><ele>1123.0</ele><time>2026-04-08T08:34:08.999Z</time></trkpt><trkpt lat="40.66853392608938" lon="15.676487763261434"><ele>1125.4</ele><time>2026-04-08T08:34:10.999Z</time></trkpt><trkpt lat="40.66845636979096" lon="15.676410911600406"><ele>1127.8</ele><time>2026-04-08T08:34:12.999Z</time></trkpt><trkpt lat="40.66834715028826" lon="15.676324421430138"><ele>1130.2</ele><time>2026-04-08T08:34:14.999Z</time></trkpt><trkpt lat="40.6683012598488" lon="15.676241927660145"><ele>1132.6</ele><time>2026-04-08T08:34:16.999Z</time></trkpt><trkpt lat="40.668248346089705" lon="15.676179630238844"><ele>1135.0</ele><time>2026-04-08T08:34:19Z</time></trkpt><trkpt lat="40.66809521590123" lon="15.676023021324315"><ele>1135.0</ele><time>2026-04-08T08:34:21Z</time></trkpt><trkpt lat="40.668029520412105" lon="15.6759889704979"><ele>1135.0</ele><time>2026-04-08T08:34:22Z</time></trkpt><trkpt lat="40.66796847109" lon="15.675963293970884"><ele>1135.0</ele><time>2026-04-08T08:34:23Z</time></trkpt><trkpt lat="40.66785391349134" lon="15.67589505240555"><ele>1135.0</ele><time>2026-04-08T08:34:25Z</time></trkpt><trkpt lat="40.66779355143405" lon="15.675797348013015"><ele>1135.0</ele><time>2026-04-08T08:34:27Z</time></trkpt><trkpt lat="40.66775042538269" lon="15.675708512915733"><ele>1135.0</ele><time>2026-04-08T08:34:29Z</time></trkpt><trkpt lat="40.66770059257779" lon="15.675601542906778"><ele>1140.0</ele><time>2026-04-08T08:34:32Z</time></trkpt><trkpt lat="40.6676692484377" lon="15.675518798329586"><ele>1145.0</ele><time>2026-04-08T08:34:34Z</time></trkpt><trkpt lat="40.66762887681485" lon="15.675442227241646"><ele>1150.0</ele><time>2026-04-08T08:34:36Z</time></trkpt><trkpt lat="40.66756649490366" lon="15.675325297034417"><ele>1155.0</ele><time>2026-04-08T08:34:38Z</time></trkpt><trkpt lat="40.667505855579655" lon="15.675070576309652"><ele>1155.6</ele><time>2026-04-08T08:34:41Z</time></trkpt><trkpt lat="40.66758465541568" lon="15.67495131751799"><ele>1156.2</ele><time>2026-04-08T08:34:43Z</time></trkpt><trkpt lat="40.667591103350766" lon="15.67483646836184"><ele>1156.8</ele><time>2026-04-08T08:34:45Z</time></trkpt><trkpt lat="40.66757515189258" lon="15.674741811775151"><ele>1157.4</ele><time>2026-04-08T08:34:46Z</time></trkpt><trkpt lat="40.66756024581329" lon="15.67460865196096"><ele>1158.0</ele><time>2026-04-08T08:34:47Z</time></trkpt><trkpt lat="40.66754247817113" lon="15.674497804184902"><ele>1159.4</ele><time>2026-04-08T08:34:48Z</time></trkpt><trkpt lat="40.667556008755994" lon="15.674387906819314"><ele>1160.8</ele><time>2026-04-08T08:34:49Z</time></trkpt><trkpt lat="40.66756732356609" lon="15.67427610212105"><ele>1162.2</ele><time>2026-04-08T08:34:50Z</time></trkpt><trkpt lat="40.667571569773195" lon="15.674143320787909"><ele>1163.6</ele><time>2026-04-08T08:34:51Z</time></trkpt><trkpt lat="40.66757022752873" lon="15.674034075874276"><ele>1165.0</ele><time>2026-04-08T08:34:52Z</time></trkpt><trkpt lat="40.66758486705848" lon="15.673874271344785"><ele>1165.0</ele><time>2026-04-08T08:34:53Z</time></trkpt><trkpt lat="40.66759267938413" lon="15.673744439518565"><ele>1165.0</ele><time>2026-04-08T08:34:54Z</time></trkpt><trkpt lat="40.66759639440438" lon="15.673617518034215"><ele>1165.0</ele><time>2026-04-08T08:34:55Z</time></trkpt><trkpt lat="40.667601461196426" lon="15.673516385454175"><ele>1165.0</ele><time>2026-04-08T08:34:56Z</time></trkpt><trkpt lat="40.667601375069964" lon="15.673402599449751"><ele>1165.0</ele><time>2026-04-08T08:34:57Z</time></trkpt><trkpt lat="40.66760171984342" lon="15.67328959123293"><ele>1165.0</ele><time>2026-04-08T08:34:58Z</time></trkpt><trkpt lat="40.667606384190705" lon="15.673184098835618"><ele>1166.0</ele><time>2026-04-08T08:34:59Z</time></trkpt><trkpt lat="40.667626189840355" lon="15.67304041768932"><ele>1167.0</ele><time>2026-04-08T08:35:01Z</time></trkpt><trkpt lat="40.667669072110286" lon="15.672910989657419"><ele>1168.0</ele><time>2026-04-08T08:35:03Z</time></trkpt><trkpt lat="40.66766574288849" lon="15.67275169257032"><ele>1169.0</ele><time>2026-04-08T08:35:05Z</time></trkpt><trkpt lat="40.66761071585745" lon="15.672640920041179"><ele>1170.0</ele><time>2026-04-08T08:35:06Z</time></trkpt><trkpt lat="40.667561527628195" lon="15.672545563146087"><ele>1170.0</ele><time>2026-04-08T08:35:07Z</time></trkpt><trkpt lat="40.66749161417332" lon="15.672471818497057"><ele>1170.0</ele><time>2026-04-08T08:35:08Z</time></trkpt><trkpt lat="40.66737844712872" lon="15.672368312054262"><ele>1170.0</ele><time>2026-04-08T08:35:09Z</time></trkpt><trkpt lat="40.667295323841444" lon="15.672243146959469"><ele>1170.0</ele><time>2026-04-08T08:35:10Z</time></trkpt><trkpt lat="40.66721698537786" lon="15.672144655051591"><ele>1170.0</ele><time>2026-04-08T08:35:11Z</time></trkpt><trkpt lat="40.667085739427094" lon="15.672078855439398"><ele>1170.0</ele><time>2026-04-08T08:35:12Z</time></trkpt><trkpt lat="40.66698049039372" lon="15.672009718355383"><ele>1170.0</ele><time>2026-04-08T08:35:13Z</time></trkpt><trkpt lat="40.66687866120064" lon="15.671937345778025"><ele>1170.0</ele><time>2026-04-08T08:35:14Z</time></trkpt><trkpt lat="40.66681462179993" lon="15.671877470499318"><ele>1171.2</ele><time>2026-04-08T08:35:15Z</time></trkpt><trkpt lat="40.66671680442208" lon="15.671825955239486"><ele>1172.4</ele><time>2026-04-08T08:35:16Z</time></trkpt><trkpt lat="40.66664819927383" lon="15.671766330815336"><ele>1173.6</ele><time>2026-04-08T08:35:17Z</time></trkpt><trkpt lat="40.66655559431371" lon="15.67171294116804"><ele>1174.8</ele><time>2026-04-08T08:35:19Z</time></trkpt><trkpt lat="40.66648336933399" lon="15.671723957107385"><ele>1176.0</ele><time>2026-04-08T08:35:21Z</time></trkpt><trkpt lat="40.666394623819656" lon="15.671687330558724"><ele>1176.0</ele><time>2026-04-08T08:35:23Z</time></trkpt><trkpt lat="40.66632763115126" lon="15.67165694641035"><ele>1176.0</ele><time>2026-04-08T08:35:24Z</time></trkpt><trkpt lat="40.66624464974712" lon="15.67161517289467"><ele>1176.0</ele><time>2026-04-08T08:35:26Z</time></trkpt><trkpt lat="40.666154364023626" lon="15.67157025210111"><ele>1176.0</ele><time>2026-04-08T08:35:28Z</time></trkpt><trkpt lat="40.6660559427714" lon="15.67148807375152"><ele>1176.0</ele><time>2026-04-08T08:35:30Z</time></trkpt><trkpt lat="40.66599357058333" lon="15.671441583852145"><ele>1176.0</ele><time>2026-04-08T08:35:31Z</time></trkpt><trkpt lat="40.66593852946259" lon="15.67139479768979"><ele>1176.2</ele><time>2026-04-08T08:35:32Z</time></trkpt><trkpt lat="40.66584044640043" lon="15.67132217510145"><ele>1176.3999999999999</ele><time>2026-04-08T08:35:34Z</time></trkpt><trkpt lat="40.665725328608225" lon="15.671263900007574"><ele>1176.6</ele><time>2026-04-08T08:35:36Z</time></trkpt><trkpt lat="40.6656714705975" lon="15.671208227290126"><ele>1176.8</ele><time>2026-04-08T08:35:37Z</time></trkpt><trkpt lat="40.66556844201295" lon="15.67111785332084"><ele>1177.0</ele><time>2026-04-08T08:35:39Z</time></trkpt><trkpt lat="40.66546598787598" lon="15.671025324038482"><ele>1177.0</ele><time>2026-04-08T08:35:41Z</time></trkpt><trkpt lat="40.66541498834919" lon="15.670963367026188"><ele>1177.0</ele><time>2026-04-08T08:35:41.999Z</time></trkpt><trkpt lat="40.66536905174656" lon="15.670905763539034"><ele>1177.0</ele><time>2026-04-08T08:35:42.999Z</time></trkpt><trkpt lat="40.665311251432556" lon="15.670817377675393"><ele>1177.0</ele><time>2026-04-08T08:35:44.999Z</time></trkpt><trkpt lat="40.66524504348202" lon="15.670750930782772"><ele>1177.0</ele><time>2026-04-08T08:35:46.999Z</time></trkpt><trkpt lat="40.66516823689077" lon="15.670687954798469"><ele>1177.0</ele><time>2026-04-08T08:35:48.999Z</time></trkpt><trkpt lat="40.66498874114536" lon="15.670621075350587"><ele>1175.6666666666665</ele><time>2026-04-08T08:36:35Z</time></trkpt><trkpt lat="40.664919329092065" lon="15.670629625905686"><ele>1174.3333333333333</ele><time>2026-04-08T08:36:36Z</time></trkpt><trkpt lat="40.66482775184476" lon="15.670641628761537"><ele>1173.0</ele><time>2026-04-08T08:36:37Z</time></trkpt><trkpt lat="40.66474771424774" lon="15.670652905596851"><ele>1171.6666666666667</ele><time>2026-04-08T08:36:38Z</time></trkpt><trkpt lat="40.66467238894564" lon="15.67067101792341"><ele>1170.3333333333335</ele><time>2026-04-08T08:36:39Z</time></trkpt><trkpt lat="40.664606426862655" lon="15.670691621402355"><ele>1169.0</ele><time>2026-04-08T08:36:40Z</time></trkpt><trkpt lat="40.66448376916918" lon="15.670678749080379"><ele>1170.5</ele><time>2026-04-08T08:36:42Z</time></trkpt><trkpt lat="40.66442419310574" lon="15.67063465507249"><ele>1172.0</ele><time>2026-04-08T08:36:43Z</time></trkpt><trkpt lat="40.664370693039785" lon="15.670585234572764"><ele>1173.5</ele><time>2026-04-08T08:36:44Z</time></trkpt><trkpt lat="40.66426924832109" lon="15.670528741305091"><ele>1175.0</ele><time>2026-04-08T08:36:46Z</time></trkpt><trkpt lat="40.66416817555568" lon="15.670447862277332"><ele>1176.5</ele><time>2026-04-08T08:36:49Z</time></trkpt><trkpt lat="40.664121057543795" lon="15.67035580520628"><ele>1178.0</ele><time>2026-04-08T08:36:50Z</time></trkpt><trkpt lat="40.66405228042383" lon="15.670239994693317"><ele>1178.0</ele><time>2026-04-08T08:36:51Z</time></trkpt><trkpt lat="40.66397001858798" lon="15.670163850237216"><ele>1178.0</ele><time>2026-04-08T08:36:52Z</time></trkpt><trkpt lat="40.66388138038935" lon="15.670109515575856"><ele>1178.0</ele><time>2026-04-08T08:36:53Z</time></trkpt><trkpt lat="40.66380796701527" lon="15.670043114601429"><ele>1178.0</ele><time>2026-04-08T08:36:54Z</time></trkpt><trkpt lat="40.66373028385649" lon="15.669937784386113"><ele>1178.0</ele><time>2026-04-08T08:36:55Z</time></trkpt><trkpt lat="40.6636551809669" lon="15.669822940854814"><ele>1179.0</ele><time>2026-04-08T08:36:56Z</time></trkpt><trkpt lat="40.66358111641483" lon="15.66970627800039"><ele>1180.0</ele><time>2026-04-08T08:36:57Z</time></trkpt><trkpt lat="40.663516479249935" lon="15.669572551237941"><ele>1181.0</ele><time>2026-04-08T08:36:58Z</time></trkpt><trkpt lat="40.66345349865407" lon="15.669451823880099"><ele>1182.0</ele><time>2026-04-08T08:36:59Z</time></trkpt><trkpt lat="40.66338834455363" lon="15.66934119875915"><ele>1178.5</ele><time>2026-04-08T08:37:00Z</time></trkpt><trkpt lat="40.663358284333505" lon="15.66925241663487"><ele>1175.0</ele><time>2026-04-08T08:37:01Z</time></trkpt><trkpt lat="40.66327747494357" lon="15.669118903264144"><ele>1171.5</ele><time>2026-04-08T08:37:02Z</time></trkpt><trkpt lat="40.66318566932581" lon="15.668990835520958"><ele>1168.0</ele><time>2026-04-08T08:37:03Z</time></trkpt><trkpt lat="40.663091404716404" lon="15.668863817020394"><ele>1168.0</ele><time>2026-04-08T08:37:04Z</time></trkpt><trkpt lat="40.662992272027054" lon="15.668743463315712"><ele>1168.0</ele><time>2026-04-08T08:37:05Z</time></trkpt><trkpt lat="40.66289123534229" lon="15.668659298041371"><ele>1168.0</ele><time>2026-04-08T08:37:06Z</time></trkpt><trkpt lat="40.66278872192853" lon="15.668543996892911"><ele>1168.0</ele><time>2026-04-08T08:37:07Z</time></trkpt><trkpt lat="40.66268129645332" lon="15.668434689760561"><ele>1167.6</ele><time>2026-04-08T08:37:08Z</time></trkpt><trkpt lat="40.662614854762765" lon="15.668375998691184"><ele>1167.1999999999998</ele><time>2026-04-08T08:37:09Z</time></trkpt><trkpt lat="40.662549995304424" lon="15.668375320539747"><ele>1166.8</ele><time>2026-04-08T08:37:10Z</time></trkpt><trkpt lat="40.66247893474924" lon="15.668415567152872"><ele>1166.3999999999999</ele><time>2026-04-08T08:37:12Z</time></trkpt><trkpt lat="40.662450446340465" lon="15.668529884270887"><ele>1166.0</ele><time>2026-04-08T08:37:14Z</time></trkpt><trkpt lat="40.662530927918304" lon="15.668688006833554"><ele>1166.0</ele><time>2026-04-08T08:37:16Z</time></trkpt><trkpt lat="40.66256343201318" lon="15.668798538918137"><ele>1166.0</ele><time>2026-04-08T08:37:17Z</time></trkpt><trkpt lat="40.66263696892651" lon="15.668959095609123"><ele>1166.0</ele><time>2026-04-08T08:37:18Z</time></trkpt><trkpt lat="40.66268541280389" lon="15.669100194901127"><ele>1166.0</ele><time>2026-04-08T08:37:19Z</time></trkpt><trkpt lat="40.66274543232117" lon="15.669228137070956"><ele>1166.5</ele><time>2026-04-08T08:37:20Z</time></trkpt><trkpt lat="40.66280195875989" lon="15.6693558096834"><ele>1167.0</ele><time>2026-04-08T08:37:21Z</time></trkpt><trkpt lat="40.66283610972771" lon="15.669467450188789"><ele>1167.5</ele><time>2026-04-08T08:37:22Z</time></trkpt><trkpt lat="40.66287355899071" lon="15.66963105942499"><ele>1168.0</ele><time>2026-04-08T08:37:23Z</time></trkpt><trkpt lat="40.66293397073715" lon="15.669786074123103"><ele>1171.5</ele><time>2026-04-08T08:37:24Z</time></trkpt><trkpt lat="40.66299572647974" lon="15.669954053015598"><ele>1175.0</ele><time>2026-04-08T08:37:25Z</time></trkpt><trkpt lat="40.66302940819955" lon="15.670102359076804"><ele>1178.5</ele><time>2026-04-08T08:37:26Z</time></trkpt><trkpt lat="40.66301287788104" lon="15.670271224973346"><ele>1182.0</ele><time>2026-04-08T08:37:27Z</time></trkpt><trkpt lat="40.66297068902341" lon="15.670439865901644"><ele>1183.6</ele><time>2026-04-08T08:37:28Z</time></trkpt><trkpt lat="40.6629712326366" lon="15.670580540722362"><ele>1185.2</ele><time>2026-04-08T08:37:29Z</time></trkpt><trkpt lat="40.662990424431754" lon="15.670733346720343"><ele>1186.8</ele><time>2026-04-08T08:37:30Z</time></trkpt><trkpt lat="40.662989884430885" lon="15.670870459437914"><ele>1188.4</ele><time>2026-04-08T08:37:31Z</time></trkpt><trkpt lat="40.66300187726399" lon="15.671016576301625"><ele>1190.0</ele><time>2026-04-08T08:37:32Z</time></trkpt><trkpt lat="40.6630614374099" lon="15.671217151805552"><ele>1191.0</ele><time>2026-04-08T08:37:33Z</time></trkpt><trkpt lat="40.663091198131745" lon="15.671389298055558"><ele>1192.0</ele><time>2026-04-08T08:37:34Z</time></trkpt><trkpt lat="40.663137323128694" lon="15.671533399137633"><ele>1193.0</ele><time>2026-04-08T08:37:35Z</time></trkpt><trkpt lat="40.66317052275603" lon="15.671694654013367"><ele>1194.0</ele><time>2026-04-08T08:37:36Z</time></trkpt><trkpt lat="40.66320011526218" lon="15.67188355739461"><ele>1195.0</ele><time>2026-04-08T08:37:37Z</time></trkpt><trkpt lat="40.66321426158314" lon="15.672106550479382"><ele>1196.0</ele><time>2026-04-08T08:37:38Z</time></trkpt><trkpt lat="40.66323070829049" lon="15.672282192233874"><ele>1197.0</ele><time>2026-04-08T08:37:39Z</time></trkpt><trkpt lat="40.66323307602419" lon="15.672431867255215"><ele>1198.0</ele><time>2026-04-08T08:37:40Z</time></trkpt><trkpt lat="40.663234926489515" lon="15.672566616087959"><ele>1198.0</ele><time>2026-04-08T08:37:41Z</time></trkpt><trkpt lat="40.663285592800044" lon="15.672714605477616"><ele>1198.0</ele><time>2026-04-08T08:37:41.999Z</time></trkpt><trkpt lat="40.66332716737115" lon="15.672813807381253"><ele>1198.0</ele><time>2026-04-08T08:37:42.999Z</time></trkpt><trkpt lat="40.66329673352994" lon="15.6728971083392"><ele>1198.0</ele><time>2026-04-08T08:37:43.999Z</time></trkpt><trkpt lat="40.66328581137815" lon="15.67297977340491"><ele>1198.0</ele><time>2026-04-08T08:37:44.999Z</time></trkpt><trkpt lat="40.66334576744304" lon="15.673161478182317"><ele>1197.75</ele><time>2026-04-08T08:37:45.999Z</time></trkpt><trkpt lat="40.66336884279267" lon="15.67335333270258"><ele>1197.5</ele><time>2026-04-08T08:37:46.999Z</time></trkpt><trkpt lat="40.6633943169497" lon="15.673535166143527"><ele>1197.25</ele><time>2026-04-08T08:37:47.999Z</time></trkpt><trkpt lat="40.66340020143065" lon="15.67371186881935"><ele>1197.0</ele><time>2026-04-08T08:37:48.999Z</time></trkpt><trkpt lat="40.663391061856636" lon="15.673875711961825"><ele>1196.6666666666667</ele><time>2026-04-08T08:37:49.999Z</time></trkpt><trkpt lat="40.663376649605546" lon="15.674008810522887"><ele>1196.3333333333333</ele><time>2026-04-08T08:37:50.999Z</time></trkpt><trkpt lat="40.66337545070629" lon="15.674131293509987"><ele>1196.0</ele><time>2026-04-08T08:37:51.999Z</time></trkpt><trkpt lat="40.66339779311195" lon="15.674235871060178"><ele>1195.6666666666665</ele><time>2026-04-08T08:37:52.999Z</time></trkpt><trkpt lat="40.66344190055906" lon="15.674314434552416"><ele>1195.3333333333333</ele><time>2026-04-08T08:37:53.999Z</time></trkpt><trkpt lat="40.6635018276208" lon="15.674380767223894"><ele>1195.0</ele><time>2026-04-08T08:37:54.999Z</time></trkpt><trkpt lat="40.66358536268201" lon="15.674471741853003"><ele>1195.6</ele><time>2026-04-08T08:37:55.999Z</time></trkpt><trkpt lat="40.66365579444722" lon="15.674588132728354"><ele>1196.2</ele><time>2026-04-08T08:37:56.999Z</time></trkpt><trkpt lat="40.66370935438136" lon="15.674703446906612"><ele>1196.8</ele><time>2026-04-08T08:37:57.999Z</time></trkpt><trkpt lat="40.663779936644715" lon="15.674810882278736"><ele>1197.4</ele><time>2026-04-08T08:37:58.999Z</time></trkpt><trkpt lat="40.66387649937042" lon="15.67489135248417"><ele>1198.0</ele><time>2026-04-08T08:37:59.999Z</time></trkpt><trkpt lat="40.66395923207233" lon="15.67496721588794"><ele>1198.0</ele><time>2026-04-08T08:38:00.999Z</time></trkpt><trkpt lat="40.664025444386844" lon="15.675047511928058"><ele>1198.0</ele><time>2026-04-08T08:38:01.999Z</time></trkpt><trkpt lat="40.664082611522026" lon="15.675113900417276"><ele>1198.0</ele><time>2026-04-08T08:38:02.999Z</time></trkpt><trkpt lat="40.664142590025016" lon="15.675192369960808"><ele>1198.0</ele><time>2026-04-08T08:38:03.999Z</time></trkpt><trkpt lat="40.66419604581235" lon="15.675291577305494"><ele>1198.0</ele><time>2026-04-08T08:38:04.999Z</time></trkpt><trkpt lat="40.664237253988674" lon="15.675386371992857"><ele>1198.0</ele><time>2026-04-08T08:38:05.999Z</time></trkpt><trkpt lat="40.66425079100191" lon="15.675479089842728"><ele>1200.4</ele><time>2026-04-08T08:38:06.999Z</time></trkpt><trkpt lat="40.66424054214195" lon="15.675645889919968"><ele>1202.8</ele><time>2026-04-08T08:38:08.999Z</time></trkpt><trkpt lat="40.664293226191475" lon="15.675742701373307"><ele>1205.2</ele><time>2026-04-08T08:38:10.999Z</time></trkpt><trkpt lat="40.66438081585869" lon="15.675835518964309"><ele>1207.6</ele><time>2026-04-08T08:38:12.999Z</time></trkpt><trkpt lat="40.66444197495456" lon="15.675900463444798"><ele>1210.0</ele><time>2026-04-08T08:38:13.999Z</time></trkpt><trkpt lat="40.66450538588328" lon="15.675963447294215"><ele>1210.1666666666665</ele><time>2026-04-08T08:38:14.999Z</time></trkpt><trkpt lat="40.66458254332694" lon="15.6760117214948"><ele>1210.3333333333333</ele><time>2026-04-08T08:38:15.999Z</time></trkpt><trkpt lat="40.6646492719803" lon="15.67605144819118"><ele>1210.5</ele><time>2026-04-08T08:38:16.999Z</time></trkpt><trkpt lat="40.664700687536346" lon="15.676116057231333"><ele>1210.6666666666667</ele><time>2026-04-08T08:38:17.999Z</time></trkpt><trkpt lat="40.664746778366016" lon="15.676183563954567"><ele>1210.8333333333335</ele><time>2026-04-08T08:38:18.999Z</time></trkpt><trkpt lat="40.66480702038713" lon="15.6762534689965"><ele>1211.0</ele><time>2026-04-08T08:38:19.999Z</time></trkpt><trkpt lat="40.66486792953475" lon="15.676326443494213"><ele>1213.1666666666667</ele><time>2026-04-08T08:38:20.999Z</time></trkpt><trkpt lat="40.664913429008934" lon="15.676414835972839"><ele>1215.3333333333335</ele><time>2026-04-08T08:38:21.999Z</time></trkpt><trkpt lat="40.6649431151735" lon="15.676503790033733"><ele>1217.5</ele><time>2026-04-08T08:38:22.999Z</time></trkpt><trkpt lat="40.664984976416" lon="15.67656623870473"><ele>1219.6666666666667</ele><time>2026-04-08T08:38:23.999Z</time></trkpt><trkpt lat="40.665088008988796" lon="15.676620403700266"><ele>1221.8333333333333</ele><time>2026-04-08T08:38:25.999Z</time></trkpt><trkpt lat="40.66514476009482" lon="15.67672212415358"><ele>1224.0</ele><time>2026-04-08T08:38:27.999Z</time></trkpt><trkpt lat="40.66521923441407" lon="15.676860573658347"><ele>1225.5</ele><time>2026-04-08T08:38:30Z</time></trkpt><trkpt lat="40.6652455055242" lon="15.67704994162687"><ele>1227.0</ele><time>2026-04-08T08:38:32Z</time></trkpt><trkpt lat="40.66524443905342" lon="15.677196866410148"><ele>1228.5</ele><time>2026-04-08T08:38:33Z</time></trkpt><trkpt lat="40.66523035044041" lon="15.677353611902594"><ele>1230.0</ele><time>2026-04-08T08:38:34Z</time></trkpt><trkpt lat="40.665222504415084" lon="15.67752332769475"><ele>1230.0</ele><time>2026-04-08T08:38:35Z</time></trkpt><trkpt lat="40.66522119918669" lon="15.677706085384825"><ele>1230.0</ele><time>2026-04-08T08:38:36Z</time></trkpt><trkpt lat="40.665246467662314" lon="15.677868568790114"><ele>1230.0</ele><time>2026-04-08T08:38:37Z</time></trkpt><trkpt lat="40.66528276085692" lon="15.678001375772327"><ele>1230.0</ele><time>2026-04-08T08:38:38Z</time></trkpt><trkpt lat="40.66532738413136" lon="15.678121293909955"><ele>1230.25</ele><time>2026-04-08T08:38:39Z</time></trkpt><trkpt lat="40.665369297871095" lon="15.678245531713006"><ele>1230.5</ele><time>2026-04-08T08:38:40Z</time></trkpt><trkpt lat="40.6654024512106" lon="15.67840333089879"><ele>1230.75</ele><time>2026-04-08T08:38:41Z</time></trkpt><trkpt lat="40.66543030818377" lon="15.678569408525508"><ele>1231.0</ele><time>2026-04-08T08:38:42Z</time></trkpt><trkpt lat="40.665459191669584" lon="15.678735272477969"><ele>1231.3333333333333</ele><time>2026-04-08T08:38:43Z</time></trkpt><trkpt lat="40.66548773906052" lon="15.678871010294861"><ele>1231.6666666666665</ele><time>2026-04-08T08:38:44Z</time></trkpt><trkpt lat="40.66548781818479" lon="15.678963844769745"><ele>1232.0</ele><time>2026-04-08T08:38:45Z</time></trkpt><trkpt lat="40.66548174954941" lon="15.679054415286835"><ele>1232.3333333333333</ele><time>2026-04-08T08:38:46Z</time></trkpt><trkpt lat="40.66548536761317" lon="15.67915128082377"><ele>1232.6666666666667</ele><time>2026-04-08T08:38:47Z</time></trkpt><trkpt lat="40.665494336992126" lon="15.679269659562996"><ele>1233.0</ele><time>2026-04-08T08:38:48Z</time></trkpt><trkpt lat="40.66550325142632" lon="15.679406867219702"><ele>1233.0</ele><time>2026-04-08T08:38:49Z</time></trkpt><trkpt lat="40.665511932946586" lon="15.679518557383345"><ele>1233.0</ele><time>2026-04-08T08:38:50Z</time></trkpt><trkpt lat="40.665494209214934" lon="15.679634616033953"><ele>1233.0</ele><time>2026-04-08T08:38:52Z</time></trkpt><trkpt lat="40.665482445870815" lon="15.679716737242364"><ele>1233.0</ele><time>2026-04-08T08:38:54Z</time></trkpt><trkpt lat="40.665502516997826" lon="15.679810169561936"><ele>1233.0</ele><time>2026-04-08T08:39:09Z</time></trkpt><trkpt lat="40.665520633565066" lon="15.679950875329064"><ele>1233.0</ele><time>2026-04-08T08:39:11Z</time></trkpt><trkpt lat="40.66555518772597" lon="15.6800307939264"><ele>1233.0</ele><time>2026-04-08T08:39:12Z</time></trkpt><trkpt lat="40.66560106902068" lon="15.680109829344687"><ele>1233.0</ele><time>2026-04-08T08:39:13Z</time></trkpt><trkpt lat="40.6656246683938" lon="15.680253348415649"><ele>1233.0</ele><time>2026-04-08T08:39:15Z</time></trkpt><trkpt lat="40.6656404698901" lon="15.680391779479125"><ele>1233.0</ele><time>2026-04-08T08:39:17Z</time></trkpt><trkpt lat="40.66567059469787" lon="15.680551832532167"><ele>1233.0</ele><time>2026-04-08T08:39:19Z</time></trkpt><trkpt lat="40.665684484856236" lon="15.68064941224286"><ele>1234.8333333333333</ele><time>2026-04-08T08:39:20Z</time></trkpt><trkpt lat="40.665704190590986" lon="15.680743164267701"><ele>1236.6666666666667</ele><time>2026-04-08T08:39:21Z</time></trkpt><trkpt lat="40.665735207392935" lon="15.680841237049698"><ele>1238.5</ele><time>2026-04-08T08:39:22Z</time></trkpt><trkpt lat="40.665767619261004" lon="15.680914403498766"><ele>1240.3333333333335</ele><time>2026-04-08T08:39:23Z</time></trkpt><trkpt lat="40.66581290375742" lon="15.680997150129276"><ele>1242.1666666666667</ele><time>2026-04-08T08:39:25Z</time></trkpt><trkpt lat="40.66587919659182" lon="15.681086761228332"><ele>1244.0</ele><time>2026-04-08T08:39:27Z</time></trkpt><trkpt lat="40.66589076972275" lon="15.681209192303038"><ele>1247.75</ele><time>2026-04-08T08:39:29Z</time></trkpt><trkpt lat="40.66582109892621" lon="15.681344946963781"><ele>1251.5</ele><time>2026-04-08T08:39:32Z</time></trkpt><trkpt lat="40.66584418887306" lon="15.681437259652933"><ele>1255.25</ele><time>2026-04-08T08:39:36Z</time></trkpt><trkpt lat="40.665766814056056" lon="15.68164827423738"><ele>1259.0</ele><time>2026-04-08T08:39:39Z</time></trkpt><trkpt lat="40.66573351848697" lon="15.681776580432338"><ele>1259.0</ele><time>2026-04-08T08:39:40Z</time></trkpt><trkpt lat="40.66571441777339" lon="15.681919526230047"><ele>1259.0</ele><time>2026-04-08T08:39:40.999Z</time></trkpt><trkpt lat="40.665678900889546" lon="15.682037043047156"><ele>1259.0</ele><time>2026-04-08T08:39:41.999Z</time></trkpt><trkpt lat="40.66564889050741" lon="15.682168265354907"><ele>1259.0</ele><time>2026-04-08T08:39:42.999Z</time></trkpt><trkpt lat="40.66561554066176" lon="15.682293242118368"><ele>1259.0</ele><time>2026-04-08T08:39:43.999Z</time></trkpt><trkpt lat="40.66557811320174" lon="15.68239908507338"><ele>1260.142857142857</ele><time>2026-04-08T08:39:44.999Z</time></trkpt><trkpt lat="40.66554632627439" lon="15.682502316541044"><ele>1261.2857142857142</ele><time>2026-04-08T08:39:45.999Z</time></trkpt><trkpt lat="40.66550824352294" lon="15.682593513561725"><ele>1262.4285714285716</ele><time>2026-04-08T08:39:46.999Z</time></trkpt><trkpt lat="40.6654633986188" lon="15.682679990939334"><ele>1263.5714285714284</ele><time>2026-04-08T08:39:47.999Z</time></trkpt><trkpt lat="40.6654144936583" lon="15.682734529772002"><ele>1264.7142857142858</ele><time>2026-04-08T08:39:48.999Z</time></trkpt><trkpt lat="40.66537559788258" lon="15.682804939319782"><ele>1265.857142857143</ele><time>2026-04-08T08:39:59.999Z</time></trkpt><trkpt lat="40.66539989064996" lon="15.68288515537793"><ele>1267.0</ele><time>2026-04-08T08:40:02.999Z</time></trkpt><trkpt lat="40.66545786883657" lon="15.682933106343546"><ele>1269.0</ele><time>2026-04-08T08:40:04.999Z</time></trkpt><trkpt lat="40.66551461993022" lon="15.683058457071569"><ele>1271.0</ele><time>2026-04-08T08:40:05.999Z</time></trkpt><trkpt lat="40.66559953872179" lon="15.683187861754305"><ele>1273.0</ele><time>2026-04-08T08:40:07.999Z</time></trkpt><trkpt lat="40.665637814698826" lon="15.683258575440481"><ele>1275.0</ele><time>2026-04-08T08:40:08.999Z</time></trkpt><trkpt lat="40.665673864142235" lon="15.683341432417798"><ele>1277.0</ele><time>2026-04-08T08:40:09.999Z</time></trkpt><trkpt lat="40.66570757025287" lon="15.683437606511111"><ele>1277.0</ele><time>2026-04-08T08:40:10.999Z</time></trkpt><trkpt lat="40.66574192482643" lon="15.683548942547835"><ele>1277.0</ele><time>2026-04-08T08:40:11.999Z</time></trkpt><trkpt lat="40.665772595960036" lon="15.683654059942533"><ele>1277.0</ele><time>2026-04-08T08:40:12.999Z</time></trkpt><trkpt lat="40.66580504265838" lon="15.683779317113926"><ele>1277.0</ele><time>2026-04-08T08:40:13.999Z</time></trkpt><trkpt lat="40.66584798904498" lon="15.683916585597661"><ele>1277.0</ele><time>2026-04-08T08:40:14.999Z</time></trkpt><trkpt lat="40.665866943717766" lon="15.684031638795572"><ele>1279.8</ele><time>2026-04-08T08:40:15.999Z</time></trkpt><trkpt lat="40.665876968450135" lon="15.684144742004385"><ele>1282.6</ele><time>2026-04-08T08:40:16.999Z</time></trkpt><trkpt lat="40.66585001969934" lon="15.684293837119334"><ele>1285.3999999999999</ele><time>2026-04-08T08:40:17.999Z</time></trkpt><trkpt lat="40.66587696659086" lon="15.684426326644697"><ele>1288.2</ele><time>2026-04-08T08:40:18.999Z</time></trkpt><trkpt lat="40.66590111726343" lon="15.684529875323815"><ele>1291.0</ele><time>2026-04-08T08:40:19.999Z</time></trkpt><trkpt lat="40.66591914460651" lon="15.684641442006159"><ele>1292.75</ele><time>2026-04-08T08:40:20.999Z</time></trkpt><trkpt lat="40.66593818211363" lon="15.684737166724117"><ele>1294.5</ele><time>2026-04-08T08:40:21.999Z</time></trkpt><trkpt lat="40.6659514515665" lon="15.684827318404853"><ele>1296.25</ele><time>2026-04-08T08:40:22.999Z</time></trkpt><trkpt lat="40.665953865511646" lon="15.684924474180109"><ele>1298.0</ele><time>2026-04-08T08:40:23.999Z</time></trkpt><trkpt lat="40.66583401250768" lon="15.685254010594809"><ele>1299.8000000000002</ele><time>2026-04-08T08:40:24.999Z</time></trkpt><trkpt lat="40.66578545565349" lon="15.685329146042633"><ele>1301.6</ele><time>2026-04-08T08:40:25.999Z</time></trkpt><trkpt lat="40.665803994419214" lon="15.685411658421666"><ele>1303.4</ele><time>2026-04-08T08:40:26.999Z</time></trkpt><trkpt lat="40.6658653212496" lon="15.68548680621758"><ele>1305.1999999999998</ele><time>2026-04-08T08:40:27.999Z</time></trkpt><trkpt lat="40.665953798595524" lon="15.685588687215787"><ele>1307.0</ele><time>2026-04-08T08:40:28.999Z</time></trkpt><trkpt lat="40.666021145883064" lon="15.685727572123113"><ele>1307.0</ele><time>2026-04-08T08:40:29.999Z</time></trkpt><trkpt lat="40.666062235425024" lon="15.685847682143798"><ele>1307.0</ele><time>2026-04-08T08:40:30.999Z</time></trkpt><trkpt lat="40.66609397627416" lon="15.685941477480714"><ele>1307.0</ele><time>2026-04-08T08:40:31.999Z</time></trkpt><trkpt lat="40.66608585954672" lon="15.686051235414874"><ele>1307.0</ele><time>2026-04-08T08:40:32.999Z</time></trkpt><trkpt lat="40.66605091606541" lon="15.686177616446601"><ele>1307.0</ele><time>2026-04-08T08:40:33.999Z</time></trkpt><trkpt lat="40.665995010044924" lon="15.686259008701118"><ele>1307.0</ele><time>2026-04-08T08:40:35Z</time></trkpt><trkpt lat="40.66597184954941" lon="15.686336237323006"><ele>1308.5</ele><time>2026-04-08T08:40:37Z</time></trkpt><trkpt lat="40.66594069104358" lon="15.686423878161778"><ele>1310.0</ele><time>2026-04-08T08:40:38Z</time></trkpt><trkpt lat="40.66591722179258" lon="15.68651139230885"><ele>1311.5</ele><time>2026-04-08T08:40:39Z</time></trkpt><trkpt lat="40.66590897306929" lon="15.686641182900619"><ele>1313.0</ele><time>2026-04-08T08:40:40Z</time></trkpt><trkpt lat="40.6659033775334" lon="15.6867391475985"><ele>1314.5</ele><time>2026-04-08T08:40:42Z</time></trkpt><trkpt lat="40.66586021328807" lon="15.686807176976776"><ele>1316.0</ele><time>2026-04-08T08:40:43Z</time></trkpt><trkpt lat="40.66579131461227" lon="15.686870526283972"><ele>1316.25</ele><time>2026-04-08T08:40:44Z</time></trkpt><trkpt lat="40.66576277010391" lon="15.686948950049358"><ele>1316.5</ele><time>2026-04-08T08:40:45Z</time></trkpt><trkpt lat="40.66576155329572" lon="15.68712292056757"><ele>1316.75</ele><time>2026-04-08T08:40:47Z</time></trkpt><trkpt lat="40.665700840162714" lon="15.68730051095351"><ele>1317.0</ele><time>2026-04-08T08:40:48Z</time></trkpt><trkpt lat="40.665633726181895" lon="15.687455273638033"><ele>1317.0</ele><time>2026-04-08T08:40:49Z</time></trkpt><trkpt lat="40.665573751413696" lon="15.687579531291677"><ele>1317.0</ele><time>2026-04-08T08:40:50Z</time></trkpt><trkpt lat="40.66552201351369" lon="15.687695416769039"><ele>1317.0</ele><time>2026-04-08T08:40:51Z</time></trkpt><trkpt lat="40.66548286171188" lon="15.6877927988452"><ele>1317.0</ele><time>2026-04-08T08:40:52Z</time></trkpt><trkpt lat="40.66539096714966" lon="15.687815009626625"><ele>1317.0</ele><time>2026-04-08T08:40:53Z</time></trkpt><trkpt lat="40.66528549653448" lon="15.68784223674861"><ele>1318.8</ele><time>2026-04-08T08:40:54Z</time></trkpt><trkpt lat="40.66519133094338" lon="15.687871553539003"><ele>1320.6</ele><time>2026-04-08T08:40:55Z</time></trkpt><trkpt lat="40.665118994991715" lon="15.687921707750938"><ele>1322.3999999999999</ele><time>2026-04-08T08:40:56Z</time></trkpt><trkpt lat="40.66497925485697" lon="15.687888140094866"><ele>1324.1999999999998</ele><time>2026-04-08T08:40:57Z</time></trkpt><trkpt lat="40.66487513415966" lon="15.687898823817372"><ele>1326.0</ele><time>2026-04-08T08:40:58Z</time></trkpt><trkpt lat="40.66477408862903" lon="15.687902971036563"><ele>1326.0</ele><time>2026-04-08T08:40:59Z</time></trkpt><trkpt lat="40.664689702096126" lon="15.687906321929361"><ele>1326.0</ele><time>2026-04-08T08:41:00Z</time></trkpt><trkpt lat="40.664604867066366" lon="15.687907160012355"><ele>1326.0</ele><time>2026-04-08T08:41:01Z</time></trkpt><trkpt lat="40.664517276869084" lon="15.687920135903859"><ele>1326.0</ele><time>2026-04-08T08:41:02Z</time></trkpt><trkpt lat="40.664429790681034" lon="15.68792944370096"><ele>1326.0</ele><time>2026-04-08T08:41:03Z</time></trkpt><trkpt lat="40.66435115599883" lon="15.687936786530537"><ele>1326.0</ele><time>2026-04-08T08:41:04Z</time></trkpt><trkpt lat="40.664261380051435" lon="15.687956412346221"><ele>1328.1666666666667</ele><time>2026-04-08T08:41:05Z</time></trkpt><trkpt lat="40.66418544013981" lon="15.687985351591351"><ele>1330.3333333333333</ele><time>2026-04-08T08:41:06Z</time></trkpt><trkpt lat="40.66409078381871" lon="15.688001437201104"><ele>1332.5</ele><time>2026-04-08T08:41:07Z</time></trkpt><trkpt lat="40.66400568620833" lon="15.688030289763125"><ele>1334.6666666666665</ele><time>2026-04-08T08:41:08Z</time></trkpt><trkpt lat="40.663925276763635" lon="15.688056136552444"><ele>1336.8333333333333</ele><time>2026-04-08T08:41:09Z</time></trkpt><trkpt lat="40.663834357762525" lon="15.68808977005969"><ele>1339.0</ele><time>2026-04-08T08:41:10Z</time></trkpt><trkpt lat="40.66376023926494" lon="15.688144423324541"><ele>1339.0</ele><time>2026-04-08T08:41:11Z</time></trkpt><trkpt lat="40.663685596019995" lon="15.68818186687571"><ele>1339.0</ele><time>2026-04-08T08:41:12Z</time></trkpt><trkpt lat="40.663610625396316" lon="15.688226649826724"><ele>1339.0</ele><time>2026-04-08T08:41:13Z</time></trkpt><trkpt lat="40.66355227693462" lon="15.68826822441005"><ele>1339.0</ele><time>2026-04-08T08:41:14Z</time></trkpt><trkpt lat="40.663479596273156" lon="15.688313956043276"><ele>1339.0</ele><time>2026-04-08T08:41:15Z</time></trkpt><trkpt lat="40.66341177286316" lon="15.68835962948926"><ele>1339.0</ele><time>2026-04-08T08:41:16Z</time></trkpt><trkpt lat="40.66334346441635" lon="15.688424006629907"><ele>1340.0</ele><time>2026-04-08T08:41:17Z</time></trkpt><trkpt lat="40.66323996029166" lon="15.688573336172098"><ele>1341.0</ele><time>2026-04-08T08:41:19Z</time></trkpt><trkpt lat="40.663212161927085" lon="15.68868703286567"><ele>1342.0</ele><time>2026-04-08T08:41:20Z</time></trkpt><trkpt lat="40.66316541410077" lon="15.688752171539313"><ele>1343.0</ele><time>2026-04-08T08:41:21Z</time></trkpt><trkpt lat="40.66311134037893" lon="15.688827879750026"><ele>1344.0</ele><time>2026-04-08T08:41:22Z</time></trkpt><trkpt lat="40.66306257813331" lon="15.688907638859526"><ele>1344.0</ele><time>2026-04-08T08:41:23Z</time></trkpt><trkpt lat="40.663036913060346" lon="15.688990368902232"><ele>1344.0</ele><time>2026-04-08T08:41:24Z</time></trkpt><trkpt lat="40.6630235204344" lon="15.689136429069702"><ele>1344.0</ele><time>2026-04-08T08:41:25Z</time></trkpt><trkpt lat="40.663009785432855" lon="15.689270954797378"><ele>1344.0</ele><time>2026-04-08T08:41:26Z</time></trkpt><trkpt lat="40.66300731237609" lon="15.689393529631579"><ele>1344.0</ele><time>2026-04-08T08:41:27Z</time></trkpt><trkpt lat="40.66298697887006" lon="15.689485942760573"><ele>1344.0</ele><time>2026-04-08T08:41:28Z</time></trkpt><trkpt lat="40.66300303172736" lon="15.689633712993682"><ele>1344.5</ele><time>2026-04-08T08:41:29Z</time></trkpt><trkpt lat="40.663023691816484" lon="15.689764277629434"><ele>1345.0</ele><time>2026-04-08T08:41:30Z</time></trkpt><trkpt lat="40.66305514789251" lon="15.689937096490668"><ele>1345.5</ele><time>2026-04-08T08:41:31Z</time></trkpt><trkpt lat="40.66309237988643" lon="15.690102622474598"><ele>1346.0</ele><time>2026-04-08T08:41:32Z</time></trkpt><trkpt lat="40.663108106099074" lon="15.690327523773009"><ele>1342.75</ele><time>2026-04-08T08:41:33Z</time></trkpt><trkpt lat="40.66313675423322" lon="15.690545324320517"><ele>1339.5</ele><time>2026-04-08T08:41:34Z</time></trkpt><trkpt lat="40.6631448382868" lon="15.690718404725402"><ele>1336.25</ele><time>2026-04-08T08:41:35Z</time></trkpt><trkpt lat="40.663131376286664" lon="15.690887531904677"><ele>1333.0</ele><time>2026-04-08T08:41:36Z</time></trkpt><trkpt lat="40.663110466504335" lon="15.69104475502832"><ele>1329.25</ele><time>2026-04-08T08:41:37Z</time></trkpt><trkpt lat="40.66308504773797" lon="15.691192684554899"><ele>1325.5</ele><time>2026-04-08T08:41:38Z</time></trkpt><trkpt lat="40.66309672442732" lon="15.691382766163281"><ele>1321.75</ele><time>2026-04-08T08:41:39Z</time></trkpt><trkpt lat="40.66307833262139" lon="15.691533946909997"><ele>1318.0</ele><time>2026-04-08T08:41:40Z</time></trkpt><trkpt lat="40.66304615505035" lon="15.691660058231392"><ele>1318.0</ele><time>2026-04-08T08:41:40.999Z</time></trkpt><trkpt lat="40.663010156063386" lon="15.691804427086831"><ele>1318.0</ele><time>2026-04-08T08:41:41.999Z</time></trkpt><trkpt lat="40.66297426271628" lon="15.691883271089598"><ele>1318.0</ele><time>2026-04-08T08:41:42.999Z</time></trkpt><trkpt lat="40.66292653762672" lon="15.691963273497295"><ele>1318.0</ele><time>2026-04-08T08:41:43.999Z</time></trkpt><trkpt lat="40.662945098449626" lon="15.692062830851846"><ele>1318.0</ele><time>2026-04-08T08:41:47.999Z</time></trkpt><trkpt lat="40.66297712486894" lon="15.692155741199217"><ele>1318.0</ele><time>2026-04-08T08:41:49.999Z</time></trkpt><trkpt lat="40.66300358650485" lon="15.692243247572732"><ele>1314.8000000000002</ele><time>2026-04-08T08:41:50.999Z</time></trkpt><trkpt lat="40.66304300952897" lon="15.692357214449203"><ele>1311.6</ele><time>2026-04-08T08:41:52.999Z</time></trkpt><trkpt lat="40.66311498257232" lon="15.692484883826587"><ele>1308.4</ele><time>2026-04-08T08:41:54.999Z</time></trkpt><trkpt lat="40.66315747160486" lon="15.692564876779567"><ele>1305.1999999999998</ele><time>2026-04-08T08:41:55.999Z</time></trkpt><trkpt lat="40.66321336223547" lon="15.692644343656971"><ele>1302.0</ele><time>2026-04-08T08:41:56.999Z</time></trkpt><trkpt lat="40.66330242528649" lon="15.692736043136469"><ele>1299.0</ele><time>2026-04-08T08:41:57.999Z</time></trkpt><trkpt lat="40.663378194403116" lon="15.692808641359408"><ele>1296.0</ele><time>2026-04-08T08:41:58.999Z</time></trkpt><trkpt lat="40.66342076958817" lon="15.692894799645911"><ele>1293.0</ele><time>2026-04-08T08:42:00.999Z</time></trkpt><trkpt lat="40.663399333999266" lon="15.69302263123918"><ele>1290.0</ele><time>2026-04-08T08:42:02.999Z</time></trkpt><trkpt lat="40.66336071571402" lon="15.693095316085365"><ele>1287.0</ele><time>2026-04-08T08:42:03.999Z</time></trkpt><trkpt lat="40.663283883872246" lon="15.693275424352883"><ele>1287.0</ele><time>2026-04-08T08:42:05.999Z</time></trkpt><trkpt lat="40.66326064194323" lon="15.693380015507863"><ele>1287.0</ele><time>2026-04-08T08:42:06.999Z</time></trkpt><trkpt lat="40.66321944536677" lon="15.693522499909418"><ele>1287.0</ele><time>2026-04-08T08:42:08.999Z</time></trkpt><trkpt lat="40.66318252419673" lon="15.693619303523969"><ele>1287.0</ele><time>2026-04-08T08:42:09.999Z</time></trkpt><trkpt lat="40.66314475824747" lon="15.69373655097853"><ele>1287.0</ele><time>2026-04-08T08:42:10.999Z</time></trkpt><trkpt lat="40.663117212697045" lon="15.693862272983322"><ele>1286.5</ele><time>2026-04-08T08:42:11.999Z</time></trkpt><trkpt lat="40.663084430452194" lon="15.693968421838145"><ele>1286.0</ele><time>2026-04-08T08:42:12.999Z</time></trkpt><trkpt lat="40.66305138165612" lon="15.69408416486113"><ele>1285.5</ele><time>2026-04-08T08:42:13.999Z</time></trkpt><trkpt lat="40.663018931775696" lon="15.694180819253244"><ele>1285.0</ele><time>2026-04-08T08:42:14.999Z</time></trkpt><trkpt lat="40.66299452965421" lon="15.694267763382785"><ele>1284.5</ele><time>2026-04-08T08:42:15.999Z</time></trkpt><trkpt lat="40.66301580241544" lon="15.694413942382072"><ele>1284.0</ele><time>2026-04-08T08:42:17.999Z</time></trkpt><trkpt lat="40.66303343534246" lon="15.694561066786633"><ele>1284.0</ele><time>2026-04-08T08:42:19.999Z</time></trkpt><trkpt lat="40.6630284114069" lon="15.694318009496316"><ele>1284.0</ele><time>2026-04-08T08:42:20.999Z</time></trkpt><trkpt lat="40.663067377611725" lon="15.694383470738419"><ele>1284.0</ele><time>2026-04-08T08:42:24.999Z</time></trkpt><trkpt lat="40.66308254223184" lon="15.694467117980617"><ele>1284.0</ele><time>2026-04-08T08:42:32.999Z</time></trkpt><trkpt lat="40.66315537456981" lon="15.69458368804601"><ele>1284.0</ele><time>2026-04-08T08:43:04Z</time></trkpt><trkpt lat="40.663042037016666" lon="15.694685325571518"><ele>1284.0</ele><time>2026-04-08T08:44:16.999Z</time></trkpt><trkpt lat="40.662981883606676" lon="15.69476312346945"><ele>1284.0</ele><time>2026-04-08T08:44:17.999Z</time></trkpt><trkpt lat="40.662969903802356" lon="15.69484872280945"><ele>1284.0</ele><time>2026-04-08T08:44:19.999Z</time></trkpt><trkpt lat="40.662914540758344" lon="15.694910006388119"><ele>1284.0</ele><time>2026-04-08T08:44:22.999Z</time></trkpt><trkpt lat="40.66308116074842" lon="15.69466423980205"><ele>1284.0</ele><time>2026-04-08T08:44:24.999Z</time></trkpt><trkpt lat="40.66301497461967" lon="15.694739379001634"><ele>1284.0</ele><time>2026-04-08T08:44:26.999Z</time></trkpt><trkpt lat="40.66293706208653" lon="15.694892017697681"><ele>1284.0</ele><time>2026-04-08T08:44:29.999Z</time></trkpt><trkpt lat="40.662899796374994" lon="15.69502079750649"><ele>1284.0</ele><time>2026-04-08T08:44:30.999Z</time></trkpt><trkpt lat="40.66287933867433" lon="15.69512142417894"><ele>1284.0</ele><time>2026-04-08T08:44:31.999Z</time></trkpt><trkpt lat="40.66288819071354" lon="15.695240923278925"><ele>1283.4</ele><time>2026-04-08T08:44:33.999Z</time></trkpt><trkpt lat="40.662927629919366" lon="15.695356617808383"><ele>1282.8000000000002</ele><time>2026-04-08T08:44:34.999Z</time></trkpt><trkpt lat="40.66295236815173" lon="15.695504305180105"><ele>1282.1999999999998</ele><time>2026-04-08T08:44:35.999Z</time></trkpt><trkpt lat="40.66292897230992" lon="15.695583699607491"><ele>1281.6</ele><time>2026-04-08T08:44:37.999Z</time></trkpt><trkpt lat="40.662843486644924" lon="15.695646800337654"><ele>1281.0</ele><time>2026-04-08T08:44:39.999Z</time></trkpt><trkpt lat="40.66287016508006" lon="15.695841439863834"><ele>1281.0</ele><time>2026-04-08T08:44:40.999Z</time></trkpt><trkpt lat="40.662862156758166" lon="15.696010834286632"><ele>1281.0</ele><time>2026-04-08T08:44:41.999Z</time></trkpt><trkpt lat="40.66281886817624" lon="15.696082501354299"><ele>1281.0</ele><time>2026-04-08T08:44:42.999Z</time></trkpt><trkpt lat="40.66273714487951" lon="15.696211455376593"><ele>1281.0</ele><time>2026-04-08T08:44:44.999Z</time></trkpt><trkpt lat="40.662641113906616" lon="15.69620593032091"><ele>1281.0</ele><time>2026-04-08T08:44:47Z</time></trkpt><trkpt lat="40.662587829620875" lon="15.696158651735407"><ele>1282.5</ele><time>2026-04-08T08:44:48Z</time></trkpt><trkpt lat="40.66250244266426" lon="15.696109124128238"><ele>1284.0</ele><time>2026-04-08T08:44:49Z</time></trkpt><trkpt lat="40.66243887745953" lon="15.695953142080052"><ele>1285.5</ele><time>2026-04-08T08:44:50Z</time></trkpt><trkpt lat="40.662373024210005" lon="15.695902734886491"><ele>1287.0</ele><time>2026-04-08T08:44:51Z</time></trkpt><trkpt lat="40.66033149335544" lon="15.696786213533912"><ele>1285.75</ele><time>2026-04-08T08:44:52Z</time></trkpt><trkpt lat="40.66018677919083" lon="15.696765216360646"><ele>1284.5</ele><time>2026-04-08T08:44:53Z</time></trkpt><trkpt lat="40.66006398387482" lon="15.696739093284943"><ele>1283.25</ele><time>2026-04-08T08:44:54Z</time></trkpt><trkpt lat="40.659945617700586" lon="15.69668852273777"><ele>1282.0</ele><time>2026-04-08T08:44:55Z</time></trkpt><trkpt lat="40.659885960868515" lon="15.6966104793874"><ele>1282.0</ele><time>2026-04-08T08:44:56Z</time></trkpt><trkpt lat="40.65976706028046" lon="15.696518634076806"><ele>1282.0</ele><time>2026-04-08T08:44:57Z</time></trkpt><trkpt lat="40.6596423175414" lon="15.69641993438429"><ele>1282.0</ele><time>2026-04-08T08:44:58Z</time></trkpt><trkpt lat="40.65951308003867" lon="15.696357629563504"><ele>1282.0</ele><time>2026-04-08T08:44:59Z</time></trkpt><trkpt lat="40.659396172637784" lon="15.696286389506726"><ele>1280.6</ele><time>2026-04-08T08:45:00Z</time></trkpt><trkpt lat="40.65930050789417" lon="15.696284567327472"><ele>1279.1999999999998</ele><time>2026-04-08T08:45:01Z</time></trkpt><trkpt lat="40.659209827321014" lon="15.696249801315993"><ele>1277.8</ele><time>2026-04-08T08:45:02Z</time></trkpt><trkpt lat="40.65914277480908" lon="15.696251694751998"><ele>1276.4</ele><time>2026-04-08T08:45:03Z</time></trkpt><trkpt lat="40.65906867362687" lon="15.69630140090043"><ele>1275.0</ele><time>2026-04-08T08:45:04Z</time></trkpt><trkpt lat="40.658968436350406" lon="15.696414601532448"><ele>1275.0</ele><time>2026-04-08T08:45:05Z</time></trkpt><trkpt lat="40.65884432049286" lon="15.696523923939871"><ele>1275.0</ele><time>2026-04-08T08:45:06Z</time></trkpt><trkpt lat="40.65870934705927" lon="15.696592545949365"><ele>1275.0</ele><time>2026-04-08T08:45:07Z</time></trkpt><trkpt lat="40.65859173686999" lon="15.696684615360983"><ele>1275.0</ele><time>2026-04-08T08:45:08Z</time></trkpt><trkpt lat="40.658474632989446" lon="15.696779540614676"><ele>1275.0</ele><time>2026-04-08T08:45:09Z</time></trkpt><trkpt lat="40.65834617933299" lon="15.696879157052567"><ele>1275.0</ele><time>2026-04-08T08:45:10Z</time></trkpt><trkpt lat="40.65823176422235" lon="15.696968055231482"><ele>1275.0</ele><time>2026-04-08T08:45:11Z</time></trkpt><trkpt lat="40.65811604054561" lon="15.69707315824271"><ele>1275.0</ele><time>2026-04-08T08:45:12Z</time></trkpt><trkpt lat="40.65798600678527" lon="15.69719075995643"><ele>1275.0</ele><time>2026-04-08T08:45:13Z</time></trkpt><trkpt lat="40.657845715944426" lon="15.697307400174683"><ele>1275.0</ele><time>2026-04-08T08:45:14Z</time></trkpt><trkpt lat="40.657718304175255" lon="15.697408468531972"><ele>1275.0</ele><time>2026-04-08T08:45:15Z</time></trkpt><trkpt lat="40.65758792029216" lon="15.697504119300284"><ele>1273.5</ele><time>2026-04-08T08:45:16Z</time></trkpt><trkpt lat="40.65746529824356" lon="15.697600540330747"><ele>1272.0</ele><time>2026-04-08T08:45:17Z</time></trkpt><trkpt lat="40.657343854495025" lon="15.697704221858983"><ele>1270.5</ele><time>2026-04-08T08:45:18Z</time></trkpt><trkpt lat="40.657224483178815" lon="15.697819963566758"><ele>1269.0</ele><time>2026-04-08T08:45:19Z</time></trkpt><trkpt lat="40.65710157432208" lon="15.697959404520853"><ele>1269.0</ele><time>2026-04-08T08:45:20Z</time></trkpt><trkpt lat="40.65697916124753" lon="15.698080222948255"><ele>1269.0</ele><time>2026-04-08T08:45:21Z</time></trkpt><trkpt lat="40.656861783051006" lon="15.698165889770655"><ele>1269.0</ele><time>2026-04-08T08:45:22Z</time></trkpt><trkpt lat="40.65673895625951" lon="15.698236546217885"><ele>1269.0</ele><time>2026-04-08T08:45:23Z</time></trkpt><trkpt lat="40.65661350030148" lon="15.69831229997982"><ele>1268.5</ele><time>2026-04-08T08:45:24Z</time></trkpt><trkpt lat="40.65647382951627" lon="15.698383524302127"><ele>1268.0</ele><time>2026-04-08T08:45:25Z</time></trkpt><trkpt lat="40.65632953697259" lon="15.698462647290402"><ele>1267.5</ele><time>2026-04-08T08:45:26Z</time></trkpt><trkpt lat="40.656201370042" lon="15.698530311580384"><ele>1267.0</ele><time>2026-04-08T08:45:27Z</time></trkpt><trkpt lat="40.65607727940507" lon="15.69856385082646"><ele>1266.4</ele><time>2026-04-08T08:45:28Z</time></trkpt><trkpt lat="40.6559538050086" lon="15.698578626278831"><ele>1265.8000000000002</ele><time>2026-04-08T08:45:29Z</time></trkpt><trkpt lat="40.65583954965371" lon="15.698579934528157"><ele>1265.2</ele><time>2026-04-08T08:45:30Z</time></trkpt><trkpt lat="40.65572773453719" lon="15.698579948326188"><ele>1264.6000000000001</ele><time>2026-04-08T08:45:31Z</time></trkpt><trkpt lat="40.655637301174266" lon="15.698580115562686"><ele>1264.0</ele><time>2026-04-08T08:45:32Z</time></trkpt><trkpt lat="40.655536524532636" lon="15.698598657780462"><ele>1264.0</ele><time>2026-04-08T08:45:33Z</time></trkpt><trkpt lat="40.65543726258626" lon="15.698633241159005"><ele>1264.0</ele><time>2026-04-08T08:45:34Z</time></trkpt><trkpt lat="40.65535697784497" lon="15.698678451266225"><ele>1264.0</ele><time>2026-04-08T08:45:35Z</time></trkpt><trkpt lat="40.65523629934496" lon="15.69880931175098"><ele>1264.0</ele><time>2026-04-08T08:45:37Z</time></trkpt><trkpt lat="40.655153669624326" lon="15.69885988597543"><ele>1264.0</ele><time>2026-04-08T08:45:38Z</time></trkpt><trkpt lat="40.65505885561895" lon="15.698924889802026"><ele>1265.2</ele><time>2026-04-08T08:45:39Z</time></trkpt><trkpt lat="40.65495265649112" lon="15.69900160673103"><ele>1266.4</ele><time>2026-04-08T08:45:40Z</time></trkpt><trkpt lat="40.65484019402853" lon="15.69905030195406"><ele>1267.6</ele><time>2026-04-08T08:45:41Z</time></trkpt><trkpt lat="40.6547500492347" lon="15.699097364728102"><ele>1268.8</ele><time>2026-04-08T08:45:42Z</time></trkpt><trkpt lat="40.65468859427725" lon="15.699160441518446"><ele>1270.0</ele><time>2026-04-08T08:45:43Z</time></trkpt><trkpt lat="40.65463463771132" lon="15.699244467072035"><ele>1270.0</ele><time>2026-04-08T08:45:43.999Z</time></trkpt><trkpt lat="40.654567548634574" lon="15.699363378521321"><ele>1270.0</ele><time>2026-04-08T08:45:45.999Z</time></trkpt><trkpt lat="40.654483322784785" lon="15.699423886034893"><ele>1270.0</ele><time>2026-04-08T08:45:46.999Z</time></trkpt><trkpt lat="40.65437801968021" lon="15.69942120629983"><ele>1270.0</ele><time>2026-04-08T08:45:47.999Z</time></trkpt><trkpt lat="40.65428229370788" lon="15.699420772595026"><ele>1270.0</ele><time>2026-04-08T08:45:48.999Z</time></trkpt><trkpt lat="40.654131152609" lon="15.699406803025125"><ele>1270.6</ele><time>2026-04-08T08:45:49.999Z</time></trkpt><trkpt lat="40.654012203913574" lon="15.699404771426655"><ele>1271.2</ele><time>2026-04-08T08:45:50.999Z</time></trkpt><trkpt lat="40.65388931452688" lon="15.699414926825085"><ele>1271.8</ele><time>2026-04-08T08:45:51.999Z</time></trkpt><trkpt lat="40.653786288143856" lon="15.6994332738202"><ele>1272.4</ele><time>2026-04-08T08:45:52.999Z</time></trkpt><trkpt lat="40.65370484798204" lon="15.699464218097312"><ele>1273.0</ele><time>2026-04-08T08:45:53.999Z</time></trkpt><trkpt lat="40.653653644414" lon="15.699525192482945"><ele>1274.5</ele><time>2026-04-08T08:45:54.999Z</time></trkpt><trkpt lat="40.65360105363768" lon="15.699623588976806"><ele>1276.0</ele><time>2026-04-08T08:45:55.999Z</time></trkpt><trkpt lat="40.65354986335907" lon="15.699774408343334"><ele>1277.5</ele><time>2026-04-08T08:45:56.999Z</time></trkpt><trkpt lat="40.65349276548772" lon="15.699935630117585"><ele>1279.0</ele><time>2026-04-08T08:45:57.999Z</time></trkpt><trkpt lat="40.65344196795183" lon="15.700093523259705"><ele>1279.0</ele><time>2026-04-08T08:45:58.999Z</time></trkpt><trkpt lat="40.653396847914365" lon="15.700212739526528"><ele>1279.0</ele><time>2026-04-08T08:45:59.999Z</time></trkpt><trkpt lat="40.65335398786787" lon="15.70030964670294"><ele>1279.0</ele><time>2026-04-08T08:46:00.999Z</time></trkpt><trkpt lat="40.65332960948338" lon="15.70043870736429"><ele>1279.0</ele><time>2026-04-08T08:46:02.999Z</time></trkpt><trkpt lat="40.65331859254008" lon="15.700527897186495"><ele>1279.0</ele><time>2026-04-08T08:46:03.999Z</time></trkpt><trkpt lat="40.65331100653759" lon="15.70061902300026"><ele>1279.0</ele><time>2026-04-08T08:46:04.999Z</time></trkpt><trkpt lat="40.65335440449284" lon="15.70073309110878"><ele>1279.4</ele><time>2026-04-08T08:46:05.999Z</time></trkpt><trkpt lat="40.653397131666075" lon="15.700855346453682"><ele>1279.8000000000002</ele><time>2026-04-08T08:46:06.999Z</time></trkpt><trkpt lat="40.653423960987304" lon="15.70097832785908"><ele>1280.1999999999998</ele><time>2026-04-08T08:46:07.999Z</time></trkpt><trkpt lat="40.653437714509586" lon="15.701102630791624"><ele>1280.6</ele><time>2026-04-08T08:46:08.999Z</time></trkpt><trkpt lat="40.65344664074472" lon="15.701219953425282"><ele>1281.0</ele><time>2026-04-08T08:46:09.999Z</time></trkpt><trkpt lat="40.65347328735902" lon="15.701373014890084"><ele>1282.4</ele><time>2026-04-08T08:46:10.999Z</time></trkpt><trkpt lat="40.653507035334535" lon="15.701523433869852"><ele>1283.8</ele><time>2026-04-08T08:46:11.999Z</time></trkpt><trkpt lat="40.65352990141477" lon="15.701665288270839"><ele>1285.2</ele><time>2026-04-08T08:46:12.999Z</time></trkpt><trkpt lat="40.65354116624906" lon="15.701785227075746"><ele>1286.6000000000001</ele><time>2026-04-08T08:46:13.999Z</time></trkpt><trkpt lat="40.653513215064436" lon="15.701897858425431"><ele>1288.0</ele><time>2026-04-08T08:46:16.999Z</time></trkpt><trkpt lat="40.65348812693748" lon="15.701978301655549"><ele>1287.6000000000001</ele><time>2026-04-08T08:46:24.999Z</time></trkpt><trkpt lat="40.65351357290985" lon="15.702058868931948"><ele>1287.2</ele><time>2026-04-08T08:46:31.999Z</time></trkpt><trkpt lat="40.65356775857133" lon="15.702132503955227"><ele>1286.8</ele><time>2026-04-08T08:46:36.999Z</time></trkpt><trkpt lat="40.65358448185418" lon="15.702264731611901"><ele>1286.4</ele><time>2026-04-08T08:46:38.999Z</time></trkpt><trkpt lat="40.653661858186254" lon="15.702358368396958"><ele>1286.0</ele><time>2026-04-08T08:46:40.999Z</time></trkpt><trkpt lat="40.653697243223526" lon="15.702485886044572"><ele>1286.0</ele><time>2026-04-08T08:46:41.999Z</time></trkpt><trkpt lat="40.653732363085716" lon="15.702638995246005"><ele>1286.0</ele><time>2026-04-08T08:46:42.999Z</time></trkpt><trkpt lat="40.65375104329454" lon="15.702798009909243"><ele>1286.0</ele><time>2026-04-08T08:46:43.999Z</time></trkpt><trkpt lat="40.653761308987185" lon="15.702921526045902"><ele>1286.0</ele><time>2026-04-08T08:46:44.999Z</time></trkpt><trkpt lat="40.65377131232559" lon="15.703041408566257"><ele>1286.0</ele><time>2026-04-08T08:46:45.999Z</time></trkpt><trkpt lat="40.6537874540425" lon="15.703159039765483"><ele>1287.1999999999998</ele><time>2026-04-08T08:46:46.999Z</time></trkpt><trkpt lat="40.65379990469502" lon="15.703289135541818"><ele>1288.3999999999999</ele><time>2026-04-08T08:46:47.999Z</time></trkpt><trkpt lat="40.653794650112204" lon="15.703409167217671"><ele>1289.6</ele><time>2026-04-08T08:46:48.999Z</time></trkpt><trkpt lat="40.653790183774035" lon="15.703522377091586"><ele>1290.8</ele><time>2026-04-08T08:46:49.999Z</time></trkpt><trkpt lat="40.65380391894835" lon="15.703643925330875"><ele>1292.0</ele><time>2026-04-08T08:46:53Z</time></trkpt><trkpt lat="40.65384650197409" lon="15.703783015688149"><ele>1293.0</ele><time>2026-04-08T08:46:55Z</time></trkpt><trkpt lat="40.65388404883342" lon="15.703877852957245"><ele>1294.0</ele><time>2026-04-08T08:46:56Z</time></trkpt><trkpt lat="40.653938437720136" lon="15.703980240888246"><ele>1295.0</ele><time>2026-04-08T08:46:57Z</time></trkpt><trkpt lat="40.653989668338276" lon="15.704081896864412"><ele>1296.0</ele><time>2026-04-08T08:46:58Z</time></trkpt><trkpt lat="40.65403148907117" lon="15.704188731903761"><ele>1297.0</ele><time>2026-04-08T08:46:59Z</time></trkpt><trkpt lat="40.65406851170897" lon="15.704326443288082"><ele>1298.25</ele><time>2026-04-08T08:47:00Z</time></trkpt><trkpt lat="40.65410731567379" lon="15.704473870070064"><ele>1299.5</ele><time>2026-04-08T08:47:01Z</time></trkpt><trkpt lat="40.654137089090675" lon="15.704616187691705"><ele>1300.75</ele><time>2026-04-08T08:47:02Z</time></trkpt><trkpt lat="40.65415116165097" lon="15.704758118645026"><ele>1302.0</ele><time>2026-04-08T08:47:03Z</time></trkpt><trkpt lat="40.65416419534551" lon="15.704907587143293"><ele>1302.0</ele><time>2026-04-08T08:47:04Z</time></trkpt><trkpt lat="40.65415103138037" lon="15.705053190152581"><ele>1302.0</ele><time>2026-04-08T08:47:05Z</time></trkpt><trkpt lat="40.65414926479894" lon="15.705208117115792"><ele>1302.0</ele><time>2026-04-08T08:47:06Z</time></trkpt><trkpt lat="40.65412954359804" lon="15.705325410450763"><ele>1302.0</ele><time>2026-04-08T08:47:07Z</time></trkpt><trkpt lat="40.65409650178833" lon="15.705427259139746"><ele>1302.0</ele><time>2026-04-08T08:47:08Z</time></trkpt><trkpt lat="40.654059625044354" lon="15.705527507973287"><ele>1301.8</ele><time>2026-04-08T08:47:09Z</time></trkpt><trkpt lat="40.6540250096371" lon="15.705597998054023"><ele>1301.6</ele><time>2026-04-08T08:47:10Z</time></trkpt><trkpt lat="40.653974178136004" lon="15.70572253833598"><ele>1301.3999999999999</ele><time>2026-04-08T08:47:13Z</time></trkpt><trkpt lat="40.65395582761608" lon="15.705804966671984"><ele>1301.1999999999998</ele><time>2026-04-08T08:47:14Z</time></trkpt><trkpt lat="40.65390807049584" lon="15.705999764611827"><ele>1301.0</ele><time>2026-04-08T08:47:16Z</time></trkpt><trkpt lat="40.6538738291208" lon="15.706085421493253"><ele>1300.8333333333335</ele><time>2026-04-08T08:47:17Z</time></trkpt><trkpt lat="40.65383474446008" lon="15.706219446817933"><ele>1300.6666666666667</ele><time>2026-04-08T08:47:18Z</time></trkpt><trkpt lat="40.65382645571306" lon="15.70634428073111"><ele>1300.5</ele><time>2026-04-08T08:47:19Z</time></trkpt><trkpt lat="40.653835945424845" lon="15.706462207584863"><ele>1300.3333333333333</ele><time>2026-04-08T08:47:20Z</time></trkpt><trkpt lat="40.65384568636409" lon="15.706573132496967"><ele>1300.1666666666665</ele><time>2026-04-08T08:47:21Z</time></trkpt><trkpt lat="40.65386333326172" lon="15.706658872392358"><ele>1300.0</ele><time>2026-04-08T08:47:22Z</time></trkpt><trkpt lat="40.65392476243316" lon="15.706772160721515"><ele>1300.0</ele><time>2026-04-08T08:47:24Z</time></trkpt><trkpt lat="40.65395686892956" lon="15.706901041009678"><ele>1300.0</ele><time>2026-04-08T08:47:25Z</time></trkpt><trkpt lat="40.65399030566535" lon="15.707039177517112"><ele>1300.0</ele><time>2026-04-08T08:47:26Z</time></trkpt><trkpt lat="40.65402847627349" lon="15.707173973252074"><ele>1300.0</ele><time>2026-04-08T08:47:27Z</time></trkpt><trkpt lat="40.65406273910963" lon="15.70727640587684"><ele>1300.0</ele><time>2026-04-08T08:47:28Z</time></trkpt><trkpt lat="40.65411487990671" lon="15.707367904684192"><ele>1301.3333333333333</ele><time>2026-04-08T08:47:29Z</time></trkpt><trkpt lat="40.65415649798646" lon="15.707436500936915"><ele>1302.6666666666665</ele><time>2026-04-08T08:47:30Z</time></trkpt><trkpt lat="40.65416838039775" lon="15.707532196775803"><ele>1304.0</ele><time>2026-04-08T08:47:31Z</time></trkpt><trkpt lat="40.654183838771715" lon="15.707649682694743"><ele>1305.3333333333333</ele><time>2026-04-08T08:47:32Z</time></trkpt><trkpt lat="40.65419274700346" lon="15.707770572797198"><ele>1306.6666666666667</ele><time>2026-04-08T08:47:33Z</time></trkpt><trkpt lat="40.654171521073096" lon="15.707853764408716"><ele>1308.0</ele><time>2026-04-08T08:47:34Z</time></trkpt><trkpt lat="40.65408879593616" lon="15.707992191174139"><ele>1309.8333333333333</ele><time>2026-04-08T08:47:36Z</time></trkpt><trkpt lat="40.65404292594249" lon="15.708075500352388"><ele>1311.6666666666667</ele><time>2026-04-08T08:47:37Z</time></trkpt><trkpt lat="40.6539981211701" lon="15.708153484408651"><ele>1313.5</ele><time>2026-04-08T08:47:38Z</time></trkpt><trkpt lat="40.65394578762012" lon="15.70823078087847"><ele>1315.3333333333335</ele><time>2026-04-08T08:47:39Z</time></trkpt><trkpt lat="40.65388734484119" lon="15.70831915696623"><ele>1317.1666666666667</ele><time>2026-04-08T08:47:40Z</time></trkpt><trkpt lat="40.653825064385074" lon="15.708407444958905"><ele>1319.0</ele><time>2026-04-08T08:47:41Z</time></trkpt><trkpt lat="40.65375993716204" lon="15.70849039009869"><ele>1320.0</ele><time>2026-04-08T08:47:42Z</time></trkpt><trkpt lat="40.653690921986865" lon="15.708577308848707"><ele>1321.0</ele><time>2026-04-08T08:47:43Z</time></trkpt><trkpt lat="40.653613295230095" lon="15.708653015387918"><ele>1322.0</ele><time>2026-04-08T08:47:44Z</time></trkpt><trkpt lat="40.653544102928294" lon="15.708708313519082"><ele>1323.0</ele><time>2026-04-08T08:47:45Z</time></trkpt><trkpt lat="40.65349346117316" lon="15.70876238807848"><ele>1324.0</ele><time>2026-04-08T08:47:46Z</time></trkpt><trkpt lat="40.65343675123971" lon="15.708818337406699"><ele>1325.0</ele><time>2026-04-08T08:47:46.999Z</time></trkpt><trkpt lat="40.6533805386055" lon="15.708878841133995"><ele>1325.8</ele><time>2026-04-08T08:47:47.999Z</time></trkpt><trkpt lat="40.65332087542765" lon="15.708930941606072"><ele>1326.6</ele><time>2026-04-08T08:47:48.999Z</time></trkpt><trkpt lat="40.6531970947333" lon="15.708969977988234"><ele>1327.4</ele><time>2026-04-08T08:47:50.999Z</time></trkpt><trkpt lat="40.65310806532677" lon="15.70899067345348"><ele>1328.2</ele><time>2026-04-08T08:47:51.999Z</time></trkpt><trkpt lat="40.65301484670806" lon="15.70900576098164"><ele>1329.0</ele><time>2026-04-08T08:47:52.999Z</time></trkpt><trkpt lat="40.65293988683293" lon="15.708999894336458"><ele>1329.0</ele><time>2026-04-08T08:47:53.999Z</time></trkpt><trkpt lat="40.65286322192539" lon="15.708987437488231"><ele>1329.0</ele><time>2026-04-08T08:47:54.999Z</time></trkpt><trkpt lat="40.65278554488856" lon="15.708981404687744"><ele>1329.0</ele><time>2026-04-08T08:47:55.999Z</time></trkpt><trkpt lat="40.65272200894087" lon="15.708990265802381"><ele>1329.0</ele><time>2026-04-08T08:47:56.999Z</time></trkpt><trkpt lat="40.65262901144041" lon="15.709000708105894"><ele>1329.0</ele><time>2026-04-08T08:47:58.999Z</time></trkpt><trkpt lat="40.65250159455846" lon="15.708963410376674"><ele>1329.0</ele><time>2026-04-08T08:48:00.999Z</time></trkpt><trkpt lat="40.652426420310796" lon="15.708969804302892"><ele>1329.5</ele><time>2026-04-08T08:48:01.999Z</time></trkpt><trkpt lat="40.65232953807643" lon="15.708975886468743"><ele>1330.0</ele><time>2026-04-08T08:48:02.999Z</time></trkpt><trkpt lat="40.652235586662215" lon="15.70897986005086"><ele>1330.5</ele><time>2026-04-08T08:48:03.999Z</time></trkpt><trkpt lat="40.65215554761526" lon="15.708974769490515"><ele>1331.0</ele><time>2026-04-08T08:48:04.999Z</time></trkpt><trkpt lat="40.65207895027888" lon="15.70897636092457"><ele>1331.5</ele><time>2026-04-08T08:48:05.999Z</time></trkpt><trkpt lat="40.652003033041964" lon="15.708982771447426"><ele>1332.0</ele><time>2026-04-08T08:48:06.999Z</time></trkpt><trkpt lat="40.651938545993495" lon="15.708989108080432"><ele>1333.1666666666667</ele><time>2026-04-08T08:48:07.999Z</time></trkpt><trkpt lat="40.65182686258515" lon="15.708982466727123"><ele>1334.3333333333333</ele><time>2026-04-08T08:48:09.999Z</time></trkpt><trkpt lat="40.65176087284185" lon="15.708976149539264"><ele>1335.5</ele><time>2026-04-08T08:48:10.999Z</time></trkpt><trkpt lat="40.65168520132554" lon="15.708972323462723"><ele>1336.6666666666665</ele><time>2026-04-08T08:48:11.999Z</time></trkpt><trkpt lat="40.651614162523536" lon="15.70898040790824"><ele>1337.8333333333333</ele><time>2026-04-08T08:48:12.999Z</time></trkpt><trkpt lat="40.651499333668795" lon="15.708971590300731"><ele>1339.0</ele><time>2026-04-08T08:48:14.999Z</time></trkpt><trkpt lat="40.65143320655758" lon="15.708965356690372"><ele>1339.0</ele><time>2026-04-08T08:48:15.999Z</time></trkpt><trkpt lat="40.65133570942465" lon="15.708904141386975"><ele>1339.0</ele><time>2026-04-08T08:48:17.999Z</time></trkpt><trkpt lat="40.65132640080704" lon="15.708758545315375"><ele>1339.0</ele><time>2026-04-08T08:48:19.999Z</time></trkpt><trkpt lat="40.65134179799028" lon="15.708673313615575"><ele>1339.0</ele><time>2026-04-08T08:48:20.999Z</time></trkpt><trkpt lat="40.65135005776233" lon="15.708586368059485"><ele>1339.0</ele><time>2026-04-08T08:48:21.999Z</time></trkpt><trkpt lat="40.65136605116573" lon="15.708499521893202"><ele>1339.0</ele><time>2026-04-08T08:48:22.999Z</time></trkpt><trkpt lat="40.65138195088116" lon="15.708342370777178"><ele>1339.3333333333333</ele><time>2026-04-08T08:48:24.999Z</time></trkpt><trkpt lat="40.65137181190407" lon="15.708235131457167"><ele>1339.6666666666665</ele><time>2026-04-08T08:48:25.999Z</time></trkpt><trkpt lat="40.651370537487445" lon="15.708128028791645"><ele>1340.0</ele><time>2026-04-08T08:48:26.999Z</time></trkpt><trkpt lat="40.6513605314731" lon="15.707999714682975"><ele>1340.3333333333333</ele><time>2026-04-08T08:48:27.999Z</time></trkpt><trkpt lat="40.65135646847628" lon="15.707891881870815"><ele>1340.6666666666667</ele><time>2026-04-08T08:48:28.999Z</time></trkpt><trkpt lat="40.65133398974658" lon="15.707776120951488"><ele>1341.0</ele><time>2026-04-08T08:48:29.999Z</time></trkpt><trkpt lat="40.651296120731544" lon="15.70766598910521"><ele>1341.0</ele><time>2026-04-08T08:48:30.999Z</time></trkpt><trkpt lat="40.651254989771914" lon="15.707533751963927"><ele>1341.0</ele><time>2026-04-08T08:48:31.999Z</time></trkpt><trkpt lat="40.65121337757764" lon="15.707383215039858"><ele>1341.0</ele><time>2026-04-08T08:48:32.999Z</time></trkpt><trkpt lat="40.65116039847481" lon="15.707231517166926"><ele>1341.0</ele><time>2026-04-08T08:48:33.999Z</time></trkpt><trkpt lat="40.65110192701773" lon="15.707089741029414"><ele>1340.5</ele><time>2026-04-08T08:48:34.999Z</time></trkpt><trkpt lat="40.65103875822647" lon="15.706954950671939"><ele>1340.0</ele><time>2026-04-08T08:48:35.999Z</time></trkpt><trkpt lat="40.650967404784865" lon="15.706837943703116"><ele>1339.5</ele><time>2026-04-08T08:48:36.999Z</time></trkpt><trkpt lat="40.650895831579774" lon="15.706724626391935"><ele>1339.0</ele><time>2026-04-08T08:48:37.999Z</time></trkpt><trkpt lat="40.65081887555502" lon="15.706621920722188"><ele>1339.0</ele><time>2026-04-08T08:48:38.999Z</time></trkpt><trkpt lat="40.650736882966996" lon="15.706541076045122"><ele>1339.0</ele><time>2026-04-08T08:48:39.999Z</time></trkpt><trkpt lat="40.65065105021778" lon="15.706483783853189"><ele>1339.0</ele><time>2026-04-08T08:48:40.999Z</time></trkpt><trkpt lat="40.65055686188715" lon="15.706437673668978"><ele>1339.0</ele><time>2026-04-08T08:48:41.999Z</time></trkpt><trkpt lat="40.650460861836486" lon="15.70638342819198"><ele>1339.0</ele><time>2026-04-08T08:48:42.999Z</time></trkpt><trkpt lat="40.65036594923492" lon="15.70631647230224"><ele>1338.8000000000002</ele><time>2026-04-08T08:48:43.999Z</time></trkpt><trkpt lat="40.65026619505014" lon="15.706255381858448"><ele>1338.6000000000001</ele><time>2026-04-08T08:48:44.999Z</time></trkpt><trkpt lat="40.650170263537134" lon="15.706207296520443"><ele>1338.4</ele><time>2026-04-08T08:48:45.999Z</time></trkpt><trkpt lat="40.650080523377405" lon="15.706151731544004"><ele>1338.2</ele><time>2026-04-08T08:48:46.999Z</time></trkpt><trkpt lat="40.64999295522864" lon="15.706097040494294"><ele>1338.0</ele><time>2026-04-08T08:48:47.999Z</time></trkpt><trkpt lat="40.64990016804675" lon="15.706045404020989"><ele>1336.5</ele><time>2026-04-08T08:48:48.999Z</time></trkpt><trkpt lat="40.649777149084215" lon="15.705995659916503"><ele>1335.0</ele><time>2026-04-08T08:48:49.999Z</time></trkpt><trkpt lat="40.64965429472958" lon="15.70594935114044"><ele>1333.5</ele><time>2026-04-08T08:48:50.999Z</time></trkpt><trkpt lat="40.64953544322109" lon="15.70590063797782"><ele>1332.0</ele><time>2026-04-08T08:48:51.999Z</time></trkpt><trkpt lat="40.64942414798993" lon="15.70585547287547"><ele>1331.1999999999998</ele><time>2026-04-08T08:48:52.999Z</time></trkpt><trkpt lat="40.649317135838764" lon="15.705815979742228"><ele>1330.4</ele><time>2026-04-08T08:48:53.999Z</time></trkpt><trkpt lat="40.64921967163784" lon="15.70577360820326"><ele>1329.6</ele><time>2026-04-08T08:48:54.999Z</time></trkpt><trkpt lat="40.649123773374974" lon="15.705737678204612"><ele>1328.8000000000002</ele><time>2026-04-08T08:48:55.999Z</time></trkpt><trkpt lat="40.64903557577284" lon="15.70570302705903"><ele>1328.0</ele><time>2026-04-08T08:48:56.999Z</time></trkpt><trkpt lat="40.64895463557412" lon="15.705669958823412"><ele>1328.0</ele><time>2026-04-08T08:48:58Z</time></trkpt><trkpt lat="40.648853916860496" lon="15.705631010283122"><ele>1328.0</ele><time>2026-04-08T08:48:59Z</time></trkpt><trkpt lat="40.64874080695394" lon="15.70558588566275"><ele>1328.0</ele><time>2026-04-08T08:49:00Z</time></trkpt><trkpt lat="40.64861267955346" lon="15.705533707506413"><ele>1328.0</ele><time>2026-04-08T08:49:01Z</time></trkpt><trkpt lat="40.648485821392015" lon="15.705482135367241"><ele>1325.25</ele><time>2026-04-08T08:49:02Z</time></trkpt><trkpt lat="40.64836430197733" lon="15.705422018392355"><ele>1322.5</ele><time>2026-04-08T08:49:03Z</time></trkpt><trkpt lat="40.648252613814265" lon="15.705378576272034"><ele>1319.75</ele><time>2026-04-08T08:49:04Z</time></trkpt><trkpt lat="40.648150955081185" lon="15.705346962443324"><ele>1317.0</ele><time>2026-04-08T08:49:05Z</time></trkpt><trkpt lat="40.64804539563282" lon="15.705316576779085"><ele>1317.0</ele><time>2026-04-08T08:49:06Z</time></trkpt><trkpt lat="40.64793101858069" lon="15.705273517991838"><ele>1317.0</ele><time>2026-04-08T08:49:07Z</time></trkpt><trkpt lat="40.6478049517245" lon="15.705222506333797"><ele>1317.0</ele><time>2026-04-08T08:49:08Z</time></trkpt><trkpt lat="40.647677130125714" lon="15.705176378886378"><ele>1317.0</ele><time>2026-04-08T08:49:09Z</time></trkpt><trkpt lat="40.64755901340883" lon="15.705139527947841"><ele>1317.0</ele><time>2026-04-08T08:49:10Z</time></trkpt><trkpt lat="40.647450044332686" lon="15.705101562115651"><ele>1317.0</ele><time>2026-04-08T08:49:11Z</time></trkpt><trkpt lat="40.647347744415676" lon="15.705053883227675"><ele>1317.0</ele><time>2026-04-08T08:49:12Z</time></trkpt><trkpt lat="40.64724913298379" lon="15.704998176188544"><ele>1317.0</ele><time>2026-04-08T08:49:13Z</time></trkpt><trkpt lat="40.647140233546" lon="15.704953876136074"><ele>1317.0</ele><time>2026-04-08T08:49:14Z</time></trkpt><trkpt lat="40.64702210925161" lon="15.704915571666792"><ele>1316.5</ele><time>2026-04-08T08:49:15Z</time></trkpt><trkpt lat="40.64691219341063" lon="15.704822830894773"><ele>1316.0</ele><time>2026-04-08T08:49:16Z</time></trkpt><trkpt lat="40.64678836421849" lon="15.704771304690832"><ele>1315.5</ele><time>2026-04-08T08:49:17Z</time></trkpt><trkpt lat="40.6466616970678" lon="15.704719834023264"><ele>1315.0</ele><time>2026-04-08T08:49:18Z</time></trkpt><trkpt lat="40.64654660998155" lon="15.7046730688703"><ele>1315.0</ele><time>2026-04-08T08:49:19Z</time></trkpt><trkpt lat="40.64643293721046" lon="15.704626878358548"><ele>1315.0</ele><time>2026-04-08T08:49:20Z</time></trkpt><trkpt lat="40.64633002005171" lon="15.704585018060513"><ele>1315.0</ele><time>2026-04-08T08:49:21Z</time></trkpt><trkpt lat="40.64621668346513" lon="15.70454161041215"><ele>1315.0</ele><time>2026-04-08T08:49:22Z</time></trkpt><trkpt lat="40.64609178122658" lon="15.704493773054987"><ele>1315.0</ele><time>2026-04-08T08:49:23Z</time></trkpt><trkpt lat="40.645970354118724" lon="15.704447266730089"><ele>1315.0</ele><time>2026-04-08T08:49:24Z</time></trkpt><trkpt lat="40.64585341305896" lon="15.704401422947965"><ele>1315.0</ele><time>2026-04-08T08:49:25Z</time></trkpt><trkpt lat="40.64573401996104" lon="15.704344841425113"><ele>1315.0</ele><time>2026-04-08T08:49:26Z</time></trkpt><trkpt lat="40.645601275124946" lon="15.704292330924558"><ele>1314.25</ele><time>2026-04-08T08:49:27Z</time></trkpt><trkpt lat="40.64547479263037" lon="15.704245466428594"><ele>1313.5</ele><time>2026-04-08T08:49:28Z</time></trkpt><trkpt lat="40.64535413961226" lon="15.704207400810551"><ele>1312.75</ele><time>2026-04-08T08:49:29Z</time></trkpt><trkpt lat="40.64525193079512" lon="15.70416388920856"><ele>1312.0</ele><time>2026-04-08T08:49:30Z</time></trkpt><trkpt lat="40.64514825638155" lon="15.704117943616673"><ele>1311.25</ele><time>2026-04-08T08:49:31Z</time></trkpt><trkpt lat="40.64503265322026" lon="15.7040755687674"><ele>1310.5</ele><time>2026-04-08T08:49:32Z</time></trkpt><trkpt lat="40.644915448608984" lon="15.704024045742674"><ele>1309.75</ele><time>2026-04-08T08:49:33Z</time></trkpt><trkpt lat="40.644801123959816" lon="15.703962142064878"><ele>1309.0</ele><time>2026-04-08T08:49:34Z</time></trkpt><trkpt lat="40.644683738683085" lon="15.703902878354162"><ele>1309.0</ele><time>2026-04-08T08:49:35Z</time></trkpt><trkpt lat="40.6445707772259" lon="15.703855166387203"><ele>1309.0</ele><time>2026-04-08T08:49:36Z</time></trkpt><trkpt lat="40.6444756648052" lon="15.703814993470143"><ele>1309.0</ele><time>2026-04-08T08:49:37Z</time></trkpt><trkpt lat="40.644400510228614" lon="15.703780095436654"><ele>1309.0</ele><time>2026-04-08T08:49:38Z</time></trkpt><trkpt lat="40.6443026290537" lon="15.703734214791872"><ele>1309.0</ele><time>2026-04-08T08:49:40Z</time></trkpt><trkpt lat="40.64427320641549" lon="15.703915011230723"><ele>1307.0</ele><time>2026-04-08T08:49:43Z</time></trkpt><trkpt lat="40.64433909406874" lon="15.704058966904515"><ele>1305.0</ele><time>2026-04-08T08:49:45Z</time></trkpt><trkpt lat="40.64438765535058" lon="15.704174924133934"><ele>1303.0</ele><time>2026-04-08T08:49:46Z</time></trkpt><trkpt lat="40.64442746305006" lon="15.704312046246097"><ele>1301.0</ele><time>2026-04-08T08:49:47Z</time></trkpt><trkpt lat="40.64444417927877" lon="15.704434099034202"><ele>1299.0</ele><time>2026-04-08T08:49:48Z</time></trkpt><trkpt lat="40.64444243953247" lon="15.704543715727333"><ele>1297.8000000000002</ele><time>2026-04-08T08:49:49Z</time></trkpt><trkpt lat="40.64441997681387" lon="15.704639020671229"><ele>1296.6000000000001</ele><time>2026-04-08T08:49:50Z</time></trkpt><trkpt lat="40.64439465738966" lon="15.704726767351783"><ele>1295.4</ele><time>2026-04-08T08:49:51Z</time></trkpt><trkpt lat="40.644320563897885" lon="15.704852941708902"><ele>1294.2</ele><time>2026-04-08T08:49:52.999Z</time></trkpt><trkpt lat="40.644275940936446" lon="15.70491757989459"><ele>1293.0</ele><time>2026-04-08T08:49:53.999Z</time></trkpt><trkpt lat="40.64418339416472" lon="15.705060034140963"><ele>1293.0</ele><time>2026-04-08T08:49:55.999Z</time></trkpt><trkpt lat="40.64413577682075" lon="15.705140097158267"><ele>1293.0</ele><time>2026-04-08T08:49:56.999Z</time></trkpt><trkpt lat="40.64408852664118" lon="15.705212314266921"><ele>1293.0</ele><time>2026-04-08T08:49:57.999Z</time></trkpt><trkpt lat="40.64403014769659" lon="15.70529118097179"><ele>1293.0</ele><time>2026-04-08T08:49:58.999Z</time></trkpt><trkpt lat="40.64397171772241" lon="15.705368202267781"><ele>1293.0</ele><time>2026-04-08T08:49:59.999Z</time></trkpt><trkpt lat="40.64391811619941" lon="15.705438858887714"><ele>1293.0</ele><time>2026-04-08T08:50:00.999Z</time></trkpt><trkpt lat="40.64386768075602" lon="15.705515352105756"><ele>1293.0</ele><time>2026-04-08T08:50:01.999Z</time></trkpt><trkpt lat="40.64383630018125" lon="15.705610268119628"><ele>1293.0</ele><time>2026-04-08T08:50:02.999Z</time></trkpt><trkpt lat="40.64380711933826" lon="15.705697219004925"><ele>1293.0</ele><time>2026-04-08T08:50:03.999Z</time></trkpt><trkpt lat="40.643793011355974" lon="15.705792371003152"><ele>1293.0</ele><time>2026-04-08T08:50:04.999Z</time></trkpt><trkpt lat="40.643784089417835" lon="15.705887097102758"><ele>1293.0</ele><time>2026-04-08T08:50:05.999Z</time></trkpt><trkpt lat="40.643752140913314" lon="15.705970869788601"><ele>1293.0</ele><time>2026-04-08T08:50:06.999Z</time></trkpt><trkpt lat="40.64373422274468" lon="15.70605923204574"><ele>1293.0</ele><time>2026-04-08T08:50:07.999Z</time></trkpt><trkpt lat="40.64371251643945" lon="15.706138592333268"><ele>1293.0</ele><time>2026-04-08T08:50:08.999Z</time></trkpt><trkpt lat="40.643657372169926" lon="15.706278050736596"><ele>1293.0</ele><time>2026-04-08T08:50:10.999Z</time></trkpt><trkpt lat="40.643600376552996" lon="15.706424351751787"><ele>1293.0</ele><time>2026-04-08T08:50:12.999Z</time></trkpt><trkpt lat="40.643566271302646" lon="15.706575239025048"><ele>1293.0</ele><time>2026-04-08T08:50:14.999Z</time></trkpt><trkpt lat="40.64355729307667" lon="15.706715626760976"><ele>1289.2</ele><time>2026-04-08T08:50:16.999Z</time></trkpt><trkpt lat="40.64354587048729" lon="15.706808078988136"><ele>1285.4</ele><time>2026-04-08T08:50:17.999Z</time></trkpt><trkpt lat="40.64351684198614" lon="15.706955930707753"><ele>1281.6000000000001</ele><time>2026-04-08T08:50:19.999Z</time></trkpt><trkpt lat="40.64349274113878" lon="15.70710570541854"><ele>1277.8000000000002</ele><time>2026-04-08T08:50:21.999Z</time></trkpt><trkpt lat="40.64349245834521" lon="15.7071913363641"><ele>1274.0</ele><time>2026-04-08T08:50:22.999Z</time></trkpt><trkpt lat="40.64352130621416" lon="15.70729988103057"><ele>1273.25</ele><time>2026-04-08T08:50:24.999Z</time></trkpt><trkpt lat="40.6432518292384" lon="15.707502824832597"><ele>1272.5</ele><time>2026-04-08T08:50:26.999Z</time></trkpt><trkpt lat="40.643207438412055" lon="15.707573982049448"><ele>1271.75</ele><time>2026-04-08T08:50:27.999Z</time></trkpt><trkpt lat="40.643165672808045" lon="15.70763972610023"><ele>1271.0</ele><time>2026-04-08T08:50:28.999Z</time></trkpt><trkpt lat="40.64312831330875" lon="15.707709827515323"><ele>1269.8</ele><time>2026-04-08T08:50:29.999Z</time></trkpt><trkpt lat="40.643059777222106" lon="15.707854993184492"><ele>1268.6</ele><time>2026-04-08T08:50:31.999Z</time></trkpt><trkpt lat="40.643020646615014" lon="15.70792061082049"><ele>1267.4</ele><time>2026-04-08T08:50:32.999Z</time></trkpt><trkpt lat="40.642976706086294" lon="15.708057850345655"><ele>1266.2</ele><time>2026-04-08T08:50:34.999Z</time></trkpt><trkpt lat="40.642932166619026" lon="15.708148344322192"><ele>1265.0</ele><time>2026-04-08T08:50:36.999Z</time></trkpt><trkpt lat="40.64285187663365" lon="15.708191051734488"><ele>1261.8</ele><time>2026-04-08T08:50:39.999Z</time></trkpt><trkpt lat="40.642783814240566" lon="15.70810906319623"><ele>1258.6</ele><time>2026-04-08T08:50:41.999Z</time></trkpt><trkpt lat="40.642724746243864" lon="15.707999519646302"><ele>1255.4</ele><time>2026-04-08T08:50:43.999Z</time></trkpt><trkpt lat="40.64262873665153" lon="15.707887226455941"><ele>1252.2</ele><time>2026-04-08T08:50:46.999Z</time></trkpt><trkpt lat="40.642582000437606" lon="15.707817381648196"><ele>1249.0</ele><time>2026-04-08T08:50:47.999Z</time></trkpt><trkpt lat="40.64253917985161" lon="15.707743041276503"><ele>1249.0</ele><time>2026-04-08T08:50:48.999Z</time></trkpt><trkpt lat="40.64249844396954" lon="15.707664327435872"><ele>1249.0</ele><time>2026-04-08T08:50:49.999Z</time></trkpt><trkpt lat="40.642463250612906" lon="15.707580892193837"><ele>1249.0</ele><time>2026-04-08T08:50:50.999Z</time></trkpt><trkpt lat="40.64243216780993" lon="15.707490564165743"><ele>1249.0</ele><time>2026-04-08T08:50:51.999Z</time></trkpt><trkpt lat="40.64240774577743" lon="15.707394329582986"><ele>1249.0</ele><time>2026-04-08T08:50:52.999Z</time></trkpt><trkpt lat="40.64238028603303" lon="15.707282886985361"><ele>1249.0</ele><time>2026-04-08T08:50:53.999Z</time></trkpt><trkpt lat="40.64234657179574" lon="15.707175013642104"><ele>1249.0</ele><time>2026-04-08T08:50:54.999Z</time></trkpt><trkpt lat="40.64231479871516" lon="15.707056392139693"><ele>1249.0</ele><time>2026-04-08T08:50:55.999Z</time></trkpt><trkpt lat="40.64228112601375" lon="15.706946281948394"><ele>1249.0</ele><time>2026-04-08T08:50:56.999Z</time></trkpt><trkpt lat="40.64226434477708" lon="15.706822701368218"><ele>1249.0</ele><time>2026-04-08T08:50:57.999Z</time></trkpt><trkpt lat="40.642250665119796" lon="15.706696874107973"><ele>1249.0</ele><time>2026-04-08T08:50:58.999Z</time></trkpt><trkpt lat="40.64224868112761" lon="15.706566234718338"><ele>1249.1666666666665</ele><time>2026-04-08T08:50:59.999Z</time></trkpt><trkpt lat="40.64223838936559" lon="15.706445566790245"><ele>1249.3333333333333</ele><time>2026-04-08T08:51:00.999Z</time></trkpt><trkpt lat="40.64222731070397" lon="15.706323554056517"><ele>1249.5</ele><time>2026-04-08T08:51:01.999Z</time></trkpt><trkpt lat="40.64222509446667" lon="15.706207099824585"><ele>1249.6666666666667</ele><time>2026-04-08T08:51:02.999Z</time></trkpt><trkpt lat="40.64222477748684" lon="15.706094313982872"><ele>1249.8333333333335</ele><time>2026-04-08T08:51:04Z</time></trkpt><trkpt lat="40.64222561097709" lon="15.705979577632482"><ele>1250.0</ele><time>2026-04-08T08:51:05Z</time></trkpt><trkpt lat="40.64224236137311" lon="15.705802943728148"><ele>1250.0</ele><time>2026-04-08T08:51:06Z</time></trkpt><trkpt lat="40.64221964312324" lon="15.70569783479576"><ele>1250.0</ele><time>2026-04-08T08:51:07Z</time></trkpt><trkpt lat="40.642186885452894" lon="15.705596914333704"><ele>1250.0</ele><time>2026-04-08T08:51:08Z</time></trkpt><trkpt lat="40.642133799166714" lon="15.705530084132958"><ele>1250.0</ele><time>2026-04-08T08:51:09Z</time></trkpt><trkpt lat="40.64207680393821" lon="15.705444056902117"><ele>1250.0</ele><time>2026-04-08T08:51:10Z</time></trkpt><trkpt lat="40.64199371152474" lon="15.705418936029623"><ele>1250.0</ele><time>2026-04-08T08:51:11Z</time></trkpt><trkpt lat="40.64192456265816" lon="15.705399703401378"><ele>1247.1666666666667</ele><time>2026-04-08T08:51:12Z</time></trkpt><trkpt lat="40.64183144364648" lon="15.705355222338943"><ele>1244.3333333333335</ele><time>2026-04-08T08:51:14Z</time></trkpt><trkpt lat="40.64174766605608" lon="15.70528363814571"><ele>1241.5</ele><time>2026-04-08T08:51:16Z</time></trkpt><trkpt lat="40.64167698911733" lon="15.705246048856456"><ele>1238.6666666666667</ele><time>2026-04-08T08:51:17Z</time></trkpt><trkpt lat="40.641601431694845" lon="15.705212255579399"><ele>1235.8333333333333</ele><time>2026-04-08T08:51:18Z</time></trkpt><trkpt lat="40.641526224700605" lon="15.705188312707199"><ele>1233.0</ele><time>2026-04-08T08:51:19Z</time></trkpt><trkpt lat="40.641402642090554" lon="15.705192666634595"><ele>1233.0</ele><time>2026-04-08T08:51:21Z</time></trkpt><trkpt lat="40.64133894739312" lon="15.70517843583126"><ele>1233.0</ele><time>2026-04-08T08:51:22Z</time></trkpt><trkpt lat="40.641265433181474" lon="15.705050782334482"><ele>1233.0</ele><time>2026-04-08T08:51:23Z</time></trkpt><trkpt lat="40.64114580196142" lon="15.705035774855325"><ele>1233.0</ele><time>2026-04-08T08:51:25Z</time></trkpt><trkpt lat="40.641075389174716" lon="15.705025547493571"><ele>1233.0</ele><time>2026-04-08T08:51:26Z</time></trkpt><trkpt lat="40.64095887041949" lon="15.705000935966684"><ele>1229.1666666666667</ele><time>2026-04-08T08:51:28Z</time></trkpt><trkpt lat="40.64087062060102" lon="15.704902714378843"><ele>1225.3333333333333</ele><time>2026-04-08T08:51:30Z</time></trkpt><trkpt lat="40.640820933279656" lon="15.704829160013286"><ele>1221.5</ele><time>2026-04-08T08:51:31Z</time></trkpt><trkpt lat="40.640764873549124" lon="15.704754477668068"><ele>1217.6666666666665</ele><time>2026-04-08T08:51:32Z</time></trkpt><trkpt lat="40.64070794210266" lon="15.704676115578886"><ele>1213.8333333333333</ele><time>2026-04-08T08:51:33Z</time></trkpt><trkpt lat="40.64066377910892" lon="15.704603825741998"><ele>1210.0</ele><time>2026-04-08T08:51:34Z</time></trkpt><trkpt lat="40.64060071459631" lon="15.704490854502792"><ele>1210.0</ele><time>2026-04-08T08:51:35Z</time></trkpt><trkpt lat="40.64047876013565" lon="15.70444507953796"><ele>1210.0</ele><time>2026-04-08T08:51:36Z</time></trkpt><trkpt lat="40.64039997047005" lon="15.704434784048384"><ele>1210.0</ele><time>2026-04-08T08:51:37Z</time></trkpt><trkpt lat="40.640335211874024" lon="15.704413877666912"><ele>1210.0</ele><time>2026-04-08T08:51:38Z</time></trkpt><trkpt lat="40.64026199874967" lon="15.704365854978192"><ele>1210.0</ele><time>2026-04-08T08:51:39Z</time></trkpt><trkpt lat="40.64019284492716" lon="15.704298019051743"><ele>1210.0</ele><time>2026-04-08T08:51:40Z</time></trkpt><trkpt lat="40.64015024081526" lon="15.704224483444806"><ele>1207.8333333333333</ele><time>2026-04-08T08:51:41Z</time></trkpt><trkpt lat="40.64010256509733" lon="15.704131643128084"><ele>1205.6666666666665</ele><time>2026-04-08T08:51:42Z</time></trkpt><trkpt lat="40.64006466802906" lon="15.704047523015324"><ele>1203.5</ele><time>2026-04-08T08:51:43Z</time></trkpt><trkpt lat="40.64002410047931" lon="15.703955176948329"><ele>1201.3333333333333</ele><time>2026-04-08T08:51:44Z</time></trkpt><trkpt lat="40.63996486714322" lon="15.70388305290564"><ele>1199.1666666666667</ele><time>2026-04-08T08:51:45Z</time></trkpt><trkpt lat="40.639905926208854" lon="15.703824450039775"><ele>1197.0</ele><time>2026-04-08T08:51:46Z</time></trkpt><trkpt lat="40.63985924166182" lon="15.703739353400133"><ele>1197.0</ele><time>2026-04-08T08:51:47Z</time></trkpt><trkpt lat="40.639795123057404" lon="15.70367858722397"><ele>1197.0</ele><time>2026-04-08T08:51:48Z</time></trkpt><trkpt lat="40.63973309768062" lon="15.703617608840633"><ele>1197.0</ele><time>2026-04-08T08:51:49Z</time></trkpt><trkpt lat="40.639676649777186" lon="15.703544244335571"><ele>1197.0</ele><time>2026-04-08T08:51:50Z</time></trkpt><trkpt lat="40.63961473316876" lon="15.703461665814817"><ele>1197.0</ele><time>2026-04-08T08:51:51Z</time></trkpt><trkpt lat="40.63954170063195" lon="15.703385740548152"><ele>1197.0</ele><time>2026-04-08T08:51:52Z</time></trkpt><trkpt lat="40.639484396125596" lon="15.7032950425444"><ele>1194.2</ele><time>2026-04-08T08:51:53Z</time></trkpt><trkpt lat="40.63940880395377" lon="15.703217158525339"><ele>1191.4</ele><time>2026-04-08T08:51:54Z</time></trkpt><trkpt lat="40.63932078317636" lon="15.703166797611717"><ele>1188.6</ele><time>2026-04-08T08:51:55Z</time></trkpt><trkpt lat="40.6392259902068" lon="15.703150156325192"><ele>1185.8</ele><time>2026-04-08T08:51:56Z</time></trkpt><trkpt lat="40.63912590519811" lon="15.703143586765805"><ele>1183.0</ele><time>2026-04-08T08:51:57Z</time></trkpt><trkpt lat="40.63902563888379" lon="15.703148172400926"><ele>1183.0</ele><time>2026-04-08T08:51:58Z</time></trkpt><trkpt lat="40.63892714317961" lon="15.703163827110606"><ele>1183.0</ele><time>2026-04-08T08:51:58.999Z</time></trkpt><trkpt lat="40.63884012622483" lon="15.703180225012527"><ele>1183.0</ele><time>2026-04-08T08:51:59.999Z</time></trkpt><trkpt lat="40.638758302106645" lon="15.703195644520747"><ele>1183.0</ele><time>2026-04-08T08:52:00.999Z</time></trkpt><trkpt lat="40.63866752529208" lon="15.703217903718842"><ele>1183.0</ele><time>2026-04-08T08:52:01.999Z</time></trkpt><trkpt lat="40.63857186627059" lon="15.703247101573893"><ele>1181.2</ele><time>2026-04-08T08:52:02.999Z</time></trkpt><trkpt lat="40.63848582182795" lon="15.703282239238852"><ele>1179.4</ele><time>2026-04-08T08:52:03.999Z</time></trkpt><trkpt lat="40.63840229976336" lon="15.703327494922984"><ele>1177.6000000000001</ele><time>2026-04-08T08:52:04.999Z</time></trkpt><trkpt lat="40.638320306496624" lon="15.70339064234036"><ele>1175.8</ele><time>2026-04-08T08:52:05.999Z</time></trkpt><trkpt lat="40.63824285551819" lon="15.70345214232882"><ele>1174.0</ele><time>2026-04-08T08:52:06.999Z</time></trkpt><trkpt lat="40.63817173479468" lon="15.703510460243029"><ele>1174.0</ele><time>2026-04-08T08:52:07.999Z</time></trkpt><trkpt lat="40.63809987604661" lon="15.703568285811853"><ele>1174.0</ele><time>2026-04-08T08:52:08.999Z</time></trkpt><trkpt lat="40.63802769933942" lon="15.703619925485844"><ele>1174.0</ele><time>2026-04-08T08:52:09.999Z</time></trkpt><trkpt lat="40.637957650599496" lon="15.70366588916719"><ele>1174.0</ele><time>2026-04-08T08:52:10.999Z</time></trkpt><trkpt lat="40.63787701315535" lon="15.703674024824105"><ele>1174.0</ele><time>2026-04-08T08:52:11.999Z</time></trkpt><trkpt lat="40.63779841683261" lon="15.703699308199454"><ele>1174.0</ele><time>2026-04-08T08:52:12.999Z</time></trkpt><trkpt lat="40.637714707485586" lon="15.703736731847966"><ele>1171.0</ele><time>2026-04-08T08:52:13.999Z</time></trkpt><trkpt lat="40.63763647285432" lon="15.703779962840692"><ele>1168.0</ele><time>2026-04-08T08:52:14.999Z</time></trkpt><trkpt lat="40.63756198485002" lon="15.7038167067339"><ele>1165.0</ele><time>2026-04-08T08:52:15.999Z</time></trkpt><trkpt lat="40.63748910954483" lon="15.703852290929296"><ele>1162.0</ele><time>2026-04-08T08:52:16.999Z</time></trkpt><trkpt lat="40.63741854159187" lon="15.703882621865198"><ele>1159.0</ele><time>2026-04-08T08:52:17.999Z</time></trkpt><trkpt lat="40.637349657218735" lon="15.703907229135671"><ele>1156.0</ele><time>2026-04-08T08:52:18.999Z</time></trkpt><trkpt lat="40.63728010755369" lon="15.703922316200256"><ele>1156.0</ele><time>2026-04-08T08:52:19.999Z</time></trkpt><trkpt lat="40.637217570308245" lon="15.703905653017195"><ele>1156.0</ele><time>2026-04-08T08:52:20.999Z</time></trkpt><trkpt lat="40.63715807648611" lon="15.703868628521503"><ele>1156.0</ele><time>2026-04-08T08:52:21.999Z</time></trkpt><trkpt lat="40.637095309702666" lon="15.70381536379886"><ele>1156.0</ele><time>2026-04-08T08:52:22.999Z</time></trkpt><trkpt lat="40.63703332501627" lon="15.70376055883904"><ele>1156.0</ele><time>2026-04-08T08:52:23.999Z</time></trkpt><trkpt lat="40.636969542807655" lon="15.7037008593056"><ele>1156.0</ele><time>2026-04-08T08:52:24.999Z</time></trkpt><trkpt lat="40.63690238617087" lon="15.703638095617057"><ele>1156.0</ele><time>2026-04-08T08:52:25.999Z</time></trkpt><trkpt lat="40.63683533970329" lon="15.703575434889112"><ele>1156.3999999999999</ele><time>2026-04-08T08:52:26.999Z</time></trkpt><trkpt lat="40.63676337941465" lon="15.703508181739343"><ele>1156.8</ele><time>2026-04-08T08:52:27.999Z</time></trkpt><trkpt lat="40.63669058185174" lon="15.703440146089024"><ele>1157.1999999999998</ele><time>2026-04-08T08:52:28.999Z</time></trkpt><trkpt lat="40.636614360139276" lon="15.703368910379302"><ele>1157.6</ele><time>2026-04-08T08:52:29.999Z</time></trkpt><trkpt lat="40.63653481256768" lon="15.70329389164023"><ele>1158.0</ele><time>2026-04-08T08:52:30.999Z</time></trkpt><trkpt lat="40.636451690559014" lon="15.703215926406243"><ele>1158.0</ele><time>2026-04-08T08:52:31.999Z</time></trkpt><trkpt lat="40.63635925020203" lon="15.703143671763595"><ele>1158.0</ele><time>2026-04-08T08:52:32.999Z</time></trkpt><trkpt lat="40.6362669927167" lon="15.703084457630272"><ele>1158.0</ele><time>2026-04-08T08:52:33.999Z</time></trkpt><trkpt lat="40.6361768421806" lon="15.703027087006253"><ele>1158.0</ele><time>2026-04-08T08:52:34.999Z</time></trkpt><trkpt lat="40.63608582677521" lon="15.702965685866024"><ele>1158.0</ele><time>2026-04-08T08:52:35.999Z</time></trkpt><trkpt lat="40.636008738148334" lon="15.702892029935182"><ele>1156.2</ele><time>2026-04-08T08:52:36.999Z</time></trkpt><trkpt lat="40.6359385466238" lon="15.702800027443303"><ele>1154.4</ele><time>2026-04-08T08:52:37.999Z</time></trkpt><trkpt lat="40.63586232830126" lon="15.702710883011754"><ele>1152.6000000000001</ele><time>2026-04-08T08:52:38.999Z</time></trkpt><trkpt lat="40.635802781854615" lon="15.702600805207146"><ele>1150.8</ele><time>2026-04-08T08:52:39.999Z</time></trkpt><trkpt lat="40.63575910187345" lon="15.702474861593801"><ele>1149.0</ele><time>2026-04-08T08:52:40.999Z</time></trkpt><trkpt lat="40.635700127638344" lon="15.702358423150109"><ele>1149.0</ele><time>2026-04-08T08:52:41.999Z</time></trkpt><trkpt lat="40.6356410159051" lon="15.70224189346678"><ele>1149.0</ele><time>2026-04-08T08:52:42.999Z</time></trkpt><trkpt lat="40.63558397990976" lon="15.702125983879215"><ele>1149.0</ele><time>2026-04-08T08:52:43.999Z</time></trkpt><trkpt lat="40.63552264372022" lon="15.702011067994762"><ele>1149.0</ele><time>2026-04-08T08:52:44.999Z</time></trkpt><trkpt lat="40.63546262144415" lon="15.701900552066935"><ele>1149.0</ele><time>2026-04-08T08:52:45.999Z</time></trkpt><trkpt lat="40.6354054649975" lon="15.701795580455814"><ele>1151.4</ele><time>2026-04-08T08:52:46.999Z</time></trkpt><trkpt lat="40.63534353357118" lon="15.701691359764437"><ele>1153.8000000000002</ele><time>2026-04-08T08:52:47.999Z</time></trkpt><trkpt lat="40.63528857708305" lon="15.701593128217857"><ele>1156.1999999999998</ele><time>2026-04-08T08:52:48.999Z</time></trkpt><trkpt lat="40.635239945249296" lon="15.701490675172897"><ele>1158.6</ele><time>2026-04-08T08:52:49.999Z</time></trkpt><trkpt lat="40.63519342543447" lon="15.701380762634225"><ele>1161.0</ele><time>2026-04-08T08:52:50.999Z</time></trkpt><trkpt lat="40.63513944320919" lon="15.70127149146306"><ele>1156.3333333333333</ele><time>2026-04-08T08:52:51.999Z</time></trkpt><trkpt lat="40.63507726949945" lon="15.701169250201934"><ele>1151.6666666666667</ele><time>2026-04-08T08:52:52.999Z</time></trkpt><trkpt lat="40.6350054089263" lon="15.701091233001426"><ele>1147.0</ele><time>2026-04-08T08:52:53.999Z</time></trkpt><trkpt lat="40.634947458561065" lon="15.701010297309193"><ele>1142.3333333333335</ele><time>2026-04-08T08:52:54.999Z</time></trkpt><trkpt lat="40.63489713003694" lon="15.700924485848281"><ele>1137.6666666666667</ele><time>2026-04-08T08:52:55.999Z</time></trkpt><trkpt lat="40.63483340359149" lon="15.700850561814242"><ele>1133.0</ele><time>2026-04-08T08:52:56.999Z</time></trkpt><trkpt lat="40.63476892179164" lon="15.700781030830614"><ele>1133.0</ele><time>2026-04-08T08:52:57.999Z</time></trkpt><trkpt lat="40.63469805816786" lon="15.700717407472647"><ele>1133.0</ele><time>2026-04-08T08:52:58.999Z</time></trkpt><trkpt lat="40.63462780355934" lon="15.700660810325637"><ele>1133.0</ele><time>2026-04-08T08:52:59.999Z</time></trkpt><trkpt lat="40.63455309391466" lon="15.700606804817443"><ele>1133.0</ele><time>2026-04-08T08:53:00.999Z</time></trkpt><trkpt lat="40.63447994153172" lon="15.700556669125891"><ele>1133.0</ele><time>2026-04-08T08:53:01.999Z</time></trkpt><trkpt lat="40.634406570728785" lon="15.70051244115112"><ele>1133.0</ele><time>2026-04-08T08:53:02.999Z</time></trkpt><trkpt lat="40.634324898363225" lon="15.700469768323183"><ele>1129.6666666666667</ele><time>2026-04-08T08:53:03.999Z</time></trkpt><trkpt lat="40.634246923957654" lon="15.700432371726839"><ele>1126.3333333333335</ele><time>2026-04-08T08:53:04.999Z</time></trkpt><trkpt lat="40.63416457162503" lon="15.700407549385153"><ele>1123.0</ele><time>2026-04-08T08:53:05.999Z</time></trkpt><trkpt lat="40.634082540458564" lon="15.70038479866312"><ele>1119.6666666666667</ele><time>2026-04-08T08:53:06.999Z</time></trkpt><trkpt lat="40.633999301221934" lon="15.70036799514397"><ele>1116.3333333333333</ele><time>2026-04-08T08:53:07.999Z</time></trkpt><trkpt lat="40.633922140483" lon="15.700353661120879"><ele>1113.0</ele><time>2026-04-08T08:53:08.999Z</time></trkpt><trkpt lat="40.63384214594744" lon="15.700334876480373"><ele>1113.0</ele><time>2026-04-08T08:53:10Z</time></trkpt><trkpt lat="40.6337669128562" lon="15.700314169719055"><ele>1113.0</ele><time>2026-04-08T08:53:11Z</time></trkpt><trkpt lat="40.63368969129085" lon="15.700292294188356"><ele>1113.0</ele><time>2026-04-08T08:53:12Z</time></trkpt><trkpt lat="40.633618564130245" lon="15.70026552696255"><ele>1113.0</ele><time>2026-04-08T08:53:13Z</time></trkpt><trkpt lat="40.63354146006997" lon="15.700242479505427"><ele>1113.0</ele><time>2026-04-08T08:53:14Z</time></trkpt><trkpt lat="40.63346975287705" lon="15.70022756864471"><ele>1113.0</ele><time>2026-04-08T08:53:15Z</time></trkpt><trkpt lat="40.63339800302552" lon="15.700212648928797"><ele>1113.3333333333333</ele><time>2026-04-08T08:53:16Z</time></trkpt><trkpt lat="40.63333109655205" lon="15.700202781272154"><ele>1113.6666666666667</ele><time>2026-04-08T08:53:17Z</time></trkpt><trkpt lat="40.63326187024101" lon="15.700194900450617"><ele>1114.0</ele><time>2026-04-08T08:53:18Z</time></trkpt><trkpt lat="40.633193828561026" lon="15.700192994055309"><ele>1114.3333333333335</ele><time>2026-04-08T08:53:19Z</time></trkpt><trkpt lat="40.63307813583596" lon="15.700205543120099"><ele>1114.6666666666667</ele><time>2026-04-08T08:53:21Z</time></trkpt><trkpt lat="40.63297175257638" lon="15.700221209905145"><ele>1115.0</ele><time>2026-04-08T08:53:23Z</time></trkpt><trkpt lat="40.63287981395649" lon="15.70023010001045"><ele>1114.1666666666667</ele><time>2026-04-08T08:53:25Z</time></trkpt><trkpt lat="40.63280331839843" lon="15.70023847714075"><ele>1113.3333333333335</ele><time>2026-04-08T08:53:27Z</time></trkpt><trkpt lat="40.632730687753416" lon="15.700255614353358"><ele>1112.5</ele><time>2026-04-08T08:53:29Z</time></trkpt><trkpt lat="40.63265505793409" lon="15.700285210920438"><ele>1111.6666666666667</ele><time>2026-04-08T08:53:31Z</time></trkpt><trkpt lat="40.63258835684826" lon="15.700309168107939"><ele>1110.8333333333333</ele><time>2026-04-08T08:53:33Z</time></trkpt><trkpt lat="40.63252215879221" lon="15.700327671308756"><ele>1110.0</ele><time>2026-04-08T08:53:35Z</time></trkpt><trkpt lat="40.6324288908569" lon="15.70033722717114"><ele>1110.0</ele><time>2026-04-08T08:53:38Z</time></trkpt><trkpt lat="40.63235049841295" lon="15.70030007683069"><ele>1110.0</ele><time>2026-04-08T08:53:41Z</time></trkpt><trkpt lat="40.63227835260726" lon="15.700268395697023"><ele>1110.0</ele><time>2026-04-08T08:53:43Z</time></trkpt><trkpt lat="40.63218567435815" lon="15.700238784776742"><ele>1110.0</ele><time>2026-04-08T08:53:45Z</time></trkpt><trkpt lat="40.63208504311284" lon="15.700203856384967"><ele>1110.0</ele><time>2026-04-08T08:53:47Z</time></trkpt><trkpt lat="40.631970834561606" lon="15.700162499694546"><ele>1108.1666666666667</ele><time>2026-04-08T08:53:49Z</time></trkpt><trkpt lat="40.63184987441516" lon="15.70011240073792"><ele>1106.3333333333333</ele><time>2026-04-08T08:53:51Z</time></trkpt><trkpt lat="40.63178208797499" lon="15.700084185589336"><ele>1104.5</ele><time>2026-04-08T08:53:52Z</time></trkpt><trkpt lat="40.6317096462493" lon="15.70005778953585"><ele>1102.6666666666665</ele><time>2026-04-08T08:53:53Z</time></trkpt><trkpt lat="40.63162974309066" lon="15.700029283845959"><ele>1100.8333333333333</ele><time>2026-04-08T08:53:54Z</time></trkpt><trkpt lat="40.63154617778012" lon="15.700005727092574"><ele>1099.0</ele><time>2026-04-08T08:53:55Z</time></trkpt><trkpt lat="40.63145659174396" lon="15.699986341820518"><ele>1099.0</ele><time>2026-04-08T08:53:56Z</time></trkpt><trkpt lat="40.63136890988224" lon="15.699972135130695"><ele>1099.0</ele><time>2026-04-08T08:53:57Z</time></trkpt><trkpt lat="40.63128083593555" lon="15.699961341701117"><ele>1099.0</ele><time>2026-04-08T08:53:58Z</time></trkpt><trkpt lat="40.63119036946507" lon="15.699953319983173"><ele>1099.0</ele><time>2026-04-08T08:53:59Z</time></trkpt><trkpt lat="40.631103851077114" lon="15.699947395203521"><ele>1099.0</ele><time>2026-04-08T08:53:59.999Z</time></trkpt><trkpt lat="40.631016637940796" lon="15.699941422843084"><ele>1099.0</ele><time>2026-04-08T08:54:00.999Z</time></trkpt><trkpt lat="40.63092971611913" lon="15.69993547043483"><ele>1097.5</ele><time>2026-04-08T08:54:01.999Z</time></trkpt><trkpt lat="40.63084247753149" lon="15.699929840462133"><ele>1096.0</ele><time>2026-04-08T08:54:02.999Z</time></trkpt><trkpt lat="40.63075893779738" lon="15.699924500626441"><ele>1094.5</ele><time>2026-04-08T08:54:03.999Z</time></trkpt><trkpt lat="40.63067309979824" lon="15.699919013967708"><ele>1093.0</ele><time>2026-04-08T08:54:04.999Z</time></trkpt><trkpt lat="40.630593356166536" lon="15.699916644836321"><ele>1091.5</ele><time>2026-04-08T08:54:05.999Z</time></trkpt><trkpt lat="40.630514604948885" lon="15.699912626529384"><ele>1090.0</ele><time>2026-04-08T08:54:06.999Z</time></trkpt><trkpt lat="40.630438206625676" lon="15.699908728282523"><ele>1090.0</ele><time>2026-04-08T08:54:07.999Z</time></trkpt><trkpt lat="40.630360986999555" lon="15.699905175399175"><ele>1090.0</ele><time>2026-04-08T08:54:08.999Z</time></trkpt><trkpt lat="40.63029097559623" lon="15.699902054789932"><ele>1090.0</ele><time>2026-04-08T08:54:09.999Z</time></trkpt><trkpt lat="40.63022270843285" lon="15.699899011926671"><ele>1090.0</ele><time>2026-04-08T08:54:10.999Z</time></trkpt><trkpt lat="40.63015320138056" lon="15.699897434958599"><ele>1090.0</ele><time>2026-04-08T08:54:11.999Z</time></trkpt><trkpt lat="40.63008698201755" lon="15.699898499830493"><ele>1090.0</ele><time>2026-04-08T08:54:12.999Z</time></trkpt><trkpt lat="40.63002163578238" lon="15.699900002950319"><ele>1090.0</ele><time>2026-04-08T08:54:13.999Z</time></trkpt><trkpt lat="40.62995740010475" lon="15.699898586615662"><ele>1089.0</ele><time>2026-04-08T08:54:14.999Z</time></trkpt><trkpt lat="40.629835483249124" lon="15.699880436921154"><ele>1088.0</ele><time>2026-04-08T08:54:16.999Z</time></trkpt><trkpt lat="40.62977293700433" lon="15.699868276949864"><ele>1087.0</ele><time>2026-04-08T08:54:17.999Z</time></trkpt><trkpt lat="40.62965224752456" lon="15.699834519427007"><ele>1086.0</ele><time>2026-04-08T08:54:19.999Z</time></trkpt><trkpt lat="40.62953674710316" lon="15.699792487976952"><ele>1085.0</ele><time>2026-04-08T08:54:21.999Z</time></trkpt><trkpt lat="40.6294220633323" lon="15.69973664353666"><ele>1083.8333333333335</ele><time>2026-04-08T08:54:23.999Z</time></trkpt><trkpt lat="40.629300452896835" lon="15.699673130312293"><ele>1082.6666666666667</ele><time>2026-04-08T08:54:25.999Z</time></trkpt><trkpt lat="40.62923582383782" lon="15.69964167787571"><ele>1081.5</ele><time>2026-04-08T08:54:26.999Z</time></trkpt><trkpt lat="40.6291693251073" lon="15.699609763436078"><ele>1080.3333333333333</ele><time>2026-04-08T08:54:27.999Z</time></trkpt><trkpt lat="40.629093766194266" lon="15.699576162507888"><ele>1079.1666666666665</ele><time>2026-04-08T08:54:28.999Z</time></trkpt><trkpt lat="40.629009416662385" lon="15.699549844302622"><ele>1078.0</ele><time>2026-04-08T08:54:29.999Z</time></trkpt><trkpt lat="40.62892196099608" lon="15.699531244726607"><ele>1078.0</ele><time>2026-04-08T08:54:30.999Z</time></trkpt><trkpt lat="40.628825436451805" lon="15.699516939407115"><ele>1078.0</ele><time>2026-04-08T08:54:31.999Z</time></trkpt><trkpt lat="40.62872914233278" lon="15.699501129425165"><ele>1078.0</ele><time>2026-04-08T08:54:32.999Z</time></trkpt><trkpt lat="40.62863161284018" lon="15.699482089370541"><ele>1078.0</ele><time>2026-04-08T08:54:33.999Z</time></trkpt><trkpt lat="40.628526074456865" lon="15.69947427711722"><ele>1078.0</ele><time>2026-04-08T08:54:34.999Z</time></trkpt><trkpt lat="40.628422137625925" lon="15.69941960104157"><ele>1076.5</ele><time>2026-04-08T08:54:35.999Z</time></trkpt><trkpt lat="40.6283301514416" lon="15.69933633720328"><ele>1075.0</ele><time>2026-04-08T08:54:36.999Z</time></trkpt><trkpt lat="40.628235003317116" lon="15.699260008186426"><ele>1073.5</ele><time>2026-04-08T08:54:37.999Z</time></trkpt><trkpt lat="40.62814087856203" lon="15.699183136450502"><ele>1072.0</ele><time>2026-04-08T08:54:38.999Z</time></trkpt><trkpt lat="40.62803568529895" lon="15.699118602137347"><ele>1072.0</ele><time>2026-04-08T08:54:39.999Z</time></trkpt><trkpt lat="40.627938347677215" lon="15.699035186324648"><ele>1072.0</ele><time>2026-04-08T08:54:40.999Z</time></trkpt><trkpt lat="40.62784374050246" lon="15.698950898828633"><ele>1072.0</ele><time>2026-04-08T08:54:41.999Z</time></trkpt><trkpt lat="40.62775788882711" lon="15.698850854388407"><ele>1072.0</ele><time>2026-04-08T08:54:42.999Z</time></trkpt><trkpt lat="40.627666706172526" lon="15.698765862241144"><ele>1069.2</ele><time>2026-04-08T08:54:43.999Z</time></trkpt><trkpt lat="40.627574594211396" lon="15.698680003887107"><ele>1066.4</ele><time>2026-04-08T08:54:44.999Z</time></trkpt><trkpt lat="40.6274807891695" lon="15.698595841408075"><ele>1063.6</ele><time>2026-04-08T08:54:45.999Z</time></trkpt><trkpt lat="40.62738666041772" lon="15.698517106827795"><ele>1060.8</ele><time>2026-04-08T08:54:46.999Z</time></trkpt><trkpt lat="40.627293814996506" lon="15.698441033109427"><ele>1058.0</ele><time>2026-04-08T08:54:47.999Z</time></trkpt><trkpt lat="40.62720274801603" lon="15.698366434624162"><ele>1058.0</ele><time>2026-04-08T08:54:48.999Z</time></trkpt><trkpt lat="40.62711613050691" lon="15.698295480988268"><ele>1058.0</ele><time>2026-04-08T08:54:49.999Z</time></trkpt><trkpt lat="40.62703339019067" lon="15.698226490413543"><ele>1058.0</ele><time>2026-04-08T08:54:50.999Z</time></trkpt><trkpt lat="40.62695325250594" lon="15.698159328268199"><ele>1058.0</ele><time>2026-04-08T08:54:51.999Z</time></trkpt><trkpt lat="40.6268751557763" lon="15.698094162224347"><ele>1058.0</ele><time>2026-04-08T08:54:52.999Z</time></trkpt><trkpt lat="40.6267942801559" lon="15.698032619828163"><ele>1056.0</ele><time>2026-04-08T08:54:53.999Z</time></trkpt><trkpt lat="40.62670933484972" lon="15.69797602634679"><ele>1054.0</ele><time>2026-04-08T08:54:54.999Z</time></trkpt><trkpt lat="40.62661607848917" lon="15.697939659205229"><ele>1052.0</ele><time>2026-04-08T08:54:55.999Z</time></trkpt><trkpt lat="40.6265275381823" lon="15.697883637093474"><ele>1050.0</ele><time>2026-04-08T08:54:56.999Z</time></trkpt><trkpt lat="40.626440538295505" lon="15.697826246289459"><ele>1048.0</ele><time>2026-04-08T08:54:57.999Z</time></trkpt><trkpt lat="40.626362353012404" lon="15.697746853841023"><ele>1048.0</ele><time>2026-04-08T08:54:58.999Z</time></trkpt><trkpt lat="40.626270094224516" lon="15.69769758665799"><ele>1048.0</ele><time>2026-04-08T08:54:59.999Z</time></trkpt><trkpt lat="40.626185980456725" lon="15.697623247627389"><ele>1048.0</ele><time>2026-04-08T08:55:00.999Z</time></trkpt><trkpt lat="40.626098870377774" lon="15.69754736191898"><ele>1048.0</ele><time>2026-04-08T08:55:01.999Z</time></trkpt><trkpt lat="40.62601388897398" lon="15.697469009983369"><ele>1048.0</ele><time>2026-04-08T08:55:02.999Z</time></trkpt><trkpt lat="40.62593710805092" lon="15.697384134906468"><ele>1046.4</ele><time>2026-04-08T08:55:03.999Z</time></trkpt><trkpt lat="40.625859623795094" lon="15.697299631486974"><ele>1044.8</ele><time>2026-04-08T08:55:04.999Z</time></trkpt><trkpt lat="40.62577987946085" lon="15.697216836594873"><ele>1043.2</ele><time>2026-04-08T08:55:05.999Z</time></trkpt><trkpt lat="40.625703109227736" lon="15.697139052373632"><ele>1041.6</ele><time>2026-04-08T08:55:06.999Z</time></trkpt><trkpt lat="40.625639015217544" lon="15.697044578071468"><ele>1040.0</ele><time>2026-04-08T08:55:07.999Z</time></trkpt><trkpt lat="40.62556387012691" lon="15.69696777516563"><ele>1038.8</ele><time>2026-04-08T08:55:08.999Z</time></trkpt><trkpt lat="40.62548658928294" lon="15.696890319417788"><ele>1037.6</ele><time>2026-04-08T08:55:09.999Z</time></trkpt><trkpt lat="40.62541068056304" lon="15.696814238884361"><ele>1036.4</ele><time>2026-04-08T08:55:10.999Z</time></trkpt><trkpt lat="40.62532469515984" lon="15.696753318325097"><ele>1035.2</ele><time>2026-04-08T08:55:11.999Z</time></trkpt><trkpt lat="40.62525028546052" lon="15.696670728841356"><ele>1034.0</ele><time>2026-04-08T08:55:12.999Z</time></trkpt><trkpt lat="40.625186752645064" lon="15.696577860957065"><ele>1033.4</ele><time>2026-04-08T08:55:13.999Z</time></trkpt><trkpt lat="40.62511348363386" lon="15.696497621178839"><ele>1032.8000000000002</ele><time>2026-04-08T08:55:14.999Z</time></trkpt><trkpt lat="40.625039824725015" lon="15.696412678693767"><ele>1032.1999999999998</ele><time>2026-04-08T08:55:16Z</time></trkpt><trkpt lat="40.62495647806577" lon="15.696339667425681"><ele>1031.6</ele><time>2026-04-08T08:55:17Z</time></trkpt><trkpt lat="40.62488456979365" lon="15.696248584838253"><ele>1031.0</ele><time>2026-04-08T08:55:18Z</time></trkpt><trkpt lat="40.62481137272472" lon="15.696154505195402"><ele>1029.2</ele><time>2026-04-08T08:55:19Z</time></trkpt><trkpt lat="40.62473793017196" lon="15.696057260890644"><ele>1027.3999999999999</ele><time>2026-04-08T08:55:20Z</time></trkpt><trkpt lat="40.62466391697312" lon="15.695955949312262"><ele>1025.6</ele><time>2026-04-08T08:55:21Z</time></trkpt><trkpt lat="40.62458678305932" lon="15.695854093281273"><ele>1023.8</ele><time>2026-04-08T08:55:22Z</time></trkpt><trkpt lat="40.62451754971433" lon="15.69573749771153"><ele>1022.0</ele><time>2026-04-08T08:55:23Z</time></trkpt><trkpt lat="40.62443417044075" lon="15.695628577367962"><ele>1020.75</ele><time>2026-04-08T08:55:24Z</time></trkpt><trkpt lat="40.62434759822792" lon="15.695518423821033"><ele>1019.5</ele><time>2026-04-08T08:55:25Z</time></trkpt><trkpt lat="40.624257109462" lon="15.695405899297551"><ele>1018.25</ele><time>2026-04-08T08:55:26Z</time></trkpt><trkpt lat="40.62416332379396" lon="15.695290677195514"><ele>1017.0</ele><time>2026-04-08T08:55:27Z</time></trkpt><trkpt lat="40.62406454582711" lon="15.695169377340264"><ele>1016.0</ele><time>2026-04-08T08:55:28Z</time></trkpt><trkpt lat="40.62396687061452" lon="15.695049431126474"><ele>1015.0</ele><time>2026-04-08T08:55:29Z</time></trkpt><trkpt lat="40.62386659882956" lon="15.694926296671822"><ele>1014.0</ele><time>2026-04-08T08:55:30Z</time></trkpt><trkpt lat="40.62376409710028" lon="15.694807508860393"><ele>1013.0</ele><time>2026-04-08T08:55:31Z</time></trkpt><trkpt lat="40.62365948122527" lon="15.694696258597299"><ele>1010.5</ele><time>2026-04-08T08:55:32Z</time></trkpt><trkpt lat="40.62355305885209" lon="15.694602576901499"><ele>1008.0</ele><time>2026-04-08T08:55:33Z</time></trkpt><trkpt lat="40.62344420263264" lon="15.694529391532884"><ele>1005.5</ele><time>2026-04-08T08:55:34Z</time></trkpt><trkpt lat="40.6233449666431" lon="15.694467695040593"><ele>1003.0</ele><time>2026-04-08T08:55:35Z</time></trkpt><trkpt lat="40.6232533408169" lon="15.694408894054288"><ele>1001.9999999999999</ele><time>2026-04-08T08:55:36Z</time></trkpt><trkpt lat="40.623167197334226" lon="15.694348810222994"><ele>1001.0</ele><time>2026-04-08T08:55:37Z</time></trkpt><trkpt lat="40.623091126452685" lon="15.694276656272125"><ele>1000.0</ele><time>2026-04-08T08:55:38Z</time></trkpt><trkpt lat="40.62305214938434" lon="15.694191996823427"><ele>999.0</ele><time>2026-04-08T08:55:39Z</time></trkpt><trkpt lat="40.623015062485706" lon="15.69409952168069"><ele>997.9999999999999</ele><time>2026-04-08T08:55:40Z</time></trkpt><trkpt lat="40.62301516334923" lon="15.694015991274528"><ele>997.0</ele><time>2026-04-08T08:55:42Z</time></trkpt><trkpt lat="40.62297670845143" lon="15.693931369045945"><ele>988.0</ele><time>2026-04-08T08:55:43Z</time></trkpt><trkpt lat="40.62245139740887" lon="15.693995679478007"><ele>988.0</ele><time>2026-04-08T08:55:44Z</time></trkpt><trkpt lat="40.622354992506786" lon="15.693905945955757"><ele>988.0</ele><time>2026-04-08T08:55:45Z</time></trkpt><trkpt lat="40.622259939198365" lon="15.693820939128878"><ele>988.0</ele><time>2026-04-08T08:55:46Z</time></trkpt><trkpt lat="40.6221678591472" lon="15.69373746882307"><ele>988.0</ele><time>2026-04-08T08:55:47Z</time></trkpt><trkpt lat="40.62207969647707" lon="15.693651173027327"><ele>987.0</ele><time>2026-04-08T08:55:48Z</time></trkpt><trkpt lat="40.6219853482438" lon="15.693567633261189"><ele>986.0</ele><time>2026-04-08T08:55:49Z</time></trkpt><trkpt lat="40.621909267950045" lon="15.693491713382995"><ele>985.0</ele><time>2026-04-08T08:55:50Z</time></trkpt><trkpt lat="40.62184225910007" lon="15.693420582126615"><ele>984.0</ele><time>2026-04-08T08:55:51Z</time></trkpt><trkpt lat="40.621782592547824" lon="15.693295468798999"><ele>983.0</ele><time>2026-04-08T08:55:53Z</time></trkpt><trkpt lat="40.621712579564765" lon="15.693219327193464"><ele>981.0</ele><time>2026-04-08T08:55:55Z</time></trkpt><trkpt lat="40.62164126396052" lon="15.693141770175643"><ele>979.0</ele><time>2026-04-08T08:55:57Z</time></trkpt><trkpt lat="40.62155740726359" lon="15.693048808336433"><ele>977.0</ele><time>2026-04-08T08:55:59Z</time></trkpt><trkpt lat="40.62146142367101" lon="15.692940038494966"><ele>975.0</ele><time>2026-04-08T08:56:01Z</time></trkpt><trkpt lat="40.621407578965155" lon="15.692879020973518"><ele>973.0</ele><time>2026-04-08T08:56:02Z</time></trkpt><trkpt lat="40.621348778241966" lon="15.692812387254488"><ele>972.1666666666666</ele><time>2026-04-08T08:56:03Z</time></trkpt><trkpt lat="40.621292087703615" lon="15.692747538991782"><ele>971.3333333333333</ele><time>2026-04-08T08:56:04Z</time></trkpt><trkpt lat="40.62122919264392" lon="15.692674862677789"><ele>970.5</ele><time>2026-04-08T08:56:04.999Z</time></trkpt><trkpt lat="40.62116515656618" lon="15.692600867860413"><ele>969.6666666666667</ele><time>2026-04-08T08:56:05.999Z</time></trkpt><trkpt lat="40.621097960810125" lon="15.692523221993307"><ele>968.8333333333334</ele><time>2026-04-08T08:56:06.999Z</time></trkpt><trkpt lat="40.621025579054965" lon="15.692439583628595"><ele>968.0</ele><time>2026-04-08T08:56:07.999Z</time></trkpt><trkpt lat="40.62095455441683" lon="15.692357513450647"><ele>966.0</ele><time>2026-04-08T08:56:08.999Z</time></trkpt><trkpt lat="40.620879347507994" lon="15.69228861167597"><ele>964.0</ele><time>2026-04-08T08:56:09.999Z</time></trkpt><trkpt lat="40.62079556780535" lon="15.692198792505279"><ele>962.0</ele><time>2026-04-08T08:56:10.999Z</time></trkpt><trkpt lat="40.620723119795876" lon="15.69210961060547"><ele>960.0</ele><time>2026-04-08T08:56:11.999Z</time></trkpt><trkpt lat="40.620645245956744" lon="15.692021864132606"><ele>958.0</ele><time>2026-04-08T08:56:12.999Z</time></trkpt><trkpt lat="40.62058551808462" lon="15.691941207038022"><ele>957.5714285714286</ele><time>2026-04-08T08:56:13.999Z</time></trkpt><trkpt lat="40.62052678428147" lon="15.691899223710658"><ele>957.1428571428571</ele><time>2026-04-08T08:56:14.999Z</time></trkpt><trkpt lat="40.620486283461595" lon="15.691821356665562"><ele>956.7142857142857</ele><time>2026-04-08T08:56:15.999Z</time></trkpt><trkpt lat="40.62042425234847" lon="15.69176957900229"><ele>956.2857142857142</ele><time>2026-04-08T08:56:16.999Z</time></trkpt><trkpt lat="40.62037536703759" lon="15.691694629533046"><ele>955.8571428571429</ele><time>2026-04-08T08:56:17.999Z</time></trkpt><trkpt lat="40.6203250717428" lon="15.691619430837516"><ele>955.4285714285713</ele><time>2026-04-08T08:56:18.999Z</time></trkpt><trkpt lat="40.62027968437044" lon="15.691537729969433"><ele>954.9999999999999</ele><time>2026-04-08T08:56:19.999Z</time></trkpt><trkpt lat="40.62022582818229" lon="15.691472204467988"><ele>953.6666666666666</ele><time>2026-04-08T08:56:20.999Z</time></trkpt><trkpt lat="40.620163954232034" lon="15.691400959590146"><ele>952.3333333333333</ele><time>2026-04-08T08:56:21.999Z</time></trkpt><trkpt lat="40.62010296656239" lon="15.691327932023977"><ele>951.0</ele><time>2026-04-08T08:56:22.999Z</time></trkpt><trkpt lat="40.620039271552095" lon="15.691250438382665"><ele>949.6666666666667</ele><time>2026-04-08T08:56:23.999Z</time></trkpt><trkpt lat="40.619977215462015" lon="15.691172640644172"><ele>948.3333333333334</ele><time>2026-04-08T08:56:24.999Z</time></trkpt><trkpt lat="40.61992442852155" lon="15.691082764385879"><ele>947.0</ele><time>2026-04-08T08:56:25.999Z</time></trkpt><trkpt lat="40.61986569787353" lon="15.691007862640001"><ele>946.5000000000001</ele><time>2026-04-08T08:56:26.999Z</time></trkpt><trkpt lat="40.61980415237271" lon="15.69092937090754"><ele>946.0</ele><time>2026-04-08T08:56:27.999Z</time></trkpt><trkpt lat="40.61973538801727" lon="15.690865230942157"><ele>945.5</ele><time>2026-04-08T08:56:28.999Z</time></trkpt><trkpt lat="40.61968464848218" lon="15.690771628763837"><ele>945.0</ele><time>2026-04-08T08:56:29.999Z</time></trkpt><trkpt lat="40.61961747096168" lon="15.690713534113351"><ele>944.5000000000001</ele><time>2026-04-08T08:56:30.999Z</time></trkpt><trkpt lat="40.61958181678046" lon="15.690640634815155"><ele>944.0</ele><time>2026-04-08T08:56:31.999Z</time></trkpt><trkpt lat="40.61948048277118" lon="15.690561021974785"><ele>941.6</ele><time>2026-04-08T08:56:33.999Z</time></trkpt><trkpt lat="40.61942291581755" lon="15.690519276858456"><ele>939.2</ele><time>2026-04-08T08:56:34.999Z</time></trkpt><trkpt lat="40.619346942139956" lon="15.690414659039595"><ele>936.8000000000001</ele><time>2026-04-08T08:56:36.999Z</time></trkpt><trkpt lat="40.6192542621341" lon="15.690299691709939"><ele>934.4000000000001</ele><time>2026-04-08T08:56:38.999Z</time></trkpt><trkpt lat="40.61920345988116" lon="15.690231533745282"><ele>932.0</ele><time>2026-04-08T08:56:39.999Z</time></trkpt><trkpt lat="40.6191494530742" lon="15.690161566060047"><ele>931.3333333333334</ele><time>2026-04-08T08:56:40.999Z</time></trkpt><trkpt lat="40.61908994910456" lon="15.690093035206676"><ele>930.6666666666667</ele><time>2026-04-08T08:56:41.999Z</time></trkpt><trkpt lat="40.619025200427636" lon="15.690028438105534"><ele>930.0</ele><time>2026-04-08T08:56:42.999Z</time></trkpt><trkpt lat="40.618956091680204" lon="15.689958928485897"><ele>929.3333333333333</ele><time>2026-04-08T08:56:43.999Z</time></trkpt><trkpt lat="40.61887911153883" lon="15.689889090603097"><ele>928.6666666666666</ele><time>2026-04-08T08:56:44.999Z</time></trkpt><trkpt lat="40.61879650838244" lon="15.689820437332072"><ele>928.0</ele><time>2026-04-08T08:56:45.999Z</time></trkpt><trkpt lat="40.61871435127488" lon="15.689747789417003"><ele>925.2</ele><time>2026-04-08T08:56:46.999Z</time></trkpt><trkpt lat="40.618632218458565" lon="15.689670218534442"><ele>922.4</ele><time>2026-04-08T08:56:47.999Z</time></trkpt><trkpt lat="40.61854994611766" lon="15.689589781410774"><ele>919.6000000000001</ele><time>2026-04-08T08:56:48.999Z</time></trkpt><trkpt lat="40.6184643369724" lon="15.68950609084216"><ele>916.8000000000001</ele><time>2026-04-08T08:56:49.999Z</time></trkpt><trkpt lat="40.61838022044767" lon="15.689419130345565"><ele>914.0</ele><time>2026-04-08T08:56:50.999Z</time></trkpt><trkpt lat="40.61829233911598" lon="15.689332617051674"><ele>913.0</ele><time>2026-04-08T08:56:51.999Z</time></trkpt><trkpt lat="40.618200192801204" lon="15.68925100734163"><ele>912.0</ele><time>2026-04-08T08:56:52.999Z</time></trkpt><trkpt lat="40.618103344123" lon="15.689170665346424"><ele>911.0</ele><time>2026-04-08T08:56:53.999Z</time></trkpt><trkpt lat="40.618013597334986" lon="15.68908084603065"><ele>910.0</ele><time>2026-04-08T08:56:54.999Z</time></trkpt><trkpt lat="40.61792172107721" lon="15.68898947840809"><ele>910.0</ele><time>2026-04-08T08:56:55.999Z</time></trkpt><trkpt lat="40.61782845966298" lon="15.688903499137806"><ele>910.0</ele><time>2026-04-08T08:56:56.999Z</time></trkpt><trkpt lat="40.617735330581" lon="15.68881375683954"><ele>910.0</ele><time>2026-04-08T08:56:57.999Z</time></trkpt><trkpt lat="40.61764668452097" lon="15.688723003437762"><ele>910.0</ele><time>2026-04-08T08:56:58.999Z</time></trkpt><trkpt lat="40.617552647405326" lon="15.688632937997353"><ele>907.25</ele><time>2026-04-08T08:56:59.999Z</time></trkpt><trkpt lat="40.61745952214059" lon="15.688540210636324"><ele>904.5</ele><time>2026-04-08T08:57:00.999Z</time></trkpt><trkpt lat="40.61736128541868" lon="15.68845605811673"><ele>901.75</ele><time>2026-04-08T08:57:01.999Z</time></trkpt><trkpt lat="40.617262840080485" lon="15.688370334506518"><ele>899.0</ele><time>2026-04-08T08:57:02.999Z</time></trkpt><trkpt lat="40.61717108465132" lon="15.688266188690529"><ele>899.0</ele><time>2026-04-08T08:57:03.999Z</time></trkpt><trkpt lat="40.617067435853315" lon="15.688183567483899"><ele>899.0</ele><time>2026-04-08T08:57:04.999Z</time></trkpt><trkpt lat="40.616963077080385" lon="15.688105505939896"><ele>899.0</ele><time>2026-04-08T08:57:05.999Z</time></trkpt><trkpt lat="40.616855863505876" lon="15.688028145810135"><ele>899.0</ele><time>2026-04-08T08:57:06.999Z</time></trkpt><trkpt lat="40.61674722736263" lon="15.687954200068628"><ele>897.5</ele><time>2026-04-08T08:57:07.999Z</time></trkpt><trkpt lat="40.616633418669146" lon="15.68788570207554"><ele>896.0</ele><time>2026-04-08T08:57:08.999Z</time></trkpt><trkpt lat="40.61651884365073" lon="15.687825579103874"><ele>894.5</ele><time>2026-04-08T08:57:09.999Z</time></trkpt><trkpt lat="40.616403817964255" lon="15.687771804085576"><ele>893.0</ele><time>2026-04-08T08:57:10.999Z</time></trkpt><trkpt lat="40.61628749756071" lon="15.687718013000817"><ele>891.75</ele><time>2026-04-08T08:57:11.999Z</time></trkpt><trkpt lat="40.61617434896243" lon="15.687665038550627"><ele>890.5</ele><time>2026-04-08T08:57:12.999Z</time></trkpt><trkpt lat="40.61606344290544" lon="15.687610627332926"><ele>889.25</ele><time>2026-04-08T08:57:13.999Z</time></trkpt><trkpt lat="40.615952594755505" lon="15.687548399144168"><ele>888.0</ele><time>2026-04-08T08:57:14.999Z</time></trkpt><trkpt lat="40.61584222287501" lon="15.687485224742955"><ele>886.25</ele><time>2026-04-08T08:57:15.999Z</time></trkpt><trkpt lat="40.61573231636288" lon="15.68742231670885"><ele>884.5</ele><time>2026-04-08T08:57:16.999Z</time></trkpt><trkpt lat="40.61562453522116" lon="15.687359166710948"><ele>882.75</ele><time>2026-04-08T08:57:17.999Z</time></trkpt><trkpt lat="40.615518885832245" lon="15.687294476262043"><ele>881.0</ele><time>2026-04-08T08:57:18.999Z</time></trkpt><trkpt lat="40.61541678861091" lon="15.687226206927203"><ele>881.0000000000001</ele><time>2026-04-08T08:57:19.999Z</time></trkpt><trkpt lat="40.61532550257658" lon="15.687160998287794"><ele>881.0</ele><time>2026-04-08T08:57:20.999Z</time></trkpt><trkpt lat="40.61525507130496" lon="15.687108100866919"><ele>881.0</ele><time>2026-04-08T08:57:22Z</time></trkpt><trkpt lat="40.615190254541105" lon="15.687052943239996"><ele>881.0</ele><time>2026-04-08T08:57:23Z</time></trkpt><trkpt lat="40.61511478924523" lon="15.686975093917596"><ele>881.0000000000001</ele><time>2026-04-08T08:57:25Z</time></trkpt><trkpt lat="40.61506064756673" lon="15.686929549850746"><ele>881.0</ele><time>2026-04-08T08:57:28Z</time></trkpt><trkpt lat="40.61500594469319" lon="15.686836006726784"><ele>879.0</ele><time>2026-04-08T08:57:35Z</time></trkpt><trkpt lat="40.61495828512262" lon="15.68676490109745"><ele>876.9999999999999</ele><time>2026-04-08T08:57:38Z</time></trkpt><trkpt lat="40.61480715542508" lon="15.686796709907373"><ele>874.9999999999999</ele><time>2026-04-08T08:57:41Z</time></trkpt><trkpt lat="40.61471576496328" lon="15.686851802000984"><ele>873.0</ele><time>2026-04-08T08:57:43Z</time></trkpt><trkpt lat="40.61464225236997" lon="15.686898894218025"><ele>871.0</ele><time>2026-04-08T08:57:44Z</time></trkpt><trkpt lat="40.61457636375672" lon="15.686941102503276"><ele>870.9999999999999</ele><time>2026-04-08T08:57:45Z</time></trkpt><trkpt lat="40.61451044801941" lon="15.686983328198766"><ele>871.0</ele><time>2026-04-08T08:57:46Z</time></trkpt><trkpt lat="40.614440667690154" lon="15.68702679702308"><ele>871.0</ele><time>2026-04-08T08:57:47Z</time></trkpt><trkpt lat="40.61436856121342" lon="15.687068166789137"><ele>871.0</ele><time>2026-04-08T08:57:48Z</time></trkpt><trkpt lat="40.614294083611874" lon="15.687101253926985"><ele>870.9999999999999</ele><time>2026-04-08T08:57:49Z</time></trkpt><trkpt lat="40.61420870580782" lon="15.687134267902431"><ele>871.0</ele><time>2026-04-08T08:57:50Z</time></trkpt><trkpt lat="40.61412158543892" lon="15.687173550721335"><ele>869.5999999999999</ele><time>2026-04-08T08:57:51Z</time></trkpt><trkpt lat="40.61404408126452" lon="15.68725941146066"><ele>868.1999999999999</ele><time>2026-04-08T08:57:52Z</time></trkpt><trkpt lat="40.61395309537068" lon="15.68729296900553"><ele>866.8000000000001</ele><time>2026-04-08T08:57:53Z</time></trkpt><trkpt lat="40.61385343293632" lon="15.687323825319877"><ele>865.4000000000001</ele><time>2026-04-08T08:57:54Z</time></trkpt><trkpt lat="40.61375139592507" lon="15.687342715810928"><ele>864.0</ele><time>2026-04-08T08:57:55Z</time></trkpt><trkpt lat="40.613648014647275" lon="15.687356262744265"><ele>861.4000000000001</ele><time>2026-04-08T08:57:56Z</time></trkpt><trkpt lat="40.6135447981689" lon="15.687366096057318"><ele>858.8000000000001</ele><time>2026-04-08T08:57:57Z</time></trkpt><trkpt lat="40.61344093661293" lon="15.687377462650613"><ele>856.2</ele><time>2026-04-08T08:57:58Z</time></trkpt><trkpt lat="40.61334063485215" lon="15.687392739262037"><ele>853.5999999999999</ele><time>2026-04-08T08:57:59Z</time></trkpt><trkpt lat="40.61323924503849" lon="15.687415237180131"><ele>851.0</ele><time>2026-04-08T08:58:00Z</time></trkpt><trkpt lat="40.61314166702572" lon="15.687433353047606"><ele>851.0</ele><time>2026-04-08T08:58:01Z</time></trkpt><trkpt lat="40.613043633383654" lon="15.687457493113055"><ele>851.0</ele><time>2026-04-08T08:58:02Z</time></trkpt><trkpt lat="40.61294438526457" lon="15.687480180424636"><ele>851.0</ele><time>2026-04-08T08:58:03Z</time></trkpt><trkpt lat="40.61284464062571" lon="15.687501184273332"><ele>851.0</ele><time>2026-04-08T08:58:04Z</time></trkpt><trkpt lat="40.612745237003146" lon="15.687519280125409"><ele>851.0</ele><time>2026-04-08T08:58:05Z</time></trkpt><trkpt lat="40.61264755317974" lon="15.687540343320583"><ele>850.1999999999999</ele><time>2026-04-08T08:58:06Z</time></trkpt><trkpt lat="40.61254638508555" lon="15.687566382599286"><ele>849.4</ele><time>2026-04-08T08:58:06.999Z</time></trkpt><trkpt lat="40.61245109109894" lon="15.687584431193612"><ele>848.6</ele><time>2026-04-08T08:58:07.999Z</time></trkpt><trkpt lat="40.612352094899194" lon="15.687604387178776"><ele>847.8</ele><time>2026-04-08T08:58:08.999Z</time></trkpt><trkpt lat="40.612260604859685" lon="15.687630334807945"><ele>847.0</ele><time>2026-04-08T08:58:09.999Z</time></trkpt><trkpt lat="40.612172336719354" lon="15.687667249503283"><ele>847.0</ele><time>2026-04-08T08:58:10.999Z</time></trkpt><trkpt lat="40.612081427846235" lon="15.687698289775694"><ele>847.0</ele><time>2026-04-08T08:58:11.999Z</time></trkpt><trkpt lat="40.61198791722812" lon="15.68771957603151"><ele>847.0</ele><time>2026-04-08T08:58:12.999Z</time></trkpt><trkpt lat="40.61188149297897" lon="15.687929874469024"><ele>847.0</ele><time>2026-04-08T08:58:13.999Z</time></trkpt><trkpt lat="40.611800626466625" lon="15.687920927825544"><ele>844.9999999999999</ele><time>2026-04-08T08:58:14.999Z</time></trkpt><trkpt lat="40.6117140316262" lon="15.687916374867758"><ele>843.0</ele><time>2026-04-08T08:58:15.999Z</time></trkpt><trkpt lat="40.61162676598241" lon="15.68791552505303"><ele>841.0</ele><time>2026-04-08T08:58:16.999Z</time></trkpt><trkpt lat="40.61153710216713" lon="15.687920495944356"><ele>839.0</ele><time>2026-04-08T08:58:17.999Z</time></trkpt><trkpt lat="40.611447340811644" lon="15.687933158175106"><ele>836.9999999999999</ele><time>2026-04-08T08:58:18.999Z</time></trkpt><trkpt lat="40.61135900417879" lon="15.687957014118693"><ele>835.0</ele><time>2026-04-08T08:58:19.999Z</time></trkpt><trkpt lat="40.611273883341156" lon="15.688005924824585"><ele>834.9999999999999</ele><time>2026-04-08T08:58:20.999Z</time></trkpt><trkpt lat="40.61119495460908" lon="15.688040738696982"><ele>835.0</ele><time>2026-04-08T08:58:21.999Z</time></trkpt><trkpt lat="40.61111755833745" lon="15.688073243032052"><ele>835.0</ele><time>2026-04-08T08:58:22.999Z</time></trkpt><trkpt lat="40.61104507185144" lon="15.688109218097013"><ele>835.0</ele><time>2026-04-08T08:58:23.999Z</time></trkpt><trkpt lat="40.610986388343214" lon="15.688147706391128"><ele>834.9999999999999</ele><time>2026-04-08T08:58:24.999Z</time></trkpt><trkpt lat="40.610903383551765" lon="15.688218232742994"><ele>835.0</ele><time>2026-04-08T08:58:26.999Z</time></trkpt><trkpt lat="40.61084445310082" lon="15.688299120504784"><ele>834.75</ele><time>2026-04-08T08:58:28.999Z</time></trkpt><trkpt lat="40.610720272403796" lon="15.688394871841206"><ele>834.5</ele><time>2026-04-08T08:58:30.999Z</time></trkpt><trkpt lat="40.61063003393296" lon="15.688465411220632"><ele>834.25</ele><time>2026-04-08T08:58:31.999Z</time></trkpt><trkpt lat="40.610521939025034" lon="15.6885414214359"><ele>834.0</ele><time>2026-04-08T08:58:32.999Z</time></trkpt><trkpt lat="40.61039928868979" lon="15.688622290793782"><ele>831.3333333333333</ele><time>2026-04-08T08:58:33.999Z</time></trkpt><trkpt lat="40.6102717508077" lon="15.688711800357696"><ele>828.6666666666666</ele><time>2026-04-08T08:58:34.999Z</time></trkpt><trkpt lat="40.61014209624232" lon="15.688813720561935"><ele>826.0</ele><time>2026-04-08T08:58:35.999Z</time></trkpt><trkpt lat="40.61000662594573" lon="15.68891452551855"><ele>826.0</ele><time>2026-04-08T08:58:36.999Z</time></trkpt><trkpt lat="40.609865523848214" lon="15.689020451986224"><ele>826.0</ele><time>2026-04-08T08:58:37.999Z</time></trkpt><trkpt lat="40.60971646302111" lon="15.689126697494702"><ele>826.0</ele><time>2026-04-08T08:58:38.999Z</time></trkpt><trkpt lat="40.609566034115545" lon="15.689233679507861"><ele>825.0</ele><time>2026-04-08T08:58:39.999Z</time></trkpt><trkpt lat="40.60939967468054" lon="15.689316773607004"><ele>824.0</ele><time>2026-04-08T08:58:40.999Z</time></trkpt><trkpt lat="40.609245506092684" lon="15.68941687806395"><ele>823.0</ele><time>2026-04-08T08:58:41.999Z</time></trkpt><trkpt lat="40.609091549110495" lon="15.689514240425549"><ele>823.0</ele><time>2026-04-08T08:58:42.999Z</time></trkpt><trkpt lat="40.60894163627893" lon="15.689607259689964"><ele>823.0</ele><time>2026-04-08T08:58:43.999Z</time></trkpt><trkpt lat="40.60880156781857" lon="15.689686772764759"><ele>823.0</ele><time>2026-04-08T08:58:44.999Z</time></trkpt><trkpt lat="40.60865864815006" lon="15.689764327646675"><ele>821.75</ele><time>2026-04-08T08:58:45.999Z</time></trkpt><trkpt lat="40.60851498398858" lon="15.68983995451556"><ele>820.5</ele><time>2026-04-08T08:58:46.999Z</time></trkpt><trkpt lat="40.608376727637676" lon="15.689912106832972"><ele>819.25</ele><time>2026-04-08T08:58:47.999Z</time></trkpt><trkpt lat="40.60824875871729" lon="15.68998032434097"><ele>818.0</ele><time>2026-04-08T08:58:48.999Z</time></trkpt><trkpt lat="40.60813651885367" lon="15.690061481666671"><ele>818.0</ele><time>2026-04-08T08:58:49.999Z</time></trkpt><trkpt lat="40.60802255782843" lon="15.690117821238628"><ele>818.0</ele><time>2026-04-08T08:58:50.999Z</time></trkpt><trkpt lat="40.607898709371696" lon="15.690155052706533"><ele>818.0</ele><time>2026-04-08T08:58:51.999Z</time></trkpt><trkpt lat="40.60777758491402" lon="15.69020557194819"><ele>818.0</ele><time>2026-04-08T08:58:52.999Z</time></trkpt><trkpt lat="40.60765880650201" lon="15.69027583077232"><ele>818.0</ele><time>2026-04-08T08:58:53.999Z</time></trkpt><trkpt lat="40.6075311038596" lon="15.690326422078627"><ele>818.0</ele><time>2026-04-08T08:58:54.999Z</time></trkpt><trkpt lat="40.60739503964177" lon="15.690354502406674"><ele>818.0</ele><time>2026-04-08T08:58:55.999Z</time></trkpt><trkpt lat="40.60725982507162" lon="15.690402390906554"><ele>818.0</ele><time>2026-04-08T08:58:56.999Z</time></trkpt><trkpt lat="40.607126215645025" lon="15.69046986246926"><ele>818.5</ele><time>2026-04-08T08:58:57.999Z</time></trkpt><trkpt lat="40.60698619725119" lon="15.690515281884974"><ele>819.0</ele><time>2026-04-08T08:58:58.999Z</time></trkpt><trkpt lat="40.60684572640787" lon="15.690560223837217"><ele>819.5</ele><time>2026-04-08T08:58:59.999Z</time></trkpt><trkpt lat="40.60670323869987" lon="15.690600688467958"><ele>820.0</ele><time>2026-04-08T08:59:00.999Z</time></trkpt><trkpt lat="40.60656054948686" lon="15.690640738030675"><ele>820.0</ele><time>2026-04-08T08:59:01.999Z</time></trkpt><trkpt lat="40.606417596472824" lon="15.690680494360043"><ele>820.0</ele><time>2026-04-08T08:59:02.999Z</time></trkpt><trkpt lat="40.60627286712134" lon="15.690710539432581"><ele>820.0</ele><time>2026-04-08T08:59:03.999Z</time></trkpt><trkpt lat="40.60612658844315" lon="15.690735551782126"><ele>820.0</ele><time>2026-04-08T08:59:04.999Z</time></trkpt><trkpt lat="40.60598300790722" lon="15.690758634979312"><ele>820.5</ele><time>2026-04-08T08:59:05.999Z</time></trkpt><trkpt lat="40.605841615382175" lon="15.690781338789959"><ele>821.0</ele><time>2026-04-08T08:59:06.999Z</time></trkpt><trkpt lat="40.605701495936245" lon="15.690805539214933"><ele>821.5</ele><time>2026-04-08T08:59:07.999Z</time></trkpt><trkpt lat="40.60555946355305" lon="15.690827894584242"><ele>822.0</ele><time>2026-04-08T08:59:08.999Z</time></trkpt><trkpt lat="40.605414867623146" lon="15.690825012819417"><ele>822.25</ele><time>2026-04-08T08:59:09.999Z</time></trkpt><trkpt lat="40.605270745715785" lon="15.690840034610886"><ele>822.5</ele><time>2026-04-08T08:59:10.999Z</time></trkpt><trkpt lat="40.60512711081807" lon="15.690853449789214"><ele>822.75</ele><time>2026-04-08T08:59:11.999Z</time></trkpt><trkpt lat="40.60498302472356" lon="15.690881930862812"><ele>823.0</ele><time>2026-04-08T08:59:12.999Z</time></trkpt><trkpt lat="40.6048356274607" lon="15.690887075136876"><ele>823.0</ele><time>2026-04-08T08:59:13.999Z</time></trkpt><trkpt lat="40.604687400672084" lon="15.6908917989073"><ele>823.0</ele><time>2026-04-08T08:59:14.999Z</time></trkpt><trkpt lat="40.60453585977635" lon="15.690895660504019"><ele>823.0</ele><time>2026-04-08T08:59:15.999Z</time></trkpt><trkpt lat="40.604384875714935" lon="15.690891081978144"><ele>823.5</ele><time>2026-04-08T08:59:16.999Z</time></trkpt><trkpt lat="40.60423572676895" lon="15.69088372381739"><ele>824.0</ele><time>2026-04-08T08:59:17.999Z</time></trkpt><trkpt lat="40.60408691918793" lon="15.69087381086912"><ele>824.5</ele><time>2026-04-08T08:59:18.999Z</time></trkpt><trkpt lat="40.6039379057228" lon="15.690840010295114"><ele>825.0</ele><time>2026-04-08T08:59:19.999Z</time></trkpt><trkpt lat="40.60379072810818" lon="15.6908268240628"><ele>825.25</ele><time>2026-04-08T08:59:20.999Z</time></trkpt><trkpt lat="40.60364418198808" lon="15.690812435775754"><ele>825.5</ele><time>2026-04-08T08:59:21.999Z</time></trkpt><trkpt lat="40.60350258147452" lon="15.690798533057276"><ele>825.75</ele><time>2026-04-08T08:59:22.999Z</time></trkpt><trkpt lat="40.60336473688568" lon="15.690784205271086"><ele>826.0</ele><time>2026-04-08T08:59:23.999Z</time></trkpt><trkpt lat="40.60323693203572" lon="15.690770539188705"><ele>826.0</ele><time>2026-04-08T08:59:24.999Z</time></trkpt><trkpt lat="40.60311417951082" lon="15.69077688184614"><ele>826.0</ele><time>2026-04-08T08:59:25.999Z</time></trkpt><trkpt lat="40.603000720212755" lon="15.690762964131752"><ele>826.0</ele><time>2026-04-08T08:59:27Z</time></trkpt><trkpt lat="40.602886072683845" lon="15.690748496075146"><ele>826.0</ele><time>2026-04-08T08:59:28Z</time></trkpt><trkpt lat="40.60277073755554" lon="15.690736399402073"><ele>825.25</ele><time>2026-04-08T08:59:29Z</time></trkpt><trkpt lat="40.60265232815054" lon="15.690724608923553"><ele>824.5</ele><time>2026-04-08T08:59:30Z</time></trkpt><trkpt lat="40.60253180291836" lon="15.690710188626207"><ele>823.75</ele><time>2026-04-08T08:59:31Z</time></trkpt><trkpt lat="40.60241104130541" lon="15.690696510420496"><ele>823.0</ele><time>2026-04-08T08:59:32Z</time></trkpt><trkpt lat="40.602290531739186" lon="15.690687130538508"><ele>823.0</ele><time>2026-04-08T08:59:33Z</time></trkpt><trkpt lat="40.602177744331435" lon="15.69068149159121"><ele>823.0</ele><time>2026-04-08T08:59:34Z</time></trkpt><trkpt lat="40.60206928211192" lon="15.690677145095698"><ele>823.0</ele><time>2026-04-08T08:59:35Z</time></trkpt><trkpt lat="40.60196263547075" lon="15.690670482636044"><ele>823.0</ele><time>2026-04-08T08:59:36Z</time></trkpt><trkpt lat="40.60186495413942" lon="15.690659052346302"><ele>823.0</ele><time>2026-04-08T08:59:37Z</time></trkpt><trkpt lat="40.60177842397382" lon="15.690599490400833"><ele>822.1666666666666</ele><time>2026-04-08T08:59:38Z</time></trkpt><trkpt lat="40.601695603845634" lon="15.690589755556207"><ele>821.3333333333333</ele><time>2026-04-08T08:59:39Z</time></trkpt><trkpt lat="40.601618533404945" lon="15.690580695068931"><ele>820.5</ele><time>2026-04-08T08:59:40Z</time></trkpt><trkpt lat="40.60154827006311" lon="15.690572434833372"><ele>819.6666666666667</ele><time>2026-04-08T08:59:41Z</time></trkpt><trkpt lat="40.60147930360332" lon="15.690564327159814"><ele>818.8333333333334</ele><time>2026-04-08T08:59:42Z</time></trkpt><trkpt lat="40.60141473252176" lon="15.690557939362417"><ele>818.0</ele><time>2026-04-08T08:59:43Z</time></trkpt><trkpt lat="40.601282986093835" lon="15.69074885143872"><ele>818.0000000000001</ele><time>2026-04-08T08:59:45Z</time></trkpt><trkpt lat="40.601239653921326" lon="15.690842212028665"><ele>818.0</ele><time>2026-04-08T08:59:46Z</time></trkpt><trkpt lat="40.60123642878938" lon="15.690957250392497"><ele>818.0</ele><time>2026-04-08T08:59:47Z</time></trkpt><trkpt lat="40.60124773732998" lon="15.69105228521792"><ele>818.0</ele><time>2026-04-08T08:59:48Z</time></trkpt><trkpt lat="40.60129469172836" lon="15.691144676093925"><ele>818.0000000000001</ele><time>2026-04-08T08:59:49Z</time></trkpt><trkpt lat="40.60133821910455" lon="15.691236751887715"><ele>818.0</ele><time>2026-04-08T08:59:50Z</time></trkpt><trkpt lat="40.60139221487644" lon="15.69132053101695"><ele>818.0000000000001</ele><time>2026-04-08T08:59:51Z</time></trkpt><trkpt lat="40.60144605520363" lon="15.69139428497138"><ele>818.0</ele><time>2026-04-08T08:59:52Z</time></trkpt><trkpt lat="40.60151062457938" lon="15.691439387239445"><ele>818.0</ele><time>2026-04-08T08:59:53Z</time></trkpt><trkpt lat="40.60154591182743" lon="15.69152306948906"><ele>818.0</ele><time>2026-04-08T08:59:54Z</time></trkpt><trkpt lat="40.601591158322435" lon="15.6915821441619"><ele>818.0000000000001</ele><time>2026-04-08T08:59:55Z</time></trkpt><trkpt lat="40.60168297307615" lon="15.691695516996626"><ele>818.0</ele><time>2026-04-08T08:59:57Z</time></trkpt><trkpt lat="40.601770415790256" lon="15.691806694944415"><ele>817.2</ele><time>2026-04-08T08:59:59Z</time></trkpt><trkpt lat="40.60185712691721" lon="15.691926448665475"><ele>816.4</ele><time>2026-04-08T09:00:01Z</time></trkpt><trkpt lat="40.60190790577141" lon="15.691991497417508"><ele>815.6</ele><time>2026-04-08T09:00:02Z</time></trkpt><trkpt lat="40.60196522307868" lon="15.692068716023012"><ele>814.8000000000001</ele><time>2026-04-08T09:00:03Z</time></trkpt><trkpt lat="40.602030848930404" lon="15.692153973502755"><ele>814.0</ele><time>2026-04-08T09:00:04Z</time></trkpt><trkpt lat="40.6021002167477" lon="15.692244604832544"><ele>813.9999999999999</ele><time>2026-04-08T09:00:05Z</time></trkpt><trkpt lat="40.60216359701457" lon="15.692323657494638"><ele>814.0</ele><time>2026-04-08T09:00:06Z</time></trkpt><trkpt lat="40.602215999667735" lon="15.692383158240267"><ele>814.0</ele><time>2026-04-08T09:00:07Z</time></trkpt><trkpt lat="40.60226483482891" lon="15.692436172628739"><ele>814.0</ele><time>2026-04-08T09:00:08Z</time></trkpt><trkpt lat="40.60235597621367" lon="15.692552460805256"><ele>813.9999999999999</ele><time>2026-04-08T09:00:09.999Z</time></trkpt><trkpt lat="40.6024016198057" lon="15.692619167315105"><ele>814.0</ele><time>2026-04-08T09:00:10.999Z</time></trkpt><trkpt lat="40.602452198138984" lon="15.69268386164127"><ele>813.9999999999999</ele><time>2026-04-08T09:00:11.999Z</time></trkpt><trkpt lat="40.602506858600066" lon="15.692747454747716"><ele>814.0</ele><time>2026-04-08T09:00:12.999Z</time></trkpt><trkpt lat="40.602560854642384" lon="15.692814238648605"><ele>814.0</ele><time>2026-04-08T09:00:13.999Z</time></trkpt><trkpt lat="40.60261430232925" lon="15.692888935934267"><ele>814.0</ele><time>2026-04-08T09:00:14.999Z</time></trkpt><trkpt lat="40.602668103472105" lon="15.692967126916214"><ele>813.9999999999999</ele><time>2026-04-08T09:00:15.999Z</time></trkpt><trkpt lat="40.602724152605" lon="15.69304420682408"><ele>814.0</ele><time>2026-04-08T09:00:16.999Z</time></trkpt><trkpt lat="40.60277847550936" lon="15.693117711304984"><ele>813.6666666666666</ele><time>2026-04-08T09:00:17.999Z</time></trkpt><trkpt lat="40.602829025881505" lon="15.693189210484483"><ele>813.3333333333333</ele><time>2026-04-08T09:00:18.999Z</time></trkpt><trkpt lat="40.602869721704245" lon="15.693252813518574"><ele>813.0</ele><time>2026-04-08T09:00:19.999Z</time></trkpt><trkpt lat="40.602935776734036" lon="15.693366317122404"><ele>812.6666666666667</ele><time>2026-04-08T09:00:21.999Z</time></trkpt><trkpt lat="40.60298307966603" lon="15.693459790656808"><ele>812.3333333333334</ele><time>2026-04-08T09:00:23.999Z</time></trkpt><trkpt lat="40.603026282147674" lon="15.693557771550061"><ele>812.0</ele><time>2026-04-08T09:00:25.999Z</time></trkpt><trkpt lat="40.60307682492346" lon="15.693683671482724"><ele>811.3333333333334</ele><time>2026-04-08T09:00:27.999Z</time></trkpt><trkpt lat="40.603115847475294" lon="15.693833069404583"><ele>810.6666666666667</ele><time>2026-04-08T09:00:29.999Z</time></trkpt><trkpt lat="40.60315452265035" lon="15.693985231100434"><ele>810.0</ele><time>2026-04-08T09:00:31.999Z</time></trkpt><trkpt lat="40.60317232822434" lon="15.69406724875676"><ele>809.3333333333333</ele><time>2026-04-08T09:00:32.999Z</time></trkpt><trkpt lat="40.60319031046415" lon="15.694157159977344"><ele>808.6666666666666</ele><time>2026-04-08T09:00:33.999Z</time></trkpt><trkpt lat="40.60320519315985" lon="15.694250388858164"><ele>808.0</ele><time>2026-04-08T09:00:34.999Z</time></trkpt><trkpt lat="40.603217698290145" lon="15.694346931501215"><ele>807.5714285714286</ele><time>2026-04-08T09:00:35.999Z</time></trkpt><trkpt lat="40.603228437157405" lon="15.69444674083224"><ele>807.1428571428571</ele><time>2026-04-08T09:00:36.999Z</time></trkpt><trkpt lat="40.60323780081555" lon="15.694549267865536"><ele>806.7142857142858</ele><time>2026-04-08T09:00:37.999Z</time></trkpt><trkpt lat="40.603246381809335" lon="15.694649127035806"><ele>806.2857142857142</ele><time>2026-04-08T09:00:38.999Z</time></trkpt><trkpt lat="40.603254607967884" lon="15.694744856437197"><ele>805.8571428571429</ele><time>2026-04-08T09:00:39.999Z</time></trkpt><trkpt lat="40.6032776679183" lon="15.694832569376535"><ele>805.4285714285714</ele><time>2026-04-08T09:00:40.999Z</time></trkpt><trkpt lat="40.60326744628527" lon="15.694918712861922"><ele>805.0</ele><time>2026-04-08T09:00:41.999Z</time></trkpt><trkpt lat="40.603277358064204" lon="15.695050097431581"><ele>804.9999999999999</ele><time>2026-04-08T09:00:43.999Z</time></trkpt><trkpt lat="40.60328545523039" lon="15.695157428739119"><ele>805.0</ele><time>2026-04-08T09:00:45.999Z</time></trkpt><trkpt lat="40.60329496958321" lon="15.695283545258633"><ele>805.0</ele><time>2026-04-08T09:00:48.999Z</time></trkpt><trkpt lat="40.60332738532563" lon="15.69542699029358"><ele>805.0</ele><time>2026-04-08T09:00:50.999Z</time></trkpt><trkpt lat="40.603332883154174" lon="15.695526773611036"><ele>804.9999999999999</ele><time>2026-04-08T09:00:51.999Z</time></trkpt><trkpt lat="40.603338885419454" lon="15.69562668322992"><ele>805.0</ele><time>2026-04-08T09:00:52.999Z</time></trkpt><trkpt lat="40.60334223422262" lon="15.695722636205712"><ele>804.0</ele><time>2026-04-08T09:00:53.999Z</time></trkpt><trkpt lat="40.60334719806326" lon="15.695810134528134"><ele>803.0</ele><time>2026-04-08T09:00:54.999Z</time></trkpt><trkpt lat="40.60334465227516" lon="15.695947188471035"><ele>802.0</ele><time>2026-04-08T09:00:56.999Z</time></trkpt><trkpt lat="40.60355496164112" lon="15.696262833474195"><ele>802.0</ele><time>2026-04-08T09:00:59.999Z</time></trkpt><trkpt lat="40.603624780942575" lon="15.696262711603323"><ele>802.0</ele><time>2026-04-08T09:01:01.999Z</time></trkpt><trkpt lat="40.60352581458442" lon="15.696007501949147"><ele>802.0</ele><time>2026-04-08T09:01:20.999Z</time></trkpt><trkpt lat="40.60351255046326" lon="15.695910118131374"><ele>802.0</ele><time>2026-04-08T09:01:41Z</time></trkpt><trkpt lat="40.603612204047025" lon="15.695853259601156"><ele>802.0</ele><time>2026-04-08T09:02:01Z</time></trkpt><trkpt lat="40.60356558404822" lon="15.695925279106179"><ele>802.0</ele><time>2026-04-08T09:02:09Z</time></trkpt><trkpt lat="40.603576563507644" lon="15.696010118719489"><ele>802.0</ele><time>2026-04-08T09:02:13.999Z</time></trkpt><trkpt lat="40.60356065237046" lon="15.69592691403151"><ele>802.0</ele><time>2026-04-08T09:15:43.999Z</time></trkpt><trkpt lat="40.603546586895504" lon="15.695834808203053"><ele>802.0</ele><time>2026-04-08T09:15:55.999Z</time></trkpt><trkpt lat="40.60352415617772" lon="15.695918990818269"><ele>802.0</ele><time>2026-04-08T09:18:18.999Z</time></trkpt><trkpt lat="40.60345785513388" lon="15.695944409614677"><ele>802.0</ele><time>2026-04-08T09:18:22.999Z</time></trkpt><trkpt lat="40.603367677683984" lon="15.695626179319909"><ele>801.9999999999999</ele><time>2026-04-08T09:18:30Z</time></trkpt><trkpt lat="40.603351140953166" lon="15.695474529573112"><ele>802.0</ele><time>2026-04-08T09:18:32Z</time></trkpt><trkpt lat="40.603351603313556" lon="15.695387221714075"><ele>802.0</ele><time>2026-04-08T09:18:33Z</time></trkpt><trkpt lat="40.60334365754639" lon="15.695284689206696"><ele>802.0</ele><time>2026-04-08T09:18:34Z</time></trkpt><trkpt lat="40.6033365911856" lon="15.695171798981628"><ele>801.9999999999999</ele><time>2026-04-08T09:18:35Z</time></trkpt><trkpt lat="40.60332826025267" lon="15.695057143910468"><ele>802.0</ele><time>2026-04-08T09:18:36Z</time></trkpt><trkpt lat="40.603322354695656" lon="15.69493784659018"><ele>802.6</ele><time>2026-04-08T09:18:36.999Z</time></trkpt><trkpt lat="40.60331272068189" lon="15.694811570682244"><ele>803.2</ele><time>2026-04-08T09:18:37.999Z</time></trkpt><trkpt lat="40.60330080928868" lon="15.694681217903012"><ele>803.8</ele><time>2026-04-08T09:18:38.999Z</time></trkpt><trkpt lat="40.60329123895506" lon="15.694546962057432"><ele>804.4</ele><time>2026-04-08T09:18:39.999Z</time></trkpt><trkpt lat="40.60327659876304" lon="15.694414155615997"><ele>805.0</ele><time>2026-04-08T09:18:40.999Z</time></trkpt><trkpt lat="40.60325872681459" lon="15.694284170355377"><ele>805.6</ele><time>2026-04-08T09:18:41.999Z</time></trkpt><trkpt lat="40.603242153982386" lon="15.69415594623437"><ele>806.2</ele><time>2026-04-08T09:18:42.999Z</time></trkpt><trkpt lat="40.60321526916732" lon="15.694022415817638"><ele>806.8</ele><time>2026-04-08T09:18:43.999Z</time></trkpt><trkpt lat="40.603180216179936" lon="15.693889919141357"><ele>807.4</ele><time>2026-04-08T09:18:44.999Z</time></trkpt><trkpt lat="40.60313526242503" lon="15.693759767554246"><ele>808.0</ele><time>2026-04-08T09:18:45.999Z</time></trkpt><trkpt lat="40.603080090990716" lon="15.693634367707762"><ele>807.5999999999999</ele><time>2026-04-08T09:18:46.999Z</time></trkpt><trkpt lat="40.60303300362026" lon="15.693510567665673"><ele>807.1999999999999</ele><time>2026-04-08T09:18:47.999Z</time></trkpt><trkpt lat="40.60297146171223" lon="15.69339231197487"><ele>806.8</ele><time>2026-04-08T09:18:48.999Z</time></trkpt><trkpt lat="40.60290300307905" lon="15.693278036111433"><ele>806.4</ele><time>2026-04-08T09:18:49.999Z</time></trkpt><trkpt lat="40.60283317250469" lon="15.69315829928316"><ele>806.0</ele><time>2026-04-08T09:18:50.999Z</time></trkpt><trkpt lat="40.60275567989251" lon="15.693040713549951"><ele>806.0</ele><time>2026-04-08T09:18:51.999Z</time></trkpt><trkpt lat="40.60266791978377" lon="15.692921377018676"><ele>806.0</ele><time>2026-04-08T09:18:52.999Z</time></trkpt><trkpt lat="40.60257962701852" lon="15.6927980797738"><ele>806.0</ele><time>2026-04-08T09:18:53.999Z</time></trkpt><trkpt lat="40.602490013730176" lon="15.692673985868552"><ele>806.0</ele><time>2026-04-08T09:18:54.999Z</time></trkpt><trkpt lat="40.60239755665235" lon="15.692556944200133"><ele>807.3333333333334</ele><time>2026-04-08T09:18:55.999Z</time></trkpt><trkpt lat="40.60231770002146" lon="15.69246206089933"><ele>808.6666666666667</ele><time>2026-04-08T09:18:56.999Z</time></trkpt><trkpt lat="40.60225106551236" lon="15.692377510110516"><ele>810.0</ele><time>2026-04-08T09:18:57.999Z</time></trkpt><trkpt lat="40.60219608239835" lon="15.692305846961743"><ele>811.3333333333333</ele><time>2026-04-08T09:18:58.999Z</time></trkpt><trkpt lat="40.60215238344266" lon="15.692245561305564"><ele>812.6666666666666</ele><time>2026-04-08T09:18:59.999Z</time></trkpt><trkpt lat="40.602079344105256" lon="15.692158539247531"><ele>814.0</ele><time>2026-04-08T09:19:01.999Z</time></trkpt><trkpt lat="40.60199979422688" lon="15.692070754424453"><ele>814.0</ele><time>2026-04-08T09:19:03.999Z</time></trkpt><trkpt lat="40.60192234824992" lon="15.691952374229967"><ele>814.0</ele><time>2026-04-08T09:19:05.999Z</time></trkpt><trkpt lat="40.60171253425279" lon="15.691977695336922"><ele>814.0</ele><time>2026-04-08T09:19:07.999Z</time></trkpt><trkpt lat="40.60162268453715" lon="15.6919411314557"><ele>814.0</ele><time>2026-04-08T09:19:08.999Z</time></trkpt><trkpt lat="40.601522710556694" lon="15.691927462413249"><ele>814.0</ele><time>2026-04-08T09:19:09.999Z</time></trkpt><trkpt lat="40.60141587512145" lon="15.691970093615595"><ele>814.0</ele><time>2026-04-08T09:19:10.999Z</time></trkpt><trkpt lat="40.601291103694685" lon="15.69200982476295"><ele>814.0</ele><time>2026-04-08T09:19:11.999Z</time></trkpt><trkpt lat="40.60120889908801" lon="15.692145478679771"><ele>814.0</ele><time>2026-04-08T09:19:12.999Z</time></trkpt><trkpt lat="40.601135506474236" lon="15.692268760402175"><ele>816.75</ele><time>2026-04-08T09:19:13.999Z</time></trkpt><trkpt lat="40.601044302047065" lon="15.69235836078569"><ele>819.5</ele><time>2026-04-08T09:19:14.999Z</time></trkpt><trkpt lat="40.60093829828016" lon="15.6924135102053"><ele>822.25</ele><time>2026-04-08T09:19:15.999Z</time></trkpt><trkpt lat="40.60081610986393" lon="15.692462488986036"><ele>825.0</ele><time>2026-04-08T09:19:16.999Z</time></trkpt><trkpt lat="40.60068708171098" lon="15.692508088830577"><ele>825.0</ele><time>2026-04-08T09:19:17.999Z</time></trkpt><trkpt lat="40.60055874548512" lon="15.69255441393918"><ele>825.0</ele><time>2026-04-08T09:19:18.999Z</time></trkpt><trkpt lat="40.60042321764208" lon="15.6926010823552"><ele>825.0</ele><time>2026-04-08T09:19:19.999Z</time></trkpt><trkpt lat="40.60029574951337" lon="15.692638413873011"><ele>825.0</ele><time>2026-04-08T09:19:20.999Z</time></trkpt><trkpt lat="40.60017191436444" lon="15.69265337125421"><ele>825.75</ele><time>2026-04-08T09:19:21.999Z</time></trkpt><trkpt lat="40.60005735767941" lon="15.692604136423085"><ele>826.5</ele><time>2026-04-08T09:19:22.999Z</time></trkpt><trkpt lat="40.59995038944475" lon="15.69252505926391"><ele>827.25</ele><time>2026-04-08T09:19:23.999Z</time></trkpt><trkpt lat="40.599849303580946" lon="15.692426465863239"><ele>828.0</ele><time>2026-04-08T09:19:24.999Z</time></trkpt><trkpt lat="40.59975733575542" lon="15.692315756137326"><ele>828.0</ele><time>2026-04-08T09:19:25.999Z</time></trkpt><trkpt lat="40.59968157435574" lon="15.692175023697155"><ele>828.0</ele><time>2026-04-08T09:19:26.999Z</time></trkpt><trkpt lat="40.599619867035024" lon="15.692019395101925"><ele>828.0</ele><time>2026-04-08T09:19:27.999Z</time></trkpt><trkpt lat="40.599557733627506" lon="15.69185592035275"><ele>828.0</ele><time>2026-04-08T09:19:28.999Z</time></trkpt><trkpt lat="40.59949870904943" lon="15.691706304463498"><ele>827.5999999999999</ele><time>2026-04-08T09:19:29.999Z</time></trkpt><trkpt lat="40.59945448043653" lon="15.691558702090694"><ele>827.1999999999999</ele><time>2026-04-08T09:19:30.999Z</time></trkpt><trkpt lat="40.599429615322556" lon="15.69143700143871"><ele>826.8</ele><time>2026-04-08T09:19:31.999Z</time></trkpt><trkpt lat="40.59941827120864" lon="15.691345371685566"><ele>826.4</ele><time>2026-04-08T09:19:32.999Z</time></trkpt><trkpt lat="40.599388606545496" lon="15.691244662548902"><ele>826.0</ele><time>2026-04-08T09:19:34.999Z</time></trkpt><trkpt lat="40.599295477170394" lon="15.691382337752225"><ele>826.0</ele><time>2026-04-08T09:19:38.999Z</time></trkpt><trkpt lat="40.59931275622961" lon="15.691519077506772"><ele>826.0</ele><time>2026-04-08T09:19:40.999Z</time></trkpt><trkpt lat="40.59933970459248" lon="15.691684576208422"><ele>826.0</ele><time>2026-04-08T09:19:42.999Z</time></trkpt><trkpt lat="40.599369968310356" lon="15.691788863066803"><ele>826.0</ele><time>2026-04-08T09:19:43.999Z</time></trkpt><trkpt lat="40.59940840701704" lon="15.691885392971148"><ele>826.0</ele><time>2026-04-08T09:19:44.999Z</time></trkpt><trkpt lat="40.59945523383736" lon="15.691989713469221"><ele>826.4</ele><time>2026-04-08T09:19:45.999Z</time></trkpt><trkpt lat="40.5995049166865" lon="15.692102776924026"><ele>826.8</ele><time>2026-04-08T09:19:46.999Z</time></trkpt><trkpt lat="40.59955398359414" lon="15.69221917765078"><ele>827.1999999999999</ele><time>2026-04-08T09:19:47.999Z</time></trkpt><trkpt lat="40.59959360433303" lon="15.692335898371397"><ele>827.5999999999999</ele><time>2026-04-08T09:19:48.999Z</time></trkpt><trkpt lat="40.59960280482533" lon="15.692446009901252"><ele>828.0</ele><time>2026-04-08T09:19:49.999Z</time></trkpt><trkpt lat="40.59959009125159" lon="15.692539937553066"><ele>828.0</ele><time>2026-04-08T09:19:50.999Z</time></trkpt><trkpt lat="40.599565955514905" lon="15.692637965806187"><ele>828.0</ele><time>2026-04-08T09:19:51.999Z</time></trkpt><trkpt lat="40.59945267074777" lon="15.69265832493749"><ele>828.0</ele><time>2026-04-08T09:19:52.999Z</time></trkpt><trkpt lat="40.59935762018766" lon="15.692727563466294"><ele>828.0</ele><time>2026-04-08T09:19:53.999Z</time></trkpt><trkpt lat="40.59925162598267" lon="15.692804773837691"><ele>828.0</ele><time>2026-04-08T09:19:54.999Z</time></trkpt><trkpt lat="40.5991131987314" lon="15.692903604337971"><ele>829.0</ele><time>2026-04-08T09:19:55.999Z</time></trkpt><trkpt lat="40.598947928901154" lon="15.69301079015992"><ele>830.0</ele><time>2026-04-08T09:19:56.999Z</time></trkpt><trkpt lat="40.59879094934685" lon="15.693098567767443"><ele>831.0</ele><time>2026-04-08T09:19:57.999Z</time></trkpt><trkpt lat="40.598634419585466" lon="15.693182380135694"><ele>832.3333333333333</ele><time>2026-04-08T09:19:58.999Z</time></trkpt><trkpt lat="40.598465188531996" lon="15.693274582023381"><ele>833.6666666666666</ele><time>2026-04-08T09:19:59.999Z</time></trkpt><trkpt lat="40.59828699552438" lon="15.693371268309173"><ele>835.0</ele><time>2026-04-08T09:20:00.999Z</time></trkpt><trkpt lat="40.59811942626902" lon="15.693457664423155"><ele>835.0</ele><time>2026-04-08T09:20:01.999Z</time></trkpt><trkpt lat="40.59795834755488" lon="15.693540714135526"><ele>835.0</ele><time>2026-04-08T09:20:02.999Z</time></trkpt><trkpt lat="40.597796496861896" lon="15.693628521651098"><ele>835.0</ele><time>2026-04-08T09:20:03.999Z</time></trkpt><trkpt lat="40.59768567863149" lon="15.693694506531529"><ele>835.8571428571429</ele><time>2026-04-08T09:20:04.999Z</time></trkpt><trkpt lat="40.597605868358215" lon="15.693697162188801"><ele>836.7142857142858</ele><time>2026-04-08T09:20:06.999Z</time></trkpt><trkpt lat="40.597587142924574" lon="15.693615712201305"><ele>837.5714285714287</ele><time>2026-04-08T09:20:07.999Z</time></trkpt><trkpt lat="40.59759601747021" lon="15.693518990744614"><ele>838.4285714285714</ele><time>2026-04-08T09:20:08.999Z</time></trkpt><trkpt lat="40.59760958743285" lon="15.693426654373962"><ele>839.2857142857142</ele><time>2026-04-08T09:20:09.999Z</time></trkpt><trkpt lat="40.59761703084824" lon="15.693332428723156"><ele>840.1428571428572</ele><time>2026-04-08T09:20:10.999Z</time></trkpt><trkpt lat="40.59762034909777" lon="15.693238366938452"><ele>841.0</ele><time>2026-04-08T09:20:11.999Z</time></trkpt><trkpt lat="40.59762258773225" lon="15.69314657082291"><ele>840.9999999999999</ele><time>2026-04-08T09:20:12.999Z</time></trkpt><trkpt lat="40.59762482779341" lon="15.692993420838505"><ele>841.0</ele><time>2026-04-08T09:20:14.999Z</time></trkpt><trkpt lat="40.59773601943498" lon="15.692929033680107"><ele>841.0</ele><time>2026-04-08T09:20:20.999Z</time></trkpt><trkpt lat="40.597804272617736" lon="15.692915250308632"><ele>841.0</ele><time>2026-04-08T09:20:22.999Z</time></trkpt><trkpt lat="40.597737527893074" lon="15.692930898522443"><ele>840.9999999999999</ele><time>2026-04-08T09:21:44.999Z</time></trkpt><trkpt lat="40.59780367543565" lon="15.692968373666716"><ele>841.0</ele><time>2026-04-08T09:21:53.999Z</time></trkpt><trkpt lat="40.59785600739056" lon="15.693022632500488"><ele>835.0</ele><time>2026-04-08T09:21:59.999Z</time></trkpt><trkpt lat="40.597878968029704" lon="15.693100846593076"><ele>835.0</ele><time>2026-04-08T09:22:57Z</time></trkpt><trkpt lat="40.59788158732805" lon="15.693010444703392"><ele>835.0</ele><time>2026-04-08T09:34:16Z</time></trkpt><trkpt lat="40.597806516956204" lon="15.692986317475082"><ele>841.0</ele><time>2026-04-08T09:34:27Z</time></trkpt><trkpt lat="40.59773984136756" lon="15.692969174135332"><ele>841.0</ele><time>2026-04-08T09:34:32Z</time></trkpt><trkpt lat="40.597802239499345" lon="15.69293369863698"><ele>841.0</ele><time>2026-04-08T09:34:42Z</time></trkpt><trkpt lat="40.597851235199066" lon="15.69299338519637"><ele>835.0</ele><time>2026-04-08T09:39:11Z</time></trkpt></trkseg></trk></gpx>